# Wetter Temperatur Luftdruck Luftfeuchtigkeit Sichtweite Windgeschwindigkeit Windrichtung Zeit
1 Clouds 22 1013 88 5000 2.06 20 08:53 14.08.2022
2 Clouds 22 1014 79 10000 3.59 5 06:23 14.08.2022
3 Clouds 23 1014 79 10000 2.73 356 03:48 14.08.2022
4 Clouds 25 1015 80 10000 2.95 348 00:39 14.08.2022
5 Clouds 25 1015 80 10000 3.34 10 22:56 13.08.2022
6 Clouds 25 1012 88 8000 3.09 20 21:47 13.08.2022
7 Clouds 26 1012 78 8000 4.12 20 20:47 13.08.2022
8 Clouds 27 1012 69 8000 5.14 20 19:46 13.08.2022
9 Clouds 28 1012 69 8000 4.12 360 18:19 13.08.2022
10 Clouds 28 1012 65 8000 4.12 20 15:57 13.08.2022
11 Clouds 26 1015 69 8000 2.06 360 14:40 13.08.2022
12 Clouds 26 1013 74 8000 2.06 320 13:46 13.08.2022
13 Clouds 24 1012 83 6000 3.09 20 11:59 13.08.2022
14 Mist 23 1013 88 4000 3.09 60 10:33 13.08.2022
15 Mist 22 1011 94 3000 2.06 20 09:22 13.08.2022
16 Clouds 24 1012 92 10000 3.02 4 05:59 13.08.2022
17 Clouds 24 1012 78 10000 1.79 60 00:44 13.08.2022
18 Clouds 24 1013 78 10000 1.79 60 22:37 12.08.2022
19 Clouds 24 1011 78 8000 4.02 20 21:35 12.08.2022
20 Clouds 25 1011 73 10000 4.12 40 19:46 12.08.2022
21 Clouds 26 1011 73 10000 4.12 40 19:21 12.08.2022
22 Clear 26 1012 69 10000 2.06 60 17:58 12.08.2022
23 Clouds 27 1012 69 10000 4.12 40 16:25 12.08.2022
24 Clouds 26 1014 69 10000 4.12 40 14:50 12.08.2022
25 Clouds 24 1013 78 8000 4.12 40 13:26 12.08.2022
26 Clouds 24 1013 78 6000 3.09 80 11:40 12.08.2022
27 Clear 22 1012 56 6000 2.06 80 08:50 12.08.2022
28 Clouds 22 1013 83 10000 4.56 30 07:45 12.08.2022
29 Clear 23 1014 82 10000 3.96 39 03:56 12.08.2022
30 Clouds 24 1015 79 10000 3.43 35 00:31 12.08.2022
31 Clouds 23 1015 78 10000 3.77 32 23:52 11.08.2022
32 Rain 24 1015 79 10000 2.64 15 22:42 11.08.2022
33 Clouds 23 1014 78 10000 3.09 80 21:52 11.08.2022
34 Clouds 24 1014 78 10000 3.09 80 21:26 11.08.2022
35 Clouds 24 1013 69 10000 4.02 40 20:30 11.08.2022
36 Clouds 24 1013 69 10000 4.12 40 19:33 11.08.2022
37 Clouds 25 1013 65 10000 5.14 40 18:41 11.08.2022
38 Clouds 26 1013 65 10000 4.12 40 16:46 11.08.2022
39 Clouds 26 1014 65 10000 4.12 40 15:42 11.08.2022
40 Clouds 26 1014 65 10000 4.12 40 15:42 11.08.2022
41 Clouds 26 1014 61 10000 4.12 40 14:31 11.08.2022
42 Clouds 24 1015 64 8000 3.09 40 11:53 11.08.2022
43 Clouds 21 1014 83 8000 1.03 20 08:48 11.08.2022
44 Clear 23 1014 69 10000 1.79 20 05:44 11.08.2022
45 Clear 23 1014 69 10000 1.79 20 02:26 11.08.2022
46 Clear 23 1014 69 10000 1.79 20 22:56 10.08.2022
47 Clear 23 1014 69 10000 2.06 20 21:46 10.08.2022
48 Clear 24 1014 64 10000 3.09 20 20:56 10.08.2022
49 Clear 24 1014 64 10000 3.09 20 20:24 10.08.2022
50 Clear 25 1014 61 10000 2.06 20 18:46 10.08.2022
51 Clear 26 1014 57 10000 5.14 20 17:26 10.08.2022
52 Clouds 26 1015 57 10000 4.12 360 14:25 10.08.2022
53 Clouds 25 1015 57 8000 3.09 360 12:54 10.08.2022
54 Clouds 22 1015 68 6000 3.09 360 10:47 10.08.2022
55 Clouds 22 1015 73 6000 3.09 20 08:37 10.08.2022
56 Clouds 21 1015 81 10000 1.23 355 07:23 10.08.2022
57 Clouds 23 1015 69 10000 2.68 360 04:50 10.08.2022
58 Clouds 23 1015 69 10000 2.68 360 00:50 10.08.2022
59 Clouds 23 1015 69 10000 2.68 360 23:29 09.08.2022
60 Clouds 23 1016 69 10000 3.09 360 21:58 09.08.2022
61 Clouds 23 1016 69 10000 3.09 360 21:23 09.08.2022
62 Clouds 25 1015 64 10000 5.14 20 19:18 09.08.2022
63 Clouds 27 1014 53 10000 4.12 360 17:37 09.08.2022
64 Clouds 27 1014 53 10000 4.12 360 17:19 09.08.2022
65 Clouds 26 1015 61 10000 5.14 360 16:23 09.08.2022
66 Clouds 26 1015 61 10000 4.12 360 15:23 09.08.2022
67 Clouds 23 1016 64 8000 2.06 40 11:30 09.08.2022
68 Clouds 22 1015 73 8000 2.06 40 08:53 09.08.2022
69 Clouds 22 1016 78 10000 1.7 6 07:58 09.08.2022
70 Clear 23 1015 80 10000 2.54 11 05:25 09.08.2022
71 Clear 24 1018 69 10000 4.02 20 00:59 09.08.2022
72 Clear 24 1018 69 10000 4.02 20 00:59 09.08.2022
73 Clear 24 1015 69 10000 4.02 20 23:25 08.08.2022
74 Clear 24 1015 69 10000 4.02 20 22:42 08.08.2022
75 Clouds 24 1016 69 10000 4.12 20 21:44 08.08.2022
76 Clouds 24 1015 64 10000 4.12 20 20:39 08.08.2022
77 Clear 25 1014 61 10000 5.14 40 19:39 08.08.2022
78 Clear 25 1014 61 10000 4.92 20 18:18 08.08.2022
79 Clear 26 1015 54 10000 4.12 360 15:54 08.08.2022
80 Clear 26 1015 54 10000 4.12 360 15:36 08.08.2022
81 Clouds 25 1017 57 10000 2.06 20 12:30 08.08.2022
82 Clouds 23 1016 64 8000 2.06 20 10:37 08.08.2022
83 Clouds 22 1016 80 10000 0.87 332 07:59 08.08.2022
84 Clouds 23 1016 73 10000 2.68 20 04:31 08.08.2022
85 Clouds 23 1015 73 10000 2.68 20 00:33 08.08.2022
86 Clouds 23 1015 73 8000 3.09 20 21:42 07.08.2022
87 Clouds 23 1015 73 8000 4.02 360 21:19 07.08.2022
88 Clouds 24 1015 69 8000 4.12 20 20:23 07.08.2022
89 Clouds 25 1015 65 8000 4.12 20 19:52 07.08.2022
90 Clouds 25 1015 65 8000 4.12 20 19:22 07.08.2022
91 Clouds 25 1015 65 8000 4.12 40 17:45 07.08.2022
92 Clouds 26 1016 57 8000 5.14 20 16:52 07.08.2022
93 Clouds 26 1017 61 8000 3.09 40 15:39 07.08.2022
94 Clouds 26 1017 61 8000 3.09 40 13:58 07.08.2022
95 Clouds 24 1017 64 8000 3.09 40 12:41 07.08.2022
96 Clouds 22 1016 73 6000 2.06 20 10:51 07.08.2022
97 Clouds 22 1016 73 6000 2.06 20 10:20 07.08.2022
98 Clear 23 1016 78 10000 2.68 40 04:37 07.08.2022
99 Clear 23 1016 78 10000 2.68 40 02:25 07.08.2022
100 Clear 23 1015 78 10000 2.68 40 22:39 06.08.2022
101 Clear 23 1016 78 10000 2.68 40 22:18 06.08.2022
102 Clouds 24 1015 73 10000 3.09 40 19:46 06.08.2022
103 Clear 26 1016 69 10000 2.68 40 18:50 06.08.2022
104 Clear 26 1016 65 10000 3.09 60 17:48 06.08.2022
105 Clear 26 1016 65 10000 3.09 40 16:29 06.08.2022
106 Clouds 26 1016 65 8000 3.09 60 13:51 06.08.2022
107 Clouds 25 1016 65 8000 3.09 40 12:38 06.08.2022
108 Clouds 24 1016 69 8000 3.09 60 11:21 06.08.2022
109 Clouds 22 1016 88 6000 2.06 80 09:41 06.08.2022
110 Clouds 21 1015 87 10000 2.45 25 07:28 06.08.2022
111 Clear 23 1014 78 10000 2.68 20 01:47 06.08.2022
112 Clear 23 1014 78 10000 2.68 20 22:36 05.08.2022
113 Clouds 23 1014 78 10000 3.09 20 21:18 05.08.2022
114 Clouds 26 1014 69 10000 3.09 20 19:20 05.08.2022
115 Clouds 26 1014 69 10000 4.12 20 18:44 05.08.2022
116 Clouds 26 1014 65 10000 4.12 20 16:53 05.08.2022
117 Clouds 26 1014 65 10000 4.12 20 15:55 05.08.2022
118 Clouds 26 1014 65 8000 3.09 20 14:54 05.08.2022
119 Clouds 26 1015 61 8000 4.12 360 13:39 05.08.2022
120 Clouds 26 1015 61 8000 4.12 360 13:19 05.08.2022
121 Clouds 26 1014 65 8000 2.06 60 11:58 05.08.2022
122 Clouds 23 1014 73 6000 3.09 20 10:24 05.08.2022
123 Clouds 21 1014 86 10000 1.91 23 07:58 05.08.2022
124 Clear 23 1012 78 10000 2.68 20 05:20 05.08.2022
125 Clear 23 1012 78 10000 2.68 20 23:49 04.08.2022
126 Clouds 23 1012 78 10000 3.09 20 21:37 04.08.2022
127 Clouds 23 1012 78 10000 3.09 20 21:18 04.08.2022
128 Clouds 24 1012 73 10000 4.12 20 20:38 04.08.2022
129 Clouds 25 1012 69 10000 4.12 20 19:21 04.08.2022
130 Clouds 25 1012 69 10000 4.12 360 18:34 04.08.2022
131 Clouds 26 1012 65 10000 4.12 360 16:54 04.08.2022
132 Clear 25 1013 69 10000 2.06 60 13:34 04.08.2022
133 Clouds 23 1013 69 10000 3.09 40 11:42 04.08.2022
134 Clouds 22 1013 73 8000 2.06 20 10:27 04.08.2022
135 Clear 22 1013 85 10000 1.66 357 07:50 04.08.2022
136 Clear 23 1012 78 10000 4.92 20 03:33 04.08.2022
137 Clear 23 1012 78 10000 4.92 20 01:58 04.08.2022
138 Clear 23 1012 78 10000 4.92 20 23:42 03.08.2022
139 Clear 23 1012 78 10000 5.14 20 21:39 03.08.2022
140 Clear 24 1012 73 10000 4.12 20 20:22 03.08.2022
141 Clear 26 1012 73 10000 5.14 20 19:28 03.08.2022
142 Clear 26 1025 69 10000 4.12 40 17:41 03.08.2022
143 Clear 26 1012 65 10000 4.12 20 16:24 03.08.2022
144 Clear 26 1013 65 8000 3.09 20 14:25 03.08.2022
145 Clouds 25 1013 78 6000 4.12 360 11:47 03.08.2022
146 Clear 24 1013 90 10000 2.25 10 07:55 03.08.2022
147 Clouds 25 1011 88 10000 4.02 40 04:46 03.08.2022
148 Clear 25 1011 88 10000 4.02 40 03:27 03.08.2022
149 Clear 25 1011 88 10000 4.02 40 01:18 03.08.2022
150 Clear 25 1011 88 10000 4.02 40 22:59 02.08.2022
151 Clouds 25 1011 88 8000 4.12 40 21:53 02.08.2022
152 Clouds 26 1011 83 8000 4.12 40 20:58 02.08.2022
153 Clear 29 1011 74 8000 4.12 20 18:48 02.08.2022
154 Clear 28 1012 74 6000 4.12 60 16:24 02.08.2022
155 Clouds 28 1013 69 6000 2.06 20 12:34 02.08.2022
156 Mist 23 1012 94 2000 1.03 60 09:34 02.08.2022
157 Clear 23 1013 92 10000 3.52 33 07:54 02.08.2022
158 Clear 23 1012 91 10000 3.78 35 06:43 02.08.2022
159 Clouds 26 1012 83 10000 1.79 60 04:55 02.08.2022
160 Clear 26 1012 83 10000 1.79 60 23:52 01.08.2022
161 Clear 26 1012 83 10000 1.79 60 22:36 01.08.2022
162 Clouds 27 1012 78 8000 4.12 40 20:53 01.08.2022
163 Clear 28 1012 78 8000 4.12 20 19:32 01.08.2022
164 Clear 29 1012 74 8000 4.12 40 18:42 01.08.2022
165 Clear 29 1012 74 8000 4.12 40 18:42 01.08.2022
166 Clear 30 1018 70 8000 4.12 40 16:54 01.08.2022
167 Clear 30 1018 70 8000 4.12 40 16:28 01.08.2022
168 Clear 30 1013 66 6000 3.09 20 15:30 01.08.2022
169 Clear 30 1013 66 8000 3.09 360 14:43 01.08.2022
170 Clouds 28 1013 69 6000 2.06 360 12:51 01.08.2022
171 Mist 24 1013 88 3000 3.09 80 10:29 01.08.2022
172 Mist 24 1014 94 3000 2.06 60 08:39 01.08.2022
173 Clouds 23 1013 92 10000 1.95 14 06:21 01.08.2022
174 Clear 24 1012 88 10000 0.89 80 04:20 01.08.2022
175 Clouds 24 1012 88 10000 0.89 80 00:49 01.08.2022
176 Clear 25 1012 88 10000 0.89 80 22:41 31.07.2022
177 Clouds 25 1012 88 8000 1.03 80 21:35 31.07.2022
178 Clouds 26 1012 83 8000 3.09 60 19:58 31.07.2022
179 Clouds 27 1013 83 8000 5.14 40 18:36 31.07.2022
180 Clouds 28 1013 78 6000 3.09 40 15:54 31.07.2022
181 Clouds 28 1014 74 8000 2.06 360 13:51 31.07.2022
182 Clear 27 1014 69 8000 2.06 360 12:28 31.07.2022
183 Mist 23 1014 88 3000 2.06 20 10:22 31.07.2022
184 Mist 23 1013 94 3000 1.03 20 08:18 31.07.2022
185 Clear 25 1013 78 10000 2.68 60 03:49 31.07.2022
186 Clear 25 1013 78 10000 2.68 60 00:23 31.07.2022
187 Clear 25 1013 78 10000 2.68 60 22:19 30.07.2022
188 Clear 25 1013 78 10000 2.68 60 22:19 30.07.2022
189 Clouds 25 1013 78 8000 3.09 60 21:50 30.07.2022
190 Clouds 25 1012 78 8000 3.09 40 20:58 30.07.2022
191 Clouds 26 1012 74 8000 4.12 40 19:59 30.07.2022
192 Clouds 26 1012 74 8000 4.12 40 19:20 30.07.2022
193 Clouds 27 1013 69 8000 3.09 40 17:45 30.07.2022
194 Clouds 26 1013 74 8000 4.12 360 15:55 30.07.2022
195 Clouds 26 1013 74 8000 4.12 360 15:25 30.07.2022
196 Clouds 26 1014 69 8000 3.09 360 13:21 30.07.2022
197 Clouds 26 1014 73 6000 3.09 20 12:20 30.07.2022
198 Clouds 23 1014 83 6000 2.06 40 10:36 30.07.2022
199 Clouds 22 1014 88 6000 3.09 20 09:57 30.07.2022
200 Clear 22 1014 83 10000 1.98 20 07:55 30.07.2022
201 Clear 22 1014 83 10000 1.75 8 05:29 30.07.2022
202 Clear 22 1014 82 10000 1.04 344 02:31 30.07.2022
203 Clouds 24 1015 81 10000 2.96 345 22:54 29.07.2022
204 Clouds 24 1013 78 8000 4.02 20 21:28 29.07.2022
205 Clouds 24 1013 78 8000 4.12 20 20:50 29.07.2022
206 Clouds 26 1013 73 8000 4.12 360 18:27 29.07.2022
207 Clouds 26 1014 69 8000 5.14 360 16:43 29.07.2022
208 Clouds 26 1014 65 8000 2.06 340 13:46 29.07.2022
209 Clouds 25 1014 69 8000 2.06 320 11:34 29.07.2022
210 Clouds 22 1013 78 8000 2.06 300 08:51 29.07.2022
211 Clouds 22 1013 78 8000 2.06 300 08:21 29.07.2022
212 Clear 24 1013 78 10000 4.02 20 02:52 29.07.2022
213 Clear 24 1013 78 10000 4.02 20 23:20 28.07.2022
214 Clouds 24 1013 78 10000 4.12 20 21:30 28.07.2022
215 Clouds 25 1012 73 10000 4.12 20 20:50 28.07.2022
216 Clear 25 1012 69 10000 3.09 20 19:58 28.07.2022
217 Clear 25 1012 69 10000 2.68 20 19:26 28.07.2022
218 Clear 26 1012 61 10000 4.12 20 17:45 28.07.2022
219 Clear 26 1013 61 10000 4.12 20 17:19 28.07.2022
220 Clear 26 1013 61 10000 4.12 340 16:39 28.07.2022
221 Clouds 26 1013 61 10000 3.09 320 13:47 28.07.2022
222 Clear 22 1014 68 10000 1.79 360 11:43 28.07.2022
223 Clear 21 1014 82 10000 2.12 341 06:59 28.07.2022
224 Clear 23 1014 73 10000 4.02 20 05:33 28.07.2022
225 Clear 23 1014 73 10000 4.02 20 03:53 28.07.2022
226 Clear 23 1014 73 10000 4.02 20 22:56 27.07.2022
227 Clouds 23 1015 73 10000 4.12 20 21:29 27.07.2022
228 Clouds 25 1014 65 10000 5.14 20 19:46 27.07.2022
229 Clouds 25 1014 65 10000 5.14 20 18:41 27.07.2022
230 Clouds 26 1016 65 10000 4.12 20 16:31 27.07.2022
231 Clouds 26 1016 65 10000 4.12 20 15:40 27.07.2022
232 Clouds 26 1017 65 10000 4.12 20 14:41 27.07.2022
233 Clouds 26 1017 65 10000 3.09 20 13:29 27.07.2022
234 Clouds 22 1017 83 8000 3.09 40 09:27 27.07.2022
235 Clouds 21 1017 84 10000 3.7 356 07:40 27.07.2022
236 Clouds 26 1016 69 10000 2.68 40 02:52 27.07.2022
237 Clear 26 1016 69 10000 2.68 40 22:47 26.07.2022
238 Clear 26 1016 69 10000 3.09 40 21:25 26.07.2022
239 Clear 30 1015 42 10000 3.09 60 20:49 26.07.2022
240 Clear 28 1016 65 10000 5.14 40 18:46 26.07.2022
241 Clear 29 1016 63 10000 5.14 40 18:28 26.07.2022
242 Clear 31 1016 55 10000 4.12 20 16:54 26.07.2022
243 Clear 31 1017 55 10000 4.12 40 15:43 26.07.2022
244 Clear 30 1017 55 10000 2.68 20 14:00 26.07.2022
245 Clear 27 1017 69 8000 2.06 20 11:47 26.07.2022
246 Clear 27 1017 69 8000 2.06 20 11:47 26.07.2022
247 Clear 24 1016 83 6000 2.06 360 09:35 26.07.2022
248 Clouds 21 1016 71 10000 3.05 350 08:18 26.07.2022
249 Clouds 28 1017 63 10000 1.46 351 01:44 26.07.2022
250 Clouds 29 1015 51 10000 4.02 40 23:37 25.07.2022
251 Clouds 29 1015 51 10000 4.02 40 22:33 25.07.2022
252 Clouds 29 1015 51 8000 4.12 40 21:43 25.07.2022
253 Clouds 31 1015 45 8000 3.09 20 20:42 25.07.2022
254 Clouds 31 1014 45 8000 4.12 40 19:51 25.07.2022
255 Clouds 31 1015 55 8000 4.12 40 18:23 25.07.2022
256 Clouds 32 1015 52 8000 4.12 20 17:34 25.07.2022
257 Clear 33 1015 46 8000 4.12 20 16:40 25.07.2022
258 Clouds 31 1016 58 8000 1.03 40 12:47 25.07.2022
259 Clouds 28 1015 65 6000 1.03 320 10:42 25.07.2022
260 Clouds 25 1014 68 10000 1 347 06:52 25.07.2022
261 Clouds 30 1013 51 10000 2.68 80 23:57 24.07.2022
262 Clouds 29 1013 51 10000 2.68 80 23:22 24.07.2022
263 Clouds 29 1013 51 10000 2.68 80 22:41 24.07.2022
264 Clear 29 1013 51 10000 3.09 80 21:30 24.07.2022
265 Clear 29 1012 61 10000 4.12 60 20:57 24.07.2022
266 Clear 29 1012 61 10000 4.12 60 20:32 24.07.2022
267 Clear 31 1012 58 10000 5.14 80 18:59 24.07.2022
268 Clear 31 1013 62 10000 4.12 40 16:53 24.07.2022
269 Clear 31 1013 62 10000 4.12 40 15:53 24.07.2022
270 Clear 32 1013 55 10000 5.14 20 14:41 24.07.2022
271 Clear 32 1013 48 10000 3.09 40 13:43 24.07.2022
272 Clouds 30 1013 61 8000 4.12 80 12:19 24.07.2022
273 Clouds 27 1014 74 8000 3.09 360 11:28 24.07.2022
274 Clouds 25 1013 83 6000 1.03 0 09:33 24.07.2022
275 Clouds 24 1013 78 10000 2.43 15 07:53 24.07.2022
276 Clouds 26 1012 75 10000 2.72 357 06:39 24.07.2022
277 Clouds 27 1013 78 10000 1.79 60 02:41 24.07.2022
278 Clouds 27 1013 78 10000 1.79 60 22:37 23.07.2022
279 Clear 28 1013 74 10000 2.06 60 20:47 23.07.2022
280 Clear 31 1013 66 10000 3.09 20 18:55 23.07.2022
281 Clear 31 1013 66 10000 4.12 20 17:48 23.07.2022
282 Clear 31 1013 66 10000 4.12 20 17:24 23.07.2022
283 Clear 31 1015 62 10000 3.09 20 15:55 23.07.2022
284 Clear 31 1014 62 10000 3.09 20 15:21 23.07.2022
285 Clear 31 1014 62 8000 2.06 20 14:50 23.07.2022
286 Clear 31 1014 62 8000 2.06 340 13:54 23.07.2022
287 Clear 29 1014 69 6000 2.06 360 11:48 23.07.2022
288 Clouds 25 1014 88 6000 2.06 360 10:36 23.07.2022
289 Mist 24 1014 88 3000 1.03 80 09:28 23.07.2022
290 Clear 24 1013 86 10000 2.33 53 06:40 23.07.2022
291 Clear 23 1014 85 10000 3.35 2 03:37 23.07.2022
292 Clear 31 1014 71 10000 2.41 357 23:59 22.07.2022
293 Clouds 29 1012 69 8000 3.09 40 21:28 22.07.2022
294 Clouds 30 1012 65 8000 3.09 40 19:58 22.07.2022
295 Clear 38 1012 66 10000 3.9 6 18:41 22.07.2022
296 Clouds 31 1012 70 8000 3.09 60 17:38 22.07.2022
297 Clouds 31 1013 65 8000 3.09 20 15:35 22.07.2022
298 Clouds 28 1014 70 6000 2.06 60 12:41 22.07.2022
299 Mist 24 1014 83 3000 2.06 60 09:52 22.07.2022
300 Mist 24 1014 83 3000 2.06 60 09:20 22.07.2022
301 Clouds 23 1014 91 10000 3.75 35 07:30 22.07.2022
302 Clouds 24 1014 81 10000 2.52 40 04:19 22.07.2022
303 Clouds 26 1013 74 10000 2.68 80 23:29 21.07.2022
304 Clouds 27 1013 71 10000 4.02 40 21:39 21.07.2022
305 Clouds 28 1013 69 10000 5.14 40 19:41 21.07.2022
306 Clouds 28 1013 69 10000 5.14 40 18:29 21.07.2022
307 Clouds 29 1014 69 10000 4.12 40 17:21 21.07.2022
308 Clear 30 1014 58 10000 4.12 20 15:58 21.07.2022
309 Clear 30 1014 54 10000 4.12 40 14:46 21.07.2022
310 Clear 30 1015 54 10000 3.09 60 13:49 21.07.2022
311 Clouds 26 1014 69 10000 2.06 60 11:54 21.07.2022
312 Clouds 23 1014 88 10000 2.06 80 09:54 21.07.2022
313 Clouds 23 1014 83 10000 2.06 80 08:53 21.07.2022
314 Clouds 24 1015 76 10000 3.77 41 07:50 21.07.2022
315 Clouds 24 1014 76 10000 4.11 32 06:27 21.07.2022
316 Clouds 26 1014 74 10000 2.68 60 02:35 21.07.2022
317 Clouds 26 1014 74 10000 2.68 60 22:46 20.07.2022
318 Clear 26 1014 74 10000 2.68 60 22:18 20.07.2022
319 Clear 27 1014 65 10000 3.09 40 20:46 20.07.2022
320 Clear 27 1014 65 10000 4.12 40 19:46 20.07.2022
321 Clear 28 1014 61 10000 4.12 20 18:53 20.07.2022
322 Clear 29 1014 61 10000 4.12 20 18:30 20.07.2022
323 Clear 29 1014 58 10000 5.14 40 17:24 20.07.2022
324 Clear 30 1015 51 10000 4.12 40 15:33 20.07.2022
325 Clear 30 1015 48 10000 4.12 40 14:36 20.07.2022
326 Clear 28 1015 54 10000 2.06 40 12:51 20.07.2022
327 Clear 24 1015 69 8000 1.03 60 10:29 20.07.2022
328 Clear 22 1015 83 10000 3.68 36 06:21 20.07.2022
329 Clear 24 1015 78 10000 5.81 40 01:40 20.07.2022
330 Clear 24 1015 78 10000 5.81 40 00:41 20.07.2022
331 Clear 24 1015 78 10000 5.81 40 22:35 19.07.2022
332 Clouds 24 1015 78 10000 6.17 40 21:54 19.07.2022
333 Clouds 25 1015 73 10000 4.12 40 20:49 19.07.2022
334 Clear 26 1015 69 10000 4.12 40 19:22 19.07.2022
335 Clear 26 1015 69 10000 5.14 40 18:41 19.07.2022
336 Clear 26 1016 69 10000 6.17 40 17:53 19.07.2022
337 Clear 26 1016 65 10000 5.14 60 15:27 19.07.2022
338 Clouds 28 1017 58 8000 3.09 40 13:33 19.07.2022
339 Clouds 24 1017 73 8000 3.09 100 11:33 19.07.2022
340 Clouds 22 1017 83 6000 2.06 40 09:52 19.07.2022
341 Clouds 22 1017 83 6000 2.06 20 08:47 19.07.2022
342 Clear 22 1017 85 10000 4.57 34 07:46 19.07.2022
343 Clear 22 1017 85 10000 4.7 26 07:18 19.07.2022
344 Clear 23 1016 78 10000 4.02 60 05:18 19.07.2022
345 Clear 23 1016 78 10000 4.02 60 03:40 19.07.2022
346 Clear 23 1016 78 10000 4.02 60 23:57 18.07.2022
347 Clear 23 1016 78 10000 4.02 60 23:20 18.07.2022
348 Clear 23 1016 78 10000 4.02 60 22:27 18.07.2022
349 Clouds 23 1015 78 8000 4.12 60 21:24 18.07.2022
350 Clouds 24 1016 73 8000 4.12 40 20:45 18.07.2022
351 Clouds 25 1016 69 8000 4.12 40 18:50 18.07.2022
352 Clouds 26 1016 69 8000 5.14 20 16:45 18.07.2022
353 Clouds 26 1017 69 8000 5.14 20 15:34 18.07.2022
354 Clouds 26 1017 69 8000 4.12 20 13:32 18.07.2022
355 Clouds 25 1017 69 8000 4.12 40 12:21 18.07.2022
356 Clouds 23 1016 73 6000 3.09 40 09:56 18.07.2022
357 Clouds 22 1016 78 6000 3.09 40 08:19 18.07.2022
358 Clear 23 1016 78 10000 2.68 20 05:35 18.07.2022
359 Clouds 23 1016 78 10000 2.68 20 23:19 17.07.2022
360 Clouds 23 1016 78 10000 2.68 20 22:32 17.07.2022
361 Clouds 23 1016 78 8000 3.09 20 21:40 17.07.2022
362 Clouds 24 1015 73 8000 3.09 360 20:46 17.07.2022
363 Clouds 24 1015 73 8000 3.09 360 20:18 17.07.2022
364 Clouds 24 1015 73 8000 3.09 20 19:25 17.07.2022
365 Clouds 26 1015 69 8000 4.12 40 17:55 17.07.2022
366 Clouds 26 1015 69 8000 4.12 40 17:36 17.07.2022
367 Clouds 26 1015 65 8000 5.14 360 16:49 17.07.2022
368 Clouds 26 1015 65 8000 5.14 360 16:24 17.07.2022
369 Clouds 26 1015 69 8000 3.09 20 13:58 17.07.2022
370 Clouds 26 1015 69 8000 3.09 20 13:24 17.07.2022
371 Clouds 23 1015 78 6000 2.06 20 10:23 17.07.2022
372 Clouds 22 1014 83 6000 2.06 40 08:38 17.07.2022
373 Clouds 24 1012 78 10000 4.02 20 02:36 17.07.2022
374 Clear 24 1012 78 10000 4.02 20 00:41 17.07.2022
375 Clear 24 1012 78 10000 4.02 20 23:18 16.07.2022
376 Clouds 24 1012 78 8000 4.12 360 20:53 16.07.2022
377 Clouds 26 1012 73 10000 4.12 360 18:59 16.07.2022
378 Clouds 26 1012 69 10000 4.12 20 17:48 16.07.2022
379 Clouds 26 1013 65 10000 5.14 20 16:24 16.07.2022
380 Clouds 26 1013 65 10000 3.09 320 13:47 16.07.2022
381 Clouds 23 1013 78 8000 1.03 280 10:35 16.07.2022
382 Clouds 22 1013 78 6000 1.03 20 09:29 16.07.2022
383 Clouds 22 1013 83 6000 1.03 360 08:42 16.07.2022
384 Clouds 22 1014 87 10000 1.63 298 07:41 16.07.2022
385 Clouds 23 1012 83 10000 2.68 20 03:39 16.07.2022
386 Clear 23 1012 83 10000 2.68 20 01:59 16.07.2022
387 Clear 23 1012 83 10000 2.68 20 23:21 15.07.2022
388 Clear 23 1012 83 10000 2.68 20 22:37 15.07.2022
389 Clouds 23 1012 83 6000 3.09 20 21:18 15.07.2022
390 Clouds 24 1012 78 6000 5.14 340 19:51 15.07.2022
391 Clouds 26 1012 73 8000 5.14 360 18:32 15.07.2022
392 Clear 26 1012 74 10000 4.12 340 17:25 15.07.2022
393 Clear 28 1013 65 10000 3.09 340 14:35 15.07.2022
394 Clear 26 1013 69 8000 2.06 340 12:43 15.07.2022
395 Clouds 23 1013 78 6000 2.06 320 10:53 15.07.2022
396 Clouds 22 1012 83 6000 1.03 0 08:42 15.07.2022
397 Clouds 22 1012 89 10000 3.44 264 05:55 15.07.2022
398 Clear 23 1014 88 10000 3.47 264 00:51 15.07.2022
399 Clear 24 1014 84 10000 3.66 260 23:25 14.07.2022
400 Clear 24 1014 84 10000 3.66 260 22:42 14.07.2022
401 Clouds 24 1012 83 8000 4.02 320 21:42 14.07.2022
402 Clouds 24 1012 83 8000 4.02 320 21:24 14.07.2022
403 Clouds 24 1012 83 8000 4.12 320 20:43 14.07.2022
404 Clouds 24 1012 83 8000 4.12 320 20:43 14.07.2022
405 Clouds 24 1012 83 8000 4.12 320 20:19 14.07.2022
406 Clouds 26 1012 74 10000 4.12 360 18:38 14.07.2022
407 Clouds 28 1013 72 8000 4.12 20 16:21 14.07.2022
408 Clouds 28 1014 74 8000 4.12 20 15:26 14.07.2022
409 Clouds 27 1014 69 6000 3.09 40 13:52 14.07.2022
410 Clouds 26 1014 74 6000 3.09 20 12:40 14.07.2022
411 Clouds 26 1014 78 6000 3.09 60 11:41 14.07.2022
412 Clouds 25 1014 78 6000 3.09 60 11:21 14.07.2022
413 Clouds 23 1014 88 6000 2.06 40 09:49 14.07.2022
414 Clouds 25 1015 78 10000 2.68 340 05:20 14.07.2022
415 Clouds 25 1016 78 10000 2.68 340 01:22 14.07.2022
416 Clouds 25 1016 78 10000 2.68 340 00:52 14.07.2022
417 Clouds 27 1017 70 10000 2.17 278 22:32 13.07.2022
418 Clouds 26 1015 78 8000 3.09 340 21:54 13.07.2022
419 Clouds 26 1015 78 8000 3.09 340 20:45 13.07.2022
420 Clouds 27 1014 73 8000 3.09 340 19:19 13.07.2022
421 Clouds 28 1015 69 8000 4.12 20 17:35 13.07.2022
422 Clouds 29 1015 65 8000 3.09 340 16:23 13.07.2022
423 Clouds 28 1015 69 8000 3.09 340 15:24 13.07.2022
424 Clouds 28 1015 65 6000 2.06 360 12:39 13.07.2022
425 Clouds 24 1015 78 6000 2.06 220 10:45 13.07.2022
426 Clouds 22 1015 88 6000 2.06 360 09:57 13.07.2022
427 Clouds 22 1015 88 6000 2.06 360 09:21 13.07.2022
428 Clear 22 1014 83 10000 2.06 321 05:52 13.07.2022
429 Clouds 24 1017 78 10000 2.68 360 01:27 13.07.2022
430 Clouds 24 1014 78 10000 2.68 360 23:39 12.07.2022
431 Clouds 24 1014 78 6000 3.09 360 21:54 12.07.2022
432 Clouds 25 1015 75 6000 4.02 340 21:18 12.07.2022
433 Clouds 25 1014 73 8000 4.12 340 20:41 12.07.2022
434 Clouds 26 1014 73 8000 4.12 320 19:25 12.07.2022
435 Clouds 27 1013 65 8000 4.12 20 17:49 12.07.2022
436 Clouds 27 1013 65 8000 4.12 340 15:43 12.07.2022
437 Clouds 26 1014 69 8000 3.09 340 14:23 12.07.2022
438 Clouds 26 1013 73 8000 2.57 320 12:19 12.07.2022
439 Clouds 24 1012 73 8000 2.06 180 10:51 12.07.2022
440 Clouds 22 1011 83 5000 2.06 240 09:28 12.07.2022
441 Clouds 22 1011 83 5000 2.06 240 08:18 12.07.2022
442 Clouds 22 1009 85 10000 2.84 265 06:24 12.07.2022
443 Clouds 25 1009 83 10000 4.02 320 05:39 12.07.2022
444 Clouds 25 1009 83 10000 4.02 320 01:57 12.07.2022
445 Clouds 25 1009 83 10000 4.02 320 01:57 12.07.2022
446 Clouds 25 1009 83 10000 4.02 320 01:57 12.07.2022
447 Clouds 25 1009 83 10000 4.02 320 22:59 11.07.2022
448 Clouds 25 1009 83 10000 4.12 320 21:45 11.07.2022
449 Clear 26 1008 78 10000 4.12 360 20:33 11.07.2022
450 Clear 29 1008 69 10000 4.12 360 19:33 11.07.2022
451 Clear 31 1008 58 10000 4.12 360 18:32 11.07.2022
452 Clear 30 1008 58 10000 4.12 340 17:36 11.07.2022
453 Clear 32 1008 43 10000 3.09 360 16:18 11.07.2022
454 Clear 31 1009 51 10000 4.12 340 14:32 11.07.2022
455 Clear 26 1009 73 6000 1.03 0 11:40 11.07.2022
456 Mist 23 1009 94 4000 1.03 360 10:22 11.07.2022
457 Mist 22 1009 94 2000 1.03 0 09:42 11.07.2022
458 Mist 20 1009 100 2000 1.03 0 08:33 11.07.2022
459 Clear 26 1011 74 10000 1.79 20 04:34 11.07.2022
460 Clear 27 1011 74 10000 1.79 20 00:20 11.07.2022
461 Clear 27 1011 74 10000 1.79 20 22:56 10.07.2022
462 Clouds 27 1011 74 8000 2.06 20 21:41 10.07.2022
463 Clouds 29 1011 58 8000 2.06 40 20:54 10.07.2022
464 Clouds 30 1011 54 8000 2.06 20 19:50 10.07.2022
465 Clouds 31 1011 55 8000 2.06 360 18:48 10.07.2022
466 Clouds 29 1012 65 8000 3.09 360 17:37 10.07.2022
467 Clouds 33 1012 49 8000 3.09 360 16:45 10.07.2022
468 Clouds 36 1012 24 8000 4.12 360 15:28 10.07.2022
469 Clear 33 1012 46 8000 2.06 20 14:21 10.07.2022
470 Clear 31 1012 48 8000 1.03 160 12:28 10.07.2022
471 Mist 23 1013 88 4000 1.03 220 10:20 10.07.2022
472 Fog 20 1013 100 800 1.03 200 08:45 10.07.2022
473 Fog 20 1013 100 800 1.03 200 08:45 10.07.2022
474 Clouds 18 1012 81 10000 1.22 286 07:39 10.07.2022
475 Clear 23 1013 67 10000 2.86 307 02:47 10.07.2022
476 Clear 29 1014 61 10000 0.5 51 22:51 09.07.2022
477 Clear 31 1014 61 10000 1.45 18 22:24 09.07.2022
478 Clear 30 1013 48 10000 2.06 80 20:50 09.07.2022
479 Clear 32 1013 38 10000 3.09 40 18:43 09.07.2022
480 Clear 31 1014 45 10000 3.09 40 17:45 09.07.2022
481 Clear 32 1014 45 10000 2.06 60 16:44 09.07.2022
482 Clear 31 1015 51 10000 3.09 40 15:41 09.07.2022
483 Clear 31 1015 55 10000 3.09 40 14:43 09.07.2022
484 Clear 31 1015 55 10000 2.06 20 13:51 09.07.2022
485 Clear 31 1015 51 8000 1.03 0 12:48 09.07.2022
486 Clear 27 1015 69 6000 1.9 309 11:32 09.07.2022
487 Mist 23 1015 94 4000 1.03 0 10:23 09.07.2022
488 Clear 18 1015 79 10000 1.85 261 07:54 09.07.2022
489 Clear 21 1015 81 10000 1.27 266 05:37 09.07.2022
490 Clear 23 1015 76 10000 1.84 297 03:29 09.07.2022
491 Clear 27 1015 61 10000 2.68 60 23:18 08.07.2022
492 Clear 27 1015 61 10000 2.68 60 23:18 08.07.2022
493 Clear 27 1015 61 10000 3.09 60 21:59 08.07.2022
494 Clear 30 1015 45 10000 3.09 60 20:55 08.07.2022
495 Clear 30 1015 45 10000 3.09 60 20:24 08.07.2022
496 Clear 29 1016 58 10000 2.68 40 18:29 08.07.2022
497 Clear 29 1016 58 10000 3.09 40 17:25 08.07.2022
498 Clear 29 1016 69 5000 2.06 360 14:55 08.07.2022
499 Clear 28 1017 69 6000 2.06 340 13:56 08.07.2022
500 Clear 27 1017 69 6000 2.06 320 12:28 08.07.2022
501 Clear 24 1017 78 5000 0 0 10:45 08.07.2022
502 Mist 21 1017 94 3000 1.03 60 08:51 08.07.2022
503 Clear 21 1016 94 10000 2.89 17 06:54 08.07.2022
504 Clear 24 1017 78 10000 2.68 20 02:53 08.07.2022
505 Clear 24 1017 78 10000 2.68 20 23:41 07.07.2022
506 Clear 24 1017 78 10000 2.68 20 22:40 07.07.2022
507 Clouds 24 1017 78 8000 3.09 20 20:56 07.07.2022
508 Clear 26 1017 73 8000 4.12 20 18:37 07.07.2022
509 Clear 26 1018 73 8000 4.12 40 17:19 07.07.2022
510 Clouds 26 1019 69 8000 4.12 40 15:18 07.07.2022
511 Clouds 26 1019 69 8000 4.12 60 13:25 07.07.2022
512 Clouds 25 1019 69 8000 4.12 60 12:37 07.07.2022
513 Clouds 25 1019 69 8000 4.12 60 12:18 07.07.2022
514 Clouds 23 1019 69 8000 3.09 40 11:29 07.07.2022
515 Clouds 22 1019 78 6000 3.09 80 10:42 07.07.2022
516 Clouds 22 1018 78 6000 3.09 80 10:24 07.07.2022
517 Clear 19 1017 82 10000 3.63 44 07:22 07.07.2022
518 Clear 22 1018 78 10000 4.02 60 02:55 07.07.2022
519 Clear 22 1021 78 10000 4.02 60 23:37 06.07.2022
520 Clear 22 1021 78 10000 4.02 60 23:18 06.07.2022
521 Clear 22 1018 78 10000 4.02 60 22:53 06.07.2022
522 Clear 22 1018 78 10000 4.02 60 22:34 06.07.2022
523 Clouds 22 1018 78 10000 5.14 40 20:54 06.07.2022
524 Clouds 24 1018 66 10000 6.17 40 19:35 06.07.2022
525 Clear 25 1018 64 10000 5.14 40 17:32 06.07.2022
526 Clear 25 1019 64 10000 5.14 20 15:59 06.07.2022
527 Clouds 24 1020 64 10000 4.12 60 14:33 06.07.2022
528 Clouds 24 1020 68 10000 3.09 20 12:31 06.07.2022
529 Clouds 23 1020 73 8000 3.09 80 11:45 06.07.2022
530 Clouds 21 1020 78 6000 2.06 100 10:18 06.07.2022
531 Clear 21 1018 85 10000 4.12 43 07:44 06.07.2022
532 Clear 21 1018 85 10000 4.12 43 07:44 06.07.2022
533 Clear 20 1018 85 10000 3.72 44 07:20 06.07.2022
534 Clouds 21 1020 80 10000 3.28 11 01:42 06.07.2022
535 Clouds 22 1020 76 10000 2.95 6 22:45 05.07.2022
536 Clouds 22 1019 68 10000 3.09 20 21:32 05.07.2022
537 Clouds 22 1019 68 10000 3.09 20 21:32 05.07.2022
538 Clouds 23 1019 64 10000 4.12 20 20:38 05.07.2022
539 Clouds 24 1019 64 10000 4.12 40 19:41 05.07.2022
540 Clouds 24 1019 64 10000 4.12 20 18:26 05.07.2022
541 Clouds 25 1019 60 10000 3.09 20 17:41 05.07.2022
542 Clouds 25 1019 60 10000 2.06 20 16:39 05.07.2022
543 Clouds 25 1019 60 10000 2.06 20 15:24 05.07.2022
544 Clouds 22 1020 73 8000 2.06 60 13:47 05.07.2022
545 Clouds 21 1020 73 8000 2.06 20 12:42 05.07.2022
546 Clouds 20 1019 77 8000 2.06 360 10:46 05.07.2022
547 Clouds 20 1019 77 8000 2.06 360 10:25 05.07.2022
548 Clouds 20 1019 77 6000 2.06 40 08:25 05.07.2022
549 Clouds 21 1018 79 10000 3.41 23 07:31 05.07.2022
550 Clouds 21 1018 77 10000 2.68 20 04:46 05.07.2022
551 Clear 21 1018 84 10000 3.74 0 02:48 05.07.2022
552 Clouds 21 1019 81 10000 3.14 3 23:42 04.07.2022
553 Clear 22 1019 80 10000 3.58 26 22:59 04.07.2022
554 Clouds 22 1018 77 10000 3.6 16 22:20 04.07.2022
555 Clouds 23 1018 73 8000 3.09 40 20:59 04.07.2022
556 Clouds 23 1018 73 8000 3.09 40 20:38 04.07.2022
557 Clouds 23 1018 73 8000 3.09 40 20:18 04.07.2022
558 Clouds 23 1018 68 8000 3.09 60 19:43 04.07.2022
559 Clouds 23 1018 68 8000 3.09 60 19:24 04.07.2022
560 Clouds 23 1018 69 10000 5.14 20 17:23 04.07.2022
561 Clouds 23 1019 64 10000 5.14 40 15:41 04.07.2022
562 Clouds 23 1019 69 10000 4.12 80 14:39 04.07.2022
563 Clouds 22 1019 73 8000 4.12 60 13:20 04.07.2022
564 Clouds 21 1019 77 8000 3.09 60 11:43 04.07.2022
565 Clouds 21 1021 73 8000 2.06 60 10:33 04.07.2022
566 Clouds 21 1019 73 8000 3.09 40 09:33 04.07.2022
567 Clear 21 1018 84 10000 3.03 31 06:42 04.07.2022
568 Clear 22 1020 64 10000 1.79 360 03:23 04.07.2022
569 Clear 22 1020 64 10000 1.79 360 23:53 03.07.2022
570 Clear 22 1020 64 10000 1.79 360 22:48 03.07.2022
571 Clouds 23 1019 60 10000 3.09 20 20:46 03.07.2022
572 Clouds 23 1019 60 10000 3.09 20 20:20 03.07.2022
573 Clouds 23 1019 60 10000 4.12 20 19:25 03.07.2022
574 Clouds 24 1019 60 10000 3.09 360 18:31 03.07.2022
575 Clouds 23 1019 64 10000 4.12 20 17:42 03.07.2022
576 Clouds 24 1020 57 10000 4.12 360 15:28 03.07.2022
577 Clouds 24 1020 60 10000 3.09 360 14:54 03.07.2022
578 Clouds 24 1020 60 10000 5.14 20 13:50 03.07.2022
579 Clouds 23 1020 60 10000 3.6 340 12:49 03.07.2022
580 Clouds 23 1020 60 10000 3.6 340 12:19 03.07.2022
581 Clouds 22 1020 68 10000 1.54 340 10:55 03.07.2022
582 Clouds 22 1020 68 10000 1.54 340 10:36 03.07.2022
583 Clouds 20 1019 77 10000 1.03 340 08:21 03.07.2022
584 Clouds 20 1019 76 10000 1.26 289 07:34 03.07.2022
585 Clear 22 1019 68 10000 4.02 320 00:41 03.07.2022
586 Clear 22 1019 68 10000 4.02 320 23:38 02.07.2022
587 Clear 22 1016 68 10000 4.02 320 22:31 02.07.2022
588 Clouds 22 1018 73 10000 4.12 340 20:31 02.07.2022
589 Clouds 23 1018 69 10000 5.14 340 19:49 02.07.2022
590 Clouds 23 1018 69 10000 5.14 340 18:36 02.07.2022
591 Clouds 24 1017 64 10000 5.14 340 17:39 02.07.2022
592 Clear 24 1017 60 10000 4.12 340 16:30 02.07.2022
593 Clear 25 1017 64 10000 4.12 320 13:51 02.07.2022
594 Clear 23 1016 64 8000 3.09 340 11:51 02.07.2022
595 Clear 22 1016 68 8000 3.09 260 10:52 02.07.2022
596 Clear 22 1016 68 8000 3.09 260 10:25 02.07.2022
597 Clear 19 1016 82 8000 2.06 240 08:38 02.07.2022
598 Clear 19 1015 87 10000 4.2 224 08:19 02.07.2022
599 Clear 22 1012 78 10000 2.68 20 04:19 02.07.2022
600 Clear 22 1013 78 10000 2.68 20 00:34 02.07.2022
601 Clear 22 1013 78 10000 2.68 20 23:30 01.07.2022
602 Clear 22 1013 78 10000 2.68 20 22:35 01.07.2022
603 Clouds 22 1013 78 10000 3.09 20 21:38 01.07.2022
604 Clouds 23 1013 69 10000 3.09 360 20:59 01.07.2022
605 Clouds 23 1013 69 10000 3.09 360 20:35 01.07.2022
606 Clouds 23 1012 69 10000 3.09 20 19:38 01.07.2022
607 Clouds 24 1013 69 10000 4.12 360 17:39 01.07.2022
608 Clouds 23 1013 69 10000 4.12 360 14:59 01.07.2022
609 Clouds 24 1013 60 10000 3.09 360 13:54 01.07.2022
610 Clouds 22 1014 68 8000 3.09 360 11:22 01.07.2022
611 Clouds 21 1014 73 8000 1.03 0 10:19 01.07.2022
612 Clear 17 1014 77 10000 0.72 296 07:40 01.07.2022
613 Clear 20 1015 68 10000 4.02 340 02:43 01.07.2022
614 Clear 20 1015 68 10000 4.02 340 00:22 01.07.2022
615 Clear 20 1015 68 10000 4.02 340 22:52 30.06.2022
616 Clear 20 1015 68 10000 4.02 340 22:32 30.06.2022
617 Clouds 20 1015 68 10000 4.12 340 21:54 30.06.2022
618 Clouds 21 1014 68 10000 5.14 360 20:58 30.06.2022
619 Clouds 21 1014 68 10000 5.14 360 20:22 30.06.2022
620 Clouds 22 1016 64 10000 6.17 340 19:51 30.06.2022
621 Clouds 22 1016 64 10000 6.17 340 19:18 30.06.2022
622 Clouds 23 1014 60 10000 6.17 360 18:34 30.06.2022
623 Clouds 22 1015 64 10000 6.17 20 17:37 30.06.2022
624 Clouds 22 1015 64 10000 5.14 20 16:22 30.06.2022
625 Clouds 22 1015 60 10000 4.12 320 14:31 30.06.2022
626 Clouds 22 1016 66 8000 4.12 360 13:29 30.06.2022
627 Clouds 21 1016 68 8000 2.06 340 12:34 30.06.2022
628 Clouds 21 1015 64 10000 2.68 340 11:23 30.06.2022
629 Clouds 20 1015 68 8000 3.09 340 09:53 30.06.2022
630 Clouds 20 1015 68 8000 3.09 340 09:29 30.06.2022
631 Clouds 19 1015 75 10000 3.07 341 07:41 30.06.2022
632 Clouds 21 1015 73 10000 4.02 40 05:47 30.06.2022
633 Clear 21 1015 73 10000 4.02 40 00:27 30.06.2022
634 Clear 21 1015 73 10000 4.02 40 22:58 29.06.2022
635 Clear 21 1015 73 10000 4.02 40 22:37 29.06.2022
636 Clouds 21 1015 73 10000 4.12 40 21:31 29.06.2022
637 Clouds 22 1015 68 10000 2.06 40 20:33 29.06.2022
638 Clouds 22 1015 68 10000 2.06 40 20:33 29.06.2022
639 Clouds 23 1015 69 10000 3.09 20 19:34 29.06.2022
640 Clouds 24 1016 64 10000 4.12 20 17:40 29.06.2022
641 Clouds 24 1016 64 10000 4.12 360 16:35 29.06.2022
642 Clouds 23 1017 69 8000 6.17 320 14:50 29.06.2022
643 Clouds 23 1022 69 8000 4.12 360 12:39 29.06.2022
644 Clouds 21 1017 73 6000 3.09 360 10:25 29.06.2022
645 Clouds 20 1017 77 6000 2.06 360 09:31 29.06.2022
646 Clear 16 1017 78 10000 1.56 330 07:30 29.06.2022
647 Clear 22 1018 73 10000 4.02 360 04:49 29.06.2022
648 Clear 22 1018 73 10000 4.02 360 00:55 29.06.2022
649 Clear 22 1018 73 10000 4.02 360 00:35 29.06.2022
650 Clear 22 1018 73 10000 4.02 360 22:53 28.06.2022
651 Clear 22 1018 73 10000 4.02 360 22:21 28.06.2022
652 Clouds 22 1018 73 8000 4.12 360 21:50 28.06.2022
653 Clouds 22 1019 73 8000 4.12 360 21:30 28.06.2022
654 Clouds 23 1017 69 8000 6.17 360 20:27 28.06.2022
655 Clouds 24 1017 66 8000 5.81 360 19:32 28.06.2022
656 Clouds 24 1017 64 8000 6.17 360 18:44 28.06.2022
657 Clouds 24 1017 64 8000 5.14 360 17:38 28.06.2022
658 Clouds 23 1017 64 8000 5.14 20 15:56 28.06.2022
659 Clouds 23 1017 64 8000 5.14 20 15:56 28.06.2022
660 Clouds 23 1018 64 8000 5.14 20 14:59 28.06.2022
661 Clouds 23 1018 64 8000 5.14 20 14:20 28.06.2022
662 Clouds 23 1018 64 8000 4.12 20 13:49 28.06.2022
663 Clouds 23 1018 64 8000 3.09 20 12:48 28.06.2022
664 Clouds 21 1024 64 6000 2.06 40 10:57 28.06.2022
665 Clouds 19 1018 72 6000 2.06 20 09:25 28.06.2022
666 Clouds 17 1018 82 6000 2.06 360 08:43 28.06.2022
667 Clear 16 1017 75 10000 3.06 31 07:26 28.06.2022
668 Clear 20 1019 60 10000 4.02 40 04:59 28.06.2022
669 Clear 21 1019 60 10000 4.02 40 23:59 27.06.2022
670 Clear 21 1019 60 10000 4.02 40 23:36 27.06.2022
671 Clear 21 1019 60 10000 4.02 40 22:51 27.06.2022
672 Clouds 21 1020 60 10000 4.12 40 21:33 27.06.2022
673 Clouds 21 1019 60 10000 5.14 40 20:44 27.06.2022
674 Clouds 22 1019 53 10000 5.14 20 18:58 27.06.2022
675 Clouds 22 1020 53 10000 5.14 20 18:19 27.06.2022
676 Clouds 23 1019 56 10000 6.17 20 16:18 27.06.2022
677 Clouds 23 1020 56 10000 6.17 20 14:44 27.06.2022
678 Clouds 22 1020 60 10000 5.14 20 13:25 27.06.2022
679 Clouds 21 1019 60 10000 5.14 20 12:52 27.06.2022
680 Clouds 21 1018 64 8000 3.09 40 10:22 27.06.2022
681 Clouds 20 1018 64 8000 3.09 20 08:47 27.06.2022
682 Clouds 19 1018 65 10000 4.41 19 07:59 27.06.2022
683 Clouds 19 1017 66 10000 4.13 18 06:38 27.06.2022
684 Clear 20 1031 60 10000 4.02 20 02:23 27.06.2022
685 Clear 20 1031 60 10000 4.02 20 23:49 26.06.2022
686 Clouds 20 1024 60 10000 4.12 20 21:58 26.06.2022
687 Clouds 21 1024 56 10000 5.14 20 20:34 26.06.2022
688 Clouds 21 1016 60 10000 5.14 20 19:27 26.06.2022
689 Clouds 22 1016 60 10000 6.17 20 18:28 26.06.2022
690 Clouds 23 1015 60 10000 5.14 360 16:21 26.06.2022
691 Clouds 23 1015 56 10000 6.17 360 14:34 26.06.2022
692 Clouds 23 1016 60 10000 5.14 360 13:30 26.06.2022
693 Clouds 23 1016 60 10000 5.14 360 13:30 26.06.2022
694 Clouds 22 1015 60 10000 4.12 20 12:52 26.06.2022
695 Clouds 21 1015 64 8000 4.12 20 11:21 26.06.2022
696 Clouds 20 1016 72 8000 3.09 360 10:23 26.06.2022
697 Clouds 20 1015 72 8000 3.09 20 08:46 26.06.2022
698 Clouds 21 1014 77 10000 4.52 2 07:23 26.06.2022
699 Clouds 21 1015 71 10000 4.39 3 00:49 26.06.2022
700 Clouds 21 1016 73 10000 4.21 1 00:20 26.06.2022
701 Clouds 21 1016 73 10000 4.21 1 23:33 25.06.2022
702 Clouds 21 1015 74 10000 3.89 0 22:51 25.06.2022
703 Clouds 21 1015 72 10000 3.86 0 22:26 25.06.2022
704 Clouds 22 1015 64 10000 3.09 20 21:37 25.06.2022
705 Clouds 22 1015 64 10000 3.09 20 21:18 25.06.2022
706 Clouds 22 1014 64 10000 6.17 20 20:25 25.06.2022
707 Clouds 22 1014 64 10000 5.14 360 18:45 25.06.2022
708 Clouds 23 1015 60 10000 7.2 360 17:28 25.06.2022
709 Clouds 24 1015 60 10000 5.14 360 16:44 25.06.2022
710 Clouds 24 1015 57 10000 4.12 40 14:50 25.06.2022
711 Clouds 22 1016 64 10000 2.06 40 12:57 25.06.2022
712 Clouds 22 1016 64 10000 2.06 40 12:37 25.06.2022
713 Clouds 22 1024 56 8000 2.06 60 10:30 25.06.2022
714 Clouds 20 1017 72 8000 1.03 40 08:57 25.06.2022
715 Clouds 20 1017 72 8000 1.03 40 08:29 25.06.2022
716 Clouds 18 1016 68 10000 3.37 22 06:53 25.06.2022
717 Clouds 22 1031 68 10000 2.68 40 03:26 25.06.2022
718 Clouds 22 1017 68 10000 2.68 40 00:21 25.06.2022
719 Clouds 22 1017 68 10000 2.68 40 22:51 24.06.2022
720 Clouds 22 1024 68 10000 3.09 40 21:31 24.06.2022
721 Clouds 23 1017 64 10000 3.09 20 20:25 24.06.2022
722 Clouds 23 1017 69 10000 6.17 40 19:52 24.06.2022
723 Clouds 23 1017 69 10000 6.17 40 19:19 24.06.2022
724 Clouds 24 1017 60 10000 4.12 40 18:47 24.06.2022
725 Clouds 24 1018 60 10000 4.12 40 18:29 24.06.2022
726 Clouds 24 1018 60 10000 3.09 20 16:52 24.06.2022
727 Clouds 24 1018 57 10000 4.12 20 15:27 24.06.2022
728 Clouds 24 1019 57 10000 6.17 20 14:25 24.06.2022
729 Clouds 24 1019 53 10000 5.14 20 13:46 24.06.2022
730 Clouds 23 1019 56 10000 2.06 20 11:42 24.06.2022
731 Clouds 22 1020 64 8000 2.06 80 10:43 24.06.2022
732 Clouds 21 1025 70 8000 2.06 80 09:42 24.06.2022
733 Clouds 20 1025 72 8000 2.06 80 08:58 24.06.2022
734 Clouds 20 1020 72 8000 2.06 80 08:40 24.06.2022
735 Clouds 18 1019 79 10000 2.84 35 06:45 24.06.2022
736 Clouds 19 1019 79 10000 2.71 34 06:26 24.06.2022
737 Clouds 22 1018 64 10000 4.02 20 05:21 24.06.2022
738 Clear 22 1018 64 10000 4.02 20 23:43 23.06.2022
739 Clear 22 1018 64 10000 4.02 20 22:43 23.06.2022
740 Clouds 22 1023 64 10000 4.12 20 21:40 23.06.2022
741 Clouds 23 1018 60 10000 5.14 20 20:42 23.06.2022
742 Clouds 23 1018 60 10000 6.17 20 19:55 23.06.2022
743 Clouds 23 1019 60 10000 5.14 20 18:38 23.06.2022
744 Clouds 24 1018 53 10000 4.12 360 17:35 23.06.2022
745 Clouds 24 1018 53 10000 5.14 360 16:32 23.06.2022
746 Clouds 25 1018 53 10000 4.12 360 15:26 23.06.2022
747 Clouds 24 1018 57 10000 4.12 360 14:36 23.06.2022
748 Clouds 21 1018 68 10000 1.03 340 11:42 23.06.2022
749 Clouds 20 1018 68 6000 1.03 180 10:42 23.06.2022
750 Clouds 20 1016 70 5000 2.06 360 09:19 23.06.2022
751 Clear 17 1016 76 10000 1.05 76 05:37 23.06.2022
752 Clear 22 1016 60 10000 2.68 360 00:28 23.06.2022
753 Clear 22 1016 60 10000 2.68 360 23:59 22.06.2022
754 Clear 22 1016 60 10000 2.68 360 23:18 22.06.2022
755 Clear 22 1016 60 10000 3.09 360 21:44 22.06.2022
756 Clear 22 1017 56 10000 4.12 360 20:52 22.06.2022
757 Clear 22 1016 56 10000 4.12 360 20:19 22.06.2022
758 Clouds 23 1017 53 10000 5.14 360 19:30 22.06.2022
759 Clouds 24 1016 50 10000 4.12 260 17:40 22.06.2022
760 Clouds 23 1017 53 10000 5.14 360 16:41 22.06.2022
761 Clouds 23 1017 53 10000 5.14 360 15:29 22.06.2022
762 Clouds 23 1017 53 10000 4.12 360 14:47 22.06.2022
763 Clouds 23 1017 53 10000 3.09 360 13:47 22.06.2022
764 Clouds 23 1017 53 10000 3.09 360 13:24 22.06.2022
765 Clouds 22 1018 53 10000 2.06 360 11:54 22.06.2022
766 Clouds 22 1018 53 10000 2.06 360 11:29 22.06.2022
767 Clouds 22 1018 56 10000 1.03 360 10:43 22.06.2022
768 Clouds 20 1017 64 8000 2.06 360 09:18 22.06.2022
769 Clouds 19 1016 68 10000 1.73 8 06:55 22.06.2022
770 Clear 22 1022 56 10000 2.68 360 01:59 22.06.2022
771 Clear 22 1017 56 10000 2.68 360 00:57 22.06.2022
772 Clear 22 1017 56 10000 2.68 360 22:49 21.06.2022
773 Clouds 22 1016 60 10000 3.09 360 20:47 21.06.2022
774 Clouds 23 1016 60 10000 5.14 360 19:23 21.06.2022
775 Clouds 23 1016 56 10000 5.14 360 17:54 21.06.2022
776 Clouds 24 1016 56 10000 4.12 360 16:38 21.06.2022
777 Clouds 21 1016 68 8000 2.06 20 11:57 21.06.2022
778 Clouds 20 1016 68 8000 4.12 40 10:38 21.06.2022
779 Clouds 20 1016 68 8000 1.03 20 09:20 21.06.2022
780 Clear 20 1014 71 10000 4.04 18 07:44 21.06.2022
781 Clear 20 1014 71 10000 4.94 19 04:43 21.06.2022
782 Clouds 20 1017 72 10000 4.92 32 00:21 21.06.2022
783 Clouds 21 1017 71 10000 5.32 13 22:21 20.06.2022
784 Clouds 21 1017 71 10000 5.32 13 22:21 20.06.2022
785 Clouds 21 1016 64 10000 4.12 40 21:37 20.06.2022
786 Clouds 23 1016 64 10000 5.14 40 20:28 20.06.2022
787 Clouds 23 1016 68 10000 4.12 40 19:35 20.06.2022
788 Clouds 24 1016 60 10000 3.09 40 18:26 20.06.2022
789 Clouds 24 1016 64 10000 5.14 20 17:49 20.06.2022
790 Clouds 24 1016 68 10000 5.14 20 16:26 20.06.2022
791 Clouds 24 1016 68 10000 6.17 40 15:20 20.06.2022
792 Clouds 23 1016 68 10000 4.12 20 12:18 20.06.2022
793 Clouds 22 1015 83 8000 3.09 20 09:57 20.06.2022
794 Clouds 21 1014 78 8000 2.06 40 08:46 20.06.2022
795 Clouds 21 1014 79 10000 2.47 350 07:36 20.06.2022
796 Clouds 23 1014 69 10000 4.02 360 04:56 20.06.2022
797 Clouds 23 1025 69 10000 4.02 360 01:32 20.06.2022
798 Clouds 23 1014 69 10000 4.02 360 23:49 19.06.2022
799 Clouds 23 1014 69 10000 4.02 360 22:25 19.06.2022
800 Clouds 23 1014 69 10000 4.12 360 21:42 19.06.2022
801 Clouds 23 1014 69 10000 3.09 360 20:52 19.06.2022
802 Clouds 24 1013 64 10000 4.12 360 19:49 19.06.2022
803 Clouds 24 1013 64 10000 4.12 360 19:49 19.06.2022
804 Clouds 24 1013 64 10000 4.12 360 19:25 19.06.2022
805 Clear 25 1014 64 10000 4.12 360 18:32 19.06.2022
806 Clear 25 1014 60 10000 4.12 360 17:48 19.06.2022
807 Clear 25 1014 60 10000 4.12 360 17:20 19.06.2022
808 Clouds 25 1014 60 10000 4.12 360 16:34 19.06.2022
809 Clouds 25 1014 64 10000 4.12 360 15:35 19.06.2022
810 Clouds 24 1015 64 10000 4.12 20 14:43 19.06.2022
811 Clouds 24 1015 64 10000 2.06 60 13:54 19.06.2022
812 Clouds 23 1015 69 10000 2.06 60 12:26 19.06.2022
813 Clouds 22 1015 73 8000 2.06 40 10:53 19.06.2022
814 Clouds 21 1015 77 8000 2.06 60 09:31 19.06.2022
815 Clouds 19 1015 82 8000 1.03 40 08:35 19.06.2022
816 Clear 20 1015 82 10000 2.54 32 07:30 19.06.2022
817 Clear 22 1016 73 10000 4.02 40 04:33 19.06.2022
818 Clear 21 1017 78 10000 2.92 7 01:28 19.06.2022
819 Clear 21 1018 77 10000 2.98 3 00:23 19.06.2022
820 Clear 22 1018 77 10000 2.98 3 23:35 18.06.2022
821 Clear 22 1017 75 10000 2.66 23 22:36 18.06.2022
822 Clouds 23 1015 64 8000 4.12 40 20:55 18.06.2022
823 Clouds 23 1015 67 8000 4.12 40 20:26 18.06.2022
824 Clouds 23 1015 69 8000 4.12 40 19:25 18.06.2022
825 Clouds 24 1016 64 8000 4.12 40 18:44 18.06.2022
826 Clouds 24 1016 69 8000 4.12 40 17:30 18.06.2022
827 Clouds 24 1016 69 8000 4.12 40 17:30 18.06.2022
828 Clouds 25 1017 69 8000 4.12 20 16:23 18.06.2022
829 Clouds 26 1017 61 8000 4.12 40 15:18 18.06.2022
830 Clouds 24 1018 64 8000 4.12 20 14:42 18.06.2022
831 Clouds 23 1018 73 8000 4.12 20 12:51 18.06.2022
832 Clouds 23 1020 69 8000 4.12 20 11:31 18.06.2022
833 Clouds 22 1017 78 8000 4.12 20 10:25 18.06.2022
834 Clouds 21 1018 83 8000 3.09 60 09:19 18.06.2022
835 Clear 20 1017 80 10000 3.64 20 08:18 18.06.2022
836 Clear 21 1017 80 10000 2.69 23 06:26 18.06.2022
837 Clear 22 1017 78 10000 4.92 40 02:54 18.06.2022
838 Clouds 22 1018 80 10000 3.67 355 01:24 18.06.2022
839 Clouds 22 1018 80 10000 3.67 355 00:41 18.06.2022
840 Clouds 22 1018 80 10000 4.87 346 23:45 17.06.2022
841 Clouds 22 1018 80 10000 4.52 0 22:55 17.06.2022
842 Clouds 23 1016 76 10000 6.17 40 20:40 17.06.2022
843 Clouds 23 1016 78 10000 6.17 20 19:26 17.06.2022
844 Clouds 24 1016 73 10000 6.17 360 18:25 17.06.2022
845 Clouds 25 1016 69 10000 6.17 40 17:34 17.06.2022
846 Clouds 26 1016 65 8000 6.17 20 16:38 17.06.2022
847 Clouds 24 1016 69 8000 6.17 40 15:42 17.06.2022
848 Clouds 25 1016 69 8000 4.12 40 14:46 17.06.2022
849 Clouds 25 1016 69 8000 4.12 40 14:19 17.06.2022
850 Clouds 25 1017 69 8000 4.12 40 13:42 17.06.2022
851 Clouds 24 1017 69 8000 3.09 100 12:42 17.06.2022
852 Clouds 24 1017 69 8000 3.09 100 11:56 17.06.2022
853 Clouds 24 1017 69 8000 3.09 100 11:35 17.06.2022
854 Clouds 21 1017 83 8000 3.09 80 09:59 17.06.2022
855 Clouds 20 1017 88 8000 3.09 60 08:27 17.06.2022
856 Clouds 20 1016 84 10000 4.06 24 06:57 17.06.2022
857 Clear 23 1017 73 10000 1.79 40 04:52 17.06.2022
858 Clear 23 1017 73 10000 1.79 40 02:41 17.06.2022
859 Clouds 23 1017 73 10000 1.79 40 00:33 17.06.2022
860 Clear 23 1017 73 10000 1.79 40 22:44 16.06.2022
861 Clouds 23 1017 73 8000 2.06 40 21:26 16.06.2022
862 Clouds 23 1017 73 6000 3.09 40 20:58 16.06.2022
863 Clouds 23 1017 73 6000 3.09 40 20:36 16.06.2022
864 Clouds 24 1018 69 6000 3.09 40 19:53 16.06.2022
865 Clouds 23 1017 73 6000 3.09 40 18:27 16.06.2022
866 Clouds 24 1017 69 6000 3.09 20 17:43 16.06.2022
867 Clouds 24 1018 69 6000 3.09 40 16:39 16.06.2022
868 Clouds 23 1017 73 6000 3.09 40 15:24 16.06.2022
869 Clouds 22 1018 78 6000 3.09 20 14:46 16.06.2022
870 Clouds 22 1018 78 6000 3.09 20 13:32 16.06.2022
871 Clouds 21 1017 88 6000 2.06 40 12:36 16.06.2022
872 Clouds 21 1017 88 6000 3.09 20 11:52 16.06.2022
873 Clouds 21 1018 83 6000 4.12 20 10:56 16.06.2022
874 Clouds 21 1018 83 6000 4.12 20 10:27 16.06.2022
875 Clouds 21 1017 83 6000 2.06 360 09:21 16.06.2022
876 Clouds 21 1017 83 6000 2.06 20 08:30 16.06.2022
877 Clouds 21 1016 84 10000 3.21 6 07:26 16.06.2022
878 Clouds 22 1018 78 10000 2.68 320 04:50 16.06.2022
879 Clouds 22 1019 78 10000 2.68 320 02:21 16.06.2022
880 Clouds 22 1019 78 10000 2.68 320 01:42 16.06.2022
881 Clouds 22 1019 78 10000 2.68 320 01:21 16.06.2022
882 Clouds 22 1018 78 10000 2.68 320 23:47 15.06.2022
883 Clouds 22 1018 78 10000 2.68 320 23:47 15.06.2022
884 Clouds 22 1017 78 10000 2.68 320 22:38 15.06.2022
885 Clouds 22 1017 78 6000 3.09 320 21:22 15.06.2022
886 Clouds 22 1016 83 6000 2.06 340 20:44 15.06.2022
887 Clouds 22 1016 83 6000 4.02 320 20:25 15.06.2022
888 Clouds 22 1016 83 6000 4.12 320 19:29 15.06.2022
889 Clouds 23 1016 78 6000 5.14 320 17:56 15.06.2022
890 Clouds 23 1017 78 6000 5.14 320 17:25 15.06.2022
891 Clouds 24 1017 83 6000 5.14 320 15:38 15.06.2022
892 Clouds 24 1016 83 5000 4.12 360 14:18 15.06.2022
893 Clouds 24 1015 94 5000 3.09 360 12:54 15.06.2022
894 Clouds 23 1014 94 5000 4.12 360 11:58 15.06.2022
895 Clouds 23 1015 97 5000 3.09 360 10:24 15.06.2022
896 Clouds 23 1015 97 5000 3.09 360 10:24 15.06.2022
897 Clouds 23 1016 94 5000 3.09 360 09:43 15.06.2022
898 Clouds 22 1015 100 5000 3.09 20 08:40 15.06.2022
899 Clouds 30 1013 89 10000 2.34 337 06:36 15.06.2022
900 Clouds 25 1016 83 10000 1.79 60 04:46 15.06.2022
901 Clouds 25 1017 83 10000 1.79 60 01:55 15.06.2022
902 Clouds 25 1016 83 10000 1.79 60 00:51 15.06.2022
903 Clouds 24 1016 83 10000 1.79 60 23:39 14.06.2022
904 Clouds 24 1015 83 10000 1.79 60 23:21 14.06.2022
905 Clouds 24 1015 83 10000 1.79 60 22:23 14.06.2022
906 Clouds 24 1014 83 5000 2.06 60 21:38 14.06.2022
907 Clouds 25 1015 83 5000 2.06 60 20:54 14.06.2022
908 Clouds 25 1015 83 5000 2.06 60 20:31 14.06.2022
909 Clouds 24 1013 78 5000 2.06 40 19:20 14.06.2022
910 Clouds 24 1013 78 5000 2.06 360 18:20 14.06.2022
911 Clouds 26 1015 73 5000 3.09 360 16:47 14.06.2022
912 Clouds 26 1015 69 5000 1.03 20 15:50 14.06.2022
913 Clouds 26 1015 69 5000 1.03 20 15:50 14.06.2022
914 Clouds 27 1014 69 5000 1.03 20 15:28 14.06.2022
915 Clouds 27 1014 69 6000 3.09 40 14:37 14.06.2022
916 Clouds 26 1014 73 6000 2.06 40 13:46 14.06.2022
917 Mist 24 1015 83 3000 3.09 20 12:45 14.06.2022
918 Mist 23 1011 83 3000 3.09 360 11:38 14.06.2022
919 Mist 22 1015 88 3000 3.09 20 10:48 14.06.2022
920 Mist 22 1015 88 3000 3.09 20 10:22 14.06.2022
921 Mist 22 1014 88 3000 4.12 80 08:48 14.06.2022
922 Clouds 22 1014 88 10000 1.72 26 07:35 14.06.2022
923 Clouds 23 1014 83 10000 2.68 340 05:29 14.06.2022
924 Clouds 23 1014 83 10000 2.68 340 02:58 14.06.2022
925 Clouds 23 1014 83 10000 2.68 340 00:54 14.06.2022
926 Clouds 23 1014 83 10000 2.68 340 23:41 13.06.2022
927 Clouds 23 1014 83 10000 2.68 340 22:26 13.06.2022
928 Clouds 23 1014 83 6000 3.09 340 21:52 13.06.2022
929 Clouds 23 1015 83 6000 4.12 300 20:42 13.06.2022
930 Clouds 24 1015 78 6000 5.14 320 19:35 13.06.2022
931 Clouds 24 1014 78 6000 5.14 320 18:28 13.06.2022
932 Clouds 26 1009 78 6000 5.14 320 17:47 13.06.2022
933 Clouds 26 1016 74 6000 5.14 340 16:52 13.06.2022
934 Clouds 26 1015 74 6000 4.12 320 15:40 13.06.2022
935 Clear 26 1014 74 6000 3.09 320 14:47 13.06.2022
936 Clouds 26 1014 74 6000 3.09 20 13:55 13.06.2022
937 Clouds 26 1014 74 6000 3.09 340 12:49 13.06.2022
938 Clouds 25 1013 78 6000 1.03 80 11:34 13.06.2022
939 Clouds 23 1013 83 6000 2.06 80 10:27 13.06.2022
940 Clouds 22 1013 88 5000 2.06 40 09:39 13.06.2022
941 Clouds 22 1013 88 5000 2.06 40 08:24 13.06.2022
942 Clouds 25 1013 87 10000 1.46 304 06:33 13.06.2022
943 Clouds 23 1017 83 10000 0.89 20 03:28 13.06.2022
944 Clouds 23 1017 83 10000 0.89 20 01:38 13.06.2022
945 Clouds 26 1014 61 10000 1.71 232 00:22 13.06.2022
946 Clouds 27 1014 64 10000 1.1 245 23:29 12.06.2022
947 Clouds 24 1015 83 10000 0.89 20 22:23 12.06.2022
948 Clouds 23 1015 83 6000 1.03 20 21:39 12.06.2022
949 Clouds 23 1014 83 6000 3.09 280 20:39 12.06.2022
950 Clouds 25 1013 78 6000 4.12 280 19:38 12.06.2022
951 Clouds 26 1014 73 6000 4.12 340 18:39 12.06.2022
952 Clear 27 1014 69 6000 5.14 320 16:42 12.06.2022
953 Clear 28 1014 65 6000 4.12 320 15:30 12.06.2022
954 Clear 28 1014 65 5000 5.14 360 14:32 12.06.2022
955 Clouds 28 1014 61 5000 3.09 360 13:55 12.06.2022
956 Clouds 27 1014 61 5000 3.09 360 12:58 12.06.2022
957 Clouds 24 1014 78 5000 3.09 360 11:47 12.06.2022
958 Mist 21 1015 100 3000 2.06 360 10:45 12.06.2022
959 Mist 21 1014 94 3000 1.03 360 09:28 12.06.2022
960 Mist 21 1014 94 3000 1.03 360 08:49 12.06.2022
961 Clouds 21 1013 84 10000 2.45 248 07:40 12.06.2022
962 Clouds 22 1013 88 10000 2.53 238 05:38 12.06.2022
963 Clouds 23 1012 82 10000 2.92 311 03:38 12.06.2022
964 Clouds 26 1012 69 10000 2.68 360 01:43 12.06.2022
965 Clouds 26 1012 69 10000 2.68 360 00:59 12.06.2022
966 Clouds 26 1012 69 10000 2.68 360 00:26 12.06.2022
967 Clouds 26 1012 69 10000 2.68 360 23:53 11.06.2022
968 Clouds 26 1012 69 10000 2.68 360 22:40 11.06.2022
969 Clouds 26 1012 69 10000 2.68 360 22:21 11.06.2022
970 Clouds 26 1012 69 5000 3.09 360 20:55 11.06.2022
971 Clouds 27 1012 69 5000 3.09 360 20:24 11.06.2022
972 Clouds 26 1012 73 5000 3.09 40 19:26 11.06.2022
973 Clouds 26 1012 69 5000 3.09 300 18:36 11.06.2022
974 Clouds 27 1012 65 5000 3.09 360 17:52 11.06.2022
975 Clouds 28 1012 65 5000 3.09 360 17:29 11.06.2022
976 Clouds 27 1012 69 5000 3.09 300 16:58 11.06.2022
977 Clouds 27 1012 69 5000 3.09 300 16:30 11.06.2022
978 Clouds 28 1012 65 5000 3.09 360 15:45 11.06.2022
979 Clouds 27 1013 65 6000 3.09 340 13:54 11.06.2022
980 Clouds 26 1013 65 6000 3.09 340 13:24 11.06.2022
981 Clouds 23 1013 78 8000 2.06 300 10:58 11.06.2022
982 Clouds 22 1013 78 8000 2.06 300 10:20 11.06.2022
983 Clouds 21 1012 83 8000 2.06 280 09:29 11.06.2022
984 Clouds 19 1012 89 10000 2.99 228 07:46 11.06.2022
985 Clouds 19 1012 90 10000 1.06 208 06:30 11.06.2022
986 Clouds 20 1012 90 10000 1.71 273 05:19 11.06.2022
987 Clouds 22 1012 85 10000 1.7 297 01:53 11.06.2022
988 Clouds 22 1012 85 10000 1.7 297 01:33 11.06.2022
989 Clouds 25 1013 69 10000 2.68 340 00:21 11.06.2022
990 Clouds 25 1016 69 10000 2.68 340 22:33 10.06.2022
991 Clouds 25 1013 69 10000 3.09 340 21:53 10.06.2022
992 Clouds 26 1012 65 10000 3.09 340 20:42 10.06.2022
993 Clouds 26 1012 65 10000 3.09 340 20:22 10.06.2022
994 Clouds 26 1012 61 10000 2.06 360 19:48 10.06.2022
995 Clouds 26 1012 61 10000 2.06 360 19:18 10.06.2022
996 Clouds 26 1012 65 10000 3.09 360 18:19 10.06.2022
997 Clouds 26 1012 69 10000 3.09 20 17:36 10.06.2022
998 Clouds 26 1013 73 10000 4.12 340 16:55 10.06.2022
999 Clear 26 1013 73 10000 3.09 340 15:47 10.06.2022
1000 Clear 26 1014 73 10000 4.12 320 14:57 10.06.2022
1001 Clear 26 1014 69 10000 4.12 360 13:44 10.06.2022
1002 Clear 25 1014 73 10000 4.12 340 12:28 10.06.2022
1003 Clear 24 1017 73 8000 3.09 300 11:40 10.06.2022
1004 Clear 22 1014 83 6000 2.06 320 10:37 10.06.2022
1005 Clouds 21 1014 88 6000 2.06 260 09:40 10.06.2022
1006 Clear 20 1014 87 10000 1.29 270 08:23 10.06.2022
1007 Clear 19 1013 86 10000 1.14 284 06:52 10.06.2022
1008 Clear 20 1013 86 10000 1.14 284 06:32 10.06.2022
1009 Clear 22 1015 83 10000 2.68 360 05:45 10.06.2022
1010 Clear 22 1015 83 10000 2.68 360 02:55 10.06.2022
1011 Clear 22 1015 83 10000 2.68 360 01:37 10.06.2022
1012 Clear 22 1015 83 10000 2.68 360 23:58 09.06.2022
1013 Clear 22 1015 83 10000 2.68 360 22:56 09.06.2022
1014 Clouds 22 1015 83 8000 3.09 360 21:47 09.06.2022
1015 Clouds 22 1015 83 8000 3.09 360 21:28 09.06.2022
1016 Clouds 23 1014 78 10000 4.12 360 20:47 09.06.2022
1017 Clouds 24 1014 73 10000 5.14 360 19:54 09.06.2022
1018 Clouds 24 1014 73 10000 4.12 40 18:47 09.06.2022
1019 Clouds 26 1015 73 10000 6.17 360 17:56 09.06.2022
1020 Clear 26 1015 69 10000 6.17 40 16:44 09.06.2022
1021 Clouds 26 1015 69 10000 5.14 40 15:44 09.06.2022
1022 Clouds 26 1016 69 10000 5.14 40 14:34 09.06.2022
1023 Clouds 26 1016 69 10000 5.14 40 13:46 09.06.2022
1024 Clouds 25 1016 69 10000 5.14 40 13:26 09.06.2022
1025 Clouds 24 1017 73 10000 3.09 40 11:53 09.06.2022
1026 Clouds 23 1016 78 8000 3.09 60 10:40 09.06.2022
1027 Clouds 22 1017 83 8000 3.09 60 09:41 09.06.2022
1028 Clouds 22 1017 83 8000 3.09 60 09:23 09.06.2022
1029 Clouds 20 1017 92 10000 3.28 24 07:34 09.06.2022
1030 Clouds 22 1019 78 10000 2.68 60 05:27 09.06.2022
1031 Clear 22 1019 78 10000 2.68 60 01:44 09.06.2022
1032 Clear 22 1019 78 10000 2.68 60 23:24 08.06.2022
1033 Clear 22 1019 78 10000 2.68 60 22:50 08.06.2022
1034 Clear 22 1019 78 10000 2.68 60 22:25 08.06.2022
1035 Clouds 22 1019 78 10000 3.09 60 21:49 08.06.2022
1036 Clouds 23 1019 78 10000 4.12 40 20:43 08.06.2022
1037 Clouds 23 1018 78 10000 5.14 40 19:49 08.06.2022
1038 Clouds 23 1018 78 10000 6.17 40 18:58 08.06.2022
1039 Clouds 23 1018 78 10000 6.17 40 18:40 08.06.2022
1040 Clouds 25 1019 73 10000 5.14 60 16:34 08.06.2022
1041 Clouds 26 1020 65 10000 2.06 20 14:54 08.06.2022
1042 Clouds 25 1020 64 10000 2.06 360 13:36 08.06.2022
1043 Clouds 23 1020 69 10000 3.09 360 11:50 08.06.2022
1044 Clouds 23 1020 69 10000 3.09 360 11:22 08.06.2022
1045 Clouds 20 1020 82 8000 3.09 20 09:47 08.06.2022
1046 Clouds 20 1020 82 8000 3.09 20 09:20 08.06.2022
1047 Clear 19 1019 83 10000 1.61 15 07:32 08.06.2022
1048 Clouds 22 1018 78 10000 2.68 20 05:20 08.06.2022
1049 Clear 22 1018 78 10000 2.68 20 02:28 08.06.2022
1050 Clear 22 1018 78 10000 2.68 20 23:41 07.06.2022
1051 Clear 22 1018 78 10000 2.68 20 23:22 07.06.2022
1052 Clear 22 1018 78 10000 2.68 20 22:38 07.06.2022
1053 Clouds 22 1018 78 10000 3.09 20 21:52 07.06.2022
1054 Clouds 22 1018 78 10000 3.09 20 21:27 07.06.2022
1055 Clouds 22 1019 78 10000 4.12 20 20:46 07.06.2022
1056 Clouds 22 1019 78 10000 4.12 20 20:23 07.06.2022
1057 Clouds 23 1019 73 10000 3.09 40 18:51 07.06.2022
1058 Clouds 24 1019 69 10000 4.12 40 17:54 07.06.2022
1059 Clouds 24 1020 73 10000 4.12 300 16:54 07.06.2022
1060 Clouds 25 1020 73 10000 4.12 300 16:32 07.06.2022
1061 Clouds 24 1019 73 10000 4.12 280 15:40 07.06.2022
1062 Clouds 24 1019 73 10000 4.12 280 15:21 07.06.2022
1063 Clear 24 1020 69 10000 3.09 340 14:45 07.06.2022
1064 Clear 24 1020 64 10000 4.12 20 13:46 07.06.2022
1065 Clear 24 1020 64 10000 4.12 20 13:26 07.06.2022
1066 Clear 23 1020 69 8000 2.06 320 11:56 07.06.2022
1067 Clear 23 1020 69 8000 2.06 320 11:56 07.06.2022
1068 Clouds 21 1020 77 8000 2.06 320 10:57 07.06.2022
1069 Clouds 20 1020 88 6000 2.06 340 09:28 07.06.2022
1070 Clouds 20 1020 88 6000 2.06 340 08:31 07.06.2022
1071 Clear 18 1019 82 10000 2.71 26 07:19 07.06.2022
1072 Clear 22 1019 83 10000 2.68 20 05:19 07.06.2022
1073 Clear 22 1019 83 10000 2.68 20 01:44 07.06.2022
1074 Clear 22 1019 83 10000 2.68 20 00:20 07.06.2022
1075 Clear 22 1019 83 10000 2.68 20 23:25 06.06.2022
1076 Clear 22 1019 83 10000 2.68 20 22:37 06.06.2022
1077 Clouds 22 1019 83 10000 3.09 20 21:33 06.06.2022
1078 Clouds 24 1018 69 10000 5.14 20 19:37 06.06.2022
1079 Clouds 24 1018 69 10000 5.14 20 19:19 06.06.2022
1080 Clouds 25 1018 65 10000 4.12 20 18:34 06.06.2022
1081 Clouds 24 1019 69 10000 5.14 20 17:31 06.06.2022
1082 Clear 25 1019 69 10000 5.14 360 16:21 06.06.2022
1083 Clear 26 1020 61 10000 4.12 40 15:33 06.06.2022
1084 Clouds 25 1020 64 10000 4.12 20 14:36 06.06.2022
1085 Clouds 25 1022 53 10000 3.09 20 13:27 06.06.2022
1086 Clouds 24 1020 60 10000 3.09 40 12:37 06.06.2022
1087 Clouds 23 1020 64 10000 3.09 60 11:54 06.06.2022
1088 Clouds 23 1020 60 8000 2.06 80 10:46 06.06.2022
1089 Clouds 21 1020 73 8000 2.06 80 09:40 06.06.2022
1090 Clouds 20 1019 77 8000 2.06 100 08:33 06.06.2022
1091 Clear 19 1019 82 10000 2.92 46 07:28 06.06.2022
1092 Clear 21 1020 73 10000 4.02 20 05:29 06.06.2022
1093 Clear 21 1020 73 10000 4.02 20 05:29 06.06.2022
1094 Clear 21 1020 73 10000 4.02 20 05:29 06.06.2022
1095 Clear 21 1020 73 10000 4.02 20 03:44 06.06.2022
1096 Clear 21 1022 73 10000 4.02 20 01:23 06.06.2022
1097 Clear 21 1020 73 10000 4.02 20 00:42 06.06.2022
1098 Clear 21 1020 73 10000 4.02 20 23:44 05.06.2022
1099 Clear 21 1020 73 10000 4.02 20 22:52 05.06.2022
1100 Clouds 22 1019 68 10000 5.14 40 20:59 05.06.2022
1101 Clouds 22 1019 68 10000 6.17 40 19:50 05.06.2022
1102 Clouds 22 1019 68 10000 5.14 60 18:30 05.06.2022
1103 Clouds 23 1020 64 10000 5.14 20 17:55 05.06.2022
1104 Clouds 23 1020 64 10000 5.14 20 17:27 05.06.2022
1105 Clouds 23 1020 60 10000 5.14 60 16:57 05.06.2022
1106 Clouds 23 1020 60 10000 5.14 60 16:37 05.06.2022
1107 Clouds 23 1021 60 8000 6.17 40 14:34 05.06.2022
1108 Clouds 22 1021 64 8000 4.12 40 12:59 05.06.2022
1109 Clouds 21 1021 68 8000 3.09 60 11:49 05.06.2022
1110 Clouds 22 1021 64 8000 3.09 80 10:42 05.06.2022
1111 Clouds 22 1021 64 8000 3.09 80 10:22 05.06.2022
1112 Clouds 19 1020 72 8000 2.06 80 08:40 05.06.2022
1113 Clouds 19 1020 72 8000 2.06 80 08:20 05.06.2022
1114 Clouds 19 1020 80 10000 4.44 37 05:23 05.06.2022
1115 Clouds 19 1020 80 10000 4.44 37 04:30 05.06.2022
1116 Clouds 22 1020 64 10000 4.29 28 01:33 05.06.2022
1117 Clouds 22 1020 64 10000 4.89 24 00:52 05.06.2022
1118 Clouds 22 1020 64 10000 4.95 18 22:43 04.06.2022
1119 Clouds 22 1019 64 10000 4.12 60 20:42 04.06.2022
1120 Clouds 23 1019 60 10000 6.17 40 18:51 04.06.2022
1121 Clouds 23 1019 60 10000 3.09 20 16:47 04.06.2022
1122 Clouds 23 1019 60 10000 3.09 20 16:18 04.06.2022
1123 Clouds 23 1019 56 10000 4.12 20 14:54 04.06.2022
1124 Clouds 22 1019 60 10000 3.09 20 13:37 04.06.2022
1125 Clouds 21 1019 64 10000 3.09 20 11:22 04.06.2022
1126 Clouds 21 1019 64 6000 2.06 20 10:49 04.06.2022
1127 Clouds 20 1019 72 6000 1.03 360 09:45 04.06.2022
1128 Clouds 19 1018 77 6000 1.03 20 08:43 04.06.2022
1129 Clouds 19 1018 73 10000 1.16 346 07:51 04.06.2022
1130 Clouds 22 1017 68 10000 2.68 360 05:38 04.06.2022
1131 Clouds 22 1017 68 10000 2.68 360 02:20 04.06.2022
1132 Clear 22 1017 68 10000 2.68 360 00:20 04.06.2022
1133 Clear 22 1017 68 10000 2.68 360 22:41 03.06.2022
1134 Clouds 22 1017 68 10000 3.09 360 21:39 03.06.2022
1135 Clouds 22 1017 68 10000 3.09 360 20:38 03.06.2022
1136 Clouds 23 1017 64 10000 5.14 360 18:54 03.06.2022
1137 Clouds 24 1017 53 10000 5.14 360 16:52 03.06.2022
1138 Clouds 24 1017 57 10000 3.6 360 15:37 03.06.2022
1139 Clouds 23 1017 64 10000 3.09 360 13:49 03.06.2022
1140 Clouds 21 1018 73 8000 2.06 280 11:51 03.06.2022
1141 Clouds 19 1017 82 6000 1.03 240 09:53 03.06.2022
1142 Clouds 19 1017 82 6000 1.03 240 09:28 03.06.2022
1143 Clouds 17 1016 79 10000 1.48 243 07:27 03.06.2022
1144 Clouds 17 1016 79 10000 1.48 243 06:45 03.06.2022
1145 Clouds 17 1016 80 10000 1.38 235 06:27 03.06.2022
1146 Clear 21 1016 77 10000 4.02 360 02:24 03.06.2022
1147 Clear 21 1016 77 10000 4.02 360 23:34 02.06.2022
1148 Clouds 21 1016 77 10000 4.12 360 21:57 02.06.2022
1149 Clouds 22 1015 68 10000 3.09 360 20:26 02.06.2022
1150 Clouds 23 1015 69 10000 5.14 340 19:53 02.06.2022
1151 Clouds 23 1015 69 10000 5.14 340 19:35 02.06.2022
1152 Clouds 24 1016 57 10000 5.14 340 17:59 02.06.2022
1153 Clouds 25 1016 60 10000 3.09 360 16:28 02.06.2022
1154 Clouds 25 1016 60 10000 5.14 340 15:30 02.06.2022
1155 Clouds 22 1017 64 8000 2.06 320 13:30 02.06.2022
1156 Clouds 22 1017 64 8000 2.06 340 12:46 02.06.2022
1157 Clouds 21 1017 73 8000 2.06 340 10:32 02.06.2022
1158 Clouds 20 1017 83 8000 2.06 260 09:29 02.06.2022
1159 Clouds 19 1017 88 8000 2.06 260 08:30 02.06.2022
1160 Clouds 18 1017 82 10000 2.86 250 07:58 02.06.2022
1161 Clouds 17 1017 83 10000 2.61 255 06:20 02.06.2022
1162 Clouds 19 1017 83 10000 2.29 267 03:48 02.06.2022
1163 Clouds 23 1019 69 10000 4.02 20 00:31 02.06.2022
1164 Clouds 23 1016 69 10000 4.02 20 22:57 01.06.2022
1165 Clouds 23 1016 69 10000 4.12 20 21:45 01.06.2022
1166 Clouds 23 1016 69 10000 4.12 20 21:22 01.06.2022
1167 Clear 24 1016 64 10000 2.06 20 20:38 01.06.2022
1168 Clear 25 1015 53 10000 3.09 360 19:49 01.06.2022
1169 Clear 25 1016 53 10000 3.09 340 18:24 01.06.2022
1170 Clouds 26 1016 50 10000 5.14 340 16:48 01.06.2022
1171 Clouds 26 1017 47 10000 6.17 340 15:42 01.06.2022
1172 Clear 27 1017 44 10000 4.12 320 14:35 01.06.2022
1173 Clear 24 1017 57 10000 3.09 340 12:46 01.06.2022
1174 Clear 22 1017 64 10000 1.03 360 10:42 01.06.2022
1175 Clear 20 1016 77 10000 2.06 200 09:27 01.06.2022
1176 Clear 15 1017 76 10000 1.92 193 07:57 01.06.2022
1177 Clear 15 1016 76 10000 1.83 186 06:49 01.06.2022
1178 Clear 22 1014 68 10000 4.02 320 03:22 01.06.2022
1179 Clear 22 1014 68 10000 4.02 320 23:47 31.05.2022
1180 Clear 22 1014 68 10000 4.02 320 22:38 31.05.2022
1181 Clear 22 1014 68 10000 4.02 320 22:18 31.05.2022
1182 Clear 22 1014 68 10000 4.12 320 21:22 31.05.2022
1183 Clear 23 1014 64 10000 2.06 320 20:41 31.05.2022
1184 Clear 24 1013 53 10000 4.12 360 18:57 31.05.2022
1185 Clear 24 1013 53 10000 4.12 360 18:19 31.05.2022
1186 Clear 24 1013 57 10000 3.09 20 17:35 31.05.2022
1187 Clear 25 1014 60 10000 3.09 360 15:42 31.05.2022
1188 Clear 25 1014 60 10000 3.09 360 15:21 31.05.2022
1189 Clouds 23 1014 69 10000 1.03 340 12:39 31.05.2022
1190 Clouds 23 1014 69 10000 1.03 340 12:18 31.05.2022
1191 Clear 20 1013 77 6000 1.03 220 09:53 31.05.2022
1192 Clear 15 1013 77 10000 1.33 193 07:42 31.05.2022
1193 Clear 17 1013 78 10000 1.31 172 05:25 31.05.2022
1194 Clear 22 1012 73 10000 1.79 340 02:51 31.05.2022
1195 Clear 22 1013 73 10000 1.79 340 23:39 30.05.2022
1196 Clear 22 1013 73 10000 1.79 340 23:18 30.05.2022
1197 Clear 22 1012 73 10000 1.79 340 22:32 30.05.2022
1198 Clouds 22 1012 73 10000 2.06 340 21:37 30.05.2022
1199 Clouds 22 1012 68 10000 1.54 40 20:41 30.05.2022
1200 Clear 23 1012 64 10000 2.06 340 19:38 30.05.2022
1201 Clouds 23 1012 60 10000 4.12 340 17:44 30.05.2022
1202 Clouds 23 1012 60 10000 4.12 340 17:19 30.05.2022
1203 Clouds 24 1013 50 10000 5.14 340 15:44 30.05.2022
1204 Clouds 23 1013 60 10000 4.12 340 13:21 30.05.2022
1205 Clouds 22 1014 60 10000 2.06 300 11:30 30.05.2022
1206 Clouds 18 1013 77 8000 3.09 200 09:41 30.05.2022
1207 Clouds 14 1013 76 10000 2.92 199 07:29 30.05.2022
1208 Clouds 15 1013 75 10000 3.3 203 05:52 30.05.2022
1209 Clouds 17 1013 72 10000 2.87 218 03:18 30.05.2022
1210 Clouds 19 1015 71 10000 4.2 262 23:57 29.05.2022
1211 Clouds 21 1015 70 10000 3.95 259 22:40 29.05.2022
1212 Clouds 21 1013 68 10000 5.14 320 21:44 29.05.2022
1213 Clouds 22 1012 68 10000 5.14 300 20:18 29.05.2022
1214 Clouds 23 1012 60 10000 5.14 320 19:28 29.05.2022
1215 Clouds 23 1012 56 10000 5.14 340 17:56 29.05.2022
1216 Clouds 23 1018 53 10000 6.17 340 16:20 29.05.2022
1217 Clouds 23 1015 53 8000 6.17 340 15:41 29.05.2022
1218 Clouds 22 1018 60 8000 4.12 300 14:49 29.05.2022
1219 Clouds 21 1015 64 8000 3.09 340 12:21 29.05.2022
1220 Clouds 20 1015 68 8000 3.09 280 10:56 29.05.2022
1221 Clouds 19 1016 72 8000 2.06 240 09:54 29.05.2022
1222 Clouds 18 1013 86 10000 3.01 251 07:42 29.05.2022
1223 Clouds 21 1016 73 10000 2.68 300 04:58 29.05.2022
1224 Clouds 21 1016 73 10000 2.68 300 04:32 29.05.2022
1225 Clouds 21 1017 73 10000 2.68 300 00:53 29.05.2022
1226 Clouds 21 1014 73 10000 2.68 300 23:47 28.05.2022
1227 Clouds 21 1014 73 10000 2.68 300 23:18 28.05.2022
1228 Clouds 21 1014 73 10000 3.09 300 21:46 28.05.2022
1229 Clouds 22 1014 68 10000 3.09 320 20:46 28.05.2022
1230 Clouds 22 1014 68 10000 3.09 340 19:19 28.05.2022
1231 Clouds 23 1014 69 10000 3.09 340 18:21 28.05.2022
1232 Clouds 23 1014 69 10000 4.12 320 17:30 28.05.2022
1233 Clear 25 1015 64 10000 3.09 340 15:45 28.05.2022
1234 Clear 25 1015 64 10000 3.09 340 15:19 28.05.2022
1235 Clear 23 1015 69 10000 4.12 320 13:27 28.05.2022
1236 Clouds 23 1015 69 8000 3.09 340 12:42 28.05.2022
1237 Clouds 22 1017 73 8000 3.09 320 11:28 28.05.2022
1238 Clouds 21 1017 83 6000 3.09 340 10:34 28.05.2022
1239 Clouds 19 1015 88 6000 1.03 0 09:46 28.05.2022
1240 Clouds 18 1014 72 10000 1.46 336 07:56 28.05.2022
1241 Clouds 18 1013 71 10000 2.2 331 06:32 28.05.2022
1242 Clouds 23 1016 60 10000 1.79 340 04:43 28.05.2022
1243 Clouds 23 1016 60 10000 1.79 340 01:46 28.05.2022
1244 Clouds 23 1016 60 10000 1.79 340 23:55 27.05.2022
1245 Clouds 23 1016 60 10000 1.79 340 22:38 27.05.2022
1246 Clear 23 1016 60 10000 2.06 340 21:22 27.05.2022
1247 Clear 24 1016 60 10000 3.09 300 20:42 27.05.2022
1248 Clear 24 1016 60 10000 3.09 300 20:18 27.05.2022
1249 Clear 26 1016 57 10000 4.12 320 19:36 27.05.2022
1250 Clear 26 1016 57 10000 4.12 320 19:18 27.05.2022
1251 Clear 26 1014 41 10000 4.12 340 16:43 27.05.2022
1252 Clear 26 1014 53 10000 3.09 360 15:47 27.05.2022
1253 Clear 26 1015 57 10000 2.57 320 14:46 27.05.2022
1254 Clear 27 1015 50 10000 2.06 20 13:36 27.05.2022
1255 Clear 23 1015 68 10000 1.03 360 11:48 27.05.2022
1256 Clear 23 1015 68 10000 1.03 360 11:26 27.05.2022
1257 Clear 22 1015 73 10000 0 0 10:37 27.05.2022
1258 Clear 21 1015 64 10000 0 0 09:52 27.05.2022
1259 Clear 20 1015 64 10000 0 0 09:28 27.05.2022
1260 Clear 15 1015 55 10000 1.11 210 06:58 27.05.2022
1261 Clear 17 1015 56 10000 1.03 225 02:57 27.05.2022
1262 Clear 21 1017 59 10000 0.74 187 00:57 27.05.2022
1263 Clear 24 1015 50 10000 2.24 20 22:53 26.05.2022
1264 Clear 24 1015 50 10000 2.57 20 21:48 26.05.2022
1265 Clear 25 1015 47 10000 2.57 40 20:59 26.05.2022
1266 Clear 25 1015 50 10000 2.06 40 19:30 26.05.2022
1267 Clear 25 1015 50 10000 3.6 20 18:24 26.05.2022
1268 Clear 25 1016 57 10000 3.09 20 16:59 26.05.2022
1269 Clear 24 1016 57 10000 3.09 20 15:58 26.05.2022
1270 Clear 24 1016 57 10000 3.09 20 15:18 26.05.2022
1271 Clouds 23 1016 68 6000 2.06 40 13:46 26.05.2022
1272 Clouds 22 1015 66 6000 2.06 20 11:47 26.05.2022
1273 Clouds 21 1015 68 6000 2.06 80 10:39 26.05.2022
1274 Clouds 19 1015 77 5000 2.06 200 09:37 26.05.2022
1275 Clouds 17 1015 88 5000 2.06 80 08:38 26.05.2022
1276 Clouds 17 1015 76 10000 2.61 29 05:26 26.05.2022
1277 Clouds 18 1017 75 10000 3.33 42 02:19 26.05.2022
1278 Clouds 19 1018 73 10000 3.62 40 23:41 25.05.2022
1279 Clouds 19 1018 72 10000 3.96 34 22:51 25.05.2022
1280 Clouds 20 1017 73 10000 5.14 40 21:39 25.05.2022
1281 Clouds 21 1017 68 10000 5.14 40 20:43 25.05.2022
1282 Clear 21 1017 68 10000 5.14 40 19:32 25.05.2022
1283 Clear 22 1017 64 10000 6.17 20 18:23 25.05.2022
1284 Clear 22 1017 64 10000 5.14 20 16:42 25.05.2022
1285 Clear 22 1017 64 10000 5.14 20 16:21 25.05.2022
1286 Clear 22 1018 60 10000 5.14 360 15:24 25.05.2022
1287 Clear 22 1018 60 10000 4.12 20 14:42 25.05.2022
1288 Clear 22 1018 60 10000 4.12 20 14:24 25.05.2022
1289 Clouds 22 1018 60 8000 4.12 20 12:52 25.05.2022
1290 Clouds 20 1018 60 10000 0.89 40 11:31 25.05.2022
1291 Clouds 20 1018 60 8000 1.03 40 10:23 25.05.2022
1292 Clouds 18 1018 72 10000 2.18 42 08:53 25.05.2022
1293 Clear 17 1017 77 10000 1.99 42 07:23 25.05.2022
1294 Clear 17 1017 75 10000 2.53 21 05:27 25.05.2022
1295 Clear 18 1018 69 10000 3.68 352 00:38 25.05.2022
1296 Clouds 17 1019 69 10000 3.83 353 23:47 24.05.2022
1297 Clouds 19 1017 63 10000 2.68 20 22:53 24.05.2022
1298 Clouds 19 1017 63 10000 3.09 20 21:46 24.05.2022
1299 Clouds 19 1017 63 10000 3.09 20 21:22 24.05.2022
1300 Clouds 19 1017 63 10000 5.14 20 20:44 24.05.2022
1301 Clouds 19 1017 68 10000 6.17 80 19:20 24.05.2022
1302 Clouds 21 1017 64 10000 5.14 340 17:50 24.05.2022
1303 Clouds 22 1017 64 10000 4.12 360 16:36 24.05.2022
1304 Clouds 22 1017 68 10000 4.12 360 15:31 24.05.2022
1305 Clouds 22 1017 68 10000 3.09 340 14:37 24.05.2022
1306 Clouds 21 1016 68 10000 3.09 360 13:35 24.05.2022
1307 Clouds 20 1017 72 8000 3.09 360 12:19 24.05.2022
1308 Clouds 19 1016 77 8000 3.09 20 09:51 24.05.2022
1309 Clouds 19 1016 77 8000 2.06 20 08:51 24.05.2022
1310 Clouds 19 1015 76 10000 3.96 357 07:44 24.05.2022
1311 Clouds 19 1015 78 10000 4.2 351 06:34 24.05.2022
1312 Clouds 20 1014 77 10000 4.02 20 03:32 24.05.2022
1313 Clouds 20 1014 77 10000 4.02 20 01:46 24.05.2022
1314 Clouds 20 1014 77 10000 4.02 20 00:21 24.05.2022
1315 Clouds 20 1014 77 10000 4.02 20 22:24 23.05.2022
1316 Clouds 20 1014 77 8000 4.12 20 21:50 23.05.2022
1317 Clouds 21 1013 73 8000 5.14 20 20:46 23.05.2022
1318 Clouds 21 1013 77 10000 6.17 20 19:51 23.05.2022
1319 Clouds 21 1013 77 10000 6.17 20 19:22 23.05.2022
1320 Clouds 22 1013 68 10000 5.14 20 18:40 23.05.2022
1321 Clouds 22 1013 68 10000 4.12 40 17:56 23.05.2022
1322 Clouds 22 1014 68 10000 4.12 20 16:29 23.05.2022
1323 Clouds 22 1014 64 10000 4.63 40 14:18 23.05.2022
1324 Clouds 21 1014 68 10000 4.12 60 11:53 23.05.2022
1325 Clouds 20 1015 68 10000 3.6 60 10:49 23.05.2022
1326 Clouds 19 1015 72 10000 3.6 60 09:48 23.05.2022
1327 Clouds 18 1015 77 6000 2.57 60 08:46 23.05.2022
1328 Clouds 18 1015 85 10000 3.72 36 07:31 23.05.2022
1329 Clouds 18 1015 86 10000 3.47 41 06:40 23.05.2022
1330 Clouds 19 1016 85 10000 3.77 35 03:51 23.05.2022
1331 Clouds 19 1017 85 10000 3.96 24 02:18 23.05.2022
1332 Clouds 19 1017 85 10000 3.96 24 01:32 23.05.2022
1333 Clouds 20 1018 82 10000 4.08 29 23:18 22.05.2022
1334 Clouds 20 1017 81 10000 4.26 30 22:27 22.05.2022
1335 Clouds 20 1017 77 10000 5.14 40 21:52 22.05.2022
1336 Clouds 21 1015 75 6000 5.14 40 20:46 22.05.2022
1337 Clouds 21 1015 75 6000 5.14 40 20:23 22.05.2022
1338 Clouds 21 1016 73 6000 5.14 20 19:39 22.05.2022
1339 Clouds 21 1019 73 6000 4.12 60 18:52 22.05.2022
1340 Clouds 21 1016 73 6000 4.12 60 18:21 22.05.2022
1341 Clouds 22 1016 68 6000 4.12 20 17:26 22.05.2022
1342 Clouds 22 1017 68 6000 4.12 20 15:57 22.05.2022
1343 Clouds 22 1018 64 6000 4.12 60 14:47 22.05.2022
1344 Clouds 22 1018 64 6000 4.12 60 14:47 22.05.2022
1345 Clouds 22 1019 68 6000 4.12 40 13:21 22.05.2022
1346 Clouds 21 1018 75 6000 3.09 40 12:45 22.05.2022
1347 Clouds 20 1018 77 5000 3.09 20 10:55 22.05.2022
1348 Clouds 19 1018 82 5000 3.09 40 09:38 22.05.2022
1349 Clouds 20 1017 85 10000 3.7 14 07:54 22.05.2022
1350 Clouds 20 1017 87 10000 3.39 11 07:20 22.05.2022
1351 Clouds 20 1018 77 10000 2.68 340 04:49 22.05.2022
1352 Clouds 20 1018 77 10000 2.68 340 01:20 22.05.2022
1353 Clouds 20 1019 77 10000 2.68 340 00:26 22.05.2022
1354 Clouds 20 1018 77 10000 2.68 340 23:47 21.05.2022
1355 Clouds 20 1018 77 10000 2.68 340 22:22 21.05.2022
1356 Clouds 20 1018 77 6000 3.09 340 21:39 21.05.2022
1357 Clouds 20 1017 77 6000 4.12 360 20:48 21.05.2022
1358 Clouds 20 1017 77 6000 4.12 360 20:19 21.05.2022
1359 Clouds 21 1018 77 6000 5.14 360 19:24 21.05.2022
1360 Clouds 22 1017 68 6000 5.14 340 17:38 21.05.2022
1361 Clouds 22 1017 73 6000 4.12 340 15:38 21.05.2022
1362 Mist 22 1018 68 4000 4.12 340 14:37 21.05.2022
1363 Mist 22 1018 73 4000 2.57 320 13:39 21.05.2022
1364 Mist 22 1018 78 4000 3.09 340 12:40 21.05.2022
1365 Mist 22 1017 78 4000 2.57 320 11:54 21.05.2022
1366 Mist 21 1018 77 4000 1.54 340 10:22 21.05.2022
1367 Mist 20 1017 88 4000 2.57 320 09:20 21.05.2022
1368 Mist 19 1017 88 4000 1.03 260 08:47 21.05.2022
1369 Clouds 20 1015 82 10000 2.96 267 06:22 21.05.2022
1370 Clouds 22 1015 78 10000 4.38 242 02:24 21.05.2022
1371 Clouds 22 1018 73 10000 4.02 300 23:45 20.05.2022
1372 Clouds 22 1018 73 10000 4.02 300 22:42 20.05.2022
1373 Clouds 22 1018 73 10000 4.02 300 22:22 20.05.2022
1374 Clouds 22 1015 73 5000 4.12 300 21:27 20.05.2022
1375 Clouds 23 1015 73 5000 3.09 320 20:51 20.05.2022
1376 Clouds 22 1015 78 5000 5.14 300 19:56 20.05.2022
1377 Clouds 24 1015 78 5000 3.6 300 18:59 20.05.2022
1378 Clouds 24 1018 78 5000 3.6 300 18:27 20.05.2022
1379 Clouds 25 1012 73 5000 5.14 340 16:50 20.05.2022
1380 Clouds 26 1011 69 5000 5.14 340 15:55 20.05.2022
1381 Clouds 26 1011 69 5000 5.14 340 15:32 20.05.2022
1382 Clouds 26 1011 69 8000 4.12 300 14:28 20.05.2022
1383 Clouds 24 1011 73 6000 3.09 340 13:31 20.05.2022
1384 Mist 20 1011 88 4000 3.09 220 10:56 20.05.2022
1385 Mist 19 1014 93 3000 1.79 240 09:50 20.05.2022
1386 Mist 19 1014 93 3000 2.06 240 08:38 20.05.2022
1387 Clouds 19 1010 91 10000 2.34 273 06:45 20.05.2022
1388 Clouds 18 1010 89 10000 2.46 251 05:53 20.05.2022
1389 Clouds 22 1011 78 10000 2.68 80 02:53 20.05.2022
1390 Clouds 22 1011 78 10000 2.68 80 23:54 19.05.2022
1391 Clouds 22 1011 78 10000 2.68 80 22:44 19.05.2022
1392 Clear 22 1011 78 10000 3.09 80 21:53 19.05.2022
1393 Clear 22 1011 78 10000 3.09 80 21:24 19.05.2022
1394 Clear 24 1011 73 10000 3.09 20 20:54 19.05.2022
1395 Clear 25 1011 73 10000 3.09 20 20:20 19.05.2022
1396 Clear 25 1011 73 10000 3.09 20 19:25 19.05.2022
1397 Clear 26 1012 61 10000 4.12 360 17:52 19.05.2022
1398 Clear 25 1012 69 10000 3.09 340 16:22 19.05.2022
1399 Clouds 25 1013 69 8000 3.09 40 14:50 19.05.2022
1400 Clouds 25 1013 69 8000 3.09 40 14:21 19.05.2022
1401 Clouds 23 1016 69 8000 3.09 80 12:20 19.05.2022
1402 Clouds 21 1014 73 8000 1.03 80 10:40 19.05.2022
1403 Clouds 18 1014 88 8000 1.03 60 08:57 19.05.2022
1404 Clear 18 1014 88 10000 1.96 54 07:41 19.05.2022
1405 Clear 21 1015 77 10000 4.02 40 04:44 19.05.2022
1406 Clouds 21 1015 77 10000 4.02 40 01:57 19.05.2022
1407 Clouds 21 1015 77 10000 4.02 40 23:49 18.05.2022
1408 Clouds 21 1015 77 10000 4.02 40 22:46 18.05.2022
1409 Clouds 21 1015 77 10000 4.12 40 21:47 18.05.2022
1410 Clouds 21 1015 77 10000 4.12 40 21:24 18.05.2022
1411 Clouds 22 1014 78 10000 4.12 40 20:24 18.05.2022
1412 Clouds 22 1014 78 10000 4.12 20 19:37 18.05.2022
1413 Clouds 23 1015 73 10000 3.09 340 18:21 18.05.2022
1414 Clouds 23 1015 73 10000 3.09 360 17:41 18.05.2022
1415 Clouds 23 1015 73 10000 3.09 360 17:23 18.05.2022
1416 Clouds 23 1016 73 10000 3.09 360 15:59 18.05.2022
1417 Clouds 24 1016 73 10000 3.09 360 15:39 18.05.2022
1418 Clouds 25 1017 69 10000 4.12 340 14:34 18.05.2022
1419 Clouds 24 1016 69 8000 4.12 360 13:20 18.05.2022
1420 Clear 23 1016 73 8000 2.06 20 12:39 18.05.2022
1421 Clouds 22 1016 73 6000 2.06 360 11:34 18.05.2022
1422 Clouds 21 1016 83 6000 2.06 340 10:52 18.05.2022
1423 Clouds 21 1016 83 6000 2.06 340 10:52 18.05.2022
1424 Clouds 18 1016 93 6000 2.06 280 08:53 18.05.2022
1425 Clear 15 1016 90 10000 2.41 341 07:29 18.05.2022
1426 Clear 21 1017 83 10000 2.68 40 05:21 18.05.2022
1427 Clear 21 1017 83 10000 2.68 40 00:52 18.05.2022
1428 Clear 21 1017 83 10000 2.68 40 00:20 18.05.2022
1429 Clouds 21 1017 83 10000 3.09 40 21:36 17.05.2022
1430 Clouds 21 1017 83 10000 3.09 40 21:18 17.05.2022
1431 Clouds 23 1017 73 10000 6.17 40 19:49 17.05.2022
1432 Clouds 23 1017 73 10000 6.17 40 19:26 17.05.2022
1433 Clouds 23 1018 73 10000 5.14 40 17:49 17.05.2022
1434 Clouds 22 1018 73 10000 5.14 40 16:58 17.05.2022
1435 Clouds 22 1018 73 10000 5.14 40 16:29 17.05.2022
1436 Clouds 22 1019 73 10000 4.12 20 15:24 17.05.2022
1437 Clear 23 1020 69 10000 4.63 360 14:30 17.05.2022
1438 Clear 23 1020 69 10000 4.63 360 14:30 17.05.2022
1439 Clear 23 1020 69 10000 4.63 360 14:30 17.05.2022
1440 Clear 23 1020 64 10000 3.6 60 13:32 17.05.2022
1441 Clouds 21 1020 73 10000 3.09 100 11:21 17.05.2022
1442 Clouds 19 1020 85 10000 2.06 80 09:23 17.05.2022
1443 Clear 17 1020 82 10000 3.32 44 07:59 17.05.2022
1444 Clear 17 1020 83 10000 3.25 39 06:36 17.05.2022
1445 Clear 20 1020 77 10000 2.68 40 02:55 17.05.2022
1446 Clear 20 1020 77 10000 2.68 40 00:32 17.05.2022
1447 Clear 20 1020 77 10000 2.68 40 22:42 16.05.2022
1448 Clouds 20 1020 77 10000 3.09 40 21:36 16.05.2022
1449 Clouds 20 1020 77 10000 4.63 40 20:46 16.05.2022
1450 Clear 21 1020 73 10000 3.09 40 19:22 16.05.2022
1451 Clear 22 1020 64 10000 5.14 60 17:58 16.05.2022
1452 Clouds 22 1021 68 10000 3.09 40 15:49 16.05.2022
1453 Clouds 22 1021 64 10000 4.12 40 13:49 16.05.2022
1454 Clear 21 1021 64 8000 5.14 60 12:50 16.05.2022
1455 Clouds 19 1021 77 8000 3.09 80 10:52 16.05.2022
1456 Clouds 18 1020 88 8000 2.06 60 09:23 16.05.2022
1457 Clouds 18 1020 85 10000 2.51 56 06:34 16.05.2022
1458 Clouds 21 1021 73 10000 4.02 340 02:39 16.05.2022
1459 Clouds 21 1020 73 10000 4.02 340 23:26 15.05.2022
1460 Clouds 21 1019 73 10000 4.02 340 22:29 15.05.2022
1461 Clouds 21 1021 73 10000 4.12 340 21:39 15.05.2022
1462 Clouds 21 1019 68 10000 4.12 20 20:54 15.05.2022
1463 Clear 22 1019 64 10000 3.6 340 19:28 15.05.2022
1464 Clouds 23 1019 64 10000 3.6 20 17:51 15.05.2022
1465 Clouds 24 1020 57 10000 3.6 340 15:56 15.05.2022
1466 Clouds 23 1020 56 10000 1.03 140 13:50 15.05.2022
1467 Clouds 23 1020 56 10000 2.06 360 12:23 15.05.2022
1468 Clouds 20 1020 73 8000 2.06 320 11:38 15.05.2022
1469 Clouds 20 1020 73 8000 2.06 320 11:38 15.05.2022
1470 Clouds 19 1019 80 8000 2.06 300 10:23 15.05.2022
1471 Clouds 17 1019 90 10000 1.73 248 07:46 15.05.2022
1472 Clouds 16 1018 90 10000 2.04 255 06:57 15.05.2022
1473 Clear 20 1017 72 10000 4.02 340 04:44 15.05.2022
1474 Clear 20 1017 72 10000 4.02 340 00:49 15.05.2022
1475 Clear 20 1017 72 10000 4.02 340 23:38 14.05.2022
1476 Clear 20 1017 72 10000 4.02 340 22:45 14.05.2022
1477 Clear 20 1017 72 10000 4.12 340 21:28 14.05.2022
1478 Clear 22 1017 64 10000 2.06 360 20:44 14.05.2022
1479 Clear 22 1017 68 10000 3.09 320 19:37 14.05.2022
1480 Clear 22 1017 68 10000 3.09 320 19:19 14.05.2022
1481 Clouds 22 1018 68 10000 3.09 320 17:56 14.05.2022
1482 Clouds 22 1018 68 10000 4.12 340 16:37 14.05.2022
1483 Clouds 22 1021 68 8000 2.06 320 14:59 14.05.2022
1484 Clouds 22 1019 68 8000 2.06 320 14:30 14.05.2022
1485 Clouds 20 1019 77 8000 3.09 320 12:23 14.05.2022
1486 Clouds 19 1018 82 8000 2.06 260 10:54 14.05.2022
1487 Clouds 19 1018 82 8000 2.06 260 10:20 14.05.2022
1488 Clouds 19 1018 82 8000 2.68 280 09:53 14.05.2022
1489 Clouds 19 1017 82 8000 3.09 280 08:46 14.05.2022
1490 Clouds 18 1016 73 10000 3.99 270 05:43 14.05.2022
1491 Clouds 20 1017 69 10000 2.62 234 01:58 14.05.2022
1492 Clouds 21 1018 68 10000 1.58 167 23:32 13.05.2022
1493 Clouds 21 1018 71 10000 0.83 131 22:57 13.05.2022
1494 Clouds 21 1018 72 10000 1.38 278 22:23 13.05.2022
1495 Clouds 21 1017 83 10000 2.06 260 21:38 13.05.2022
1496 Clouds 21 1017 83 6000 4.12 320 20:44 13.05.2022
1497 Clouds 21 1017 83 6000 4.12 320 20:24 13.05.2022
1498 Clouds 22 1017 78 6000 4.12 320 19:25 13.05.2022
1499 Clouds 23 1017 78 6000 5.14 340 17:50 13.05.2022
1500 Clouds 23 1017 78 6000 5.14 340 17:50 13.05.2022
1501 Clouds 23 1017 78 6000 5.14 340 17:27 13.05.2022
1502 Clouds 23 1017 73 6000 5.14 340 16:18 13.05.2022
1503 Clouds 24 1018 71 6000 5.14 340 15:20 13.05.2022
1504 Clear 25 1017 64 6000 5.14 340 13:29 13.05.2022
1505 Clear 26 1015 61 6000 3.09 320 12:25 13.05.2022
1506 Clear 26 1015 61 6000 3.09 320 12:25 13.05.2022
1507 Clear 21 1017 73 6000 2.06 260 10:46 13.05.2022
1508 Clouds 19 1017 82 5000 3.09 200 09:33 13.05.2022
1509 Clouds 18 1017 88 5000 2.06 200 08:23 13.05.2022
1510 Clouds 16 1016 84 10000 2.67 285 07:42 13.05.2022
1511 Clouds 17 1015 81 10000 3.01 309 05:59 13.05.2022
1512 Clouds 20 1016 73 10000 1.46 22 02:44 13.05.2022
1513 Clouds 25 1018 71 10000 1.6 254 23:46 12.05.2022
1514 Clouds 26 1017 66 10000 1.17 278 22:44 12.05.2022
1515 Clouds 27 1016 32 6000 3.09 280 21:54 12.05.2022
1516 Clouds 28 1015 28 6000 4.12 220 20:25 12.05.2022
1517 Thunderstorm 30 1014 20 6000 4.12 300 18:41 12.05.2022
1518 Dust 25 1017 47 3000 7.2 320 16:58 12.05.2022
1519 Clouds 29 1016 36 6000 5.14 260 15:50 12.05.2022
1520 Clouds 28 1015 44 6000 2.57 120 14:39 12.05.2022
1521 Clouds 29 1015 37 6000 4.63 20 13:34 12.05.2022
1522 Clouds 25 1013 36 6000 3.6 160 10:43 12.05.2022
1523 Clouds 24 1013 41 6000 1.54 80 09:24 12.05.2022
1524 Clouds 24 1014 41 6000 1.03 340 08:50 12.05.2022
1525 Clouds 24 1012 49 10000 2.41 305 07:38 12.05.2022
1526 Clouds 24 1015 47 10000 1.34 320 05:35 12.05.2022
1527 Clouds 24 1015 47 10000 1.34 320 02:49 12.05.2022
1528 Clouds 24 1015 47 10000 1.34 320 00:33 12.05.2022
1529 Clouds 24 1015 47 10000 1.34 320 22:33 11.05.2022
1530 Clear 24 1015 47 10000 1.54 320 21:33 11.05.2022
1531 Clear 24 1014 47 10000 1.54 320 20:53 11.05.2022
1532 Clear 26 1015 47 10000 3.6 320 18:24 11.05.2022
1533 Clear 26 1015 53 10000 4.63 320 16:51 11.05.2022
1534 Clear 26 1015 53 10000 4.63 320 16:51 11.05.2022
1535 Clear 25 1015 53 10000 4.12 320 14:51 11.05.2022
1536 Clear 25 1015 53 10000 4.12 320 14:26 11.05.2022
1537 Clear 26 1015 57 10000 5.14 300 13:51 11.05.2022
1538 Clear 23 1014 60 10000 4.12 280 11:51 11.05.2022
1539 Clear 21 1014 68 10000 3.09 280 10:32 11.05.2022
1540 Clouds 15 1013 58 10000 1.02 253 08:37 11.05.2022
1541 Clouds 15 1012 60 10000 1.92 63 05:19 11.05.2022
1542 Clouds 24 1013 53 10000 1.79 360 00:42 11.05.2022
1543 Clouds 24 1013 53 10000 1.79 360 22:30 10.05.2022
1544 Clear 24 1013 53 10000 2.06 360 21:55 10.05.2022
1545 Clear 26 1013 47 10000 4.12 80 20:54 10.05.2022
1546 Clear 27 1013 42 10000 3.09 80 19:26 10.05.2022
1547 Clear 27 1014 42 10000 5.14 60 17:54 10.05.2022
1548 Clear 27 1014 44 10000 4.12 40 16:56 10.05.2022
1549 Clear 26 1016 53 10000 3.09 160 14:48 10.05.2022
1550 Clear 25 1016 64 10000 3.09 40 12:39 10.05.2022
1551 Clouds 24 1015 57 8000 1.03 100 11:49 10.05.2022
1552 Clouds 25 1015 57 8000 1.03 100 11:20 10.05.2022
1553 Clouds 20 1015 77 6000 2.06 180 10:22 10.05.2022
1554 Mist 17 1015 94 3000 2.06 180 09:25 10.05.2022
1555 Clouds 13 1014 79 10000 1.68 11 06:46 10.05.2022
1556 Clear 15 1015 67 10000 0.81 9 03:30 10.05.2022
1557 Clear 20 1016 66 10000 2.1 25 00:38 10.05.2022
1558 Clear 24 1015 50 10000 2.68 20 22:52 09.05.2022
1559 Clear 24 1015 50 10000 3.09 20 21:50 09.05.2022
1560 Clear 25 1015 44 10000 3.09 20 20:30 09.05.2022
1561 Clear 26 1015 50 10000 3.09 40 18:43 09.05.2022
1562 Clear 26 1015 50 10000 3.09 40 17:44 09.05.2022
1563 Clear 27 1015 39 10000 3.09 40 16:30 09.05.2022
1564 Clear 27 1015 39 10000 3.09 40 16:30 09.05.2022
1565 Clouds 26 1015 39 10000 3.09 40 15:51 09.05.2022
1566 Clouds 26 1016 50 10000 3.09 40 14:54 09.05.2022
1567 Clouds 26 1016 50 10000 3.09 40 14:22 09.05.2022
1568 Clouds 27 1016 44 8000 2.06 40 13:36 09.05.2022
1569 Clouds 25 1015 50 6000 2.06 40 12:18 09.05.2022
1570 Mist 20 1016 82 3000 2.06 160 10:55 09.05.2022
1571 Mist 20 1016 82 3000 2.06 160 10:36 09.05.2022
1572 Mist 16 1015 94 3000 2.06 210 08:31 09.05.2022
1573 Clouds 11 1015 84 10000 2.13 32 07:49 09.05.2022
1574 Clouds 18 1015 82 10000 3.19 20 02:55 09.05.2022
1575 Clear 22 1015 56 10000 4.02 80 23:29 08.05.2022
1576 Clear 22 1015 56 10000 4.02 80 22:51 08.05.2022
1577 Clouds 22 1015 56 8000 4.12 80 21:48 08.05.2022
1578 Clouds 22 1015 56 8000 4.12 80 21:48 08.05.2022
1579 Clouds 22 1015 56 8000 4.12 80 21:48 08.05.2022
1580 Clouds 22 1014 68 8000 4.12 60 20:34 08.05.2022
1581 Clouds 22 1014 68 8000 4.12 60 19:43 08.05.2022
1582 Clouds 25 1014 57 8000 4.12 20 18:52 08.05.2022
1583 Clear 25 1015 60 8000 4.12 40 17:52 08.05.2022
1584 Clear 26 1015 53 8000 4.12 20 16:42 08.05.2022
1585 Clear 24 1016 69 8000 4.12 360 15:26 08.05.2022
1586 Clear 24 1016 69 6000 3.09 200 14:39 08.05.2022
1587 Clouds 22 1016 68 6000 3.09 20 12:21 08.05.2022
1588 Clouds 20 1020 77 6000 1.03 60 10:27 08.05.2022
1589 Clouds 17 1017 88 6000 1.03 140 09:56 08.05.2022
1590 Mist 16 1016 94 3000 1.03 180 08:52 08.05.2022
1591 Clouds 15 1016 87 10000 2.73 56 06:57 08.05.2022
1592 Clear 18 1017 85 10000 2.76 27 03:26 08.05.2022
1593 Clear 18 1017 85 10000 2.76 27 02:41 08.05.2022
1594 Clouds 19 1018 81 10000 2.95 44 00:21 08.05.2022
1595 Clouds 20 1018 81 10000 2.95 44 23:47 07.05.2022
1596 Clouds 20 1018 79 10000 3.32 37 22:46 07.05.2022
1597 Clear 23 1017 53 10000 3.09 40 21:57 07.05.2022
1598 Clear 23 1017 53 10000 3.09 40 21:33 07.05.2022
1599 Clear 22 1017 60 10000 2.57 40 20:27 07.05.2022
1600 Clear 23 1017 53 10000 2.06 40 19:22 07.05.2022
1601 Clear 24 1018 53 10000 3.09 60 17:33 07.05.2022
1602 Clear 25 1018 53 10000 4.12 40 15:34 07.05.2022
1603 Clear 23 1019 56 10000 3.09 360 12:34 07.05.2022
1604 Clear 20 1019 68 10000 2.06 20 10:23 07.05.2022
1605 Clouds 12 1019 73 10000 1.62 40 08:37 07.05.2022
1606 Clouds 12 1018 78 10000 1.98 64 07:37 07.05.2022
1607 Clouds 12 1018 80 10000 1.88 64 06:43 07.05.2022
1608 Clouds 18 1018 80 10000 3.34 44 04:24 07.05.2022
1609 Clouds 21 1019 64 10000 2.68 60 00:50 07.05.2022
1610 Clear 21 1019 64 10000 2.68 60 22:55 06.05.2022
1611 Clear 21 1019 64 10000 2.68 60 22:21 06.05.2022
1612 Clear 21 1019 64 10000 3.09 60 21:36 06.05.2022
1613 Clear 22 1019 60 10000 3.6 60 20:18 06.05.2022
1614 Clear 22 1019 60 10000 4.12 60 19:28 06.05.2022
1615 Clear 23 1019 53 10000 5.66 40 18:49 06.05.2022
1616 Clear 24 1019 53 10000 5.14 40 17:38 06.05.2022
1617 Clouds 24 1019 49 10000 5.14 40 15:55 06.05.2022
1618 Clouds 23 1019 49 10000 5.14 40 15:32 06.05.2022
1619 Clouds 23 1019 53 10000 4.12 80 14:22 06.05.2022
1620 Clouds 21 1020 68 6000 3.09 40 12:52 06.05.2022
1621 Clouds 21 1019 68 6000 3.09 40 12:20 06.05.2022
1622 Clouds 21 1020 73 6000 2.06 120 11:31 06.05.2022
1623 Mist 18 1019 88 3000 2.06 100 09:48 06.05.2022
1624 Mist 18 1019 88 3000 2.06 100 09:48 06.05.2022
1625 Clear 15 1020 76 10000 4.54 40 09:18 06.05.2022
1626 Clear 14 1020 83 10000 4.26 39 07:55 06.05.2022
1627 Clear 15 1019 89 10000 3.13 28 06:27 06.05.2022
1628 Clear 19 1019 77 10000 4.92 60 04:29 06.05.2022
1629 Clear 19 1019 77 10000 4.92 60 02:38 06.05.2022
1630 Clear 19 1019 77 10000 4.92 60 23:24 05.05.2022
1631 Clear 19 1019 77 10000 5.14 60 21:51 05.05.2022
1632 Clear 20 1019 68 10000 3.09 80 20:37 05.05.2022
1633 Clear 21 1019 62 10000 5.14 60 19:19 05.05.2022
1634 Clouds 21 1020 64 10000 5.14 40 16:42 05.05.2022
1635 Clouds 21 1020 64 10000 4.12 40 15:31 05.05.2022
1636 Clear 21 1020 64 10000 4.63 40 13:30 05.05.2022
1637 Clouds 19 1020 74 10000 4.12 40 12:56 05.05.2022
1638 Clouds 19 1020 72 6000 2.57 40 11:35 05.05.2022
1639 Clouds 14 1019 88 5000 1.03 140 09:41 05.05.2022
1640 Clouds 14 1019 88 5000 1.03 140 09:41 05.05.2022
1641 Clear 13 1019 79 10000 2.86 74 08:54 05.05.2022
1642 Clear 11 1017 84 10000 3.01 63 06:28 05.05.2022
1643 Clear 16 1018 83 10000 2.14 47 02:27 05.05.2022
1644 Clear 15 1018 83 10000 2.37 40 01:44 05.05.2022
1645 Clear 16 1018 82 10000 2.12 42 00:49 05.05.2022
1646 Clear 17 1018 79 10000 2.71 31 23:18 04.05.2022
1647 Clouds 18 1016 77 10000 2.06 340 21:59 04.05.2022
1648 Clouds 18 1016 77 10000 2.06 340 21:34 04.05.2022
1649 Clouds 19 1016 72 10000 1.03 20 20:55 04.05.2022
1650 Clouds 19 1016 72 10000 1.03 20 20:18 04.05.2022
1651 Clouds 20 1017 70 10000 4.12 20 19:35 04.05.2022
1652 Clouds 20 1017 68 10000 4.12 340 18:43 04.05.2022
1653 Clouds 20 1017 68 10000 4.12 340 18:19 04.05.2022
1654 Clouds 20 1016 68 10000 5.14 340 17:22 04.05.2022
1655 Clouds 20 1016 60 8000 4.12 340 15:34 04.05.2022
1656 Clouds 20 1016 60 8000 4.12 340 14:41 04.05.2022
1657 Clouds 20 1016 60 8000 4.12 340 14:19 04.05.2022
1658 Clouds 18 1021 72 10000 1.79 260 12:39 04.05.2022
1659 Clouds 18 1015 72 8000 2.06 260 11:40 04.05.2022
1660 Clouds 15 1015 85 8000 3.09 260 10:27 04.05.2022
1661 Clouds 14 1015 87 8000 3.09 240 09:21 04.05.2022
1662 Rain 12 1014 80 10000 3.75 253 07:51 04.05.2022
1663 Clouds 15 1014 72 10000 2.68 340 04:45 04.05.2022
1664 Clouds 15 1014 72 10000 2.68 340 02:33 04.05.2022
1665 Clouds 16 1014 72 8000 3.09 340 22:59 03.05.2022
1666 Clouds 17 1013 63 8000 3.09 340 21:50 03.05.2022
1667 Clouds 17 1015 63 8000 3.09 340 21:31 03.05.2022
1668 Clouds 18 1013 63 8000 3.09 340 20:46 03.05.2022
1669 Clouds 18 1013 63 8000 2.06 320 19:32 03.05.2022
1670 Clouds 18 1013 63 8000 3.09 340 18:43 03.05.2022
1671 Clouds 18 1013 63 8000 3.09 340 17:21 03.05.2022
1672 Clouds 19 1013 72 8000 3.09 360 15:57 03.05.2022
1673 Clouds 16 1014 94 8000 3.09 360 14:23 03.05.2022
1674 Clouds 16 1016 87 6000 3.09 340 12:35 03.05.2022
1675 Clouds 15 1015 93 10000 3.09 320 11:35 03.05.2022
1676 Clouds 16 1015 91 6000 3.09 260 10:26 03.05.2022
1677 Rain 15 1013 85 10000 4.02 269 08:19 03.05.2022
1678 Rain 15 1013 83 10000 3.58 265 08:19 03.05.2022
1679 Rain 15 1013 83 10000 3.55 267 06:45 03.05.2022
1680 Rain 16 1015 85 10000 3.56 280 02:39 03.05.2022
1681 Clouds 16 1018 82 10000 2.69 292 23:19 02.05.2022
1682 Clouds 17 1017 79 10000 2.89 306 22:28 02.05.2022
1683 Clouds 17 1017 77 10000 3.09 340 21:37 02.05.2022
1684 Clouds 19 1019 63 10000 4.12 20 19:26 02.05.2022
1685 Clouds 19 1018 63 10000 3.09 20 18:26 02.05.2022
1686 Clouds 19 1018 63 10000 3.09 340 17:39 02.05.2022
1687 Clouds 18 1019 70 10000 3.09 360 16:42 02.05.2022
1688 Clouds 17 1019 77 10000 2.68 320 15:41 02.05.2022
1689 Clouds 17 1019 77 10000 3.09 320 14:45 02.05.2022
1690 Clouds 17 1020 77 10000 1.54 20 13:42 02.05.2022
1691 Clouds 17 1020 67 8000 2.57 360 11:41 02.05.2022
1692 Clouds 16 1020 77 8000 1.54 360 09:42 02.05.2022
1693 Clear 17 1019 81 10000 2.72 344 08:29 02.05.2022
1694 Clear 17 1019 81 10000 2.91 348 06:53 02.05.2022
1695 Clear 15 1021 83 10000 2.72 350 00:46 02.05.2022
1696 Clear 15 1021 83 10000 2.85 349 00:22 02.05.2022
1697 Clear 20 1020 64 10000 2.68 20 22:54 01.05.2022
1698 Clouds 20 1020 64 8000 3.09 20 21:43 01.05.2022
1699 Clouds 21 1020 60 8000 3.09 20 20:36 01.05.2022
1700 Clouds 21 1020 68 8000 3.09 20 19:22 01.05.2022
1701 Clouds 22 1019 68 8000 4.12 20 18:52 01.05.2022
1702 Clouds 23 1021 60 8000 4.12 20 17:49 01.05.2022
1703 Clouds 23 1020 49 8000 4.12 40 16:38 01.05.2022
1704 Clouds 22 1020 64 8000 4.12 20 15:57 01.05.2022
1705 Clouds 22 1020 64 8000 4.12 10 14:45 01.05.2022
1706 Clouds 21 1021 73 8000 3.09 340 12:40 01.05.2022
1707 Clouds 18 1021 82 6000 3.09 200 10:22 01.05.2022
1708 Clouds 15 1020 85 10000 0.84 56 08:50 01.05.2022
1709 Clouds 14 1019 90 10000 0.95 340 06:50 01.05.2022
1710 Clouds 18 1019 77 10000 1.79 40 01:56 01.05.2022
1711 Clouds 18 1019 77 8000 2.06 40 22:51 30.04.2022
1712 Clouds 19 1018 68 8000 3.09 40 21:33 30.04.2022
1713 Clear 21 1018 56 10000 4.12 40 19:54 30.04.2022
1714 Clear 21 1018 56 10000 4.12 40 19:25 30.04.2022
1715 Clear 22 1018 53 10000 4.12 40 17:31 30.04.2022
1716 Clear 22 1019 46 10000 4.12 60 15:52 30.04.2022
1717 Clear 22 1019 46 10000 4.12 60 15:18 30.04.2022
1718 Clear 21 1019 52 10000 2.57 60 13:59 30.04.2022
1719 Clear 19 1019 55 10000 2.57 60 11:48 30.04.2022
1720 Clear 19 1019 55 10000 2.57 60 11:26 30.04.2022
1721 Clear 18 1018 54 10000 3.58 40 10:23 30.04.2022
1722 Clouds 14 1017 65 10000 3.68 45 07:47 30.04.2022
1723 Clouds 19 1017 68 10000 3.58 40 04:25 30.04.2022
1724 Clear 19 1017 68 10000 3.58 40 23:57 29.04.2022
1725 Clear 19 1017 68 10000 3.58 40 22:51 29.04.2022
1726 Clear 19 1017 68 10000 3.6 40 21:56 29.04.2022
1727 Clear 19 1017 68 10000 3.6 40 21:25 29.04.2022
1728 Clear 20 1016 66 10000 5.81 60 20:18 29.04.2022
1729 Clear 20 1016 64 10000 6.17 60 19:27 29.04.2022
1730 Clear 21 1016 60 10000 6.17 60 17:35 29.04.2022
1731 Clear 21 1017 56 10000 5.14 40 16:38 29.04.2022
1732 Clear 21 1018 56 10000 5.14 40 14:36 29.04.2022
1733 Clear 21 1018 60 10000 3.09 40 13:42 29.04.2022
1734 Clear 19 1019 55 10000 3.09 80 12:37 29.04.2022
1735 Clear 17 1019 67 10000 3.09 120 10:32 29.04.2022
1736 Clear 13 1018 80 10000 5.16 71 07:55 29.04.2022
1737 Clear 13 1017 79 10000 4.47 72 07:25 29.04.2022
1738 Clear 13 1017 79 10000 4.47 72 06:30 29.04.2022
1739 Clouds 15 1020 74 10000 4.75 47 01:47 29.04.2022
1740 Clouds 16 1020 74 10000 5.04 39 23:55 28.04.2022
1741 Clouds 16 1020 74 10000 5.38 31 23:25 28.04.2022
1742 Clouds 17 1020 73 10000 5.59 23 22:19 28.04.2022
1743 Clouds 17 1019 72 10000 6.17 20 21:41 28.04.2022
1744 Clouds 18 1018 68 10000 5.14 20 20:45 28.04.2022
1745 Clouds 19 1018 72 10000 6.17 20 19:49 28.04.2022
1746 Clouds 19 1018 72 10000 6.17 20 19:24 28.04.2022
1747 Clouds 19 1018 72 10000 6.17 20 19:24 28.04.2022
1748 Clouds 19 1018 70 10000 7.15 360 18:51 28.04.2022
1749 Clouds 19 1018 68 10000 7.2 360 17:42 28.04.2022
1750 Clouds 19 1018 68 10000 6.17 20 16:51 28.04.2022
1751 Clouds 19 1018 68 10000 6.17 20 16:20 28.04.2022
1752 Clouds 19 1018 68 10000 6.17 20 16:20 28.04.2022
1753 Clouds 19 1019 63 10000 6.17 20 15:43 28.04.2022
1754 Clouds 20 1019 60 10000 4.12 20 14:58 28.04.2022
1755 Clouds 20 1020 60 10000 4.12 360 13:33 28.04.2022
1756 Clouds 19 1020 59 10000 2.06 40 12:28 28.04.2022
1757 Clouds 17 1020 72 10000 2.06 40 10:59 28.04.2022
1758 Clouds 17 1020 72 10000 2.06 40 10:26 28.04.2022
1759 Clouds 15 1020 82 10000 2.06 40 09:47 28.04.2022
1760 Clouds 11 1020 80 10000 3.18 19 07:40 28.04.2022
1761 Clouds 11 1020 81 10000 3.37 1 06:42 28.04.2022
1762 Clouds 12 1019 81 10000 3.37 21 05:52 28.04.2022
1763 Clouds 14 1019 82 10000 3.84 16 04:42 28.04.2022
1764 Clouds 15 1020 80 10000 4.38 16 01:53 28.04.2022
1765 Clouds 16 1020 78 10000 4.22 22 23:25 27.04.2022
1766 Clouds 17 1019 76 10000 4.42 18 22:18 27.04.2022
1767 Clouds 18 1018 63 10000 3.09 40 21:34 27.04.2022
1768 Clouds 18 1018 63 10000 3.09 40 20:45 27.04.2022
1769 Clouds 19 1018 63 10000 3.09 40 19:54 27.04.2022
1770 Clouds 19 1018 63 10000 3.09 40 19:31 27.04.2022
1771 Clouds 19 1018 55 10000 3.09 60 18:38 27.04.2022
1772 Clouds 19 1018 68 10000 5.14 40 17:41 27.04.2022
1773 Clouds 20 1019 68 10000 3.09 20 15:56 27.04.2022
1774 Clouds 17 1019 82 8000 1.54 20 12:50 27.04.2022
1775 Clouds 18 1018 72 8000 3.09 80 11:24 27.04.2022
1776 Clouds 17 1018 72 8000 2.06 160 10:27 27.04.2022
1777 Rain 10 1017 86 10000 1.47 72 07:53 27.04.2022
1778 Clouds 10 1016 86 10000 1.53 53 06:41 27.04.2022
1779 Clouds 17 1016 72 10000 2.68 40 02:26 27.04.2022
1780 Clouds 17 1016 72 10000 2.68 40 01:21 27.04.2022
1781 Clear 17 1016 72 10000 2.68 40 00:27 27.04.2022
1782 Clear 17 1016 72 10000 2.68 40 23:24 26.04.2022
1783 Clouds 17 1016 72 10000 3.09 40 22:44 26.04.2022
1784 Clouds 17 1015 72 10000 3.09 20 21:57 26.04.2022
1785 Clouds 17 1015 72 10000 3.09 20 21:18 26.04.2022
1786 Clouds 18 1014 63 10000 4.12 40 20:36 26.04.2022
1787 Clouds 18 1014 63 10000 7.2 360 19:44 26.04.2022
1788 Clouds 18 1014 63 10000 7.2 360 19:24 26.04.2022
1789 Clouds 19 1014 63 10000 7.2 20 18:20 26.04.2022
1790 Clouds 19 1013 59 10000 5.14 40 17:38 26.04.2022
1791 Clouds 19 1014 59 10000 3.09 60 14:59 26.04.2022
1792 Clouds 19 1013 59 10000 4.12 40 13:38 26.04.2022
1793 Clouds 18 1013 63 10000 4.12 40 12:35 26.04.2022
1794 Clouds 16 1013 72 8000 2.06 100 10:57 26.04.2022
1795 Clouds 16 1013 72 8000 2.06 100 10:29 26.04.2022
1796 Clouds 14 1012 77 10000 2.57 26 08:29 26.04.2022
1797 Clouds 13 1012 77 10000 3.1 50 04:39 26.04.2022
1798 Clouds 15 1012 77 10000 2.76 28 03:25 26.04.2022
1799 Clouds 15 1013 75 10000 3.21 37 00:39 26.04.2022
1800 Clouds 15 1014 74 10000 3.5 27 23:48 25.04.2022
1801 Clouds 17 1012 67 10000 4.12 40 21:49 25.04.2022
1802 Clouds 17 1017 67 10000 4.12 40 21:23 25.04.2022
1803 Clouds 18 1011 63 10000 4.12 20 19:39 25.04.2022
1804 Clouds 19 1011 59 10000 4.12 60 18:25 25.04.2022
1805 Clouds 19 1011 59 10000 4.63 40 17:39 25.04.2022
1806 Clouds 19 1012 59 10000 3.09 60 16:30 25.04.2022
1807 Clouds 19 1023 52 10000 4.92 360 15:19 25.04.2022
1808 Clouds 19 1018 52 10000 5.14 360 14:22 25.04.2022
1809 Clouds 18 1013 59 10000 3.09 60 12:40 25.04.2022
1810 Clear 16 1012 77 8000 2.06 80 10:29 25.04.2022
1811 Clear 16 1012 77 8000 2.06 80 10:29 25.04.2022
1812 Clear 15 1012 82 8000 1.03 0 09:36 25.04.2022
1813 Clear 10 1012 81 10000 1.45 84 07:34 25.04.2022
1814 Clear 16 1013 67 10000 3.58 20 05:53 25.04.2022
1815 Clouds 17 1024 67 10000 3.58 20 01:27 25.04.2022
1816 Clouds 17 1016 67 10000 3.58 20 23:54 24.04.2022
1817 Clouds 17 1015 67 10000 3.58 20 23:20 24.04.2022
1818 Clouds 16 1015 72 10000 2.96 13 22:37 24.04.2022
1819 Clouds 17 1014 67 10000 3.6 20 21:54 24.04.2022
1820 Clouds 17 1014 67 10000 3.6 20 21:20 24.04.2022
1821 Clouds 18 1013 68 10000 4.12 40 20:39 24.04.2022
1822 Clouds 18 1013 68 10000 3.09 20 19:57 24.04.2022
1823 Clouds 19 1013 63 10000 4.63 40 18:33 24.04.2022
1824 Clouds 19 1013 59 10000 4.12 360 17:40 24.04.2022
1825 Clouds 19 1013 59 10000 4.12 360 17:20 24.04.2022
1826 Clouds 19 1013 59 10000 5.14 20 16:49 24.04.2022
1827 Clouds 19 1013 59 10000 5.14 20 16:20 24.04.2022
1828 Clouds 20 1014 52 10000 4.12 360 15:32 24.04.2022
1829 Clouds 19 1014 59 10000 3.09 40 14:30 24.04.2022
1830 Clouds 18 1014 53 10000 4.12 20 13:26 24.04.2022
1831 Clear 18 1014 52 10000 3.09 40 12:38 24.04.2022
1832 Clear 17 1014 55 10000 4.12 20 11:39 24.04.2022
1833 Clear 16 1014 63 10000 1.03 80 10:32 24.04.2022
1834 Clear 14 1014 71 10000 2.06 160 09:39 24.04.2022
1835 Clouds 9 1014 73 10000 1.53 119 07:31 24.04.2022
1836 Clouds 10 1014 69 10000 1.47 65 04:56 24.04.2022
1837 Clear 16 1015 55 10000 2.68 320 01:39 24.04.2022
1838 Clear 17 1015 55 10000 2.68 320 00:33 24.04.2022
1839 Clear 17 1015 55 10000 2.68 320 23:45 23.04.2022
1840 Clear 17 1015 55 10000 2.68 320 23:22 23.04.2022
1841 Clear 17 1015 55 10000 3.09 320 21:54 23.04.2022
1842 Clear 17 1015 55 10000 3.09 320 21:34 23.04.2022
1843 Clear 18 1014 52 10000 5.14 360 20:57 23.04.2022
1844 Clear 18 1014 55 10000 5.14 360 19:48 23.04.2022
1845 Clear 18 1014 55 10000 5.14 360 19:19 23.04.2022
1846 Clouds 19 1014 55 10000 4.12 340 18:52 23.04.2022
1847 Clouds 19 1014 55 10000 3.09 340 17:51 23.04.2022
1848 Clouds 19 1014 55 10000 3.09 340 17:30 23.04.2022
1849 Clouds 19 1014 52 10000 3.09 340 16:42 23.04.2022
1850 Clouds 19 1014 52 8000 3.09 300 15:28 23.04.2022
1851 Clouds 17 1015 63 8000 5.14 320 12:44 23.04.2022
1852 Clouds 15 1014 87 8000 2.06 260 10:49 23.04.2022
1853 Clouds 14 1015 87 8000 3.09 240 09:38 23.04.2022
1854 Rain 14 1012 75 10000 6.36 280 06:41 23.04.2022
1855 Clouds 18 1018 67 10000 5.81 280 03:54 23.04.2022
1856 Rain 16 1011 77 10000 9.24 236 01:25 23.04.2022
1857 Rain 17 1011 77 10000 9.46 235 23:31 22.04.2022
1858 Clouds 17 1010 75 10000 10.13 238 22:20 22.04.2022
1859 Clouds 18 1008 68 10000 6.17 280 21:44 22.04.2022
1860 Clouds 19 1008 59 10000 6.17 280 20:48 22.04.2022
1861 Clouds 20 1008 59 10000 6.17 280 20:27 22.04.2022
1862 Clouds 20 1008 59 10000 6.17 280 19:20 22.04.2022
1863 Clouds 21 1008 52 10000 7.2 280 18:42 22.04.2022
1864 Clouds 21 1008 52 10000 6.17 280 17:48 22.04.2022
1865 Clouds 21 1008 52 10000 6.17 300 16:46 22.04.2022
1866 Clouds 21 1008 46 10000 7.2 280 15:44 22.04.2022
1867 Clouds 22 1008 46 10000 7.2 280 15:18 22.04.2022
1868 Clouds 20 1009 49 8000 7.2 240 13:54 22.04.2022
1869 Clouds 19 1010 52 8000 5.14 240 12:58 22.04.2022
1870 Clouds 17 1010 67 8000 5.14 220 11:52 22.04.2022
1871 Clouds 17 1010 67 8000 5.14 220 11:22 22.04.2022
1872 Clouds 15 1010 72 6000 4.12 200 10:50 22.04.2022
1873 Clouds 15 1010 72 6000 4.12 200 10:30 22.04.2022
1874 Clouds 12 1010 82 6000 3.09 220 09:50 22.04.2022
1875 Clear 9 1010 79 10000 5.36 202 08:50 22.04.2022
1876 Clear 7 1010 82 10000 4.55 196 07:20 22.04.2022
1877 Clear 15 1014 67 10000 2.68 340 03:30 22.04.2022
1878 Clear 15 1014 67 10000 2.68 340 00:51 22.04.2022
1879 Clear 15 1014 67 10000 2.68 340 23:24 21.04.2022
1880 Clouds 15 1014 67 10000 3.09 340 22:29 21.04.2022
1881 Clouds 17 1014 55 10000 5.14 340 20:37 21.04.2022
1882 Clouds 17 1014 55 10000 5.14 340 20:18 21.04.2022
1883 Clear 18 1014 55 10000 4.12 340 18:42 21.04.2022
1884 Clouds 18 1015 52 10000 4.12 360 17:57 21.04.2022
1885 Clouds 18 1018 52 10000 4.12 340 16:35 21.04.2022
1886 Clouds 18 1016 52 10000 3.09 340 15:21 21.04.2022
1887 Clouds 18 1016 52 10000 4.12 340 14:47 21.04.2022
1888 Clouds 18 1017 48 10000 3.09 20 13:23 21.04.2022
1889 Clouds 17 1017 55 10000 3.09 20 12:53 21.04.2022
1890 Clouds 14 1017 67 10000 2.57 220 10:49 21.04.2022
1891 Clouds 9 1017 63 10000 1.77 287 08:56 21.04.2022
1892 Clouds 7 1016 68 10000 2.74 318 07:24 21.04.2022
1893 Clouds 15 1018 55 10000 1.79 360 05:42 21.04.2022
1894 Clouds 15 1018 55 10000 1.79 360 03:30 21.04.2022
1895 Clouds 15 1018 55 10000 1.79 360 02:47 21.04.2022
1896 Clouds 16 1018 55 10000 1.79 360 00:45 21.04.2022
1897 Clouds 16 1018 55 10000 1.79 360 23:50 20.04.2022
1898 Clouds 16 1018 55 10000 1.79 360 23:22 20.04.2022
1899 Clouds 16 1018 55 10000 1.79 360 22:50 20.04.2022
1900 Clouds 16 1018 55 10000 1.79 360 22:30 20.04.2022
1901 Clouds 16 1018 55 10000 2.06 360 21:29 20.04.2022
1902 Clouds 16 1017 59 10000 2.57 360 20:24 20.04.2022
1903 Clouds 17 1017 55 10000 5.14 340 19:52 20.04.2022
1904 Clouds 17 1017 55 10000 5.81 20 19:21 20.04.2022
1905 Clouds 18 1018 74 10000 6.71 20 18:22 20.04.2022
1906 Clouds 17 1018 55 10000 5.66 340 16:54 20.04.2022
1907 Clouds 17 1018 55 10000 5.66 340 16:36 20.04.2022
1908 Clouds 17 1019 51 10000 4.12 360 13:59 20.04.2022
1909 Clouds 16 1019 55 10000 4.12 360 11:50 20.04.2022
1910 Clouds 16 1019 55 10000 4.12 360 11:21 20.04.2022
1911 Clouds 15 1019 62 10000 4.12 360 10:19 20.04.2022
1912 Clouds 15 1017 58 10000 3.09 360 09:25 20.04.2022
1913 Clouds 12 1017 61 10000 5.4 338 08:22 20.04.2022
1914 Clouds 11 1017 61 10000 5.4 338 07:36 20.04.2022
1915 Clouds 16 1017 63 10000 4.92 20 03:38 20.04.2022
1916 Clouds 16 1017 63 10000 4.92 20 00:23 20.04.2022
1917 Clouds 16 1017 63 10000 4.92 20 23:56 19.04.2022
1918 Clouds 16 1017 63 10000 4.92 20 22:27 19.04.2022
1919 Clouds 16 1017 63 10000 5.14 20 21:57 19.04.2022
1920 Clouds 16 1016 63 10000 5.14 20 21:24 19.04.2022
1921 Clouds 16 1017 59 10000 5.14 20 20:45 19.04.2022
1922 Clouds 17 1017 59 10000 5.14 20 19:57 19.04.2022
1923 Clouds 18 1017 59 10000 5.14 340 18:49 19.04.2022
1924 Clouds 19 1017 55 10000 5.14 340 17:50 19.04.2022
1925 Clouds 19 1018 52 10000 4.12 340 16:43 19.04.2022
1926 Clouds 18 1018 52 10000 4.12 340 16:23 19.04.2022
1927 Clouds 17 1018 59 8000 4.12 340 14:50 19.04.2022
1928 Clouds 17 1018 59 8000 4.12 340 14:27 19.04.2022
1929 Clouds 17 1018 63 8000 3.09 180 12:51 19.04.2022
1930 Clouds 17 1018 63 8000 3.09 180 12:26 19.04.2022
1931 Clouds 16 1018 67 8000 2.06 360 10:46 19.04.2022
1932 Clouds 16 1017 67 8000 2.06 360 09:22 19.04.2022
1933 Clouds 16 1017 73 10000 3.25 317 05:59 19.04.2022
1934 Clouds 18 1015 77 10000 2.68 20 03:37 19.04.2022
1935 Clouds 18 1015 77 10000 2.68 20 00:55 19.04.2022
1936 Clouds 18 1014 77 10000 2.68 20 23:31 18.04.2022
1937 Clouds 18 1014 77 8000 3.09 20 21:37 18.04.2022
1938 Clouds 18 1014 77 8000 3.09 20 21:18 18.04.2022
1939 Clouds 18 1014 77 8000 3.09 20 20:35 18.04.2022
1940 Clouds 19 1014 77 8000 3.09 340 19:54 18.04.2022
1941 Clouds 19 1013 77 8000 3.09 340 18:57 18.04.2022
1942 Clouds 19 1014 77 8000 4.12 60 17:58 18.04.2022
1943 Clouds 20 1014 77 8000 4.12 60 17:34 18.04.2022
1944 Clouds 21 1014 68 8000 4.12 360 16:59 18.04.2022
1945 Clouds 21 1014 68 8000 4.12 360 16:32 18.04.2022
1946 Clouds 21 1015 68 8000 3.09 360 14:59 18.04.2022
1947 Clouds 21 1015 72 6000 3.09 360 13:39 18.04.2022
1948 Clouds 20 1016 77 6000 3.09 340 12:32 18.04.2022
1949 Clouds 19 1014 82 5000 2.06 340 11:35 18.04.2022
1950 Clouds 18 1014 82 5000 2.06 320 10:32 18.04.2022
1951 Clouds 17 1016 93 5000 2.06 360 09:31 18.04.2022
1952 Clouds 16 1015 86 10000 0.63 314 08:18 18.04.2022
1953 Clouds 13 1015 87 10000 1.12 18 05:45 18.04.2022
1954 Clouds 20 1016 72 10000 4.02 20 00:49 18.04.2022
1955 Clouds 20 1016 72 10000 4.02 20 22:42 17.04.2022
1956 Clear 20 1016 72 10000 4.12 20 21:49 17.04.2022
1957 Clear 20 1016 72 10000 4.12 20 21:27 17.04.2022
1958 Clear 21 1016 68 10000 3.09 40 20:41 17.04.2022
1959 Clear 22 1016 68 10000 3.09 20 19:40 17.04.2022
1960 Clear 25 1015 53 10000 4.12 80 18:21 17.04.2022
1961 Clear 26 1016 38 10000 4.12 40 16:27 17.04.2022
1962 Clear 25 1017 47 10000 3.6 40 15:26 17.04.2022
1963 Clear 25 1017 50 10000 2.06 40 14:25 17.04.2022
1964 Clouds 24 1017 53 8000 2.06 60 13:18 17.04.2022
1965 Clouds 22 1018 68 8000 1.03 320 12:27 17.04.2022
1966 Clouds 19 1017 82 8000 1.03 100 10:46 17.04.2022
1967 Clouds 19 1017 82 8000 1.03 100 10:28 17.04.2022
1968 Clouds 17 1017 88 8000 1.03 20 09:37 17.04.2022
1969 Clouds 12 1017 73 10000 2.08 64 08:53 17.04.2022
1970 Clouds 13 1016 79 10000 1.86 57 07:37 17.04.2022
1971 Clouds 13 1016 79 10000 3.26 40 04:30 17.04.2022
1972 Clouds 20 1017 64 10000 4.02 60 01:37 17.04.2022
1973 Clouds 20 1017 64 10000 4.02 60 23:54 16.04.2022
1974 Clear 20 1017 64 10000 4.02 60 22:39 16.04.2022
1975 Clear 20 1017 64 10000 4.12 60 21:39 16.04.2022
1976 Clear 21 1016 56 10000 1.03 180 20:32 16.04.2022
1977 Clear 24 1016 36 8000 5.14 40 18:59 16.04.2022
1978 Clear 24 1016 36 8000 5.66 40 17:52 16.04.2022
1979 Clear 25 1017 36 8000 7.2 60 16:40 16.04.2022
1980 Clear 25 1017 36 8000 6.17 60 15:45 16.04.2022
1981 Clear 25 1018 33 8000 7.2 60 14:56 16.04.2022
1982 Clear 25 1018 33 8000 7.2 80 13:58 16.04.2022
1983 Clear 24 1018 33 8000 7.2 80 13:37 16.04.2022
1984 Clear 24 1018 33 8000 6.17 60 12:26 16.04.2022
1985 Clear 20 1018 45 6000 3.09 80 10:50 16.04.2022
1986 Clear 16 1017 67 6000 2.06 60 09:56 16.04.2022
1987 Clear 13 1017 41 10000 5.96 66 08:58 16.04.2022
1988 Clear 15 1016 43 10000 5.85 66 07:57 16.04.2022
1989 Clear 16 1016 47 10000 5.86 66 06:58 16.04.2022
1990 Clear 18 1018 82 10000 4.92 80 02:52 16.04.2022
1991 Clear 18 1018 82 10000 4.92 80 00:30 16.04.2022
1992 Clear 18 1018 82 10000 4.92 80 23:21 15.04.2022
1993 Clear 19 1018 77 10000 5.81 60 22:32 15.04.2022
1994 Clear 19 1018 72 10000 6.17 60 21:50 15.04.2022
1995 Clear 19 1018 72 10000 6.17 60 21:18 15.04.2022
1996 Clear 20 1017 68 10000 6.17 40 20:22 15.04.2022
1997 Clear 21 1017 64 10000 7.2 40 19:40 15.04.2022
1998 Clear 22 1017 60 10000 6.17 60 18:54 15.04.2022
1999 Clear 22 1017 60 10000 6.17 60 18:25 15.04.2022
2000 Clouds 22 1016 56 10000 3.09 60 17:34 15.04.2022
2001 Clouds 22 1018 56 10000 4.12 40 16:48 15.04.2022
2002 Clouds 22 1018 56 10000 4.12 40 16:18 15.04.2022
2003 Clear 21 1019 64 10000 3.6 60 14:51 15.04.2022
2004 Clear 21 1019 64 10000 2.06 100 13:40 15.04.2022
2005 Clear 19 1019 68 10000 3.09 40 12:40 15.04.2022
2006 Clear 18 1019 77 10000 2.06 80 11:56 15.04.2022
2007 Clear 18 1019 77 10000 2.06 80 11:30 15.04.2022
2008 Clear 17 1018 82 8000 1.03 80 10:40 15.04.2022
2009 Clear 14 1018 100 8000 1.03 40 09:44 15.04.2022
2010 Clear 14 1018 100 8000 1.03 40 09:19 15.04.2022
2011 Clear 14 1017 85 10000 3.08 69 07:32 15.04.2022
2012 Clear 12 1017 85 10000 2.81 54 06:28 15.04.2022
2013 Clear 17 1017 82 10000 4.02 20 02:48 15.04.2022
2014 Clear 17 1017 82 10000 4.02 20 23:31 14.04.2022
2015 Clear 17 1017 82 10000 4.02 20 22:49 14.04.2022
2016 Clear 17 1017 82 10000 4.02 20 22:29 14.04.2022
2017 Clouds 17 1017 82 10000 4.12 20 21:59 14.04.2022
2018 Clouds 18 1017 82 10000 4.12 20 20:43 14.04.2022
2019 Clouds 19 1017 77 10000 5.14 40 19:23 14.04.2022
2020 Clouds 20 1015 68 10000 4.12 20 18:22 14.04.2022
2021 Clouds 20 1017 64 10000 4.12 40 17:40 14.04.2022
2022 Clouds 20 1017 68 10000 3.09 20 16:46 14.04.2022
2023 Clouds 19 1017 68 10000 3.09 40 15:24 14.04.2022
2024 Clear 20 1018 56 10000 1.03 60 13:46 14.04.2022
2025 Clear 18 1018 59 10000 4.12 80 12:57 14.04.2022
2026 Clear 18 1018 59 10000 4.12 80 12:31 14.04.2022
2027 Clouds 17 1018 72 10000 1.03 100 11:29 14.04.2022
2028 Clear 15 1018 77 8000 2.06 180 10:53 14.04.2022
2029 Clear 15 1018 77 8000 2.06 180 10:26 14.04.2022
2030 Clouds 13 1017 87 8000 2.06 180 09:24 14.04.2022
2031 Clear 10 1016 84 10000 2.46 57 07:27 14.04.2022
2032 Clear 12 1017 81 10000 2.56 44 03:32 14.04.2022
2033 Clear 17 1016 67 10000 4.02 40 23:29 13.04.2022
2034 Clear 17 1016 67 10000 4.02 40 22:23 13.04.2022
2035 Clear 17 1016 67 10000 4.12 40 21:37 13.04.2022
2036 Clouds 17 1016 67 10000 4.12 60 20:23 13.04.2022
2037 Clouds 18 1015 63 10000 4.12 40 19:37 13.04.2022
2038 Clouds 18 1016 63 10000 4.12 20 18:36 13.04.2022
2039 Clouds 19 1016 59 10000 5.14 20 17:24 13.04.2022
2040 Clouds 19 1016 59 10000 4.12 20 16:37 13.04.2022
2041 Clouds 18 1013 67 10000 3.6 60 15:41 13.04.2022
2042 Clear 18 1012 63 10000 4.02 300 14:51 13.04.2022
2043 Clouds 18 1012 63 10000 4.02 300 14:28 13.04.2022
2044 Clouds 18 1014 63 10000 4.12 300 13:29 13.04.2022
2045 Clouds 18 1015 65 10000 2.06 80 12:30 13.04.2022
2046 Clouds 16 1014 77 10000 2.06 20 10:55 13.04.2022
2047 Clouds 15 1016 82 10000 7.2 200 09:44 13.04.2022
2048 Clouds 14 1016 81 10000 3.56 7 08:43 13.04.2022
2049 Clouds 14 1014 83 10000 3.18 347 06:52 13.04.2022
2050 Clouds 13 1014 84 10000 3.28 343 06:26 13.04.2022
2051 Clouds 17 1014 77 10000 1.79 340 05:52 13.04.2022
2052 Clouds 17 1014 77 10000 1.79 340 00:23 13.04.2022
2053 Clouds 17 1014 77 10000 1.79 340 23:46 12.04.2022
2054 Clouds 17 1014 77 10000 1.79 340 22:19 12.04.2022
2055 Clouds 17 1014 77 10000 2.06 340 21:32 12.04.2022
2056 Clouds 18 1014 67 10000 2.06 340 20:42 12.04.2022
2057 Clouds 18 1014 72 10000 5.66 320 19:53 12.04.2022
2058 Clouds 18 1014 72 10000 5.66 320 19:32 12.04.2022
2059 Clouds 18 1013 67 10000 4.63 320 18:42 12.04.2022
2060 Clouds 19 1013 59 10000 4.63 340 17:30 12.04.2022
2061 Clouds 19 1015 63 10000 5.14 340 16:23 12.04.2022
2062 Clouds 20 1014 52 10000 5.14 320 15:33 12.04.2022
2063 Clouds 19 1016 59 10000 5.14 300 14:29 12.04.2022
2064 Clouds 19 1016 59 8000 4.12 280 13:37 12.04.2022
2065 Clouds 18 1016 67 8000 3.09 260 12:53 12.04.2022
2066 Clouds 17 1015 72 8000 3.09 240 11:47 12.04.2022
2067 Clouds 17 1015 72 8000 3.09 240 11:20 12.04.2022
2068 Clouds 14 1015 93 6000 3.09 220 09:24 12.04.2022
2069 Clouds 14 1013 87 10000 4.16 220 07:59 12.04.2022
2070 Clouds 14 1012 87 10000 4.08 221 06:32 12.04.2022
2071 Clouds 14 1012 87 10000 4.08 221 06:32 12.04.2022
2072 Clouds 14 1012 87 10000 4.09 219 05:34 12.04.2022
2073 Clouds 15 1013 85 10000 4.36 236 00:46 12.04.2022
2074 Clouds 17 1012 72 8000 4.12 280 22:47 11.04.2022
2075 Clouds 17 1012 67 8000 3.09 220 21:49 11.04.2022
2076 Clouds 17 1012 67 8000 4.12 240 20:59 11.04.2022
2077 Clouds 17 1012 67 8000 4.12 240 20:29 11.04.2022
2078 Clouds 17 1011 72 8000 5.14 280 19:55 11.04.2022
2079 Clouds 17 1011 72 8000 5.14 280 19:18 11.04.2022
2080 Clouds 18 1011 68 8000 7.2 320 18:47 11.04.2022
2081 Clouds 20 1010 72 8000 7.2 300 17:57 11.04.2022
2082 Clouds 21 1011 73 8000 5.14 320 16:54 11.04.2022
2083 Clouds 21 1011 73 8000 5.14 320 16:54 11.04.2022
2084 Clouds 21 1011 64 8000 5.14 280 15:56 11.04.2022
2085 Clouds 21 1013 60 10000 3.09 260 14:33 11.04.2022
2086 Clouds 18 1011 73 10000 3.09 240 12:53 11.04.2022
2087 Clouds 18 1011 73 10000 3.09 240 12:33 11.04.2022
2088 Clouds 17 1011 77 8000 3.09 240 11:33 11.04.2022
2089 Clouds 15 1011 87 8000 3.09 220 10:28 11.04.2022
2090 Clouds 14 1011 87 8000 3.09 220 09:20 11.04.2022
2091 Clear 13 1010 89 10000 4.44 225 06:44 11.04.2022
2092 Clouds 18 1010 82 10000 4.02 300 01:55 11.04.2022
2093 Clouds 18 1010 82 10000 4.02 300 22:38 10.04.2022
2094 Clouds 18 1010 82 6000 4.12 300 21:55 10.04.2022
2095 Clouds 18 1010 82 6000 4.12 300 21:29 10.04.2022
2096 Clouds 18 1010 82 6000 4.12 300 20:31 10.04.2022
2097 Clouds 19 1010 77 6000 5.14 320 19:44 10.04.2022
2098 Clouds 20 1010 77 6000 5.14 320 19:20 10.04.2022
2099 Clouds 22 1010 68 6000 4.12 320 18:42 10.04.2022
2100 Clouds 23 1010 64 6000 3.09 320 17:54 10.04.2022
2101 Clouds 22 1010 64 6000 3.09 320 17:34 10.04.2022
2102 Clouds 23 1010 64 6000 6.17 320 16:22 10.04.2022
2103 Clouds 23 1010 53 6000 5.14 320 15:19 10.04.2022
2104 Clear 23 1010 49 10000 2.06 340 13:58 10.04.2022
2105 Clear 24 1010 53 10000 1.54 320 12:34 10.04.2022
2106 Clear 22 1010 49 10000 0 0 11:46 10.04.2022
2107 Clear 21 1010 49 10000 0 0 11:28 10.04.2022
2108 Clouds 18 1010 59 8000 2.57 200 10:48 10.04.2022
2109 Clouds 14 1010 88 8000 1.54 160 09:55 10.04.2022
2110 Clouds 13 1010 88 8000 1.54 160 09:21 10.04.2022
2111 Clouds 11 1010 59 10000 1.83 119 08:21 10.04.2022
2112 Clouds 11 1011 66 10000 2.56 103 07:18 10.04.2022
2113 Clouds 16 1015 77 10000 4.47 60 05:19 10.04.2022
2114 Clouds 17 1015 77 10000 4.47 60 02:20 10.04.2022
2115 Clouds 17 1015 77 10000 4.47 60 23:54 09.04.2022
2116 Clouds 17 1015 77 10000 4.47 60 23:35 09.04.2022
2117 Clouds 17 1015 77 10000 4.47 60 22:43 09.04.2022
2118 Clear 17 1015 77 10000 4.63 60 21:32 09.04.2022
2119 Clear 17 1015 77 10000 3.6 80 20:39 09.04.2022
2120 Clear 17 1015 77 10000 3.6 80 20:19 09.04.2022
2121 Clear 19 1015 68 10000 2.57 60 19:41 09.04.2022
2122 Clear 20 1015 68 10000 4.12 80 18:54 09.04.2022
2123 Clear 20 1015 68 10000 4.12 80 18:18 09.04.2022
2124 Clear 20 1016 63 10000 4.12 60 17:18 09.04.2022
2125 Clouds 19 1017 67 10000 4.63 60 16:42 09.04.2022
2126 Clouds 18 1018 67 10000 5.14 60 15:52 09.04.2022
2127 Clouds 18 1018 67 10000 5.14 60 15:26 09.04.2022
2128 Clouds 17 1019 67 8000 6.17 60 14:26 09.04.2022
2129 Clouds 17 1019 67 8000 5.14 40 13:38 09.04.2022
2130 Clouds 16 1020 72 8000 5.14 60 12:59 09.04.2022
2131 Clouds 15 1020 77 8000 5.14 80 11:52 09.04.2022
2132 Clouds 14 1020 77 10000 3.09 80 10:53 09.04.2022
2133 Clouds 14 1020 77 10000 3.09 80 10:19 09.04.2022
2134 Clear 13 1020 83 10000 4.35 60 09:24 09.04.2022
2135 Clear 13 1020 83 10000 4.35 60 08:45 09.04.2022
2136 Clear 13 1020 86 10000 4.56 56 05:35 09.04.2022
2137 Clouds 15 1023 86 10000 4.2 48 00:36 09.04.2022
2138 Clouds 15 1023 86 10000 4.2 48 00:36 09.04.2022
2139 Clouds 15 1023 85 10000 4.5 49 23:24 08.04.2022
2140 Clouds 16 1022 82 10000 5.14 60 21:54 08.04.2022
2141 Clouds 17 1022 77 10000 5.14 40 20:45 08.04.2022
2142 Clouds 18 1022 67 10000 5.14 40 19:57 08.04.2022
2143 Clouds 18 1022 67 10000 4.12 60 18:59 08.04.2022
2144 Clouds 18 1022 67 10000 4.12 60 18:24 08.04.2022
2145 Clouds 18 1022 67 10000 4.12 20 17:38 08.04.2022
2146 Clouds 18 1022 67 10000 4.12 20 17:19 08.04.2022
2147 Clouds 18 1023 67 10000 5.14 20 16:32 08.04.2022
2148 Clear 18 1023 67 10000 3.09 360 15:38 08.04.2022
2149 Clouds 18 1024 63 10000 4.12 20 14:52 08.04.2022
2150 Clouds 18 1024 63 10000 4.12 20 14:21 08.04.2022
2151 Clear 18 1024 63 10000 3.09 40 13:41 08.04.2022
2152 Clear 18 1024 63 10000 3.09 40 13:22 08.04.2022
2153 Clouds 16 1024 77 10000 3.09 80 11:43 08.04.2022
2154 Clouds 14 1023 82 10000 2.06 120 10:26 08.04.2022
2155 Clouds 13 1022 87 10000 1.54 160 09:20 08.04.2022
2156 Clear 13 1023 93 10000 1.03 120 08:24 08.04.2022
2157 Clear 13 1022 83 10000 3.7 49 06:47 08.04.2022
2158 Clear 16 1023 77 10000 2.68 60 03:48 08.04.2022
2159 Clear 16 1023 77 10000 2.68 60 00:32 08.04.2022
2160 Clear 16 1023 77 10000 2.68 60 23:53 07.04.2022
2161 Clear 16 1023 77 10000 2.68 60 22:57 07.04.2022
2162 Clear 16 1023 77 10000 2.68 60 22:37 07.04.2022
2163 Clear 16 1023 77 10000 2.68 60 22:19 07.04.2022
2164 Clouds 16 1022 77 10000 3.09 60 21:33 07.04.2022
2165 Clouds 16 1022 77 10000 3.6 40 20:56 07.04.2022
2166 Clouds 16 1022 77 10000 3.6 40 20:28 07.04.2022
2167 Clouds 18 1023 67 10000 2.57 40 17:51 07.04.2022
2168 Clouds 18 1023 67 10000 2.57 40 17:24 07.04.2022
2169 Clouds 18 1023 63 10000 5.66 40 16:42 07.04.2022
2170 Clouds 18 1023 63 10000 3.09 40 15:58 07.04.2022
2171 Clouds 17 1023 67 10000 4.12 20 14:29 07.04.2022
2172 Clouds 17 1024 63 10000 3.09 60 13:41 07.04.2022
2173 Clouds 17 1024 63 10000 3.09 80 12:28 07.04.2022
2174 Clouds 13 1024 82 10000 2.06 180 10:57 07.04.2022
2175 Clouds 11 1023 87 10000 1.03 180 09:36 07.04.2022
2176 Clear 8 1023 84 10000 1.98 69 08:35 07.04.2022
2177 Clouds 9 1022 80 10000 2.26 63 06:29 07.04.2022
2178 Clouds 15 1024 63 10000 1.79 40 02:40 07.04.2022
2179 Clear 16 1024 63 10000 1.79 40 01:27 07.04.2022
2180 Clear 16 1023 63 10000 1.79 40 23:53 06.04.2022
2181 Clear 16 1022 63 10000 1.79 40 22:45 06.04.2022
2182 Clear 16 1022 63 10000 1.79 40 22:24 06.04.2022
2183 Clouds 16 1021 63 10000 2.06 40 21:18 06.04.2022
2184 Clouds 16 1021 63 10000 2.06 40 20:27 06.04.2022
2185 Clouds 17 1021 63 10000 2.06 20 19:53 06.04.2022
2186 Clouds 17 1021 63 10000 4.12 340 18:50 06.04.2022
2187 Clouds 17 1021 63 10000 4.12 320 17:52 06.04.2022
2188 Clouds 17 1021 63 10000 4.12 320 17:28 06.04.2022
2189 Clouds 17 1022 63 10000 4.12 320 16:35 06.04.2022
2190 Clouds 17 1022 61 10000 2.68 320 15:47 06.04.2022
2191 Clouds 17 1022 63 10000 3.09 320 14:23 06.04.2022
2192 Clouds 15 1021 88 8000 2.06 220 12:58 06.04.2022
2193 Clouds 14 1020 88 8000 1.54 260 11:55 06.04.2022
2194 Clouds 13 1019 94 8000 2.06 240 10:45 06.04.2022
2195 Clouds 13 1019 94 8000 2.06 240 10:20 06.04.2022
2196 Clouds 12 1018 100 10000 2.06 220 09:27 06.04.2022
2197 Clouds 12 1017 94 10000 2.06 220 08:30 06.04.2022
2198 Clouds 13 1018 87 10000 2.99 230 07:47 06.04.2022
2199 Clouds 13 1016 87 10000 4.75 249 03:37 06.04.2022
2200 Clouds 13 1015 79 10000 5.33 256 23:51 05.04.2022
2201 Clouds 13 1013 94 8000 5.14 260 22:30 05.04.2022
2202 Clouds 13 1012 94 8000 6.17 280 21:19 05.04.2022
2203 Clouds 14 1011 88 8000 7.2 300 20:25 05.04.2022
2204 Clouds 14 1011 88 1000 5.14 260 19:26 05.04.2022
2205 Clouds 15 1014 77 8000 7.2 260 17:52 05.04.2022
2206 Clouds 16 1014 67 8000 8.23 260 16:51 05.04.2022
2207 Clouds 16 1009 72 8000 8.75 240 15:53 05.04.2022
2208 Clouds 15 1009 72 8000 8.75 240 15:33 05.04.2022
2209 Clouds 14 1010 82 8000 8.75 260 14:27 05.04.2022
2210 Clouds 15 1014 58 10000 6.17 240 12:56 05.04.2022
2211 Clouds 14 1014 67 8000 8.75 240 11:50 05.04.2022
2212 Clouds 14 1011 67 8000 8.75 240 11:32 05.04.2022
2213 Clouds 11 1012 81 8000 4.12 200 09:55 05.04.2022
2214 Clear 10 1009 70 10000 9.11 205 08:52 05.04.2022
2215 Clouds 11 1008 73 10000 8.1 197 06:58 05.04.2022
2216 Clouds 12 1007 68 10000 7.96 229 01:51 05.04.2022
2217 Clouds 13 1007 74 10000 8.03 266 22:42 04.04.2022
2218 Clouds 14 1005 74 10000 9.73 275 22:22 04.04.2022
2219 Clouds 16 1002 77 8000 5.14 300 21:21 04.04.2022
2220 Clouds 16 1002 77 8000 5.14 300 21:21 04.04.2022
2221 Clouds 16 1002 77 8000 5.14 280 20:49 04.04.2022
2222 Clouds 17 1002 77 8000 4.12 300 19:45 04.04.2022
2223 Clouds 17 1002 77 8000 4.12 300 19:25 04.04.2022
2224 Clouds 19 1006 63 8000 7.2 300 18:33 04.04.2022
2225 Clouds 17 1006 75 6000 4.12 320 16:36 04.04.2022
2226 Clouds 16 1006 82 6000 2.06 300 15:44 04.04.2022
2227 Clouds 16 1005 82 6000 2.06 300 15:25 04.04.2022
2228 Clouds 22 1023 73 6000 2.06 200 14:46 04.04.2022
2229 Clouds 17 1001 77 6000 2.06 280 13:30 04.04.2022
2230 Clouds 15 1000 88 10000 2.57 240 11:55 04.04.2022
2231 Clouds 15 1000 88 10000 2.57 240 11:29 04.04.2022
2232 Clouds 14 1000 88 6000 1.54 240 09:18 04.04.2022
2233 Clouds 14 1001 86 10000 4.33 198 04:45 04.04.2022
2234 Clouds 16 1004 63 10000 4.02 320 01:28 04.04.2022
2235 Clouds 17 1004 63 10000 4.02 320 22:43 03.04.2022
2236 Clear 17 1004 63 10000 4.12 320 21:47 03.04.2022
2237 Clouds 18 1004 59 10000 4.12 320 20:57 03.04.2022
2238 Clouds 18 1004 59 10000 4.12 320 19:51 03.04.2022
2239 Clouds 18 1003 59 10000 3.09 180 18:33 03.04.2022
2240 Clouds 18 1004 67 10000 4.12 340 17:48 03.04.2022
2241 Clouds 19 1005 68 10000 4.12 340 16:59 03.04.2022
2242 Clouds 19 1005 68 10000 4.12 340 16:41 03.04.2022
2243 Clouds 19 1006 68 10000 3.09 240 15:18 03.04.2022
2244 Clouds 18 1006 72 10000 3.09 220 13:55 03.04.2022
2245 Clouds 17 1006 82 10000 2.06 220 12:48 03.04.2022
2246 Clouds 16 1007 82 10000 2.06 100 11:33 03.04.2022
2247 Clouds 14 1007 87 10000 2.06 80 09:39 03.04.2022
2248 Clouds 14 1005 82 10000 0.33 307 08:40 03.04.2022
2249 Clouds 14 1005 84 10000 2.83 48 05:42 03.04.2022
2250 Clouds 16 1010 67 10000 4.92 60 02:54 03.04.2022
2251 Clouds 16 1013 67 10000 4.92 60 23:22 02.04.2022
2252 Clouds 16 1012 67 8000 5.14 60 22:38 02.04.2022
2253 Clouds 16 1012 67 8000 5.14 60 21:49 02.04.2022
2254 Clouds 16 1012 67 8000 5.14 60 21:19 02.04.2022
2255 Clouds 17 1012 63 8000 5.14 60 20:35 02.04.2022
2256 Clouds 17 1012 67 8000 7.2 40 18:45 02.04.2022
2257 Clouds 18 1012 65 8000 7.2 40 18:18 02.04.2022
2258 Clouds 18 1012 55 8000 5.14 80 16:39 02.04.2022
2259 Clouds 18 1013 56 8000 7.2 40 15:23 02.04.2022
2260 Clouds 17 1014 63 8000 7.2 80 14:51 02.04.2022
2261 Clouds 16 1013 72 8000 7.2 40 13:57 02.04.2022
2262 Clouds 16 1013 72 8000 7.2 40 13:23 02.04.2022
2263 Clouds 14 1015 67 8000 5.14 80 11:56 02.04.2022
2264 Clouds 12 1013 81 10000 3.09 100 09:57 02.04.2022
2265 Clouds 11 1013 82 10000 4.86 65 07:33 02.04.2022
2266 Clear 15 1016 72 10000 4.92 60 04:25 02.04.2022
2267 Clear 15 1016 72 10000 4.92 60 00:27 02.04.2022
2268 Clear 15 1016 72 10000 4.92 60 23:53 01.04.2022
2269 Clouds 15 1016 72 10000 5.14 60 22:34 01.04.2022
2270 Clouds 17 1016 59 10000 3.09 60 20:54 01.04.2022
2271 Clouds 17 1016 59 10000 3.09 60 20:32 01.04.2022
2272 Clouds 17 1016 63 10000 4.12 20 19:39 01.04.2022
2273 Clouds 17 1016 63 10000 4.12 20 19:39 01.04.2022
2274 Clouds 17 1016 63 10000 4.12 20 19:18 01.04.2022
2275 Clouds 18 1015 55 10000 7.2 360 18:35 01.04.2022
2276 Clouds 18 1015 55 10000 7.2 320 17:36 01.04.2022
2277 Clouds 18 1017 59 10000 4.12 60 15:46 01.04.2022
2278 Clouds 18 1018 55 10000 3.09 60 14:47 01.04.2022
2279 Clouds 18 1018 59 10000 5.14 360 13:38 01.04.2022
2280 Clouds 17 1018 65 10000 2.06 80 12:33 01.04.2022
2281 Clouds 17 1018 67 10000 1.03 320 11:45 01.04.2022
2282 Clouds 14 1018 82 8000 3.09 180 10:41 01.04.2022
2283 Clouds 13 1018 82 8000 2.06 220 09:35 01.04.2022
2284 Clouds 11 1018 75 10000 1.51 28 07:24 01.04.2022
2285 Clouds 12 1018 76 10000 1.59 8 04:57 01.04.2022
2286 Clouds 12 1018 76 10000 1.59 8 04:39 01.04.2022
2287 Clouds 13 1018 76 10000 2.09 341 02:32 01.04.2022
2288 Clouds 14 1019 76 10000 2.16 346 01:31 01.04.2022
2289 Clouds 16 1018 77 10000 3.92 322 22:27 31.03.2022
2290 Clouds 16 1017 67 10000 3.09 340 21:38 31.03.2022
2291 Clouds 17 1017 63 10000 4.12 340 20:50 31.03.2022
2292 Clouds 17 1016 65 10000 4.12 340 20:28 31.03.2022
2293 Clouds 17 1016 67 10000 3.09 300 19:21 31.03.2022
2294 Clouds 17 1016 72 10000 4.12 320 18:31 31.03.2022
2295 Clouds 17 1016 72 10000 4.12 320 18:31 31.03.2022
2296 Clouds 17 1016 77 10000 4.92 280 16:47 31.03.2022
2297 Clouds 16 1016 82 10000 5.14 280 15:54 31.03.2022
2298 Clouds 17 1017 74 10000 5.14 280 15:24 31.03.2022
2299 Clouds 18 1017 67 10000 4.47 280 14:44 31.03.2022
2300 Clouds 18 1017 67 10000 4.63 280 13:28 31.03.2022
2301 Clouds 16 1018 77 8000 2.57 220 11:30 31.03.2022
2302 Clouds 14 1017 82 8000 2.57 220 10:22 31.03.2022
2303 Clouds 12 1015 93 8000 3.09 220 09:39 31.03.2022
2304 Clouds 11 1016 85 10000 3.71 230 07:48 31.03.2022
2305 Clouds 13 1016 83 10000 3.13 267 01:37 31.03.2022
2306 Clouds 13 1016 84 10000 3.94 297 23:24 30.03.2022
2307 Clouds 17 1014 63 10000 2.57 340 21:55 30.03.2022
2308 Clouds 17 1015 63 10000 2.57 340 21:30 30.03.2022
2309 Clouds 17 1014 63 10000 5.14 340 20:37 30.03.2022
2310 Clouds 17 1013 67 10000 5.14 340 19:47 30.03.2022
2311 Clouds 18 1013 67 10000 5.14 340 18:41 30.03.2022
2312 Clouds 18 1013 72 10000 3.09 360 17:51 30.03.2022
2313 Clouds 18 1013 67 10000 5.14 340 16:59 30.03.2022
2314 Clouds 18 1014 67 10000 5.14 340 16:39 30.03.2022
2315 Clouds 18 1014 67 8000 4.12 340 15:55 30.03.2022
2316 Clouds 18 1016 63 8000 4.12 340 14:35 30.03.2022
2317 Clouds 17 1014 67 8000 4.12 320 13:21 30.03.2022
2318 Clouds 16 1014 77 8000 3.09 360 12:19 30.03.2022
2319 Clouds 15 1012 82 8000 8.23 340 10:48 30.03.2022
2320 Clouds 15 1011 88 8000 3.09 80 09:30 30.03.2022
2321 Clouds 15 1011 87 10000 6.35 330 08:20 30.03.2022
2322 Clouds 15 1010 89 10000 4.36 307 06:32 30.03.2022
2323 Clouds 15 1010 82 10000 1.79 280 05:38 30.03.2022
2324 Clouds 15 1010 82 10000 1.79 280 01:45 30.03.2022
2325 Clouds 15 1010 82 8000 2.06 280 22:38 29.03.2022
2326 Clouds 15 1010 82 6000 2.06 280 21:47 29.03.2022
2327 Clouds 16 1010 79 6000 2.68 320 21:20 29.03.2022
2328 Clouds 16 1010 77 6000 3.09 320 20:25 29.03.2022
2329 Clouds 16 1010 77 6000 3.09 320 19:27 29.03.2022
2330 Clouds 16 1009 82 6000 3.09 320 18:53 29.03.2022
2331 Clouds 16 1009 88 6000 4.12 320 17:40 29.03.2022
2332 Clouds 16 1010 94 6000 2.06 360 16:59 29.03.2022
2333 Clouds 15 1010 94 6000 2.06 360 16:20 29.03.2022
2334 Clouds 15 1010 88 6000 3.09 340 14:58 29.03.2022
2335 Clouds 15 1010 88 6000 3.09 340 14:39 29.03.2022
2336 Clouds 17 1010 82 6000 2.06 360 13:30 29.03.2022
2337 Clouds 16 1010 88 6000 2.06 340 11:46 29.03.2022
2338 Mist 16 1010 88 3000 2.06 320 10:59 29.03.2022
2339 Clouds 15 1010 94 6000 2.06 320 09:50 29.03.2022
2340 Clouds 14 1010 86 10000 1.27 144 08:20 29.03.2022
2341 Clouds 15 1010 86 10000 2.1 201 05:38 29.03.2022
2342 Clouds 17 1013 82 10000 1.79 260 01:25 29.03.2022
2343 Clear 17 1013 82 10000 1.79 260 23:25 28.03.2022
2344 Clouds 17 1013 82 8000 2.06 260 22:54 28.03.2022
2345 Clouds 17 1013 82 8000 2.06 260 22:28 28.03.2022
2346 Clouds 17 1013 82 10000 2.06 280 21:18 28.03.2022
2347 Clouds 18 1012 82 10000 4.12 300 20:32 28.03.2022
2348 Clouds 19 1012 77 10000 4.12 320 19:46 28.03.2022
2349 Clouds 19 1012 77 10000 4.12 320 19:28 28.03.2022
2350 Clouds 19 1011 77 10000 5.14 320 18:40 28.03.2022
2351 Clouds 20 1011 68 10000 5.14 320 17:39 28.03.2022
2352 Clouds 21 1012 64 10000 6.17 320 16:38 28.03.2022
2353 Clouds 21 1012 66 10000 5.14 320 14:49 28.03.2022
2354 Clouds 21 1012 66 10000 5.14 320 14:22 28.03.2022
2355 Clouds 19 1012 68 8000 3.09 260 12:41 28.03.2022
2356 Clouds 19 1011 63 8000 4.12 260 11:38 28.03.2022
2357 Clouds 19 1010 55 8000 5.14 220 09:43 28.03.2022
2358 Clouds 19 1010 55 8000 5.14 220 09:19 28.03.2022
2359 Clouds 16 1010 63 10000 4.21 232 08:23 28.03.2022
2360 Clouds 18 1010 63 10000 4.21 232 07:56 28.03.2022
2361 Clouds 16 1010 59 10000 5.6 97 04:27 28.03.2022
2362 Clouds 18 1014 69 10000 4.72 94 23:43 27.03.2022
2363 Clouds 18 1014 77 8000 1.03 80 22:25 27.03.2022
2364 Clouds 19 1014 68 8000 1.03 80 21:42 27.03.2022
2365 Clouds 20 1013 63 8000 2.06 60 20:58 27.03.2022
2366 Clouds 20 1013 68 8000 2.06 40 19:53 27.03.2022
2367 Clouds 20 1013 68 8000 2.06 40 19:30 27.03.2022
2368 Clouds 21 1013 64 8000 2.06 40 18:28 27.03.2022
2369 Clouds 22 1012 56 8000 3.09 20 17:40 27.03.2022
2370 Clouds 22 1012 56 8000 3.09 20 17:20 27.03.2022
2371 Clouds 22 1013 64 8000 2.06 20 15:28 27.03.2022
2372 Clouds 22 1013 52 6000 2.06 360 13:56 27.03.2022
2373 Clouds 18 1013 68 6000 2.06 20 12:41 27.03.2022
2374 Clouds 17 1013 72 6000 2.06 120 11:21 27.03.2022
2375 Mist 13 1009 87 2000 2.06 160 09:21 27.03.2022
2376 Clouds 13 1012 86 10000 3.49 77 05:56 27.03.2022
2377 Clear 14 1013 92 10000 3.35 66 01:41 27.03.2022
2378 Clouds 15 1014 89 10000 3.36 46 00:24 27.03.2022
2379 Clouds 15 1014 87 10000 3.09 45 22:43 26.03.2022
2380 Clouds 16 1014 85 10000 2.99 46 21:50 26.03.2022
2381 Clouds 16 1014 84 10000 3.06 46 21:26 26.03.2022
2382 Clouds 18 1012 72 10000 3.09 40 19:31 26.03.2022
2383 Clouds 19 1012 63 10000 4.12 20 17:54 26.03.2022
2384 Clouds 19 1012 63 10000 4.12 20 17:33 26.03.2022
2385 Clouds 20 1012 68 10000 4.12 340 16:27 26.03.2022
2386 Clouds 20 1012 64 10000 3.09 340 15:23 26.03.2022
2387 Clouds 22 1023 73 10000 4.12 320 13:54 26.03.2022
2388 Clouds 22 1023 73 10000 4.12 320 13:18 26.03.2022
2389 Clouds 17 1014 72 8000 3.09 240 11:41 26.03.2022
2390 Clouds 15 1013 77 8000 3.09 200 10:29 26.03.2022
2391 Clouds 12 1012 87 8000 3.58 220 08:44 26.03.2022
2392 Clouds 11 1012 91 10000 4.69 187 06:30 26.03.2022
2393 Clouds 11 1012 92 10000 5.02 195 05:28 26.03.2022
2394 Clouds 14 1012 91 10000 5.41 203 00:30 26.03.2022
2395 Clouds 15 1012 88 10000 4.62 227 21:51 25.03.2022
2396 Clouds 15 1011 77 6000 2.06 260 20:46 25.03.2022
2397 Clouds 15 1011 77 6000 2.06 260 20:20 25.03.2022
2398 Clouds 16 1011 72 6000 3.6 260 18:47 25.03.2022
2399 Clouds 16 1013 75 6000 2.24 280 17:49 25.03.2022
2400 Clouds 16 1013 75 6000 2.24 280 17:27 25.03.2022
2401 Clouds 15 1013 77 6000 2.57 280 16:18 25.03.2022
2402 Clouds 17 1013 59 10000 3.09 260 14:49 25.03.2022
2403 Clouds 16 1011 67 10000 3.09 240 13:24 25.03.2022
2404 Clouds 13 1011 82 10000 3.09 220 10:26 25.03.2022
2405 Clouds 12 1011 81 10000 3.09 220 09:28 25.03.2022
2406 Clouds 10 1010 87 6000 3.09 200 08:24 25.03.2022
2407 Clouds 10 1010 87 6000 3.09 200 07:28 25.03.2022
2408 Clouds 8 1010 85 10000 3.93 232 06:24 25.03.2022
2409 Clouds 14 1016 67 10000 1.79 80 01:18 25.03.2022
2410 Clouds 14 1017 67 10000 1.79 80 22:53 24.03.2022
2411 Clouds 14 1016 67 10000 1.79 80 21:52 24.03.2022
2412 Clouds 14 1013 67 10000 2.06 80 20:37 24.03.2022
2413 Clouds 15 1012 58 10000 3.09 80 19:47 24.03.2022
2414 Clouds 16 1008 59 10000 3.09 40 17:48 24.03.2022
2415 Clouds 16 1008 59 10000 3.09 40 17:23 24.03.2022
2416 Clouds 17 1012 51 10000 2.06 280 15:45 24.03.2022
2417 Clouds 16 1013 57 10000 4.02 240 14:50 24.03.2022
2418 Clouds 16 1013 57 10000 4.02 240 14:19 24.03.2022
2419 Clouds 16 1012 55 10000 4.12 240 13:23 24.03.2022
2420 Clouds 15 1010 62 10000 5.14 240 11:47 24.03.2022
2421 Clouds 12 1010 71 8000 3.09 200 09:55 24.03.2022
2422 Clouds 10 1010 81 6000 3.09 180 08:42 24.03.2022
2423 Clouds 8 1009 88 10000 5.5 176 06:49 24.03.2022
2424 Clouds 10 1010 90 10000 5.3 185 03:57 24.03.2022
2425 Clouds 14 1019 76 10000 2.68 260 23:20 23.03.2022
2426 Clouds 14 1018 76 10000 2.68 260 21:40 23.03.2022
2427 Clouds 14 1014 76 10000 2.68 260 21:18 23.03.2022
2428 Clouds 14 1013 82 8000 3.09 240 19:46 23.03.2022
2429 Clouds 14 1014 82 6000 2.06 260 18:55 23.03.2022
2430 Clouds 13 1011 87 6000 4.12 280 17:37 23.03.2022
2431 Clouds 13 1011 87 6000 4.12 280 16:39 23.03.2022
2432 Clouds 13 1012 87 6000 5.14 360 14:51 23.03.2022
2433 Clouds 13 1012 87 6000 5.14 360 14:26 23.03.2022
2434 Clouds 18 1016 59 10000 3.09 240 12:51 23.03.2022
2435 Mist 14 1013 88 3000 2.06 220 09:45 23.03.2022
2436 Clouds 13 1013 92 10000 3.05 205 06:48 23.03.2022
2437 Clouds 13 1013 90 10000 1.94 218 05:23 23.03.2022
2438 Clouds 16 1020 82 10000 1.79 40 00:29 23.03.2022
2439 Clouds 15 1017 86 10000 0.23 287 23:39 22.03.2022
2440 Clouds 16 1019 82 10000 1.79 40 21:30 22.03.2022
2441 Clouds 16 1018 82 8000 2.06 40 20:45 22.03.2022
2442 Clouds 16 1017 82 8000 3.09 20 19:43 22.03.2022
2443 Clouds 16 1017 82 8000 3.09 20 19:19 22.03.2022
2444 Clouds 17 1017 72 10000 2.06 40 18:31 22.03.2022
2445 Clouds 18 1017 68 10000 3.09 40 17:37 22.03.2022
2446 Clouds 18 1017 72 10000 4.12 20 16:27 22.03.2022
2447 Clouds 18 1019 69 10000 4.12 40 15:23 22.03.2022
2448 Clouds 18 1019 67 10000 3.09 360 14:47 22.03.2022
2449 Clouds 18 1018 67 10000 3.09 360 14:27 22.03.2022
2450 Clouds 18 1019 67 10000 2.06 60 13:35 22.03.2022
2451 Clouds 17 1019 67 10000 1.03 80 11:52 22.03.2022
2452 Clouds 16 1019 77 8000 1.03 200 10:44 22.03.2022
2453 Clouds 13 1018 87 8000 1.54 180 08:36 22.03.2022
2454 Clouds 11 1018 90 10000 1.49 147 06:53 22.03.2022
2455 Clouds 15 1019 77 10000 2.24 300 03:49 22.03.2022
2456 Clouds 16 1019 77 10000 2.24 300 00:28 22.03.2022
2457 Clouds 16 1019 77 10000 2.24 300 22:42 21.03.2022
2458 Clouds 16 1019 77 10000 2.24 300 21:18 21.03.2022
2459 Clouds 16 1019 77 10000 2.57 300 20:40 21.03.2022
2460 Clouds 17 1019 72 10000 2.57 320 19:58 21.03.2022
2461 Clouds 17 1019 72 10000 2.57 320 19:34 21.03.2022
2462 Clouds 18 1019 67 10000 3.6 340 18:31 21.03.2022
2463 Clouds 19 1018 63 10000 4.92 320 17:19 21.03.2022
2464 Clouds 19 1018 63 10000 5.14 320 16:51 21.03.2022
2465 Clouds 19 1019 59 10000 4.12 320 15:59 21.03.2022
2466 Clouds 19 1019 59 10000 4.12 320 15:20 21.03.2022
2467 Clouds 19 1019 59 10000 3.09 300 14:25 21.03.2022
2468 Clouds 18 1019 55 10000 3.09 280 12:42 21.03.2022
2469 Clouds 18 1019 63 10000 3.09 240 11:53 21.03.2022
2470 Clear 15 1019 77 10000 3.09 240 10:44 21.03.2022
2471 Clear 12 1018 87 10000 2.06 240 08:56 21.03.2022
2472 Clouds 10 1018 85 10000 4.53 200 06:57 21.03.2022
2473 Clouds 12 1018 84 10000 4.77 209 02:55 21.03.2022
2474 Clear 16 1020 63 10000 4.02 300 00:35 21.03.2022
2475 Clear 16 1017 63 10000 4.02 300 22:54 20.03.2022
2476 Clear 16 1019 63 10000 4.02 300 21:57 20.03.2022
2477 Clear 16 1019 63 10000 4.02 300 21:29 20.03.2022
2478 Clouds 16 1017 63 10000 4.12 300 20:45 20.03.2022
2479 Clouds 17 1016 59 10000 4.12 320 19:59 20.03.2022
2480 Clouds 17 1016 59 10000 4.12 320 19:59 20.03.2022
2481 Clouds 17 1016 59 10000 4.12 320 19:38 20.03.2022
2482 Clouds 18 1016 59 10000 5.14 320 18:40 20.03.2022
2483 Clouds 18 1015 63 10000 6.17 320 17:35 20.03.2022
2484 Clouds 18 1015 55 8000 5.14 300 16:57 20.03.2022
2485 Clouds 19 1015 63 8000 5.14 300 15:43 20.03.2022
2486 Clouds 20 1015 59 6000 5.14 320 14:35 20.03.2022
2487 Clouds 20 1015 52 10000 3.6 300 12:42 20.03.2022
2488 Clouds 17 1015 75 8000 4.02 260 11:32 20.03.2022
2489 Mist 15 1016 93 1500 4.12 240 09:30 20.03.2022
2490 Clear 14 1013 87 10000 2.57 240 07:49 20.03.2022
2491 Clouds 13 1012 86 10000 4.01 211 05:48 20.03.2022
2492 Clouds 17 1014 72 10000 0.89 40 02:45 20.03.2022
2493 Clouds 17 1014 72 10000 0.89 40 00:47 20.03.2022
2494 Clouds 17 1014 72 10000 0.89 40 23:19 19.03.2022
2495 Clouds 17 1014 72 10000 0.89 40 21:32 19.03.2022
2496 Clear 17 1014 72 10000 1.03 40 20:58 19.03.2022
2497 Clear 20 1014 60 10000 1.03 60 18:59 19.03.2022
2498 Clear 20 1014 59 10000 1.79 360 18:24 19.03.2022
2499 Clear 19 1014 59 10000 2.06 360 17:40 19.03.2022
2500 Clear 21 1014 60 10000 3.09 340 16:24 19.03.2022
2501 Clear 21 1015 60 10000 3.09 320 15:19 19.03.2022
2502 Clear 20 1016 60 10000 1.03 60 13:20 19.03.2022
2503 Clear 19 1016 68 10000 2.06 340 12:41 19.03.2022
2504 Clear 17 1017 72 8000 1.03 360 11:54 19.03.2022
2505 Clear 17 1017 72 8000 1.03 360 11:25 19.03.2022
2506 Clear 11 1016 93 6000 1.54 220 07:59 19.03.2022
2507 Clear 15 1017 82 10000 2.68 40 03:53 19.03.2022
2508 Clear 15 1017 82 10000 2.68 40 02:30 19.03.2022
2509 Clear 16 1017 82 10000 2.68 40 23:46 18.03.2022
2510 Clear 16 1017 82 10000 2.68 40 22:29 18.03.2022
2511 Clear 16 1017 82 10000 2.68 40 21:55 18.03.2022
2512 Clear 17 1017 67 10000 1.54 40 19:54 18.03.2022
2513 Clear 17 1017 67 10000 1.54 40 19:22 18.03.2022
2514 Clear 18 1016 63 10000 3.09 40 18:18 18.03.2022
2515 Clouds 18 1018 63 10000 3.6 40 16:51 18.03.2022
2516 Clouds 18 1018 63 10000 4.12 40 15:43 18.03.2022
2517 Clouds 18 1018 63 10000 4.12 40 15:43 18.03.2022
2518 Clouds 19 1018 59 10000 1.03 140 14:24 18.03.2022
2519 Clouds 18 1019 67 10000 1.03 160 12:39 18.03.2022
2520 Clouds 16 1019 77 6000 1.03 100 11:21 18.03.2022
2521 Clouds 13 1018 88 6000 1.54 200 09:34 18.03.2022
2522 Clouds 12 1018 94 6000 1.54 200 08:42 18.03.2022
2523 Clear 11 1017 88 10000 1.98 162 06:40 18.03.2022
2524 Clear 11 1017 87 10000 0.85 140 03:30 18.03.2022
2525 Clouds 14 1019 87 10000 0.53 66 00:53 18.03.2022
2526 Clouds 14 1019 87 10000 1.06 63 23:44 17.03.2022
2527 Clear 15 1019 88 10000 1.96 57 22:25 17.03.2022
2528 Clear 15 1019 88 10000 1.96 57 21:48 17.03.2022
2529 Clear 15 1018 88 10000 2.71 46 21:27 17.03.2022
2530 Clouds 15 1018 82 8000 2.06 20 20:51 17.03.2022
2531 Clouds 16 1018 72 8000 3.09 40 19:53 17.03.2022
2532 Clouds 16 1018 72 8000 3.09 40 19:32 17.03.2022
2533 Clouds 17 1017 67 8000 3.09 20 18:49 17.03.2022
2534 Clouds 17 1017 67 8000 4.12 20 17:18 17.03.2022
2535 Clouds 18 1017 68 8000 3.09 360 15:52 17.03.2022
2536 Clouds 18 1017 68 8000 3.09 360 15:33 17.03.2022
2537 Clouds 17 1018 67 8000 2.06 360 14:48 17.03.2022
2538 Clouds 16 1020 77 8000 2.06 60 12:59 17.03.2022
2539 Clouds 16 1020 77 8000 2.06 60 12:37 17.03.2022
2540 Clouds 16 1020 82 8000 1.03 60 11:30 17.03.2022
2541 Clouds 14 1020 91 8000 2.06 240 10:34 17.03.2022
2542 Clouds 13 1016 94 8000 2.06 220 08:41 17.03.2022
2543 Clouds 13 1016 94 8000 2.06 220 07:52 17.03.2022
2544 Clouds 13 1016 91 10000 2.08 210 05:48 17.03.2022
2545 Clouds 15 1015 72 10000 2.68 360 03:41 17.03.2022
2546 Clouds 15 1016 72 10000 2.68 360 23:57 16.03.2022
2547 Clouds 15 1016 72 10000 2.68 360 22:51 16.03.2022
2548 Clouds 15 1016 72 10000 2.68 360 22:33 16.03.2022
2549 Clouds 15 1016 72 10000 2.68 360 21:46 16.03.2022
2550 Clouds 15 1016 72 10000 3.09 360 20:28 16.03.2022
2551 Clouds 15 1015 72 10000 3.09 320 19:22 16.03.2022
2552 Clouds 15 1014 72 10000 4.12 340 18:40 16.03.2022
2553 Clouds 15 1014 72 10000 3.09 340 17:43 16.03.2022
2554 Clouds 15 1014 72 10000 3.09 340 17:25 16.03.2022
2555 Clouds 16 1014 67 10000 3.09 320 15:56 16.03.2022
2556 Clouds 14 1018 76 10000 3.09 340 14:28 16.03.2022
2557 Clouds 15 1018 72 10000 3.6 300 13:32 16.03.2022
2558 Clouds 15 1014 77 10000 3.09 240 11:58 16.03.2022
2559 Clouds 15 1014 77 10000 3.09 240 11:21 16.03.2022
2560 Clouds 14 1017 76 10000 1.03 220 10:27 16.03.2022
2561 Clouds 13 1016 76 8000 1.54 240 09:42 16.03.2022
2562 Clouds 12 1010 92 10000 4.26 195 06:27 16.03.2022
2563 Clouds 11 1010 87 10000 3.88 102 02:29 16.03.2022
2564 Clouds 14 1018 67 10000 0.89 40 22:51 15.03.2022
2565 Clouds 14 1019 67 10000 0.89 40 22:32 15.03.2022
2566 Clouds 14 1008 67 10000 1.03 40 20:36 15.03.2022
2567 Clouds 15 1006 58 10000 3.09 360 18:58 15.03.2022
2568 Clouds 15 1006 58 10000 3.6 40 17:35 15.03.2022
2569 Clouds 15 1006 58 10000 4.12 240 16:34 15.03.2022
2570 Clouds 16 1006 55 10000 3.6 360 15:21 15.03.2022
2571 Clouds 15 1007 58 10000 4.12 340 14:46 15.03.2022
2572 Clouds 16 1007 55 10000 3.09 280 13:55 15.03.2022
2573 Clouds 15 1013 51 10000 3.09 160 12:29 15.03.2022
2574 Clouds 15 1011 54 10000 3.09 160 11:32 15.03.2022
2575 Clouds 11 1007 76 6000 4.12 180 09:54 15.03.2022
2576 Clouds 9 1013 81 6000 3.09 180 08:49 15.03.2022
2577 Clouds 9 1013 81 6000 3.09 180 07:52 15.03.2022
2578 Clouds 9 1006 81 6000 3.09 180 07:34 15.03.2022
2579 Clouds 7 1006 84 10000 5.32 175 05:42 15.03.2022
2580 Clouds 11 1007 82 10000 7.26 177 23:58 14.03.2022
2581 Clouds 10 1007 81 10000 7.21 176 23:25 14.03.2022
2582 Clouds 10 1007 81 10000 7.21 176 22:30 14.03.2022
2583 Clouds 11 1013 87 10000 2.68 240 21:35 14.03.2022
2584 Clouds 11 1009 87 6000 3.09 240 20:54 14.03.2022
2585 Clouds 11 1009 87 6000 3.09 240 20:20 14.03.2022
2586 Clouds 12 1003 76 6000 3.09 220 18:55 14.03.2022
2587 Clouds 12 1004 76 8000 4.12 200 17:55 14.03.2022
2588 Clouds 12 1004 76 8000 4.12 200 17:23 14.03.2022
2589 Clouds 12 1003 82 6000 4.12 180 16:18 14.03.2022
2590 Clouds 15 1010 74 3000 4.12 300 14:41 14.03.2022
2591 Clouds 14 1011 76 8000 2.06 300 12:51 14.03.2022
2592 Clouds 13 1011 79 8000 5.14 260 10:54 14.03.2022
2593 Clouds 12 1011 81 10000 3.09 220 09:55 14.03.2022
2594 Clouds 12 1014 81 10000 3.09 220 09:22 14.03.2022
2595 Clouds 12 1011 81 10000 4.12 180 08:56 14.03.2022
2596 Clouds 12 1011 81 10000 3.6 180 07:34 14.03.2022
2597 Clouds 12 1006 88 10000 2.18 212 05:46 14.03.2022
2598 Clouds 16 1012 87 10000 1.79 320 01:58 14.03.2022
2599 Clouds 16 1012 87 10000 1.79 320 01:29 14.03.2022
2600 Clouds 16 1018 87 10000 1.79 320 22:52 13.03.2022
2601 Clouds 16 1012 89 10000 1.39 35 21:31 13.03.2022
2602 Clouds 16 1015 87 10000 2.06 320 20:56 13.03.2022
2603 Clouds 16 1015 87 10000 2.06 320 20:31 13.03.2022
2604 Clouds 16 1015 87 10000 2.06 300 19:59 13.03.2022
2605 Clouds 17 1014 82 10000 2.06 360 19:37 13.03.2022
2606 Clouds 17 1014 82 10000 2.06 360 19:18 13.03.2022
2607 Clouds 17 1013 82 10000 4.12 320 18:38 13.03.2022
2608 Clouds 17 1013 88 10000 5.14 340 17:47 13.03.2022
2609 Clouds 18 1013 82 10000 5.14 340 17:20 13.03.2022
2610 Clouds 18 1013 77 10000 4.12 360 16:30 13.03.2022
2611 Clouds 19 1014 72 10000 3.09 340 15:47 13.03.2022
2612 Clouds 19 1015 68 10000 4.12 340 14:56 13.03.2022
2613 Clouds 20 1018 60 10000 3.6 340 13:49 13.03.2022
2614 Clouds 19 1019 59 10000 2.06 300 12:57 13.03.2022
2615 Clouds 17 1019 67 10000 3.09 260 11:53 13.03.2022
2616 Clouds 17 1019 67 10000 3.09 260 11:32 13.03.2022
2617 Clouds 15 1019 87 8000 1.54 220 10:48 13.03.2022
2618 Clouds 14 1018 87 8000 2.68 220 10:24 13.03.2022
2619 Clouds 14 1018 87 8000 2.68 220 10:24 13.03.2022
2620 Clouds 13 1018 87 8000 3.09 220 09:41 13.03.2022
2621 Clouds 13 1018 82 8000 1.54 220 08:46 13.03.2022
2622 Clouds 13 1017 82 10000 2.06 220 07:47 13.03.2022
2623 Clouds 9 1017 85 10000 3.19 198 05:42 13.03.2022
2624 Clouds 15 1019 72 10000 2.68 340 02:43 13.03.2022
2625 Clouds 16 1019 72 10000 2.68 340 23:59 12.03.2022
2626 Clouds 16 1019 72 10000 2.68 340 22:31 12.03.2022
2627 Clouds 16 1019 72 6000 3.09 340 20:48 12.03.2022
2628 Clouds 16 1020 77 6000 2.57 360 19:50 12.03.2022
2629 Clouds 16 1020 77 6000 2.57 360 19:32 12.03.2022
2630 Clouds 18 1018 72 6000 3.09 360 18:27 12.03.2022
2631 Clouds 18 1018 67 6000 3.09 360 17:34 12.03.2022
2632 Clouds 18 1018 63 6000 2.57 340 16:24 12.03.2022
2633 Clouds 18 1019 72 6000 3.09 320 15:23 12.03.2022
2634 Clouds 18 1020 67 6000 2.06 360 14:40 12.03.2022
2635 Clouds 18 1022 67 6000 3.09 360 13:32 12.03.2022
2636 Clouds 17 1022 82 6000 2.06 340 11:56 12.03.2022
2637 Clouds 17 1022 82 6000 2.06 340 11:38 12.03.2022
2638 Clouds 16 1022 93 5000 2.06 300 10:58 12.03.2022
2639 Clouds 16 1022 93 5000 2.06 300 10:58 12.03.2022
2640 Clouds 14 1021 93 5000 2.06 260 09:45 12.03.2022
2641 Clouds 13 1021 100 6000 2.06 280 08:56 12.03.2022
2642 Clouds 14 1020 88 10000 0.13 250 07:26 12.03.2022
2643 Clouds 16 1022 82 10000 2.68 260 03:36 12.03.2022
2644 Clouds 16 1023 82 10000 2.68 260 23:56 11.03.2022
2645 Clouds 16 1023 82 10000 2.68 260 23:56 11.03.2022
2646 Clouds 16 1023 82 10000 2.68 260 23:18 11.03.2022
2647 Clouds 16 1023 82 10000 2.68 260 23:18 11.03.2022
2648 Clouds 16 1022 82 10000 2.68 260 21:35 11.03.2022
2649 Clouds 16 1021 82 10000 3.09 260 20:55 11.03.2022
2650 Clouds 16 1021 82 10000 3.09 260 20:34 11.03.2022
2651 Clouds 16 1021 82 10000 2.06 280 19:49 11.03.2022
2652 Clouds 16 1021 82 10000 2.06 280 19:22 11.03.2022
2653 Clouds 17 1020 72 10000 2.57 320 17:30 11.03.2022
2654 Clouds 16 1019 77 10000 4.12 320 16:36 11.03.2022
2655 Clouds 17 1020 72 10000 3.6 320 15:53 11.03.2022
2656 Clouds 17 1021 72 10000 4.12 320 14:19 11.03.2022
2657 Clouds 17 1016 72 8000 2.06 340 12:44 11.03.2022
2658 Clouds 17 1021 72 8000 2.06 340 12:21 11.03.2022
2659 Clouds 16 1020 72 6000 2.06 180 11:51 11.03.2022
2660 Clouds 10 1019 93 6000 1.03 280 09:50 11.03.2022
2661 Clouds 10 1019 93 6000 1.03 220 08:56 11.03.2022
2662 Clouds 10 1019 90 6000 1.34 220 08:21 11.03.2022
2663 Clouds 11 1019 87 6000 1.54 220 07:40 11.03.2022
2664 Clear 8 1019 83 10000 1.95 158 05:44 11.03.2022
2665 Clear 9 1020 85 10000 1.54 153 03:41 11.03.2022
2666 Clear 9 1020 85 10000 1.54 153 03:41 11.03.2022
2667 Clouds 15 1022 87 10000 4.92 40 23:36 10.03.2022
2668 Clouds 15 1020 87 10000 4.92 40 22:30 10.03.2022
2669 Clouds 15 1020 87 10000 4.92 40 21:27 10.03.2022
2670 Clouds 15 1020 87 10000 5.14 40 20:55 10.03.2022
2671 Clouds 16 1020 77 10000 4.12 40 19:23 10.03.2022
2672 Clouds 17 1020 72 10000 3.09 40 18:40 10.03.2022
2673 Clouds 18 1020 67 10000 4.12 20 16:54 10.03.2022
2674 Clouds 18 1020 63 10000 3.09 20 15:50 10.03.2022
2675 Clouds 18 1021 63 10000 4.12 20 14:39 10.03.2022
2676 Clouds 17 1022 67 10000 1.03 60 12:53 10.03.2022
2677 Clouds 16 1022 72 10000 2.06 180 11:42 10.03.2022
2678 Clouds 14 1022 82 10000 2.06 200 10:24 10.03.2022
2679 Clouds 10 1021 99 10000 1.03 200 08:55 10.03.2022
2680 Clear 9 1020 83 10000 0.37 141 06:58 10.03.2022
2681 Clouds 11 1020 84 10000 0.26 298 03:52 10.03.2022
2682 Clouds 14 1020 83 10000 1.06 45 00:51 10.03.2022
2683 Clouds 14 1020 83 10000 1.78 50 22:46 09.03.2022
2684 Clouds 14 1020 83 10000 2.53 26 21:49 09.03.2022
2685 Clouds 14 1020 84 10000 3.14 2 21:24 09.03.2022
2686 Clouds 16 1018 88 10000 3.09 60 19:42 09.03.2022
2687 Clouds 17 1018 88 10000 2.06 40 18:25 09.03.2022
2688 Clouds 18 1018 77 10000 2.06 40 17:26 09.03.2022
2689 Clouds 19 1018 72 10000 2.06 40 16:30 09.03.2022
2690 Clouds 19 1019 72 10000 4.12 40 14:56 09.03.2022
2691 Clouds 18 1019 72 10000 4.12 40 13:52 09.03.2022
2692 Clouds 17 1020 88 10000 3.09 40 12:39 09.03.2022
2693 Clouds 17 1020 82 10000 3.09 80 11:52 09.03.2022
2694 Clouds 16 1020 82 10000 3.09 80 11:32 09.03.2022
2695 Clouds 12 1019 94 8000 1.03 80 09:45 09.03.2022
2696 Clouds 11 1019 87 8000 1.03 80 08:47 09.03.2022
2697 Clouds 10 1019 86 10000 3.51 61 06:51 09.03.2022
2698 Clear 12 1020 85 10000 3.64 76 01:54 09.03.2022
2699 Clear 13 1021 89 10000 3.02 87 00:27 09.03.2022
2700 Clear 15 1020 72 10000 1.79 360 22:47 08.03.2022
2701 Clear 15 1020 72 10000 1.79 360 21:52 08.03.2022
2702 Clear 15 1020 72 10000 1.79 360 21:22 08.03.2022
2703 Clear 15 1020 72 10000 1.79 360 21:22 08.03.2022
2704 Clouds 16 1020 72 10000 2.06 360 20:24 08.03.2022
2705 Clouds 17 1020 63 10000 2.06 220 19:24 08.03.2022
2706 Clouds 18 1020 63 10000 3.09 340 18:23 08.03.2022
2707 Clouds 19 1020 52 10000 4.12 360 16:44 08.03.2022
2708 Clouds 19 1021 55 10000 5.14 340 14:58 08.03.2022
2709 Clouds 19 1021 45 10000 3.09 260 13:48 08.03.2022
2710 Clouds 17 1022 51 10000 3.09 180 12:23 08.03.2022
2711 Clouds 16 1022 59 10000 3.09 200 11:42 08.03.2022
2712 Clouds 14 1021 67 8000 4.12 220 10:28 08.03.2022
2713 Clouds 10 1020 81 6000 4.12 200 08:57 08.03.2022
2714 Clouds 10 1020 81 6000 4.12 200 08:57 08.03.2022
2715 Clouds 10 1020 80 10000 4.45 176 06:30 08.03.2022
2716 Clouds 10 1020 73 10000 2.4 210 02:50 08.03.2022
2717 Clouds 12 1020 67 10000 2.59 254 22:48 07.03.2022
2718 Clouds 14 1015 62 10000 4.02 280 21:45 07.03.2022
2719 Clouds 14 1015 62 10000 4.02 280 21:23 07.03.2022
2720 Clouds 14 1019 62 10000 4.12 280 20:34 07.03.2022
2721 Clouds 15 1018 62 10000 3.09 320 19:50 07.03.2022
2722 Clouds 15 1018 62 10000 3.09 320 19:20 07.03.2022
2723 Clouds 16 1017 59 10000 3.09 300 18:29 07.03.2022
2724 Clouds 16 1018 61 10000 5.14 300 17:31 07.03.2022
2725 Clouds 16 1018 63 10000 3.09 340 16:43 07.03.2022
2726 Clouds 16 1019 72 10000 3.6 300 14:51 07.03.2022
2727 Clouds 16 1017 55 10000 2.06 300 12:34 07.03.2022
2728 Clouds 16 1017 67 10000 3.09 220 11:34 07.03.2022
2729 Clouds 13 1017 87 10000 3.09 220 10:31 07.03.2022
2730 Clouds 9 1017 71 10000 2.77 225 08:34 07.03.2022
2731 Clouds 9 1017 71 10000 2.77 225 08:34 07.03.2022
2732 Clouds 13 1013 72 10000 1.79 240 02:25 07.03.2022
2733 Clouds 14 1020 72 10000 1.79 240 00:20 07.03.2022
2734 Clouds 14 1012 72 10000 1.79 240 23:23 06.03.2022
2735 Clear 14 1013 72 10000 1.79 240 22:27 06.03.2022
2736 Clear 15 1019 72 10000 1.79 240 21:37 06.03.2022
2737 Clouds 15 1012 72 10000 2.06 240 20:29 06.03.2022
2738 Clouds 15 1016 72 10000 6.17 20 19:39 06.03.2022
2739 Clouds 15 1012 72 10000 6.17 20 18:50 06.03.2022
2740 Clouds 16 1011 72 10000 4.63 280 17:46 06.03.2022
2741 Clouds 16 1011 72 10000 4.63 280 17:19 06.03.2022
2742 Clouds 16 1011 72 10000 4.63 200 16:28 06.03.2022
2743 Clouds 16 1011 72 10000 4.12 340 15:26 06.03.2022
2744 Clouds 16 1012 77 10000 2.57 340 14:42 06.03.2022
2745 Clouds 15 1012 82 10000 4.63 320 13:49 06.03.2022
2746 Clouds 15 1016 93 10000 2.06 320 12:40 06.03.2022
2747 Clouds 13 1012 100 6000 3.09 260 11:45 06.03.2022
2748 Clouds 12 1011 100 6000 2.68 260 10:39 06.03.2022
2749 Clouds 12 1011 100 8000 3.09 260 09:18 06.03.2022
2750 Clouds 11 1011 100 8000 2.06 220 08:27 06.03.2022
2751 Clouds 11 1010 100 6000 2.57 220 07:23 06.03.2022
2752 Clouds 13 1014 78 10000 6.38 274 02:22 06.03.2022
2753 Clouds 13 1015 82 10000 5.63 257 00:34 06.03.2022
2754 Clouds 14 1016 82 10000 6.25 242 23:59 05.03.2022
2755 Clouds 14 1016 80 10000 6.2 227 23:19 05.03.2022
2756 Clouds 14 1016 80 10000 6.2 227 22:32 05.03.2022
2757 Clouds 13 1017 75 10000 5.08 240 21:29 05.03.2022
2758 Clouds 14 1016 62 10000 3.09 260 20:32 05.03.2022
2759 Clouds 16 1016 55 10000 3.09 280 19:19 05.03.2022
2760 Clouds 17 1017 51 10000 4.12 300 18:37 05.03.2022
2761 Clouds 17 1014 47 10000 5.14 360 17:34 05.03.2022
2762 Clouds 17 1015 48 10000 4.12 320 16:18 05.03.2022
2763 Clouds 17 1020 55 10000 6.17 340 14:54 05.03.2022
2764 Clouds 17 1020 55 10000 6.17 340 14:36 05.03.2022
2765 Clouds 16 1020 55 10000 5.14 340 13:39 05.03.2022
2766 Clouds 17 1021 55 10000 2.57 320 12:35 05.03.2022
2767 Clouds 14 1022 62 10000 4.02 200 11:20 05.03.2022
2768 Clouds 12 1022 62 10000 4.12 200 10:52 05.03.2022
2769 Clouds 10 1021 71 10000 4.63 220 09:31 05.03.2022
2770 Clouds 10 1021 71 10000 3.09 220 08:24 05.03.2022
2771 Clouds 7 1021 70 10000 1.21 161 06:33 05.03.2022
2772 Clouds 7 1021 69 10000 0.63 126 05:22 05.03.2022
2773 Clouds 11 1022 69 10000 1.27 9 00:30 05.03.2022
2774 Clouds 11 1023 66 10000 2.02 349 22:45 04.03.2022
2775 Clear 10 1024 65 10000 2.04 342 22:24 04.03.2022
2776 Clear 11 1024 65 10000 2.04 342 21:42 04.03.2022
2777 Clouds 14 1023 51 10000 2.06 40 20:39 04.03.2022
2778 Clouds 15 1023 44 10000 3.6 20 19:37 04.03.2022
2779 Clouds 15 1022 47 10000 3.09 20 18:54 04.03.2022
2780 Clouds 16 1022 47 10000 3.09 20 18:33 04.03.2022
2781 Clouds 16 1022 44 10000 3.6 360 17:29 04.03.2022
2782 Clouds 17 1024 51 10000 4.12 20 15:48 04.03.2022
2783 Clouds 16 1024 51 10000 4.12 20 15:24 04.03.2022
2784 Clouds 16 1025 51 10000 5.14 40 13:35 04.03.2022
2785 Clouds 15 1025 72 10000 4.12 20 11:59 04.03.2022
2786 Clouds 15 1020 77 10000 4.12 20 11:37 04.03.2022
2787 Clouds 14 1019 82 10000 3.09 20 10:24 04.03.2022
2788 Clouds 12 1019 87 6000 5.14 20 09:27 04.03.2022
2789 Clouds 12 1023 62 8000 2.06 360 07:47 04.03.2022
2790 Clouds 11 1023 66 10000 4.99 333 05:44 04.03.2022
2791 Clouds 13 1025 71 10000 6.2 345 00:43 04.03.2022
2792 Clouds 14 1025 71 10000 6.65 344 23:31 03.03.2022
2793 Clouds 15 1024 82 10000 7.29 344 22:18 03.03.2022
2794 Clouds 16 1024 82 10000 7.29 344 21:36 03.03.2022
2795 Clouds 16 1022 77 10000 4.12 320 20:32 03.03.2022
2796 Clouds 17 1022 72 10000 4.12 320 19:22 03.03.2022
2797 Clouds 17 1023 69 10000 5.14 340 18:25 03.03.2022
2798 Clouds 18 1024 67 10000 5.14 340 17:31 03.03.2022
2799 Clouds 18 1024 63 10000 5.14 320 16:38 03.03.2022
2800 Clouds 19 1024 63 10000 5.14 320 15:44 03.03.2022
2801 Clouds 19 1018 63 10000 3.09 320 14:44 03.03.2022
2802 Clouds 19 1018 63 10000 3.09 320 14:25 03.03.2022
2803 Clouds 18 1025 59 10000 4.12 320 12:33 03.03.2022
2804 Clouds 17 1025 67 10000 2.06 280 11:23 03.03.2022
2805 Clouds 16 1025 77 10000 2.06 220 10:21 03.03.2022
2806 Clouds 14 1024 82 6000 2.06 300 08:42 03.03.2022
2807 Clouds 13 1024 73 10000 0.58 320 06:55 03.03.2022
2808 Clouds 13 1024 81 10000 0.2 299 05:37 03.03.2022
2809 Clouds 14 1024 72 10000 2.68 160 23:57 02.03.2022
2810 Clear 15 1024 72 10000 2.68 160 23:00 02.03.2022
2811 Clear 15 1024 72 10000 2.68 160 22:40 02.03.2022
2812 Clear 16 1012 72 10000 2.68 160 21:22 02.03.2022
2813 Clouds 16 1024 72 10000 3.09 160 20:26 02.03.2022
2814 Clouds 17 1024 67 10000 4.12 20 19:43 02.03.2022
2815 Clouds 17 1024 67 10000 4.12 20 19:24 02.03.2022
2816 Clouds 18 1023 67 10000 4.92 20 18:37 02.03.2022
2817 Clouds 19 1024 68 10000 5.14 260 17:45 02.03.2022
2818 Clear 19 1024 63 10000 3.6 40 16:54 02.03.2022
2819 Clear 19 1024 63 10000 3.6 40 16:25 02.03.2022
2820 Clear 19 1024 63 10000 3.09 340 14:39 02.03.2022
2821 Clouds 19 1025 67 10000 1.79 40 13:18 02.03.2022
2822 Clouds 18 1025 67 10000 2.06 40 12:39 02.03.2022
2823 Clouds 17 1025 72 8000 3.09 40 11:28 02.03.2022
2824 Clouds 16 1025 72 8000 3.09 40 10:58 02.03.2022
2825 Clouds 14 1024 82 8000 1.03 200 09:40 02.03.2022
2826 Clouds 12 1024 82 6000 1.03 360 08:50 02.03.2022
2827 Clouds 10 1023 82 10000 0.5 132 07:25 02.03.2022
2828 Clouds 11 1023 82 10000 1.02 62 05:43 02.03.2022
2829 Clouds 14 1022 82 10000 4.02 20 00:51 02.03.2022
2830 Clouds 15 1022 82 10000 4.02 20 23:45 01.03.2022
2831 Clouds 15 1022 82 10000 4.02 20 22:42 01.03.2022
2832 Clouds 15 1022 82 10000 4.02 20 21:56 01.03.2022
2833 Clear 16 1022 82 10000 4.12 20 20:56 01.03.2022
2834 Clear 16 1022 82 10000 4.12 20 20:24 01.03.2022
2835 Clear 17 1021 72 10000 2.68 60 19:21 01.03.2022
2836 Clear 19 1021 55 10000 4.12 60 18:32 01.03.2022
2837 Clear 20 1021 55 10000 6.17 60 17:55 01.03.2022
2838 Clear 20 1021 48 10000 5.14 60 16:50 01.03.2022
2839 Clear 19 1021 55 10000 3.09 40 15:51 01.03.2022
2840 Clear 19 1022 59 10000 5.14 40 14:55 01.03.2022
2841 Clear 19 1022 59 10000 5.14 40 14:34 01.03.2022
2842 Clear 19 1023 59 10000 1.79 80 13:27 01.03.2022
2843 Clear 17 1023 59 10000 2.06 80 12:38 01.03.2022
2844 Clear 17 1023 59 10000 1.03 60 11:58 01.03.2022
2845 Clear 14 1022 67 10000 2.06 100 10:26 01.03.2022
2846 Clear 10 1021 76 8000 1.03 0 08:36 01.03.2022
2847 Clear 10 1021 71 8000 1.03 0 07:35 01.03.2022
2848 Clear 11 1021 69 10000 5.06 50 04:28 01.03.2022
2849 Clear 16 1021 77 10000 4.02 80 00:59 01.03.2022
2850 Clear 16 1021 77 10000 4.02 80 23:48 28.02.2022
2851 Clear 16 1021 77 10000 4.02 80 22:52 28.02.2022
2852 Clear 16 1021 77 10000 4.02 80 21:48 28.02.2022
2853 Clear 16 1012 77 10000 4.02 80 21:24 28.02.2022
2854 Clear 17 1020 82 8000 5.14 80 19:52 28.02.2022
2855 Clear 18 1020 82 8000 5.14 80 19:22 28.02.2022
2856 Clear 20 1020 55 8000 4.12 40 18:36 28.02.2022
2857 Clear 20 1020 68 10000 4.92 60 17:23 28.02.2022
2858 Clear 20 1021 68 6000 5.14 60 16:32 28.02.2022
2859 Clear 20 1021 68 8000 5.14 40 15:23 28.02.2022
2860 Clear 21 1021 68 8000 1.03 140 14:30 28.02.2022
2861 Clouds 20 1022 72 10000 4.12 320 13:34 28.02.2022
2862 Clouds 20 1022 68 10000 1.03 140 12:31 28.02.2022
2863 Clouds 18 1022 72 8000 1.03 220 11:37 28.02.2022
2864 Clouds 17 1021 77 8000 1.03 100 10:24 28.02.2022
2865 Clouds 16 1021 77 8000 1.03 100 09:59 28.02.2022
2866 Clouds 16 1021 77 8000 1.03 100 09:30 28.02.2022
2867 Clouds 15 1020 88 8000 1.54 40 08:26 28.02.2022
2868 Clouds 15 1020 88 8000 1.54 40 08:26 28.02.2022
2869 Clouds 15 1020 94 10000 1.03 180 07:19 28.02.2022
2870 Clouds 16 1018 82 10000 2.3 29 04:31 28.02.2022
2871 Clouds 15 1019 83 10000 3.24 16 03:30 28.02.2022
2872 Clouds 17 1019 86 10000 5.79 17 23:26 27.02.2022
2873 Clouds 17 1019 86 10000 5.79 17 22:33 27.02.2022
2874 Clouds 17 1019 85 10000 6.72 22 21:47 27.02.2022
2875 Clouds 17 1018 88 8000 5.14 40 20:54 27.02.2022
2876 Clouds 17 1018 88 8000 5.14 40 20:27 27.02.2022
2877 Clouds 17 1018 88 8000 5.14 40 19:56 27.02.2022
2878 Clouds 17 1018 88 8000 5.14 40 19:26 27.02.2022
2879 Clouds 18 1017 82 8000 6.17 40 18:39 27.02.2022
2880 Clouds 18 1017 82 8000 4.12 20 17:54 27.02.2022
2881 Clouds 19 1013 74 8000 5.14 40 16:37 27.02.2022
2882 Clouds 19 1018 75 10000 4.92 20 15:55 27.02.2022
2883 Clouds 17 1016 88 6000 3.09 240 12:53 27.02.2022
2884 Clouds 17 1016 87 6000 3.58 200 12:29 27.02.2022
2885 Clouds 16 1016 87 6000 3.6 280 10:50 27.02.2022
2886 Clouds 16 1016 87 6000 4.63 360 09:58 27.02.2022
2887 Clouds 16 1016 87 6000 4.63 360 09:37 27.02.2022
2888 Clouds 16 1016 87 6000 4.63 360 09:18 27.02.2022
2889 Clouds 16 1016 88 10000 1.72 350 06:44 27.02.2022
2890 Clouds 16 1015 89 10000 2.51 350 05:36 27.02.2022
2891 Clouds 17 1014 88 10000 1.79 20 00:52 27.02.2022
2892 Clouds 16 1014 88 10000 1.79 20 22:58 26.02.2022
2893 Clouds 17 1014 88 10000 1.79 20 21:44 26.02.2022
2894 Clouds 17 1014 88 6000 2.06 20 20:52 26.02.2022
2895 Clouds 17 1013 88 6000 3.58 340 20:19 26.02.2022
2896 Clouds 17 1013 88 6000 3.6 340 19:41 26.02.2022
2897 Clouds 17 1013 88 6000 3.6 340 19:19 26.02.2022
2898 Clouds 19 1013 77 6000 3.09 320 17:45 26.02.2022
2899 Clouds 20 1013 72 6000 4.12 320 16:51 26.02.2022
2900 Clouds 20 1013 72 6000 2.57 340 15:57 26.02.2022
2901 Clouds 20 1013 72 6000 2.57 340 15:23 26.02.2022
2902 Clouds 20 1013 72 6000 1.54 320 14:54 26.02.2022
2903 Clouds 20 1013 72 6000 1.54 320 14:33 26.02.2022
2904 Clouds 19 1013 77 8000 3.09 300 13:19 26.02.2022
2905 Clouds 17 1014 82 6000 2.06 300 12:23 26.02.2022
2906 Clouds 17 1014 82 6000 2.06 300 11:28 26.02.2022
2907 Clouds 16 1014 82 6000 2.06 340 10:40 26.02.2022
2908 Clouds 16 1013 87 6000 2.06 320 08:53 26.02.2022
2909 Clouds 15 1012 92 10000 1 214 06:51 26.02.2022
2910 Clouds 16 1014 82 10000 1.79 360 00:56 26.02.2022
2911 Clouds 16 1014 82 10000 1.79 360 22:55 25.02.2022
2912 Clouds 17 1014 82 10000 1.79 360 21:43 25.02.2022
2913 Clouds 17 1014 82 10000 1.79 360 21:25 25.02.2022
2914 Clouds 17 1014 82 6000 2.06 360 20:33 25.02.2022
2915 Clouds 17 1013 82 6000 1.03 20 19:18 25.02.2022
2916 Clouds 20 1013 82 6000 3.09 60 17:29 25.02.2022
2917 Clouds 20 1013 82 6000 3.09 200 16:32 25.02.2022
2918 Clouds 20 1013 77 6000 3.09 340 15:48 25.02.2022
2919 Clouds 20 1015 77 6000 3.09 340 15:22 25.02.2022
2920 Clouds 21 1014 64 6000 3.09 200 14:42 25.02.2022
2921 Mist 22 1014 83 5000 3.09 40 13:51 25.02.2022
2922 Mist 22 1014 83 5000 3.09 40 13:19 25.02.2022
2923 Mist 17 1016 91 3000 2.06 300 11:28 25.02.2022
2924 Mist 16 1015 88 3000 2.06 240 10:43 25.02.2022
2925 Clouds 16 1015 82 6000 2.06 180 10:22 25.02.2022
2926 Clouds 15 1015 87 6000 2.06 180 09:30 25.02.2022
2927 Clouds 15 1015 87 6000 2.06 180 07:42 25.02.2022
2928 Clouds 14 1013 86 10000 2.75 87 05:51 25.02.2022
2929 Clouds 14 1013 86 10000 2.75 87 05:31 25.02.2022
2930 Clouds 17 1016 88 10000 4.97 121 00:27 25.02.2022
2931 Clouds 17 1017 90 10000 6.05 111 21:59 24.02.2022
2932 Clouds 17 1017 90 10000 6.05 111 21:40 24.02.2022
2933 Clouds 17 1017 91 10000 5.57 106 21:20 24.02.2022
2934 Clouds 19 1015 63 6000 2.06 200 19:53 24.02.2022
2935 Clouds 19 1015 73 6000 6.17 200 18:45 24.02.2022
2936 Clouds 19 1015 73 6000 6.17 200 18:19 24.02.2022
2937 Clouds 18 1015 82 6000 3.09 120 17:40 24.02.2022
2938 Clouds 18 1015 82 6000 4.12 140 16:50 24.02.2022
2939 Clouds 18 1015 82 6000 4.12 140 16:24 24.02.2022
2940 Clouds 18 1019 88 6000 3.09 60 14:56 24.02.2022
2941 Clouds 17 1019 88 6000 3.09 60 14:36 24.02.2022
2942 Clouds 18 1020 82 8000 3.09 80 13:41 24.02.2022
2943 Clouds 18 1020 82 8000 3.09 80 13:21 24.02.2022
2944 Clouds 16 1020 87 6000 1.54 100 10:41 24.02.2022
2945 Clouds 16 1019 87 6000 2.06 60 09:40 24.02.2022
2946 Clouds 16 1019 87 6000 2.06 60 08:42 24.02.2022
2947 Clouds 15 1017 93 10000 4.99 68 05:59 24.02.2022
2948 Clouds 15 1020 90 10000 1.58 269 02:59 24.02.2022
2949 Clouds 16 1022 93 10000 4.69 244 23:45 23.02.2022
2950 Clouds 19 1019 93 10000 3.91 330 21:55 23.02.2022
2951 Clouds 20 1021 77 8000 4.12 260 20:32 23.02.2022
2952 Clouds 22 1018 33 8000 1.03 60 19:55 23.02.2022
2953 Clear 24 1018 33 10000 1.03 40 18:57 23.02.2022
2954 Clear 25 1018 29 10000 2.06 40 17:46 23.02.2022
2955 Clear 25 1018 33 10000 1.54 320 15:28 23.02.2022
2956 Clear 25 1019 36 10000 2.06 240 13:34 23.02.2022
2957 Clear 24 1020 35 10000 2.06 280 12:28 23.02.2022
2958 Clear 20 1019 42 10000 1.03 260 10:55 23.02.2022
2959 Clouds 17 1018 48 8000 3.09 180 09:31 23.02.2022
2960 Clouds 17 1018 55 8000 2.06 220 08:28 23.02.2022
2961 Clouds 17 1017 51 8000 2.06 220 07:19 23.02.2022
2962 Clouds 17 1017 51 8000 2.06 220 07:19 23.02.2022
2963 Clouds 17 1019 63 10000 1.79 20 01:22 23.02.2022
2964 Clouds 17 1019 63 10000 1.79 20 23:40 22.02.2022
2965 Clouds 17 1019 63 10000 1.79 20 22:59 22.02.2022
2966 Clouds 17 1019 63 10000 1.79 20 21:58 22.02.2022
2967 Clouds 17 1014 63 10000 1.79 20 21:40 22.02.2022
2968 Clouds 17 1019 63 10000 1.79 20 21:19 22.02.2022
2969 Clouds 18 1019 63 8000 2.06 20 20:31 22.02.2022
2970 Clouds 19 1019 63 8000 2.06 20 19:53 22.02.2022
2971 Clouds 19 1019 63 8000 2.06 20 19:33 22.02.2022
2972 Clouds 20 1020 55 8000 2.06 20 18:27 22.02.2022
2973 Clouds 22 1020 52 8000 2.06 20 17:26 22.02.2022
2974 Clouds 22 1020 43 8000 2.06 20 16:42 22.02.2022
2975 Clouds 21 1021 46 8000 3.09 60 15:59 22.02.2022
2976 Clouds 21 1021 46 8000 3.09 60 15:18 22.02.2022
2977 Clouds 20 1023 52 8000 2.06 80 13:37 22.02.2022
2978 Clear 15 1023 82 6000 2.06 60 10:54 22.02.2022
2979 Clouds 11 1022 87 6000 1.03 160 08:56 22.02.2022
2980 Clouds 12 1022 87 6000 1.03 0 07:28 22.02.2022
2981 Clear 9 1023 77 10000 1.83 72 06:53 22.02.2022
2982 Clear 15 1022 87 10000 2.68 60 02:48 22.02.2022
2983 Clear 15 1022 87 10000 2.68 60 23:18 21.02.2022
2984 Clear 15 1022 87 10000 2.68 60 21:56 21.02.2022
2985 Clouds 16 1022 87 10000 3.09 60 20:38 21.02.2022
2986 Clear 19 1022 77 10000 4.12 40 18:47 21.02.2022
2987 Clear 19 1022 77 10000 4.12 40 18:18 21.02.2022
2988 Clear 21 1022 52 10000 4.12 60 15:36 21.02.2022
2989 Clear 19 1023 63 10000 3.09 40 14:22 21.02.2022
2990 Clear 18 1025 61 10000 4.47 20 13:31 21.02.2022
2991 Clear 18 1025 67 10000 4.47 20 12:41 21.02.2022
2992 Clear 18 1025 67 10000 4.47 20 12:20 21.02.2022
2993 Clear 14 1022 82 8000 1.54 200 10:26 21.02.2022
2994 Clouds 9 1022 80 10000 3.12 60 05:40 21.02.2022
2995 Clouds 14 1015 77 10000 2.68 80 00:30 21.02.2022
2996 Clouds 16 1022 77 10000 2.68 80 22:32 20.02.2022
2997 Clouds 16 1022 77 10000 2.68 80 21:43 20.02.2022
2998 Clouds 16 1021 77 10000 2.68 80 21:21 20.02.2022
2999 Clouds 16 1021 77 10000 3.09 80 20:43 20.02.2022
3000 Clouds 16 1021 82 10000 3.09 60 19:48 20.02.2022
3001 Clear 17 1020 77 10000 3.6 80 18:55 20.02.2022
3002 Clear 17 1020 77 10000 3.6 80 18:34 20.02.2022
3003 Clear 17 1020 77 10000 3.6 80 18:34 20.02.2022
3004 Clear 18 1020 72 10000 3.09 80 17:55 20.02.2022
3005 Clouds 17 1021 72 10000 4.63 80 16:18 20.02.2022
3006 Clouds 17 1022 72 10000 5.14 60 14:53 20.02.2022
3007 Clouds 17 1023 72 8000 6.17 80 13:58 20.02.2022
3008 Clouds 15 1023 74 8000 4.02 80 12:35 20.02.2022
3009 Clouds 12 1023 82 6000 3.09 80 10:52 20.02.2022
3010 Clouds 12 1023 82 6000 3.09 80 10:20 20.02.2022
3011 Mist 8 1022 93 3000 2.06 200 08:58 20.02.2022
3012 Clouds 8 1023 72 10000 1.95 124 01:19 20.02.2022
3013 Clouds 9 1023 71 10000 2 135 00:30 20.02.2022
3014 Clouds 9 1023 65 10000 0.34 167 23:19 19.02.2022
3015 Clouds 12 1022 66 10000 1.79 360 22:23 19.02.2022
3016 Clouds 13 1022 66 10000 1.79 360 21:45 19.02.2022
3017 Clouds 14 1022 62 8000 3.09 340 19:58 19.02.2022
3018 Clouds 14 1022 62 8000 3.09 340 19:33 19.02.2022
3019 Clouds 15 1022 58 8000 3.09 360 18:38 19.02.2022
3020 Clouds 15 1022 58 8000 3.09 360 17:37 19.02.2022
3021 Clouds 15 1022 62 8000 4.12 360 16:44 19.02.2022
3022 Clouds 15 1022 67 8000 3.09 20 15:20 19.02.2022
3023 Clouds 15 1023 67 8000 5.14 20 14:52 19.02.2022
3024 Clouds 14 1023 76 8000 4.12 200 13:47 19.02.2022
3025 Clouds 14 1022 87 8000 3.09 300 11:39 19.02.2022
3026 Clouds 15 1022 87 8000 4.12 360 10:30 19.02.2022
3027 Clouds 13 1021 93 8000 2.06 240 07:56 19.02.2022
3028 Clouds 13 1020 83 10000 2.84 317 06:30 19.02.2022
3029 Clouds 14 1020 77 10000 1.79 320 23:45 18.02.2022
3030 Clouds 15 1022 77 10000 1.79 320 21:54 18.02.2022
3031 Clouds 15 1021 77 10000 2.06 320 20:57 18.02.2022
3032 Clouds 16 1021 72 10000 2.06 320 19:54 18.02.2022
3033 Clouds 17 1021 67 10000 2.06 320 18:50 18.02.2022
3034 Clouds 17 1021 67 10000 2.06 320 18:22 18.02.2022
3035 Clouds 18 1021 59 10000 2.06 340 17:55 18.02.2022
3036 Clouds 19 1020 63 10000 3.09 20 15:23 18.02.2022
3037 Clouds 18 1023 67 10000 3.09 340 13:55 18.02.2022
3038 Clouds 17 1023 67 10000 3.09 340 13:25 18.02.2022
3039 Clouds 17 1023 65 10000 2.06 340 12:40 18.02.2022
3040 Clouds 16 1023 67 10000 2.06 320 11:40 18.02.2022
3041 Clouds 16 1022 67 8000 1.03 220 10:23 18.02.2022
3042 Clear 14 1021 92 10000 2.04 183 06:57 18.02.2022
3043 Clear 14 1021 92 10000 1.95 182 05:41 18.02.2022
3044 Clear 15 1022 77 10000 4.02 40 23:43 17.02.2022
3045 Clear 15 1022 77 10000 4.02 40 21:46 17.02.2022
3046 Clear 15 1022 77 10000 4.02 40 21:20 17.02.2022
3047 Clouds 15 1022 77 10000 4.12 40 20:39 17.02.2022
3048 Clouds 16 1021 72 10000 4.12 40 19:50 17.02.2022
3049 Clear 17 1022 77 10000 3.09 40 18:52 17.02.2022
3050 Clear 18 1022 72 10000 4.12 40 17:55 17.02.2022
3051 Clear 19 1023 63 10000 4.12 80 16:42 17.02.2022
3052 Clear 19 1024 67 10000 6.17 60 15:38 17.02.2022
3053 Clear 19 1025 67 10000 6.17 60 14:28 17.02.2022
3054 Clear 18 1027 63 10000 5.14 60 12:43 17.02.2022
3055 Clouds 16 1028 72 8000 3.09 100 11:27 17.02.2022
3056 Clear 10 1028 81 8000 2.06 200 09:18 17.02.2022
3057 Clouds 11 1029 81 10000 3.5 78 04:20 17.02.2022
3058 Clear 13 1030 71 10000 1.79 60 23:21 16.02.2022
3059 Clear 13 1030 71 10000 1.79 60 21:44 16.02.2022
3060 Clear 15 1030 72 10000 3.6 80 19:57 16.02.2022
3061 Clear 17 1029 59 10000 3.09 80 18:43 16.02.2022
3062 Clear 18 1029 63 10000 3.09 60 17:53 16.02.2022
3063 Clear 18 1030 59 10000 2.06 80 15:40 16.02.2022
3064 Clear 18 1031 59 10000 4.92 40 15:19 16.02.2022
3065 Clouds 18 1032 51 10000 2.06 80 13:31 16.02.2022
3066 Clouds 17 1032 55 10000 3.09 80 12:20 16.02.2022
3067 Clouds 15 1031 74 8000 2.06 110 11:28 16.02.2022
3068 Clouds 13 1031 76 6000 2.06 180 10:34 16.02.2022
3069 Clouds 9 1030 87 6000 2.06 160 08:20 16.02.2022
3070 Clear 5 1029 76 10000 2.99 82 06:29 16.02.2022
3071 Clear 14 1027 58 10000 7.15 80 23:45 15.02.2022
3072 Clear 14 1027 58 10000 7.15 80 22:30 15.02.2022
3073 Clear 14 1027 58 10000 7.15 80 21:47 15.02.2022
3074 Clear 14 1027 58 10000 7.15 80 21:27 15.02.2022
3075 Clouds 15 1027 58 10000 7.2 80 20:56 15.02.2022
3076 Clouds 15 1027 58 10000 7.2 60 19:57 15.02.2022
3077 Clouds 15 1027 58 10000 7.15 60 19:21 15.02.2022
3078 Clouds 16 1027 55 10000 7.2 60 18:23 15.02.2022
3079 Clouds 16 1026 59 10000 5.14 50 17:50 15.02.2022
3080 Clouds 17 1026 53 10000 5.14 60 17:19 15.02.2022
3081 Clouds 18 1027 51 10000 4.12 60 15:30 15.02.2022
3082 Clear 17 1029 48 10000 4.12 80 13:28 15.02.2022
3083 Clear 17 1029 55 10000 2.68 60 12:37 15.02.2022
3084 Clear 15 1028 72 10000 1.03 180 11:40 15.02.2022
3085 Clear 11 1027 81 8000 1.03 160 09:47 15.02.2022
3086 Clear 10 1026 75 10000 3.87 79 06:59 15.02.2022
3087 Clouds 10 1026 76 10000 4.1 73 05:32 15.02.2022
3088 Clouds 15 1024 82 10000 2.68 20 23:33 14.02.2022
3089 Clouds 15 1024 82 10000 2.68 20 21:47 14.02.2022
3090 Clouds 15 1024 82 10000 3.09 20 20:40 14.02.2022
3091 Clouds 16 1024 77 10000 3.09 20 19:44 14.02.2022
3092 Clouds 16 1024 77 10000 3.09 20 19:25 14.02.2022
3093 Clouds 17 1023 67 10000 3.09 320 18:23 14.02.2022
3094 Clouds 18 1023 63 10000 3.09 340 17:26 14.02.2022
3095 Clouds 19 1023 59 10000 3.09 340 16:25 14.02.2022
3096 Clouds 19 1024 63 10000 2.06 20 14:31 14.02.2022
3097 Clouds 19 1025 63 10000 1.03 20 13:33 14.02.2022
3098 Clouds 19 1025 63 10000 1.03 20 13:33 14.02.2022
3099 Clouds 18 1025 63 8000 2.06 300 12:52 14.02.2022
3100 Clouds 17 1025 77 8000 3.09 220 11:55 14.02.2022
3101 Clouds 14 1024 85 6000 2.68 200 10:56 14.02.2022
3102 Clouds 11 1023 87 6000 2.06 200 08:45 14.02.2022
3103 Clouds 11 1023 93 6000 2.06 140 07:32 14.02.2022
3104 Clouds 14 1022 82 10000 2.24 340 02:27 14.02.2022
3105 Clouds 15 1022 82 10000 2.24 340 22:42 13.02.2022
3106 Clouds 15 1022 82 10000 2.24 340 22:24 13.02.2022
3107 Clouds 15 1022 82 10000 2.24 340 21:32 13.02.2022
3108 Clouds 16 1022 82 10000 2.57 340 20:40 13.02.2022
3109 Clouds 17 1021 77 10000 3.6 340 19:45 13.02.2022
3110 Clear 18 1021 67 10000 1.54 20 18:54 13.02.2022
3111 Clear 19 1021 67 10000 1.54 20 18:35 13.02.2022
3112 Clear 21 1021 60 10000 1.03 20 16:34 13.02.2022
3113 Clear 20 1021 59 10000 1.54 20 15:25 13.02.2022
3114 Clear 20 1022 72 10000 2.06 300 14:36 13.02.2022
3115 Clear 19 1024 63 10000 1.03 340 12:51 13.02.2022
3116 Clear 18 1023 61 10000 1.35 290 11:58 13.02.2022
3117 Clear 12 1023 76 10000 1.03 200 10:35 13.02.2022
3118 Clear 10 1022 81 10000 1.03 220 09:47 13.02.2022
3119 Clear 10 1021 71 10000 1.03 260 07:51 13.02.2022
3120 Clouds 15 1022 82 10000 4.02 40 00:36 13.02.2022
3121 Clouds 15 1022 82 10000 4.02 40 23:53 12.02.2022
3122 Clouds 15 1022 82 10000 4.02 40 22:33 12.02.2022
3123 Clear 15 1022 82 10000 4.02 40 21:31 12.02.2022
3124 Clear 16 1022 82 8000 4.12 40 20:52 12.02.2022
3125 Clear 16 1022 82 10000 2.06 20 19:47 12.02.2022
3126 Clear 18 1021 72 10000 3.09 20 18:53 12.02.2022
3127 Clear 18 1021 72 10000 3.09 20 18:35 12.02.2022
3128 Clouds 19 1022 72 10000 4.12 40 17:37 12.02.2022
3129 Clouds 19 1021 72 10000 3.09 40 16:43 12.02.2022
3130 Clear 19 1022 72 10000 4.12 20 15:51 12.02.2022
3131 Clouds 19 1023 67 8000 2.06 60 14:55 12.02.2022
3132 Clouds 19 1023 67 8000 2.06 60 14:24 12.02.2022
3133 Mist 16 1023 82 3000 2.06 180 11:18 12.02.2022
3134 Fog 13 1023 82 400 2.06 180 10:23 12.02.2022
3135 Fog 12 1023 93 400 2.06 200 09:32 12.02.2022
3136 Fog 12 1022 93 400 2.06 160 08:45 12.02.2022
3137 Clear 9 1022 87 10000 1.76 89 05:41 12.02.2022
3138 Clear 9 1022 87 10000 1.89 89 04:36 12.02.2022
3139 Clear 10 1023 88 10000 1.88 89 02:19 12.02.2022
3140 Clear 14 1024 85 10000 2.73 55 22:58 11.02.2022
3141 Clear 14 1024 84 10000 3.25 40 22:20 11.02.2022
3142 Clear 15 1024 84 10000 3.58 29 21:18 11.02.2022
3143 Clouds 15 1023 82 6000 3.09 40 20:21 11.02.2022
3144 Clouds 17 1022 74 8000 4.12 20 19:27 11.02.2022
3145 Clouds 17 1022 72 8000 4.12 360 18:29 11.02.2022
3146 Clouds 18 1022 67 8000 4.12 360 17:26 11.02.2022
3147 Clouds 18 1022 72 8000 4.12 20 16:26 11.02.2022
3148 Clouds 16 1023 66 10000 4.38 345 14:59 11.02.2022
3149 Clouds 16 1023 66 10000 4.38 345 14:37 11.02.2022
3150 Clouds 17 1024 70 10000 3.87 341 14:18 11.02.2022
3151 Clouds 17 1024 70 10000 3.87 341 13:40 11.02.2022
3152 Clouds 16 1025 70 10000 3.77 333 12:37 11.02.2022
3153 Clouds 14 1024 87 8000 1.03 260 10:30 11.02.2022
3154 Clouds 13 1024 91 8000 2.06 260 09:22 11.02.2022
3155 Clouds 12 1024 85 10000 2.37 96 08:28 11.02.2022
3156 Clouds 12 1024 85 10000 2.37 96 07:39 11.02.2022
3157 Clouds 14 1024 77 10000 1.79 340 02:40 11.02.2022
3158 Clouds 15 1024 77 10000 1.79 340 02:20 11.02.2022
3159 Clouds 15 1024 77 10000 1.79 340 23:40 10.02.2022
3160 Clouds 16 1024 77 10000 1.79 340 21:55 10.02.2022
3161 Clouds 16 1024 77 10000 1.79 340 21:26 10.02.2022
3162 Clouds 16 1024 77 8000 2.06 340 20:48 10.02.2022
3163 Clouds 16 1023 82 8000 2.06 340 19:49 10.02.2022
3164 Clouds 16 1023 82 8000 2.06 340 19:20 10.02.2022
3165 Clouds 19 1023 72 8000 2.06 360 17:43 10.02.2022
3166 Clouds 19 1023 75 8000 2.68 360 17:20 10.02.2022
3167 Clouds 19 1023 77 8000 3.09 360 16:23 10.02.2022
3168 Clouds 19 1023 77 8000 2.06 320 15:34 10.02.2022
3169 Clouds 19 1024 77 8000 2.06 340 14:49 10.02.2022
3170 Clouds 19 1024 77 8000 2.06 340 14:30 10.02.2022
3171 Clouds 18 1025 77 8000 2.06 340 13:33 10.02.2022
3172 Clouds 18 1026 82 6000 2.06 340 12:51 10.02.2022
3173 Clouds 16 1025 88 6000 2.06 240 11:44 10.02.2022
3174 Clouds 16 1025 87 6000 2.06 240 11:25 10.02.2022
3175 Mist 12 1025 100 4000 2.06 200 10:19 10.02.2022
3176 Mist 11 1025 93 2000 1.03 200 09:25 10.02.2022
3177 Clouds 8 1025 76 10000 1.28 177 07:40 10.02.2022
3178 Clear 7 1024 76 10000 0.48 172 05:52 10.02.2022
3179 Clear 16 1024 67 10000 1.79 80 01:57 10.02.2022
3180 Clear 16 1024 67 10000 1.79 80 00:50 10.02.2022
3181 Clear 16 1024 67 10000 1.79 80 00:50 10.02.2022
3182 Clear 16 1024 67 10000 1.79 80 00:29 10.02.2022
3183 Clear 16 1024 67 10000 1.79 80 23:28 09.02.2022
3184 Clear 16 1024 67 10000 1.79 80 22:38 09.02.2022
3185 Clear 16 1024 67 10000 1.79 80 21:56 09.02.2022
3186 Clear 17 1024 67 10000 1.79 80 21:32 09.02.2022
3187 Clear 17 1024 67 10000 2.06 80 20:51 09.02.2022
3188 Clear 17 1024 67 10000 2.06 80 20:31 09.02.2022
3189 Clear 18 1024 63 10000 1.54 80 19:59 09.02.2022
3190 Clear 19 1024 63 10000 1.54 80 19:38 09.02.2022
3191 Clear 22 1023 60 10000 2.06 60 17:39 09.02.2022
3192 Clear 22 1024 56 10000 3.09 20 16:53 09.02.2022
3193 Clear 24 1024 46 10000 3.09 20 15:52 09.02.2022
3194 Clear 25 1024 36 10000 2.57 100 14:42 09.02.2022
3195 Clear 23 1025 37 10000 2.06 140 12:30 09.02.2022
3196 Clear 21 1025 40 10000 3.09 200 11:19 09.02.2022
3197 Clear 16 1025 51 10000 3.09 200 10:30 09.02.2022
3198 Clear 13 1024 58 10000 3.09 200 09:42 09.02.2022
3199 Clear 13 1024 58 10000 3.09 200 09:19 09.02.2022
3200 Clear 9 1024 65 10000 1.92 150 07:56 09.02.2022
3201 Clear 10 1023 70 10000 1.08 130 05:30 09.02.2022
3202 Clear 16 1022 77 10000 1.79 80 03:50 09.02.2022
3203 Clear 16 1022 77 10000 1.79 80 01:27 09.02.2022
3204 Clear 17 1022 77 10000 1.79 80 23:34 08.02.2022
3205 Clear 16 1022 77 10000 1.79 80 22:50 08.02.2022
3206 Clear 16 1022 77 10000 1.79 80 22:22 08.02.2022
3207 Clear 17 1022 77 10000 1.79 80 21:50 08.02.2022
3208 Clear 17 1022 77 10000 1.79 80 21:21 08.02.2022
3209 Clouds 17 1022 77 6000 2.06 80 20:45 08.02.2022
3210 Clouds 20 1022 63 8000 2.06 60 19:46 08.02.2022
3211 Clear 18 1022 67 10000 3.35 36 18:48 08.02.2022
3212 Clouds 23 1022 46 8000 2.06 40 17:50 08.02.2022
3213 Clear 23 1022 35 10000 1.79 20 16:34 08.02.2022
3214 Clear 23 1022 35 10000 1.79 20 15:30 08.02.2022
3215 Clouds 24 1022 35 6000 2.06 20 14:44 08.02.2022
3216 Clouds 23 1023 40 6000 4.12 20 13:29 08.02.2022
3217 Clouds 20 1023 59 6000 3.09 200 11:55 08.02.2022
3218 Clouds 15 1022 67 6000 3.09 200 10:23 08.02.2022
3219 Clouds 15 1022 67 6000 3.09 200 10:23 08.02.2022
3220 Mist 13 1019 76 2000 2.06 200 09:45 08.02.2022
3221 Clouds 13 1021 67 6000 2.06 180 07:55 08.02.2022
3222 Clear 10 1021 65 10000 1.95 122 05:41 08.02.2022
3223 Clear 15 1021 72 10000 1.79 60 04:39 08.02.2022
3224 Clear 15 1021 72 10000 1.79 60 04:21 08.02.2022
3225 Clear 15 1021 72 10000 1.79 60 03:36 08.02.2022
3226 Clear 15 1021 72 10000 1.79 60 03:18 08.02.2022
3227 Clear 15 1021 72 10000 1.79 60 02:59 08.02.2022
3228 Clear 15 1021 72 10000 1.79 60 02:36 08.02.2022
3229 Clear 15 1021 72 10000 1.79 60 02:18 08.02.2022
3230 Clear 15 1021 72 10000 1.79 60 02:18 08.02.2022
3231 Clear 15 1021 72 10000 1.79 60 01:44 08.02.2022
3232 Clear 15 1021 72 10000 1.79 60 01:24 08.02.2022
3233 Clear 15 1021 72 10000 1.79 60 00:54 08.02.2022
3234 Clear 16 1016 72 10000 1.79 60 23:57 07.02.2022
3235 Clear 15 1016 72 10000 1.79 60 23:39 07.02.2022
3236 Clear 15 1016 72 10000 1.79 60 23:18 07.02.2022
3237 Clear 15 1021 72 10000 1.79 60 22:42 07.02.2022
3238 Clear 15 1021 72 10000 1.79 60 22:18 07.02.2022
3239 Clear 15 1021 72 10000 1.79 60 21:43 07.02.2022
3240 Clear 16 1021 72 10000 1.79 60 21:25 07.02.2022
3241 Clear 16 1021 72 8000 2.06 60 20:41 07.02.2022
3242 Clear 18 1020 67 10000 1.54 60 19:54 07.02.2022
3243 Clear 18 1020 67 10000 1.54 60 19:36 07.02.2022
3244 Clear 20 1020 62 10000 2.68 40 18:18 07.02.2022
3245 Clear 20 1020 68 10000 2.06 40 16:53 07.02.2022
3246 Clear 21 1020 64 10000 2.06 20 15:49 07.02.2022
3247 Clear 21 1021 68 10000 2.57 360 14:56 07.02.2022
3248 Clear 19 1022 68 8000 1.03 20 13:28 07.02.2022
3249 Clear 18 1022 72 8000 1.03 20 12:52 07.02.2022
3250 Clear 16 1022 72 8000 1.03 160 11:58 07.02.2022
3251 Clear 15 1022 72 8000 1.03 160 11:35 07.02.2022
3252 Clear 13 1022 82 8000 1.03 180 10:50 07.02.2022
3253 Clear 13 1022 82 8000 0.89 180 10:30 07.02.2022
3254 Clear 11 1021 87 8000 1.03 180 09:53 07.02.2022
3255 Clear 11 1021 87 8000 0.89 180 09:18 07.02.2022
3256 Clear 11 1021 87 8000 0.89 180 08:38 07.02.2022
3257 Clear 7 1020 82 10000 2.41 140 06:58 07.02.2022
3258 Clear 7 1020 82 10000 2.41 140 06:34 07.02.2022
3259 Clear 15 1022 82 10000 1.79 40 02:59 07.02.2022
3260 Clouds 15 1022 82 10000 1.79 40 00:45 07.02.2022
3261 Clouds 15 1022 82 10000 1.79 40 00:45 07.02.2022
3262 Clouds 14 1022 82 10000 1.79 40 23:48 06.02.2022
3263 Clouds 15 1022 82 10000 1.79 40 22:48 06.02.2022
3264 Clouds 15 1022 82 10000 1.79 40 21:55 06.02.2022
3265 Clouds 15 1022 82 10000 1.79 40 21:35 06.02.2022
3266 Clear 15 1022 82 10000 1.79 40 20:54 06.02.2022
3267 Clear 15 1021 79 10000 2.68 20 20:31 06.02.2022
3268 Clear 16 1021 77 10000 2.68 20 19:38 06.02.2022
3269 Clear 17 1021 72 10000 2.68 20 18:40 06.02.2022
3270 Clear 17 1021 72 10000 2.68 20 17:56 06.02.2022
3271 Clear 18 1022 72 10000 4.92 20 17:19 06.02.2022
3272 Clear 18 1022 72 10000 4.92 20 16:38 06.02.2022
3273 Clear 18 1022 72 10000 4.02 20 15:49 06.02.2022
3274 Clear 18 1022 72 10000 4.02 20 15:26 06.02.2022
3275 Clear 18 1022 67 10000 2.68 60 14:36 06.02.2022
3276 Clear 17 1023 72 10000 1.79 60 13:26 06.02.2022
3277 Clouds 17 1024 77 8000 1.79 60 12:52 06.02.2022
3278 Clouds 15 1024 82 8000 1.79 80 11:32 06.02.2022
3279 Clouds 13 1023 87 6000 1.79 120 10:30 06.02.2022
3280 Clouds 11 1023 93 6000 1.79 160 08:59 06.02.2022
3281 Clouds 11 1023 93 6000 1.79 160 08:30 06.02.2022
3282 Clouds 11 1022 83 10000 3.01 54 05:31 06.02.2022
3283 Clouds 15 1023 82 10000 4.02 60 02:49 06.02.2022
3284 Clouds 15 1023 82 10000 4.02 60 02:24 06.02.2022
3285 Clouds 15 1023 82 10000 4.02 60 00:27 06.02.2022
3286 Clouds 15 1023 82 10000 4.02 60 22:22 05.02.2022
3287 Clouds 15 1023 82 10000 4.02 60 21:18 05.02.2022
3288 Clouds 16 1023 82 6000 4.02 60 20:24 05.02.2022
3289 Clouds 16 1022 82 6000 4.02 40 19:46 05.02.2022
3290 Clouds 16 1022 82 6000 4.02 60 18:58 05.02.2022
3291 Clouds 18 1022 72 6000 4.02 60 17:39 05.02.2022
3292 Clouds 18 1022 72 6000 4.02 60 17:39 05.02.2022
3293 Clouds 18 1022 72 6000 4.92 40 16:58 05.02.2022
3294 Clouds 18 1022 55 6000 4.02 60 15:34 05.02.2022
3295 Clouds 19 1023 59 6000 2.68 80 14:55 05.02.2022
3296 Clouds 15 1024 71 6000 4.12 60 12:47 05.02.2022
3297 Clouds 16 1023 65 6000 1.34 80 12:22 05.02.2022
3298 Clouds 14 1024 71 6000 0.89 40 10:48 05.02.2022
3299 Clouds 12 1023 76 6000 1.03 100 09:53 05.02.2022
3300 Clouds 12 1023 76 6000 0.89 100 09:30 05.02.2022
3301 Clouds 12 1023 76 6000 0.89 60 07:38 05.02.2022
3302 Clouds 11 1023 73 10000 4.85 67 06:56 05.02.2022
3303 Clouds 14 1023 82 10000 1.79 60 04:28 05.02.2022
3304 Clouds 15 1023 82 10000 1.79 60 01:19 05.02.2022
3305 Clouds 15 1023 82 10000 1.79 60 00:52 05.02.2022
3306 Clouds 15 1023 82 10000 1.79 60 23:39 04.02.2022
3307 Clouds 15 1023 82 10000 1.79 60 23:21 04.02.2022
3308 Clouds 15 1023 82 10000 1.79 60 21:54 04.02.2022
3309 Clouds 16 1023 82 10000 1.79 60 21:36 04.02.2022
3310 Clouds 16 1023 82 10000 1.79 60 21:18 04.02.2022
3311 Clear 17 1023 63 10000 1.79 60 19:36 04.02.2022
3312 Clear 19 1022 63 10000 4.02 80 17:28 04.02.2022
3313 Clear 20 1022 48 10000 4.02 80 15:39 04.02.2022
3314 Clouds 20 1023 52 10000 4.47 80 14:52 04.02.2022
3315 Clear 20 1024 59 10000 4.02 60 13:24 04.02.2022
3316 Clouds 18 1024 72 8000 1.79 60 12:42 04.02.2022
3317 Clouds 17 1024 82 8000 2.06 100 11:41 04.02.2022
3318 Clouds 15 1024 87 6000 1.79 80 10:32 04.02.2022
3319 Clouds 15 1024 93 6000 0.89 320 08:34 04.02.2022
3320 Clouds 14 1022 67 10000 2.89 61 05:23 04.02.2022
3321 Clouds 16 1023 72 10000 2.68 360 02:40 04.02.2022
3322 Clouds 16 1023 72 10000 2.68 360 00:31 04.02.2022
3323 Clouds 16 1023 72 10000 2.68 360 23:21 03.02.2022
3324 Clouds 16 1023 72 10000 2.68 360 22:31 03.02.2022
3325 Clouds 16 1023 72 10000 2.68 360 21:48 03.02.2022
3326 Clear 17 1023 72 10000 2.68 360 20:27 03.02.2022
3327 Clear 17 1023 72 10000 1.79 80 19:59 03.02.2022
3328 Clear 17 1023 72 10000 1.79 80 19:26 03.02.2022
3329 Clear 19 1023 67 10000 4.02 40 18:26 03.02.2022
3330 Clear 19 1022 55 10000 4.02 40 17:32 03.02.2022
3331 Clear 25 1022 27 10000 2.06 140 15:52 03.02.2022
3332 Clear 23 1022 37 10000 2.68 180 14:26 03.02.2022
3333 Clouds 19 1025 67 8000 0.89 320 12:37 03.02.2022
3334 Clouds 11 1023 71 8000 2.06 300 09:29 03.02.2022
3335 Clouds 11 1022 71 8000 1.79 180 08:19 03.02.2022
3336 Clouds 15 1022 67 10000 1.79 60 02:56 03.02.2022
3337 Clouds 15 1010 67 10000 1.79 60 00:29 03.02.2022
3338 Clouds 15 1010 67 10000 1.79 60 22:47 02.02.2022
3339 Clouds 15 1018 67 10000 1.79 60 21:53 02.02.2022
3340 Clouds 15 1018 67 10000 1.79 60 21:29 02.02.2022
3341 Clouds 16 1022 67 8000 1.79 60 20:28 02.02.2022
3342 Clouds 17 1022 63 8000 1.79 40 19:49 02.02.2022
3343 Clouds 18 1015 61 8000 1.79 60 19:20 02.02.2022
3344 Clouds 19 1020 59 8000 1.79 60 18:25 02.02.2022
3345 Clouds 19 1022 59 8000 2.68 40 17:23 02.02.2022
3346 Clouds 20 1022 59 6000 1.79 20 16:59 02.02.2022
3347 Clouds 20 1022 59 6000 1.79 20 16:20 02.02.2022
3348 Clouds 20 1024 59 5000 3.09 40 12:50 02.02.2022
3349 Clouds 15 1024 77 5000 2.06 160 11:51 02.02.2022
3350 Clouds 15 1024 77 5000 2.06 160 11:51 02.02.2022
3351 Clouds 14 1022 76 5000 1.79 160 11:30 02.02.2022
3352 Clouds 9 1024 87 6000 2.06 180 09:22 02.02.2022
3353 Clear 6 1023 60 10000 3.3 72 05:29 02.02.2022
3354 Clear 15 1025 67 10000 2.68 40 22:36 01.02.2022
3355 Clouds 16 1025 67 8000 2.68 40 20:58 01.02.2022
3356 Clouds 18 1024 59 8000 1.79 40 19:39 01.02.2022
3357 Clear 21 1024 40 8000 1.79 60 17:38 01.02.2022
3358 Clear 21 1024 45 8000 2.68 20 16:31 01.02.2022
3359 Clear 20 1027 40 6000 2.68 20 13:27 01.02.2022
3360 Clear 19 1027 42 5000 2.68 20 12:28 01.02.2022
3361 Clear 14 1026 58 5000 1.03 80 10:42 01.02.2022
3362 Clear 15 1025 87 10000 2.68 60 02:24 01.02.2022
3363 Clear 15 1025 87 10000 2.68 60 23:39 31.01.2022
3364 Clear 15 1025 87 10000 2.68 60 22:42 31.01.2022
3365 Clear 16 1025 87 10000 2.68 60 21:36 31.01.2022
3366 Clear 16 1025 87 5000 2.68 60 20:35 31.01.2022
3367 Clear 16 1024 87 5000 4.92 40 19:59 31.01.2022
3368 Clear 18 1024 82 6000 4.02 40 18:47 31.01.2022
3369 Clouds 18 1024 82 6000 4.02 40 18:18 31.01.2022
3370 Clouds 19 1024 82 6000 5.81 20 17:24 31.01.2022
3371 Clouds 20 1024 77 6000 4.02 20 16:25 31.01.2022
3372 Clouds 22 1026 56 10000 4.92 60 14:54 31.01.2022
3373 Clouds 21 1026 56 6000 4.92 60 13:43 31.01.2022
3374 Clouds 21 1026 60 6000 2.68 80 12:38 31.01.2022
3375 Clouds 18 1026 63 6000 1.79 140 11:31 31.01.2022
3376 Mist 14 1025 72 3000 2.06 140 10:48 31.01.2022
3377 Mist 10 1024 81 3000 2.06 160 09:38 31.01.2022
3378 Mist 10 1024 81 3000 2.06 340 08:56 31.01.2022
3379 Clouds 11 1024 66 6000 2.06 160 08:38 31.01.2022
3380 Clouds 11 1024 66 6000 2.06 160 08:19 31.01.2022
3381 Clouds 11 1024 64 10000 2.32 64 06:18 31.01.2022
3382 Clouds 16 1021 63 10000 0.89 60 00:43 31.01.2022
3383 Clouds 16 1021 63 10000 0.89 60 22:34 30.01.2022
3384 Clouds 16 1021 63 10000 0.89 60 21:47 30.01.2022
3385 Clouds 17 1021 55 10000 0.89 20 21:26 30.01.2022
3386 Clouds 17 1021 55 10000 0.89 20 20:55 30.01.2022
3387 Clouds 17 1021 55 10000 0.89 20 20:31 30.01.2022
3388 Clouds 18 1021 55 8000 0.89 20 19:58 30.01.2022
3389 Clouds 20 1020 48 8000 0.89 36 18:52 30.01.2022
3390 Clouds 20 1020 48 8000 0.89 36 18:26 30.01.2022
3391 Clouds 21 1020 49 8000 1.79 20 17:31 30.01.2022
3392 Clouds 21 1020 49 8000 1.79 20 17:31 30.01.2022
3393 Clouds 22 1021 43 8000 4.92 360 16:44 30.01.2022
3394 Clouds 22 1021 43 8000 4.92 360 16:23 30.01.2022
3395 Clouds 23 1021 43 8000 4.92 360 15:55 30.01.2022
3396 Clouds 23 1021 43 8000 4.92 360 15:37 30.01.2022
3397 Clouds 23 1021 43 8000 4.92 360 15:19 30.01.2022
3398 Clouds 23 1022 43 8000 4.92 360 14:44 30.01.2022
3399 Clear 23 1023 37 8000 1.34 280 12:46 30.01.2022
3400 Clear 19 1023 42 10000 4.02 200 11:49 30.01.2022
3401 Clear 16 1022 44 10000 4.02 200 10:26 30.01.2022
3402 Clear 12 1022 58 10000 2.06 120 09:26 30.01.2022
3403 Clear 12 1021 58 10000 1.03 140 08:32 30.01.2022
3404 Clouds 17 1020 63 10000 1.79 80 02:58 30.01.2022
3405 Clouds 16 1020 63 10000 1.79 80 01:54 30.01.2022
3406 Clouds 16 1020 63 10000 1.79 80 23:49 29.01.2022
3407 Clouds 17 1020 63 10000 1.79 80 22:58 29.01.2022
3408 Clouds 18 1020 63 10000 1.79 80 21:35 29.01.2022
3409 Clouds 18 1020 63 10000 1.79 80 21:00 29.01.2022
3410 Clear 18 1020 63 6000 1.79 80 20:20 29.01.2022
3411 Clear 19 1020 52 6000 2.68 60 19:33 29.01.2022
3412 Clouds 21 1020 49 6000 4.12 60 18:44 29.01.2022
3413 Clouds 22 1020 43 6000 2.68 80 17:56 29.01.2022
3414 Clouds 22 1020 43 6000 2.68 80 17:19 29.01.2022
3415 Clouds 21 1021 55 6000 5.81 20 15:35 29.01.2022
3416 Clouds 22 1022 40 6000 1.79 20 13:58 29.01.2022
3417 Clouds 22 1022 40 6000 1.79 20 13:28 29.01.2022
3418 Clouds 19 1022 52 6000 4.02 100 12:59 29.01.2022
3419 Clouds 16 1022 55 6000 2.06 120 11:39 29.01.2022
3420 Clouds 13 1022 62 6000 3.09 140 10:34 29.01.2022
3421 Clouds 13 1022 56 10000 1.78 158 08:20 29.01.2022
3422 Clouds 13 1022 70 10000 2.38 164 02:48 29.01.2022
3423 Clouds 14 1022 75 10000 2.86 100 00:32 29.01.2022
3424 Clouds 15 1021 72 10000 3.1 87 23:31 28.01.2022
3425 Clear 15 1021 68 10000 3.72 83 22:47 28.01.2022
3426 Clear 17 1019 63 10000 4.02 60 22:19 28.01.2022
3427 Clear 18 1019 63 10000 4.02 60 20:41 28.01.2022
3428 Clear 19 1018 52 10000 4.02 40 19:58 28.01.2022
3429 Clear 20 1018 52 10000 4.02 40 18:52 28.01.2022
3430 Clear 20 1018 52 10000 4.02 40 18:34 28.01.2022
3431 Clear 22 1018 46 10000 4.92 20 16:23 28.01.2022
3432 Clear 23 1019 43 10000 4.02 20 14:58 28.01.2022
3433 Clear 22 1020 40 10000 1.79 80 13:21 28.01.2022
3434 Clear 18 1021 59 10000 2.06 160 11:50 28.01.2022
3435 Clear 14 1020 71 10000 0.89 140 10:27 28.01.2022
3436 Clouds 13 1020 71 8000 1.79 180 09:47 28.01.2022
3437 Clouds 13 1019 67 8000 1.03 200 07:42 28.01.2022
3438 Clouds 14 1020 64 10000 1.3 128 06:29 28.01.2022
3439 Clouds 16 1018 82 10000 4.92 40 03:51 28.01.2022
3440 Clouds 15 1018 82 10000 4.92 40 02:27 28.01.2022
3441 Clouds 15 1018 82 10000 4.92 40 01:37 28.01.2022
3442 Clouds 15 1018 82 10000 4.92 40 01:37 28.01.2022
3443 Clouds 15 1018 82 10000 4.92 40 00:46 28.01.2022
3444 Clouds 15 1018 82 10000 4.92 40 22:20 27.01.2022
3445 Clouds 15 1018 82 10000 4.92 40 21:37 27.01.2022
3446 Clouds 16 1018 82 8000 4.92 40 20:59 27.01.2022
3447 Clouds 16 1018 82 8000 4.92 40 20:59 27.01.2022
3448 Clouds 16 1017 77 8000 4.02 60 19:38 27.01.2022
3449 Clouds 18 1017 67 8000 4.92 20 18:20 27.01.2022
3450 Clouds 20 1017 55 7000 4.92 20 16:55 27.01.2022
3451 Clouds 20 1020 63 7000 4.02 340 13:58 27.01.2022
3452 Clouds 19 1020 72 8000 2.68 340 12:49 27.01.2022
3453 Clouds 19 1020 72 8000 2.68 340 12:49 27.01.2022
3454 Clouds 19 1020 63 8000 1.79 60 11:54 27.01.2022
3455 Clouds 13 1019 71 8000 1.79 240 09:48 27.01.2022
3456 Clouds 12 1019 81 10000 1.34 200 08:40 27.01.2022
3457 Clouds 12 1018 76 10000 2.68 180 07:52 27.01.2022
3458 Clouds 14 1017 87 10000 1.79 20 03:34 27.01.2022
3459 Clouds 14 1017 87 10000 1.79 20 00:24 27.01.2022
3460 Clouds 15 1017 87 10000 1.79 20 22:28 26.01.2022
3461 Clouds 15 1017 87 10000 1.79 20 21:44 26.01.2022
3462 Clouds 15 1017 87 10000 1.79 20 20:49 26.01.2022
3463 Clouds 15 1017 87 10000 1.79 20 20:31 26.01.2022
3464 Clear 16 1017 82 10000 2.68 20 19:38 26.01.2022
3465 Clear 16 1017 82 10000 2.68 20 18:47 26.01.2022
3466 Clear 17 1017 82 10000 2.68 20 18:18 26.01.2022
3467 Clear 18 1016 72 10000 4.92 360 17:33 26.01.2022
3468 Clear 19 1016 67 10000 3.58 20 16:47 26.01.2022
3469 Clear 20 1017 63 10000 4.92 320 15:56 26.01.2022
3470 Clear 19 1017 67 10000 4.92 360 14:32 26.01.2022
3471 Clouds 19 1019 63 8000 1.79 20 12:18 26.01.2022
3472 Clouds 14 1018 82 8000 0.89 180 10:50 26.01.2022
3473 Clear 11 1018 87 10000 2.06 160 09:52 26.01.2022
3474 Clear 10 1018 87 10000 1.79 200 08:46 26.01.2022
3475 Clouds 11 1018 82 10000 2.28 202 06:36 26.01.2022
3476 Clouds 14 1019 82 10000 1.79 360 00:21 26.01.2022
3477 Clouds 15 1019 82 10000 1.79 360 23:37 25.01.2022
3478 Clouds 15 1019 82 10000 1.79 360 22:48 25.01.2022
3479 Clouds 14 1019 82 10000 1.79 360 22:18 25.01.2022
3480 Clouds 14 1019 82 10000 1.79 360 21:23 25.01.2022
3481 Clouds 15 1019 82 6000 1.79 360 20:45 25.01.2022
3482 Clouds 15 1019 87 6000 4.92 360 19:54 25.01.2022
3483 Clouds 16 1018 87 6000 4.92 360 18:51 25.01.2022
3484 Clouds 17 1018 82 6000 4.92 360 17:47 25.01.2022
3485 Clouds 17 1018 82 6000 4.92 360 17:18 25.01.2022
3486 Clouds 18 1019 82 6000 4.02 360 16:34 25.01.2022
3487 Clouds 18 1019 77 6000 4.02 20 15:39 25.01.2022
3488 Clouds 18 1019 77 6000 4.02 20 15:18 25.01.2022
3489 Clouds 18 1020 77 6000 4.92 360 14:43 25.01.2022
3490 Clouds 14 1021 93 6000 2.68 180 11:52 25.01.2022
3491 Clouds 11 1019 93 6000 1.79 120 09:21 25.01.2022
3492 Clouds 10 1019 93 6000 1.79 200 07:47 25.01.2022
3493 Clear 11 1020 87 10000 2.67 177 06:54 25.01.2022
3494 Clear 10 1020 89 10000 3.29 185 05:23 25.01.2022
3495 Clouds 15 1020 87 10000 1.79 300 00:28 25.01.2022
3496 Clouds 15 1020 87 10000 1.79 300 23:36 24.01.2022
3497 Clouds 15 1020 87 10000 1.79 300 23:18 24.01.2022
3498 Clouds 15 1020 87 10000 1.79 300 23:18 24.01.2022
3499 Clouds 15 1020 87 10000 1.79 300 22:42 24.01.2022
3500 Clouds 15 1020 87 10000 1.79 300 21:57 24.01.2022
3501 Clouds 15 1020 87 10000 1.79 300 21:32 24.01.2022
3502 Clouds 16 1020 87 10000 1.79 300 20:38 24.01.2022
3503 Clouds 16 1020 85 10000 2.68 280 20:20 24.01.2022
3504 Clouds 17 1020 82 10000 2.68 280 19:38 24.01.2022
3505 Clouds 18 1020 82 10000 4.92 280 18:47 24.01.2022
3506 Clouds 19 1020 72 10000 5.81 300 17:24 24.01.2022
3507 Clouds 20 1020 72 10000 8.05 300 16:58 24.01.2022
3508 Clouds 20 1020 72 10000 8.05 300 16:58 24.01.2022
3509 Clouds 20 1020 72 10000 8.05 300 16:58 24.01.2022
3510 Clouds 19 1020 72 10000 8.05 300 16:30 24.01.2022
3511 Clouds 21 1020 64 10000 5.81 280 14:54 24.01.2022
3512 Clouds 19 1021 72 10000 4.92 260 13:39 24.01.2022
3513 Clouds 18 1021 77 8000 4.02 220 12:33 24.01.2022
3514 Clouds 16 1021 87 6000 4.92 200 11:21 24.01.2022
3515 Mist 14 1022 93 4000 1.79 200 09:50 24.01.2022
3516 Mist 14 1022 93 4000 1.79 200 09:25 24.01.2022
3517 Clouds 14 1020 92 10000 5.11 206 07:40 24.01.2022
3518 Clear 15 1019 72 10000 4.02 280 01:38 24.01.2022
3519 Clouds 15 1019 72 10000 4.02 280 00:47 24.01.2022
3520 Clouds 15 1019 72 10000 4.02 280 00:28 24.01.2022
3521 Clouds 15 1019 72 10000 4.02 280 22:46 23.01.2022
3522 Clouds 16 1015 72 10000 4.02 280 21:51 23.01.2022
3523 Clouds 16 1015 72 10000 4.02 280 21:27 23.01.2022
3524 Clouds 17 1019 72 8000 4.02 280 20:54 23.01.2022
3525 Clouds 17 1019 72 8000 4.92 320 19:55 23.01.2022
3526 Clouds 20 1018 68 8000 4.92 320 18:52 23.01.2022
3527 Clear 20 1018 68 8000 4.92 300 17:56 23.01.2022
3528 Clear 21 1018 64 8000 4.92 300 16:54 23.01.2022
3529 Clear 22 1019 64 6000 5.81 320 15:45 23.01.2022
3530 Clouds 22 1019 64 6000 4.92 320 14:34 23.01.2022
3531 Clouds 22 1020 64 5000 4.92 320 13:43 23.01.2022
3532 Clouds 18 1021 67 5000 1.79 220 12:40 23.01.2022
3533 Clouds 18 1021 67 5000 1.79 220 12:18 23.01.2022
3534 Clouds 17 1020 67 5000 1.34 220 11:25 23.01.2022
3535 Clouds 15 1020 72 5000 1.54 180 10:57 23.01.2022
3536 Clouds 15 1020 71 5000 1.34 180 10:23 23.01.2022
3537 Clouds 12 1019 66 6000 1.54 140 09:25 23.01.2022
3538 Clouds 16 1018 49 10000 4.28 216 05:59 23.01.2022
3539 Clouds 17 1018 63 10000 1.79 80 03:20 23.01.2022
3540 Clouds 17 1018 63 10000 1.79 80 01:36 23.01.2022
3541 Clouds 16 1018 63 10000 1.79 80 00:42 23.01.2022
3542 Clouds 17 1018 63 10000 1.79 80 23:57 22.01.2022
3543 Clouds 16 1018 63 10000 1.79 80 22:48 22.01.2022
3544 Clouds 16 1018 63 10000 1.79 80 22:19 22.01.2022
3545 Clouds 18 1018 63 8000 1.79 80 20:29 22.01.2022
3546 Clouds 19 1017 55 8000 1.79 40 19:37 22.01.2022
3547 Clear 20 1017 48 10000 2.68 60 18:37 22.01.2022
3548 Clear 20 1017 39 10000 4.02 40 17:42 22.01.2022
3549 Clear 20 1017 39 10000 4.02 40 17:18 22.01.2022
3550 Clear 20 1017 45 10000 4.02 40 16:22 22.01.2022
3551 Clear 21 1017 46 10000 2.68 40 15:44 22.01.2022
3552 Clear 21 1019 31 10000 1.79 80 14:22 22.01.2022
3553 Clouds 20 1019 32 8000 1.79 80 13:27 22.01.2022
3554 Clouds 18 1019 39 8000 0.89 120 12:32 22.01.2022
3555 Clouds 14 1019 58 8000 1.03 160 11:58 22.01.2022
3556 Clouds 10 1019 76 8000 1.03 200 10:39 22.01.2022
3557 Clouds 10 1019 76 8000 1.03 200 10:19 22.01.2022
3558 Clouds 7 1019 81 8000 2.06 180 08:54 22.01.2022
3559 Clouds 7 1019 81 8000 2.06 180 08:31 22.01.2022
3560 Clear 5 1018 57 10000 2.79 95 05:20 22.01.2022
3561 Clear 13 1019 82 10000 2.68 60 02:27 22.01.2022
3562 Clear 12 1019 82 10000 2.68 60 23:49 21.01.2022
3563 Clear 12 1019 82 10000 2.68 60 22:59 21.01.2022
3564 Clear 14 1019 82 10000 2.68 60 20:48 21.01.2022
3565 Clear 14 1019 82 10000 2.68 40 19:30 21.01.2022
3566 Clear 17 1019 72 10000 5.81 20 17:50 21.01.2022
3567 Clear 18 1019 67 8000 4.02 300 15:54 21.01.2022
3568 Clear 19 1020 67 8000 2.68 300 14:41 21.01.2022
3569 Clear 16 1021 67 6000 3.09 200 12:43 21.01.2022
3570 Clear 12 1018 66 6000 2.68 180 11:29 21.01.2022
3571 Clouds 9 1021 81 6000 3.09 180 10:33 21.01.2022
3572 Clouds 4 1020 93 6000 2.06 160 08:58 21.01.2022
3573 Clear 5 1020 93 6000 2.06 160 07:48 21.01.2022
3574 Clouds 12 1021 71 10000 1.79 20 01:51 21.01.2022
3575 Clouds 11 1021 71 10000 1.79 20 22:47 20.01.2022
3576 Clouds 12 1021 71 10000 1.79 20 21:49 20.01.2022
3577 Clouds 13 1021 71 10000 1.79 20 21:25 20.01.2022
3578 Clear 14 1021 71 10000 2.68 20 19:47 20.01.2022
3579 Clear 14 1021 71 10000 2.68 20 19:18 20.01.2022
3580 Clear 17 1021 51 10000 4.02 40 17:37 20.01.2022
3581 Clear 17 1021 59 10000 2.68 40 16:19 20.01.2022
3582 Clear 18 1022 59 10000 4.02 360 15:29 20.01.2022
3583 Clear 18 1022 55 10000 2.68 40 14:19 20.01.2022
3584 Clouds 17 1024 55 8000 1.79 160 12:49 20.01.2022
3585 Clouds 16 1024 55 8000 1.79 160 12:29 20.01.2022
3586 Clouds 13 1024 66 8000 1.79 160 11:19 20.01.2022
3587 Clouds 4 1024 93 8000 2.06 180 09:50 20.01.2022
3588 Clear 4 1024 93 8000 2.06 120 08:45 20.01.2022
3589 Clear 2 1024 74 10000 1.86 94 06:49 20.01.2022
3590 Clear 14 1025 72 10000 2.68 40 00:40 20.01.2022
3591 Clear 13 1025 72 10000 2.68 40 22:38 19.01.2022
3592 Clear 14 1025 72 10000 2.68 40 21:34 19.01.2022
3593 Clear 15 1025 72 10000 2.68 40 20:56 19.01.2022
3594 Clear 15 1025 72 10000 2.68 40 20:30 19.01.2022
3595 Clear 17 1025 63 10000 4.02 20 18:52 19.01.2022
3596 Clear 18 1025 59 10000 4.92 20 17:51 19.01.2022
3597 Clear 18 1025 59 10000 4.92 20 17:18 19.01.2022
3598 Clear 18 1025 59 10000 4.92 20 17:18 19.01.2022
3599 Clear 18 1025 59 10000 4.92 20 17:18 19.01.2022
3600 Clear 19 1026 63 10000 4.02 20 15:31 19.01.2022
3601 Clear 18 1027 63 10000 2.68 60 13:20 19.01.2022
3602 Clouds 14 1028 62 8000 2.06 140 11:58 19.01.2022
3603 Clouds 13 1028 62 8000 2.06 140 11:38 19.01.2022
3604 Clouds 5 1027 93 8000 2.06 160 09:35 19.01.2022
3605 Clouds 6 1027 87 8000 2.06 180 08:33 19.01.2022
3606 Clouds 5 1027 72 10000 1.89 92 05:19 19.01.2022
3607 Clouds 12 1027 87 10000 1.79 40 00:18 19.01.2022
3608 Clouds 13 1027 87 10000 1.79 40 23:18 18.01.2022
3609 Clouds 14 1027 87 10000 1.79 40 21:44 18.01.2022
3610 Clouds 14 1027 87 6000 1.79 40 20:22 18.01.2022
3611 Clouds 15 1027 82 6000 1.34 40 19:45 18.01.2022
3612 Clouds 15 1027 82 6000 1.34 40 19:25 18.01.2022
3613 Clouds 16 1027 77 8000 2.68 20 18:19 18.01.2022
3614 Clouds 17 1026 82 8000 3.58 20 17:32 18.01.2022
3615 Clouds 18 1026 67 8000 3.58 20 16:20 18.01.2022
3616 Clouds 17 1027 82 8000 2.68 340 15:25 18.01.2022
3617 Clouds 17 1020 51 5000 2.68 320 14:22 18.01.2022
3618 Clouds 17 1020 51 5000 2.68 320 14:22 18.01.2022
3619 Mist 11 1027 71 3000 3.09 240 11:37 18.01.2022
3620 Mist 9 1027 81 3000 2.06 120 10:25 18.01.2022
3621 Clouds 8 1026 87 5000 1.54 180 08:29 18.01.2022
3622 Mist 8 1025 93 3000 2.06 180 07:43 18.01.2022
3623 Clouds 14 1011 87 10000 1.79 40 00:39 18.01.2022
3624 Clouds 14 1011 87 10000 1.79 40 22:40 17.01.2022
3625 Clouds 13 1011 87 10000 1.79 40 21:42 17.01.2022
3626 Clouds 13 1022 87 10000 1.79 40 21:24 17.01.2022
3627 Clouds 17 1025 77 8000 2.68 340 18:51 17.01.2022
3628 Clouds 17 1025 77 8000 2.68 340 18:25 17.01.2022
3629 Clouds 19 1026 70 8000 7.15 280 17:22 17.01.2022
3630 Clouds 19 1026 67 8000 5.81 300 15:54 17.01.2022
3631 Clouds 19 1026 67 8000 4.02 300 14:58 17.01.2022
3632 Clouds 18 1026 67 8000 4.02 300 14:31 17.01.2022
3633 Clouds 18 1028 67 8000 1.79 240 13:18 17.01.2022
3634 Clouds 13 1028 76 6000 2.06 180 11:53 17.01.2022
3635 Clouds 10 1028 81 5000 3.09 160 10:52 17.01.2022
3636 Clouds 8 1028 87 5000 3.09 180 09:46 17.01.2022
3637 Clouds 8 1027 87 5000 3.09 180 08:43 17.01.2022
3638 Clouds 7 1027 93 5000 2.06 200 07:20 17.01.2022
3639 Clouds 15 1026 77 10000 3.58 60 00:59 17.01.2022
3640 Clouds 14 1026 77 10000 3.58 60 23:33 16.01.2022
3641 Clear 15 1026 77 10000 3.58 60 20:51 16.01.2022
3642 Clear 16 1026 72 10000 5.81 60 19:56 16.01.2022
3643 Clear 17 1026 67 10000 4.02 40 18:45 16.01.2022
3644 Clear 19 1026 63 10000 4.47 40 17:47 16.01.2022
3645 Clear 20 1025 55 10000 5.36 60 16:52 16.01.2022
3646 Clear 20 1026 52 10000 3.58 40 15:39 16.01.2022
3647 Clear 19 1027 50 10000 3.58 40 14:29 16.01.2022
3648 Clear 19 1028 45 10000 1.34 40 13:21 16.01.2022
3649 Clear 16 1028 54 10000 1.54 160 11:56 16.01.2022
3650 Clear 15 1028 54 10000 1.34 160 11:27 16.01.2022
3651 Clear 10 1027 71 10000 1.54 180 10:27 16.01.2022
3652 Clear 8 1027 76 8000 2.06 160 09:57 16.01.2022
3653 Clear 8 1027 76 8000 2.06 160 09:23 16.01.2022
3654 Clear 6 1025 87 5000 1.54 160 08:53 16.01.2022
3655 Clear 6 1025 68 10000 2.97 88 05:51 16.01.2022
3656 Clear 14 1025 76 10000 1.79 100 00:18 16.01.2022
3657 Clear 14 1025 76 10000 1.79 100 22:38 15.01.2022
3658 Clear 13 1025 76 10000 1.79 100 21:21 15.01.2022
3659 Clear 14 1025 76 10000 1.79 100 20:43 15.01.2022
3660 Clear 14 1025 76 10000 1.79 100 20:18 15.01.2022
3661 Clear 16 1025 67 10000 1.79 40 19:25 15.01.2022
3662 Clear 21 1024 45 10000 4.12 20 17:52 15.01.2022
3663 Clear 21 1024 34 10000 2.68 340 16:42 15.01.2022
3664 Clear 21 1025 32 10000 1.79 300 14:32 15.01.2022
3665 Clear 21 1025 32 10000 1.79 300 14:32 15.01.2022
3666 Clear 19 1027 34 10000 0.89 220 12:33 15.01.2022
3667 Clear 16 1027 47 10000 2.68 140 11:19 15.01.2022
3668 Clouds 9 1026 57 8000 3.09 160 09:35 15.01.2022
3669 Clear 14 1025 67 10000 0.89 180 01:25 15.01.2022
3670 Clear 14 1025 67 10000 0.89 180 21:57 14.01.2022
3671 Clear 14 1025 67 10000 0.89 180 20:52 14.01.2022
3672 Clear 14 1025 67 10000 0.89 180 20:23 14.01.2022
3673 Clear 16 1025 59 10000 0.89 360 19:49 14.01.2022
3674 Clear 19 1024 55 10000 2.68 20 18:33 14.01.2022
3675 Clear 21 1024 35 10000 4.02 360 16:51 14.01.2022
3676 Clear 21 1024 35 10000 4.02 360 16:33 14.01.2022
3677 Clear 21 1025 40 10000 0.89 160 14:47 14.01.2022
3678 Clear 21 1025 43 10000 2.68 220 13:48 14.01.2022
3679 Clear 19 1022 42 10000 1.79 200 12:34 14.01.2022
3680 Clear 16 1025 51 10000 4.12 200 11:29 14.01.2022
3681 Clear 9 1025 76 10000 2.06 180 09:51 14.01.2022
3682 Clear 8 1024 76 10000 2.06 180 08:52 14.01.2022
3683 Clear 6 1024 60 10000 2.48 192 07:27 14.01.2022
3684 Clear 12 1023 82 10000 0.89 180 01:43 14.01.2022
3685 Clear 13 1023 82 10000 0.89 180 23:36 13.01.2022
3686 Clear 14 1023 82 10000 0.89 180 21:42 13.01.2022
3687 Clear 13 1023 82 10000 0.89 180 21:23 13.01.2022
3688 Clear 16 1023 77 6000 1.34 20 19:44 13.01.2022
3689 Clear 16 1023 77 6000 1.34 20 19:22 13.01.2022
3690 Clear 21 1022 52 10000 2.24 280 17:56 13.01.2022
3691 Clear 22 1021 46 10000 3.58 340 16:22 13.01.2022
3692 Clear 22 1021 46 10000 3.58 340 15:38 13.01.2022
3693 Clear 22 1022 37 10000 1.79 240 14:50 13.01.2022
3694 Clear 19 1023 48 8000 1.34 180 12:54 13.01.2022
3695 Clear 11 1022 82 5000 1.03 160 10:25 13.01.2022
3696 Clear 9 1022 87 5000 2.06 180 09:20 13.01.2022
3697 Mist 6 1021 100 3000 2.57 180 08:28 13.01.2022
3698 Mist 7 1021 100 3000 2.06 160 07:25 13.01.2022
3699 Clear 6 1021 71 10000 2.14 175 06:41 13.01.2022
3700 Clouds 7 1021 69 10000 2.05 188 05:20 13.01.2022
3701 Clouds 14 1020 82 10000 1.79 20 03:24 13.01.2022
3702 Clouds 15 1020 82 10000 1.79 20 00:56 13.01.2022
3703 Clouds 15 1020 82 10000 1.79 20 23:53 12.01.2022
3704 Clouds 15 1020 82 10000 1.79 20 23:32 12.01.2022
3705 Clouds 15 1020 82 10000 1.79 20 21:58 12.01.2022
3706 Clouds 15 1020 82 10000 1.79 20 21:23 12.01.2022
3707 Clouds 14 1020 82 10000 1.79 20 20:57 12.01.2022
3708 Clouds 15 1020 82 10000 1.79 20 20:19 12.01.2022
3709 Clear 16 1020 77 10000 1.79 360 18:48 12.01.2022
3710 Clear 17 1019 67 10000 4.02 360 17:51 12.01.2022
3711 Clear 18 1019 63 10000 4.92 20 16:39 12.01.2022
3712 Clear 17 1020 67 10000 2.68 320 14:49 12.01.2022
3713 Clouds 17 1020 67 8000 2.68 320 13:37 12.01.2022
3714 Clouds 16 1021 67 8000 0.89 100 12:35 12.01.2022
3715 Fog 8 1020 100 800 2.06 140 08:50 12.01.2022
3716 Clouds 8 1020 100 800 1.03 0 07:52 12.01.2022
3717 Clouds 6 1020 83 10000 1.52 125 07:32 12.01.2022
3718 Clouds 15 1019 77 10000 1.79 360 01:33 12.01.2022
3719 Clouds 15 1019 77 10000 1.79 360 23:25 11.01.2022
3720 Clouds 15 1019 77 10000 1.79 360 22:24 11.01.2022
3721 Clouds 15 1019 77 10000 1.79 360 21:28 11.01.2022
3722 Clouds 15 1019 77 10000 1.79 360 20:35 11.01.2022
3723 Clouds 16 1017 77 10000 2.68 360 18:52 11.01.2022
3724 Clouds 16 1017 72 10000 2.68 20 17:46 11.01.2022
3725 Clouds 16 1017 77 10000 2.68 340 16:39 11.01.2022
3726 Clouds 16 1017 77 10000 2.68 340 16:18 11.01.2022
3727 Clouds 17 1018 67 10000 1.79 20 14:44 11.01.2022
3728 Clouds 17 1018 67 10000 1.79 20 14:18 11.01.2022
3729 Clouds 16 1018 72 10000 1.34 120 13:42 11.01.2022
3730 Clouds 16 1018 72 10000 1.34 120 13:24 11.01.2022
3731 Clouds 15 1019 77 10000 1.79 100 12:23 11.01.2022
3732 Clouds 14 1018 82 10000 1.34 160 10:25 11.01.2022
3733 Clouds 13 1019 84 10000 2.31 92 07:38 11.01.2022
3734 Clouds 14 1021 72 10000 4.02 60 02:57 11.01.2022
3735 Clouds 15 1019 72 10000 4.02 60 00:24 11.01.2022
3736 Clouds 15 1021 72 10000 4.02 60 23:38 10.01.2022
3737 Clouds 15 1021 72 10000 4.02 60 22:20 10.01.2022
3738 Clouds 15 1021 72 10000 4.02 60 21:56 10.01.2022
3739 Clouds 15 1021 72 10000 4.02 60 21:33 10.01.2022
3740 Clouds 15 1021 72 10000 4.02 60 20:58 10.01.2022
3741 Clouds 15 1021 72 10000 4.02 60 20:29 10.01.2022
3742 Clouds 15 1021 72 10000 4.02 40 19:48 10.01.2022
3743 Clouds 15 1021 72 10000 4.02 40 19:23 10.01.2022
3744 Clouds 15 1014 72 10000 4.92 40 18:55 10.01.2022
3745 Clouds 15 1014 72 10000 4.92 40 18:37 10.01.2022
3746 Clouds 16 1021 67 10000 5.81 20 16:48 10.01.2022
3747 Clouds 16 1021 67 10000 5.81 20 16:18 10.01.2022
3748 Clouds 16 1022 67 10000 4.92 40 14:42 10.01.2022
3749 Clouds 15 1023 62 8000 4.02 60 12:50 10.01.2022
3750 Clouds 13 1024 76 8000 2.68 80 11:55 10.01.2022
3751 Clouds 11 1024 76 8000 4.12 100 10:46 10.01.2022
3752 Clouds 9 1023 93 6000 1.79 100 08:59 10.01.2022
3753 Clear 0 1024 75 10000 3.75 66 05:51 10.01.2022
3754 Clear 10 1026 71 10000 4.02 40 02:30 10.01.2022
3755 Clear 13 1026 71 10000 4.02 40 01:20 10.01.2022
3756 Clear 11 1026 71 10000 4.02 40 00:19 10.01.2022
3757 Clear 13 1026 71 10000 4.02 40 22:44 09.01.2022
3758 Clear 13 1026 71 10000 4.02 40 21:57 09.01.2022
3759 Clear 13 1026 71 10000 4.02 40 21:37 09.01.2022
3760 Clear 13 1026 71 10000 4.02 40 21:18 09.01.2022
3761 Clear 14 1026 71 10000 4.02 40 20:45 09.01.2022
3762 Clear 14 1026 71 10000 4.02 40 20:26 09.01.2022
3763 Clear 15 1025 62 10000 4.92 40 19:38 09.01.2022
3764 Clear 15 1025 62 10000 4.92 40 19:20 09.01.2022
3765 Clear 16 1025 62 10000 4.92 40 18:37 09.01.2022
3766 Clear 17 1026 55 10000 4.02 40 17:48 09.01.2022
3767 Clear 18 1026 55 10000 4.02 40 17:29 09.01.2022
3768 Clear 18 1026 59 10000 4.92 20 16:43 09.01.2022
3769 Clear 19 1026 45 10000 1.79 60 15:42 09.01.2022
3770 Clear 18 1027 48 10000 4.02 80 14:58 09.01.2022
3771 Clear 18 1027 48 10000 4.02 80 14:24 09.01.2022
3772 Clear 17 1027 59 10000 4.92 60 13:48 09.01.2022
3773 Clear 13 1028 66 8000 1.54 100 11:56 09.01.2022
3774 Clear 12 1028 66 8000 1.34 100 11:26 09.01.2022
3775 Clear 6 1026 87 10000 3.09 180 09:55 09.01.2022
3776 Clear 6 1026 87 10000 1.54 180 08:59 09.01.2022
3777 Clear 2 1027 59 10000 2.88 77 06:57 09.01.2022
3778 Clear 12 1026 66 10000 2.68 80 01:30 09.01.2022
3779 Clear 12 1026 66 10000 2.68 80 00:38 09.01.2022
3780 Clear 12 1026 66 10000 2.68 80 23:34 08.01.2022
3781 Clear 13 1026 66 10000 2.68 80 22:48 08.01.2022
3782 Clear 13 1026 66 10000 2.68 80 21:28 08.01.2022
3783 Clear 13 1026 66 10000 2.68 80 20:44 08.01.2022
3784 Clear 13 1026 66 10000 2.68 80 20:22 08.01.2022
3785 Clear 15 1026 62 10000 4.02 60 19:22 08.01.2022
3786 Clear 17 1026 63 10000 4.92 60 17:38 08.01.2022
3787 Clear 17 1026 63 10000 4.92 80 16:45 08.01.2022
3788 Clear 17 1026 63 10000 4.02 40 15:33 08.01.2022
3789 Clear 16 1027 63 10000 4.92 20 14:25 08.01.2022
3790 Clouds 14 1027 71 8000 1.79 120 11:43 08.01.2022
3791 Clouds 10 1026 81 8000 2.06 200 10:40 08.01.2022
3792 Clouds 9 1026 81 8000 1.79 200 10:22 08.01.2022
3793 Clouds 7 1026 93 8000 2.06 160 09:34 08.01.2022
3794 Clouds 8 1024 78 10000 3.82 47 06:18 08.01.2022
3795 Clouds 12 1024 76 10000 4.02 40 01:46 08.01.2022
3796 Clouds 13 1024 76 10000 4.02 40 23:36 07.01.2022
3797 Clouds 13 1024 76 10000 4.02 40 21:49 07.01.2022
3798 Clear 14 1024 76 10000 4.02 40 20:34 07.01.2022
3799 Clear 14 1024 67 10000 2.68 40 19:27 07.01.2022
3800 Clear 15 1024 67 10000 5.81 40 18:49 07.01.2022
3801 Clear 15 1024 67 10000 5.81 40 18:24 07.01.2022
3802 Clear 16 1023 67 10000 4.92 40 17:24 07.01.2022
3803 Clouds 17 1024 55 10000 4.02 40 14:56 07.01.2022
3804 Clear 17 1025 59 10000 4.02 60 13:52 07.01.2022
3805 Clear 17 1025 59 10000 4.02 60 13:52 07.01.2022
3806 Clear 16 1026 59 10000 4.92 100 12:51 07.01.2022
3807 Clear 14 1026 71 8000 2.68 140 11:58 07.01.2022
3808 Clear 6 1023 76 10000 2.8 61 04:56 07.01.2022
3809 Clear 11 1023 62 10000 0.89 20 02:53 07.01.2022
3810 Clear 12 1023 62 10000 0.89 20 01:50 07.01.2022
3811 Clear 13 1023 62 10000 0.89 20 01:26 07.01.2022
3812 Clear 12 1013 62 10000 0.89 20 00:31 07.01.2022
3813 Clear 12 1023 62 10000 0.89 20 22:42 06.01.2022
3814 Clouds 14 1023 62 10000 0.89 20 20:54 06.01.2022
3815 Clouds 14 1023 62 10000 0.89 20 20:18 06.01.2022
3816 Clouds 14 1022 58 10000 2.06 20 19:39 06.01.2022
3817 Clouds 17 1021 59 10000 5.81 40 17:52 06.01.2022
3818 Clouds 17 1021 59 10000 5.81 40 17:28 06.01.2022
3819 Clouds 17 1021 59 8000 5.81 40 16:38 06.01.2022
3820 Clouds 16 1021 63 8000 5.81 20 15:44 06.01.2022
3821 Clouds 16 1021 63 8000 5.81 20 15:23 06.01.2022
3822 Clouds 15 1022 87 6000 5.36 300 14:20 06.01.2022
3823 Clouds 14 1022 87 8000 1.79 240 13:41 06.01.2022
3824 Clouds 14 1018 82 6000 4.02 220 12:32 06.01.2022
3825 Clouds 13 1018 82 6000 4.02 220 11:41 06.01.2022
3826 Clouds 13 1018 82 6000 4.02 220 11:19 06.01.2022
3827 Clouds 8 1022 73 10000 3.74 214 06:59 06.01.2022
3828 Clear 12 1023 67 10000 1.79 360 00:35 06.01.2022
3829 Clear 13 1023 67 10000 1.79 360 23:34 05.01.2022
3830 Clear 12 1023 67 10000 1.79 360 22:48 05.01.2022
3831 Clear 13 1023 67 10000 1.79 360 22:29 05.01.2022
3832 Clear 13 1023 67 10000 1.79 360 21:44 05.01.2022
3833 Clouds 14 1023 67 10000 1.79 360 20:44 05.01.2022
3834 Clouds 14 1023 67 10000 4.02 360 19:46 05.01.2022
3835 Clouds 15 1022 67 10000 4.02 20 18:27 05.01.2022
3836 Clouds 16 1022 63 10000 7.15 20 16:58 05.01.2022
3837 Clouds 16 1022 63 10000 7.15 20 16:22 05.01.2022
3838 Clouds 17 1023 59 10000 5.81 20 15:20 05.01.2022
3839 Clouds 17 1024 63 10000 4.02 40 13:37 05.01.2022
3840 Clouds 17 1025 59 10000 3.58 20 12:46 05.01.2022
3841 Clouds 13 1024 76 10000 1.34 140 08:57 05.01.2022
3842 Clouds 11 1025 69 10000 4.07 35 07:31 05.01.2022
3843 Clouds 16 1024 82 10000 7.15 340 01:59 05.01.2022
3844 Clouds 16 1024 82 10000 7.15 340 23:50 04.01.2022
3845 Clouds 16 1024 82 10000 7.15 340 23:26 04.01.2022
3846 Clouds 16 1024 82 10000 7.15 340 22:21 04.01.2022
3847 Clouds 17 1024 82 6000 7.15 340 20:50 04.01.2022
3848 Clouds 18 1023 77 6000 4.02 280 18:46 04.01.2022
3849 Clouds 18 1022 77 6000 5.81 260 17:37 04.01.2022
3850 Clouds 18 1023 77 6000 7.6 280 16:39 04.01.2022
3851 Clouds 19 1022 74 6000 4.92 300 16:20 04.01.2022
3852 Clouds 18 1022 77 5000 4.92 220 14:46 04.01.2022
3853 Clouds 18 1022 77 5000 4.92 220 14:23 04.01.2022
3854 Mist 14 1024 100 3000 4.12 200 12:37 04.01.2022
3855 Fog 12 1023 100 400 2.68 200 10:28 04.01.2022
3856 Fog 9 1022 100 400 2.06 200 08:59 04.01.2022
3857 Clouds 5 1021 70 10000 3.27 222 06:46 04.01.2022
3858 Clear 11 1024 93 10000 0.89 340 00:50 04.01.2022
3859 Clear 11 1024 93 10000 0.89 340 00:31 04.01.2022
3860 Clear 12 1024 93 10000 0.89 340 22:30 03.01.2022
3861 Clear 12 1024 93 10000 0.89 340 21:41 03.01.2022
3862 Clear 13 1024 93 10000 0.89 340 20:51 03.01.2022
3863 Mist 13 1024 93 3000 0.89 340 19:44 03.01.2022
3864 Mist 15 1024 87 3000 2.68 340 18:32 03.01.2022
3865 Mist 17 1023 87 3000 1.79 40 17:40 03.01.2022
3866 Mist 17 1024 72 2000 3.58 360 16:56 03.01.2022
3867 Mist 18 1025 77 2000 2.06 340 14:54 03.01.2022
3868 Mist 17 1026 77 2000 2.68 320 13:25 03.01.2022
3869 Mist 15 1027 82 2000 2.06 360 12:28 03.01.2022
3870 Mist 14 1027 93 2000 1.79 360 11:30 03.01.2022
3871 Mist 13 1026 93 2000 1.79 160 09:41 03.01.2022
3872 Mist 12 1026 93 2000 2.24 120 08:18 03.01.2022
3873 Clouds 12 1025 74 10000 1.32 72 05:21 03.01.2022
3874 Clouds 15 1027 93 10000 1.79 20 23:45 02.01.2022
3875 Clouds 15 1027 93 10000 1.79 20 22:57 02.01.2022
3876 Clouds 15 1027 93 10000 1.79 20 22:37 02.01.2022
3877 Clouds 15 1027 93 10000 1.79 20 21:26 02.01.2022
3878 Clouds 15 1027 93 6000 1.79 20 20:30 02.01.2022
3879 Clouds 15 1027 93 6000 2.65 38 19:49 02.01.2022
3880 Clouds 15 1027 93 6000 2.85 31 19:25 02.01.2022
3881 Clouds 16 1027 87 6000 1.79 20 18:30 02.01.2022
3882 Clear 17 1026 88 6000 1.79 20 17:43 02.01.2022
3883 Clear 18 1026 88 6000 1.79 20 17:21 02.01.2022
3884 Clouds 17 1027 88 6000 2.99 18 16:30 02.01.2022
3885 Clear 19 1027 72 6000 4.92 20 15:49 02.01.2022
3886 Clear 18 1028 82 6000 2.06 20 13:57 02.01.2022
3887 Mist 16 1029 94 4000 1.03 40 12:33 02.01.2022
3888 Fog 14 1029 100 800 3.09 320 11:55 02.01.2022
3889 Fog 12 1028 100 800 1.03 0 10:55 02.01.2022
3890 Fog 12 1028 100 800 1.03 0 10:18 02.01.2022
3891 Fog 13 1025 100 800 1.03 0 07:44 02.01.2022
3892 Clouds 14 1026 72 10000 1.34 360 02:57 02.01.2022
3893 Clear 15 1026 72 10000 1.34 360 23:50 01.01.2022
3894 Clear 15 1026 72 10000 1.34 360 23:27 01.01.2022
3895 Clear 15 1026 72 10000 1.34 360 22:26 01.01.2022
3896 Clear 15 1026 72 10000 1.34 360 21:54 01.01.2022
3897 Clear 15 1026 72 10000 1.34 360 21:36 01.01.2022
3898 Clear 15 1026 72 6000 1.34 360 20:27 01.01.2022
3899 Clear 17 1026 67 6000 0.89 120 19:45 01.01.2022
3900 Clear 19 1025 59 6000 2.24 360 18:52 01.01.2022
3901 Clear 22 1025 52 6000 2.68 20 17:41 01.01.2022
3902 Clear 23 1025 46 6000 3.58 340 16:35 01.01.2022
3903 Clear 24 1025 49 6000 1.79 300 15:42 01.01.2022
3904 Clear 23 1025 49 6000 3.58 320 14:40 01.01.2022
3905 Clear 23 1026 49 10000 1.34 260 13:42 01.01.2022
3906 Clear 21 1026 52 10000 1.79 160 12:25 01.01.2022
3907 Clear 18 1026 59 8000 1.34 140 11:26 01.01.2022
3908 Clear 14 1026 76 5000 2.57 80 10:59 01.01.2022
3909 Clear 9 1025 93 5000 1.54 120 09:48 01.01.2022
3910 Clear 8 1025 87 5000 0 0 08:45 01.01.2022
3911 Clear 8 1025 87 5000 0 0 08:18 01.01.2022
3912 Clear 9 1024 87 5000 1.54 160 07:39 01.01.2022
3913 Clouds 8 1024 47 10000 1.88 164 06:44 01.01.2022
3914 Clouds 9 1024 49 10000 1.07 197 05:24 01.01.2022
3915 Clouds 15 1024 87 10000 0.89 320 04:35 01.01.2022
3916 Clear 15 1024 87 10000 0.89 320 00:23 01.01.2022
3917 Clear 15 1024 87 10000 0.89 320 22:30 31.12.2021
3918 Clear 16 1024 87 10000 0.89 320 21:47 31.12.2021
3919 Clear 17 1023 77 10000 1.79 360 19:48 31.12.2021
3920 Clear 17 1023 77 10000 1.79 360 19:28 31.12.2021
3921 Clear 20 1023 68 10000 2.06 20 18:18 31.12.2021
3922 Clear 22 1023 60 10000 1.79 360 17:28 31.12.2021
3923 Clear 24 1022 33 10000 4.02 360 16:52 31.12.2021
3924 Clear 23 1022 33 10000 4.02 360 16:18 31.12.2021
3925 Clear 23 1022 38 10000 1.79 40 15:50 31.12.2021
3926 Clear 23 1022 38 10000 1.79 40 15:27 31.12.2021
3927 Clear 24 1022 33 10000 1.79 20 14:41 31.12.2021
3928 Clear 23 1023 40 8000 1.79 340 13:55 31.12.2021
3929 Clear 21 1024 37 8000 1.79 360 12:53 31.12.2021
3930 Clear 22 1024 37 8000 1.79 360 12:26 31.12.2021
3931 Clear 19 1024 48 8000 1.03 0 11:42 31.12.2021
3932 Clear 15 1024 58 8000 1.03 0 10:56 31.12.2021
3933 Clouds 14 1024 58 8000 1.03 0 10:28 31.12.2021
3934 Clouds 10 1023 71 8000 1.03 0 09:35 31.12.2021
3935 Clouds 11 1023 71 8000 2.06 120 08:54 31.12.2021
3936 Clouds 11 1023 71 8000 2.06 160 07:59 31.12.2021
3937 Clear 9 1022 51 10000 2.03 103 06:24 31.12.2021
3938 Clear 18 1023 77 10000 0.89 200 23:19 30.12.2021
3939 Clear 18 1023 77 10000 0.89 200 22:32 30.12.2021
3940 Clear 18 1023 77 10000 0.89 200 21:40 30.12.2021
3941 Clear 18 1023 77 10000 0.89 200 21:20 30.12.2021
3942 Clear 18 1023 77 10000 0.89 200 20:40 30.12.2021
3943 Clear 19 1023 77 10000 1.79 100 19:58 30.12.2021
3944 Clear 20 1023 77 10000 1.79 100 19:34 30.12.2021
3945 Clear 23 1022 64 10000 1.79 60 18:29 30.12.2021
3946 Clear 25 1022 60 10000 2.68 60 17:34 30.12.2021
3947 Clear 26 1021 61 10000 2.68 20 15:54 30.12.2021
3948 Clear 26 1021 61 10000 2.68 20 15:21 30.12.2021
3949 Clear 26 1021 57 10000 1.79 180 14:36 30.12.2021
3950 Clear 24 1022 64 10000 2.68 200 13:26 30.12.2021
3951 Clear 19 1023 77 6000 4.12 180 11:58 30.12.2021
3952 Clear 15 1022 82 6000 5.14 180 10:40 30.12.2021
3953 Clear 11 1022 93 6000 1.03 140 09:50 30.12.2021
3954 Clear 11 1022 93 6000 1.03 140 09:50 30.12.2021
3955 Clear 10 1021 93 6000 2.06 140 07:25 30.12.2021
3956 Clear 9 1021 59 10000 2.17 157 06:32 30.12.2021
3957 Clear 14 1022 93 10000 1.79 20 03:41 30.12.2021
3958 Clear 14 1022 93 10000 1.79 20 02:35 30.12.2021
3959 Clear 14 1022 93 10000 1.79 20 23:40 29.12.2021
3960 Clear 14 1022 93 10000 1.79 20 22:59 29.12.2021
3961 Clear 14 1022 93 10000 1.79 20 22:18 29.12.2021
3962 Clear 14 1022 93 10000 1.79 20 21:19 29.12.2021
3963 Clear 15 1022 93 8000 1.79 20 20:30 29.12.2021
3964 Clear 15 1022 93 8000 1.79 20 20:30 29.12.2021
3965 Clouds 15 1022 93 8000 0.89 60 19:43 29.12.2021
3966 Clouds 16 1022 87 10000 4.02 60 18:44 29.12.2021
3967 Clouds 17 1021 82 10000 4.02 60 17:52 29.12.2021
3968 Clouds 17 1021 82 10000 4.12 60 17:27 29.12.2021
3969 Clouds 17 1022 88 10000 4.12 40 16:23 29.12.2021
3970 Clouds 17 1022 88 10000 6.17 40 15:42 29.12.2021
3971 Clear 18 1024 72 6000 2.68 60 13:53 29.12.2021
3972 Clouds 17 1024 77 5000 4.47 100 12:36 29.12.2021
3973 Clouds 14 1025 94 5000 4.63 60 11:26 29.12.2021
3974 Clouds 12 1025 94 5000 2.06 80 09:46 29.12.2021
3975 Clear 12 1024 87 6000 2.68 100 07:51 29.12.2021
3976 Clear 12 1023 83 10000 4.19 74 06:38 29.12.2021
3977 Clear 13 1023 83 10000 4.53 76 05:58 29.12.2021
3978 Clear 13 1023 83 10000 4.53 76 05:36 29.12.2021
3979 Clear 16 1024 93 10000 4.02 60 02:22 29.12.2021
3980 Clear 16 1024 93 10000 4.02 60 00:19 29.12.2021
3981 Clear 16 1024 93 10000 4.02 60 23:31 28.12.2021
3982 Clear 15 1024 93 10000 4.02 60 22:42 28.12.2021
3983 Clear 15 1024 93 10000 4.02 60 22:23 28.12.2021
3984 Clear 15 1024 93 10000 4.02 60 21:36 28.12.2021
3985 Clouds 16 1024 93 7000 4.02 60 20:36 28.12.2021
3986 Clouds 17 1024 88 7000 4.02 40 19:22 28.12.2021
3987 Clouds 18 1024 82 7000 4.92 40 18:35 28.12.2021
3988 Clouds 18 1024 82 7000 4.02 40 17:57 28.12.2021
3989 Clouds 19 1024 77 7000 7.15 80 16:34 28.12.2021
3990 Clouds 19 1024 77 7000 5.81 40 15:49 28.12.2021
3991 Clouds 19 1024 77 7000 5.81 40 15:20 28.12.2021
3992 Clouds 19 1025 77 6000 4.02 40 14:46 28.12.2021
3993 Clouds 19 1025 77 6000 4.02 40 14:20 28.12.2021
3994 Clouds 18 1026 88 6000 5.81 60 13:42 28.12.2021
3995 Clouds 18 1026 88 6000 5.81 60 13:24 28.12.2021
3996 Mist 17 1027 94 3000 5.14 80 12:48 28.12.2021
3997 Mist 17 1027 93 3000 4.92 80 11:33 28.12.2021
3998 Clouds 16 1024 93 5000 1.79 100 07:41 28.12.2021
3999 Clouds 16 1024 90 10000 2.29 72 06:41 28.12.2021
4000 Clouds 18 1023 82 10000 1.79 60 23:43 27.12.2021
4001 Clouds 18 1023 82 10000 1.79 60 22:58 27.12.2021
4002 Clouds 18 1022 82 10000 1.79 60 21:38 27.12.2021
4003 Clouds 18 1023 82 8000 1.79 60 20:57 27.12.2021
4004 Clouds 18 1022 82 8000 1.79 80 19:58 27.12.2021
4005 Clouds 18 1022 82 8000 1.79 80 19:39 27.12.2021
4006 Clouds 18 1022 82 8000 2.68 20 18:23 27.12.2021
4007 Clouds 18 1009 88 10000 2.68 360 17:46 27.12.2021
4008 Clouds 19 1021 82 8000 2.68 360 16:38 27.12.2021
4009 Clouds 19 1021 82 8000 2.68 360 15:51 27.12.2021
4010 Clouds 18 1022 88 8000 4.02 340 14:32 27.12.2021
4011 Clouds 19 1022 82 8000 0.89 200 13:39 27.12.2021
4012 Clouds 18 1023 88 8000 1.34 180 12:19 27.12.2021
4013 Clouds 17 1022 93 8000 0.89 200 10:31 27.12.2021
4014 Clouds 17 1021 88 8000 1.79 180 09:47 27.12.2021
4015 Clouds 17 1022 91 10000 1.85 231 07:35 27.12.2021
4016 Clouds 17 1021 91 10000 1.94 236 06:56 27.12.2021
4017 Clouds 17 1021 95 10000 2.73 211 02:18 27.12.2021
4018 Clouds 16 1021 95 10000 2.7 238 23:58 26.12.2021
4019 Clouds 15 1021 95 10000 2.7 238 23:35 26.12.2021
4020 Clouds 16 1021 93 10000 3.27 257 22:23 26.12.2021
4021 Clouds 17 1020 88 8000 2.06 260 20:54 26.12.2021
4022 Clouds 19 1020 82 8000 8.05 300 19:47 26.12.2021
4023 Clouds 19 1020 82 8000 8.05 300 19:47 26.12.2021
4024 Clouds 20 1019 77 8000 8.05 300 18:24 26.12.2021
4025 Clouds 21 1019 77 10000 5.81 180 16:55 26.12.2021
4026 Clouds 20 1020 75 10000 3.58 220 14:28 26.12.2021
4027 Clouds 19 1020 77 10000 3.58 220 13:40 26.12.2021
4028 Clouds 19 1020 77 10000 3.58 220 13:19 26.12.2021
4029 Clouds 19 1020 82 8000 4.92 200 12:33 26.12.2021
4030 Clouds 16 1020 93 5000 3.58 180 10:34 26.12.2021
4031 Clouds 15 1019 93 6000 3.58 180 09:21 26.12.2021
4032 Clouds 15 1014 93 6000 2.24 200 08:44 26.12.2021
4033 Clouds 16 1018 100 6000 3.09 220 07:49 26.12.2021
4034 Clouds 16 1015 88 10000 2.68 200 01:29 26.12.2021
4035 Clouds 17 1015 88 10000 2.68 200 23:56 25.12.2021
4036 Clouds 17 1010 88 10000 2.68 200 23:27 25.12.2021
4037 Clouds 17 1015 88 10000 2.68 200 22:26 25.12.2021
4038 Clouds 17 1015 88 6000 2.68 200 20:59 25.12.2021
4039 Clouds 17 1017 93 6000 4.02 240 19:26 25.12.2021
4040 Clouds 16 1014 94 6000 7.2 220 18:55 25.12.2021
4041 Clouds 17 1014 88 6000 6.17 220 17:37 25.12.2021
4042 Clouds 18 1013 82 8000 8.23 220 16:36 25.12.2021
4043 Clouds 17 1013 82 8000 9.26 220 15:24 25.12.2021
4044 Clouds 17 1018 88 6000 7.15 200 13:31 25.12.2021
4045 Clouds 16 1017 85 6000 4.02 220 11:53 25.12.2021
4046 Clouds 16 1017 77 8000 5.81 240 09:57 25.12.2021
4047 Clouds 16 1017 77 8000 5.81 240 09:37 25.12.2021
4048 Clouds 17 1015 77 10000 2.68 240 04:34 25.12.2021
4049 Clouds 17 1015 77 10000 2.68 240 01:25 25.12.2021
4050 Clouds 16 1015 77 10000 2.68 240 23:42 24.12.2021
4051 Clouds 17 1015 77 10000 2.68 260 19:46 24.12.2021
4052 Clouds 17 1015 77 10000 2.68 260 19:23 24.12.2021
4053 Clouds 21 1015 56 10000 1.79 240 16:59 24.12.2021
4054 Clouds 21 1015 56 10000 1.79 240 16:22 24.12.2021
4055 Clouds 21 1013 60 10000 2.68 320 15:48 24.12.2021
4056 Clouds 21 1013 60 10000 2.68 320 15:18 24.12.2021
4057 Clouds 21 1017 60 10000 4.02 200 14:31 24.12.2021
4058 Clouds 19 1018 72 10000 4.92 220 13:42 24.12.2021
4059 Clouds 18 1019 77 8000 4.92 260 12:49 24.12.2021
4060 Clouds 18 1015 77 8000 4.92 260 12:21 24.12.2021
4061 Clouds 18 1019 77 8000 4.92 220 11:30 24.12.2021
4062 Clouds 16 1017 82 8000 2.68 200 10:59 24.12.2021
4063 Clouds 16 1017 82 8000 2.68 200 10:31 24.12.2021
4064 Clouds 14 1017 93 6000 1.79 200 08:28 24.12.2021
4065 Clouds 14 1016 93 6000 1.79 220 07:57 24.12.2021
4066 Clouds 13 1017 82 10000 4 196 06:18 24.12.2021
4067 Clouds 15 1019 93 10000 1.79 240 00:20 24.12.2021
4068 Clouds 16 1019 93 10000 1.79 240 23:33 23.12.2021
4069 Clouds 16 1019 93 10000 1.79 240 22:44 23.12.2021
4070 Clouds 16 1019 93 10000 1.79 240 22:21 23.12.2021
4071 Clouds 16 1019 93 10000 1.79 240 21:34 23.12.2021
4072 Mist 16 1019 93 3000 1.79 240 20:21 23.12.2021
4073 Clouds 16 1019 93 5000 4.92 280 19:27 23.12.2021
4074 Clouds 19 1019 88 5000 4.02 300 17:58 23.12.2021
4075 Clouds 19 1019 88 5000 4.02 300 17:18 23.12.2021
4076 Clouds 20 1014 82 7000 2.68 280 16:26 23.12.2021
4077 Clouds 20 1019 88 7000 2.68 300 15:32 23.12.2021
4078 Clouds 20 1015 82 7000 4.02 300 14:56 23.12.2021
4079 Clouds 20 1020 82 7000 4.02 300 14:38 23.12.2021
4080 Clouds 20 1021 77 7000 2.68 260 13:23 23.12.2021
4081 Mist 16 1021 93 3000 7.15 180 10:54 23.12.2021
4082 Mist 15 1021 93 3000 5.81 180 09:52 23.12.2021
4083 Mist 15 1020 93 3000 5.81 180 09:31 23.12.2021
4084 Clouds 15 1020 93 6000 5.81 200 08:25 23.12.2021
4085 Clouds 16 1020 88 10000 0.89 200 04:39 23.12.2021
4086 Clouds 17 1022 88 10000 0.89 200 23:43 22.12.2021
4087 Clouds 17 1022 88 10000 0.89 200 22:49 22.12.2021
4088 Clouds 17 1020 88 10000 0.89 200 21:57 22.12.2021
4089 Clouds 17 1020 88 10000 0.89 200 21:30 22.12.2021
4090 Clouds 17 1020 88 5000 0.89 200 20:52 22.12.2021
4091 Clouds 17 1020 88 5000 0.89 200 20:33 22.12.2021
4092 Clouds 18 1020 88 5000 2.24 200 19:37 22.12.2021
4093 Clouds 18 1020 82 5000 0.89 260 18:19 22.12.2021
4094 Clouds 17 1019 88 5000 2.24 260 17:37 22.12.2021
4095 Clouds 17 1019 82 6000 3.58 180 15:49 22.12.2021
4096 Clouds 17 1015 82 6000 4.02 180 13:57 22.12.2021
4097 Clouds 16 1022 87 6000 5.81 180 12:47 22.12.2021
4098 Clouds 17 1022 82 6000 2.68 180 11:37 22.12.2021
4099 Clouds 17 1016 72 8000 2.68 220 09:43 22.12.2021
4100 Clouds 17 1019 72 8000 2.68 180 07:55 22.12.2021
4101 Clouds 17 1019 71 10000 3.58 217 05:51 22.12.2021
4102 Clouds 17 1019 71 10000 3.58 217 05:31 22.12.2021
4103 Clouds 17 1019 71 10000 3.68 205 04:55 22.12.2021
4104 Clouds 17 1019 71 10000 3.68 205 04:31 22.12.2021
4105 Clouds 17 1019 74 10000 3.36 189 03:34 22.12.2021
4106 Clouds 19 1019 64 10000 4.02 260 02:25 22.12.2021
4107 Clouds 19 1019 64 10000 4.02 260 23:47 21.12.2021
4108 Clouds 19 1019 64 10000 4.02 260 22:29 21.12.2021
4109 Clouds 19 1019 64 10000 4.02 260 21:53 21.12.2021
4110 Clouds 19 1019 64 10000 4.02 260 21:31 21.12.2021
4111 Clouds 20 1019 64 10000 4.02 260 20:24 21.12.2021
4112 Clouds 21 1018 52 10000 7.15 260 19:52 21.12.2021
4113 Clouds 21 1018 52 10000 7.15 260 19:31 21.12.2021
4114 Clouds 24 1017 43 10000 4.12 220 18:23 21.12.2021
4115 Clouds 24 1017 45 10000 2.68 220 17:52 21.12.2021
4116 Clouds 23 1017 46 10000 2.68 220 16:47 21.12.2021
4117 Clouds 24 1017 43 10000 7.2 260 15:33 21.12.2021
4118 Clouds 27 1018 36 10000 3.09 200 13:51 21.12.2021
4119 Clouds 27 1018 36 10000 3.09 200 13:32 21.12.2021
4120 Clear 25 1018 41 10000 1.79 160 12:25 21.12.2021
4121 Clear 18 1018 55 10000 7.15 180 10:38 21.12.2021
4122 Clouds 16 1018 63 8000 5.81 180 09:41 21.12.2021
4123 Clouds 14 1018 67 8000 2.06 140 08:39 21.12.2021
4124 Clouds 12 1018 59 10000 4.51 136 07:35 21.12.2021
4125 Clouds 12 1018 59 10000 4.33 134 06:56 21.12.2021
4126 Clouds 18 1019 72 10000 1.79 300 03:22 21.12.2021
4127 Clouds 18 1019 72 10000 1.79 300 01:19 21.12.2021
4128 Clouds 18 1019 72 10000 1.79 300 23:54 20.12.2021
4129 Clouds 18 1019 72 10000 1.79 300 22:35 20.12.2021
4130 Clouds 18 1019 72 10000 1.79 300 21:48 20.12.2021
4131 Clouds 18 1019 72 10000 1.79 300 21:24 20.12.2021
4132 Clear 19 1019 72 10000 1.79 300 20:50 20.12.2021
4133 Clear 20 1019 68 10000 1.79 300 19:55 20.12.2021
4134 Clear 20 1019 68 10000 1.79 300 19:36 20.12.2021
4135 Clear 20 1019 68 10000 1.79 300 19:18 20.12.2021
4136 Clear 21 1019 52 10000 1.79 300 18:28 20.12.2021
4137 Clear 23 1019 46 10000 4.12 320 17:49 20.12.2021
4138 Clear 26 1019 38 10000 6.17 320 16:45 20.12.2021
4139 Clear 27 1019 41 10000 4.12 320 15:55 20.12.2021
4140 Clear 26 1019 41 10000 4.12 320 15:31 20.12.2021
4141 Clear 26 1020 44 10000 4.02 180 13:31 20.12.2021
4142 Clear 19 1021 45 10000 2.68 160 11:36 20.12.2021
4143 Clear 12 1020 71 10000 2.06 140 09:56 20.12.2021
4144 Clear 11 1020 71 10000 2.06 140 09:32 20.12.2021
4145 Clear 11 1020 71 10000 2.06 140 08:43 20.12.2021
4146 Clear 11 1019 71 10000 2.06 140 07:57 20.12.2021
4147 Clear 11 1019 71 10000 2.06 140 07:31 20.12.2021
4148 Clouds 11 1019 63 10000 2.06 141 05:25 20.12.2021
4149 Clouds 16 1018 55 10000 2.68 260 00:19 20.12.2021
4150 Clouds 16 1018 55 10000 2.68 260 22:55 19.12.2021
4151 Clouds 17 1018 55 10000 2.68 260 21:55 19.12.2021
4152 Clouds 17 1018 55 10000 2.68 260 21:31 19.12.2021
4153 Clear 18 1018 55 10000 2.68 260 20:34 19.12.2021
4154 Clear 19 1017 52 10000 2.68 280 19:52 19.12.2021
4155 Clear 19 1017 52 10000 2.68 280 19:32 19.12.2021
4156 Clear 20 1016 49 10000 2.68 300 18:30 19.12.2021
4157 Clear 22 1016 49 10000 5.81 280 17:53 19.12.2021
4158 Clear 22 1016 49 10000 5.81 280 17:21 19.12.2021
4159 Clear 23 1016 38 10000 5.81 280 16:27 19.12.2021
4160 Clear 24 1016 40 10000 2.68 320 15:50 19.12.2021
4161 Clear 24 1016 40 10000 2.68 320 15:23 19.12.2021
4162 Clear 23 1016 40 10000 4.47 280 14:44 19.12.2021
4163 Clear 26 1016 31 10000 1.54 280 13:26 19.12.2021
4164 Clear 22 1017 37 10000 2.68 160 12:47 19.12.2021
4165 Clear 22 1017 37 10000 2.68 160 12:28 19.12.2021
4166 Clear 18 1017 42 10000 2.68 160 11:26 19.12.2021
4167 Clear 14 1016 67 10000 1.54 160 10:28 19.12.2021
4168 Clear 10 1016 66 10000 1.03 120 09:48 19.12.2021
4169 Clear 8 1016 66 10000 1.03 180 08:43 19.12.2021
4170 Clouds 14 1018 72 10000 2.24 80 04:45 19.12.2021
4171 Clouds 15 1018 72 10000 2.24 80 01:34 19.12.2021
4172 Clouds 15 1018 72 10000 2.24 80 00:53 19.12.2021
4173 Clear 15 1018 72 10000 2.24 80 22:42 18.12.2021
4174 Clear 15 1018 72 10000 2.24 80 22:20 18.12.2021
4175 Clear 15 1018 72 10000 2.24 80 21:36 18.12.2021
4176 Clouds 15 1018 72 6000 2.24 80 20:44 18.12.2021
4177 Clouds 15 1018 72 6000 2.24 80 20:19 18.12.2021
4178 Clear 16 1018 72 6000 2.24 60 19:25 18.12.2021
4179 Clear 17 1018 72 6000 3.58 40 18:22 18.12.2021
4180 Clear 19 1018 63 6000 4.02 60 17:48 18.12.2021
4181 Clear 20 1018 48 6000 4.47 60 16:26 18.12.2021
4182 Clear 21 1018 45 8000 2.68 40 15:28 18.12.2021
4183 Clear 21 1019 43 8000 2.24 20 14:51 18.12.2021
4184 Clear 20 1020 42 10000 0.89 80 13:28 18.12.2021
4185 Clear 14 1021 67 6000 1.79 160 11:23 18.12.2021
4186 Mist 7 1021 100 3000 2.06 160 09:40 18.12.2021
4187 Mist 7 1020 100 3000 2.06 140 08:47 18.12.2021
4188 Mist 7 1020 100 3000 2.06 140 08:24 18.12.2021
4189 Clear 14 1015 93 10000 1.79 60 03:58 18.12.2021
4190 Clear 15 1021 93 10000 1.79 60 00:30 18.12.2021
4191 Clear 15 1016 93 10000 1.79 60 23:46 17.12.2021
4192 Clear 15 1021 93 10000 1.79 60 21:58 17.12.2021
4193 Clear 15 1021 93 10000 1.79 60 21:20 17.12.2021
4194 Mist 15 1021 93 4000 1.79 60 20:41 17.12.2021
4195 Clouds 15 1021 87 5000 1.79 40 19:28 17.12.2021
4196 Clouds 17 1020 87 5000 5.81 360 18:39 17.12.2021
4197 Clouds 19 1020 77 7000 4.02 360 17:33 17.12.2021
4198 Clouds 20 1020 68 7000 4.92 360 16:49 17.12.2021
4199 Clouds 20 1020 68 7000 4.92 360 16:22 17.12.2021
4200 Clouds 20 1020 68 7000 4.02 340 15:25 17.12.2021
4201 Clouds 21 1020 60 6000 4.02 360 14:40 17.12.2021
4202 Clouds 21 1021 60 6000 1.79 300 13:21 17.12.2021
4203 Clouds 16 1022 88 5000 2.06 160 11:50 17.12.2021
4204 Clouds 12 1021 87 5000 2.06 160 10:37 17.12.2021
4205 Clouds 10 1021 93 5000 4.12 180 09:34 17.12.2021
4206 Clouds 10 1021 93 5000 4.12 180 09:34 17.12.2021
4207 Clouds 8 1020 100 5000 2.06 160 08:30 17.12.2021
4208 Clouds 7 1020 68 10000 1.19 161 06:47 17.12.2021
4209 Clouds 15 1017 87 10000 1.79 300 04:39 17.12.2021
4210 Clouds 15 1017 87 10000 1.79 300 23:47 16.12.2021
4211 Clouds 16 1017 87 10000 1.79 300 22:24 16.12.2021
4212 Clouds 16 1017 87 10000 1.79 300 22:24 16.12.2021
4213 Clouds 16 1017 87 10000 1.79 300 21:51 16.12.2021
4214 Clouds 15 1017 87 10000 1.79 300 21:30 16.12.2021
4215 Clouds 16 1017 87 8000 1.79 300 20:31 16.12.2021
4216 Clouds 17 1017 82 8000 1.79 300 19:49 16.12.2021
4217 Clouds 19 1016 72 8000 1.79 320 18:40 16.12.2021
4218 Clouds 20 1016 56 8000 0.89 180 17:57 16.12.2021
4219 Clouds 20 1016 56 8000 0.89 180 17:31 16.12.2021
4220 Clouds 20 1016 72 8000 2.68 360 16:22 16.12.2021
4221 Clouds 20 1017 72 8000 1.79 360 14:51 16.12.2021
4222 Clouds 20 1017 72 8000 4.02 20 13:29 16.12.2021
4223 Clouds 16 1018 93 6000 1.79 140 11:20 16.12.2021
4224 Clouds 15 1017 93 6000 2.68 260 10:59 16.12.2021
4225 Clouds 15 1017 93 6000 2.68 260 10:20 16.12.2021
4226 Clouds 14 1018 93 6000 1.79 200 08:25 16.12.2021
4227 Clouds 13 1016 68 10000 1.87 254 06:22 16.12.2021
4228 Clouds 16 1016 82 10000 0.89 360 01:25 16.12.2021
4229 Clouds 17 1019 82 10000 0.89 360 23:33 15.12.2021
4230 Clouds 17 1016 82 10000 0.89 360 22:43 15.12.2021
4231 Clouds 17 1016 82 10000 0.89 360 21:56 15.12.2021
4232 Clouds 17 1016 82 10000 0.89 360 21:27 15.12.2021
4233 Clouds 17 1023 82 8000 0.89 360 20:18 15.12.2021
4234 Clouds 16 1016 93 8000 0.89 300 19:50 15.12.2021
4235 Clouds 17 1017 94 8000 2.57 340 18:37 15.12.2021
4236 Clouds 18 1015 82 8000 2.06 340 17:53 15.12.2021
4237 Clouds 18 1015 82 8000 2.06 340 17:34 15.12.2021
4238 Clouds 17 1014 82 8000 2.68 360 16:28 15.12.2021
4239 Clouds 17 1015 82 10000 2.68 340 15:47 15.12.2021
4240 Clouds 17 1015 82 10000 2.68 340 15:27 15.12.2021
4241 Clear 18 1016 77 10000 4.92 340 14:29 15.12.2021
4242 Clouds 17 1018 67 8000 1.79 60 12:46 15.12.2021
4243 Clouds 11 1018 87 6000 2.06 140 10:42 15.12.2021
4244 Clouds 7 1017 100 6000 1.03 160 08:55 15.12.2021
4245 Clear 8 1017 93 10000 2.06 140 07:25 15.12.2021
4246 Clouds 15 1019 93 10000 2.24 80 01:20 15.12.2021
4247 Clouds 15 1019 93 10000 2.24 80 23:42 14.12.2021
4248 Clouds 15 1019 93 10000 2.24 80 22:49 14.12.2021
4249 Clouds 15 1019 93 10000 2.24 80 22:24 14.12.2021
4250 Clouds 15 1019 93 5000 2.24 80 20:29 14.12.2021
4251 Clouds 16 1019 87 5000 3.58 80 19:43 14.12.2021
4252 Clouds 16 1019 87 5000 3.58 80 19:19 14.12.2021
4253 Clouds 17 1018 82 6000 2.24 20 18:25 14.12.2021
4254 Clouds 18 1018 72 8000 2.24 20 17:33 14.12.2021
4255 Clouds 20 1018 68 8000 2.24 40 16:40 14.12.2021
4256 Clouds 20 1018 63 8000 2.68 40 15:36 14.12.2021
4257 Clouds 20 1020 63 5000 4.02 60 13:31 14.12.2021
4258 Clouds 18 1021 82 10000 0.89 120 12:00 14.12.2021
4259 Mist 17 1021 82 3000 0.89 120 11:24 14.12.2021
4260 Mist 15 1021 87 3000 1.79 160 10:23 14.12.2021
4261 Mist 13 1020 94 3000 2.06 160 09:43 14.12.2021
4262 Clouds 12 1020 94 5000 3.6 240 08:27 14.12.2021
4263 Clouds 12 1020 94 5000 1.03 360 07:43 14.12.2021
4264 Clouds 14 1021 87 10000 1.79 360 02:37 14.12.2021
4265 Clouds 14 1021 87 10000 1.79 360 22:56 13.12.2021
4266 Clouds 14 1021 87 10000 1.79 360 21:53 13.12.2021
4267 Clouds 15 1021 87 10000 1.79 360 21:32 13.12.2021
4268 Clouds 15 1021 87 8000 1.79 360 20:43 13.12.2021
4269 Clouds 16 1021 87 8000 1.79 360 19:53 13.12.2021
4270 Clouds 17 1019 82 8000 2.68 340 18:33 13.12.2021
4271 Clouds 19 1019 82 8000 2.68 360 17:26 13.12.2021
4272 Clouds 20 1020 72 8000 4.02 320 15:54 13.12.2021
4273 Clouds 20 1020 72 8000 4.02 320 15:32 13.12.2021
4274 Clouds 19 1022 72 7000 1.79 360 13:45 13.12.2021
4275 Clouds 18 1023 77 6000 1.03 0 12:49 13.12.2021
4276 Clouds 15 1023 94 6000 3.09 160 11:59 13.12.2021
4277 Clouds 15 1023 94 6000 3.09 160 11:35 13.12.2021
4278 Fog 13 1023 100 100 4.12 180 10:47 13.12.2021
4279 Fog 11 1022 100 100 2.06 160 09:32 13.12.2021
4280 Mist 9 1022 100 3000 1.03 0 07:53 13.12.2021
4281 Clear 8 1020 70 10000 1.73 205 05:36 13.12.2021
4282 Clear 15 1021 82 10000 4.92 360 03:28 13.12.2021
4283 Clear 15 1021 82 10000 4.92 360 23:22 12.12.2021
4284 Clear 15 1021 82 10000 4.92 360 21:40 12.12.2021
4285 Clouds 15 1021 82 8000 4.92 360 20:18 12.12.2021
4286 Clouds 17 1020 77 8000 1.79 40 18:43 12.12.2021
4287 Clouds 19 1020 67 8000 4.02 10 17:38 12.12.2021
4288 Clouds 21 1020 68 8000 2.68 360 16:28 12.12.2021
4289 Clouds 20 1020 63 8000 2.68 360 15:46 12.12.2021
4290 Clouds 20 1020 63 8000 2.68 360 15:25 12.12.2021
4291 Clouds 19 1021 59 8000 2.68 320 14:34 12.12.2021
4292 Clear 19 1021 63 10000 2.24 300 13:26 12.12.2021
4293 Clear 19 1022 59 5000 1.79 120 12:30 12.12.2021
4294 Clear 16 1022 72 5000 1.34 140 11:44 12.12.2021
4295 Clear 16 1022 72 5000 1.34 140 11:22 12.12.2021
4296 Clear 12 1021 87 5000 1.03 140 10:22 12.12.2021
4297 Clear 9 1021 93 5000 1.54 120 09:38 12.12.2021
4298 Clear 15 1008 72 5000 1.34 180 07:57 12.12.2021
4299 Clear 6 1020 84 10000 1.95 93 06:19 12.12.2021
4300 Clear 7 1020 85 10000 2.46 80 04:56 12.12.2021
4301 Clear 13 1021 72 10000 4.02 40 03:31 12.12.2021
4302 Clear 15 1021 72 10000 4.02 40 23:44 11.12.2021
4303 Clear 15 1021 72 10000 4.02 40 22:22 11.12.2021
4304 Clear 15 1021 72 10000 4.02 40 21:52 11.12.2021
4305 Clear 15 1021 72 10000 4.02 40 20:51 11.12.2021
4306 Clear 16 1021 67 10000 4.02 40 19:27 11.12.2021
4307 Clear 16 1021 72 10000 4.92 40 18:52 11.12.2021
4308 Clear 16 1021 72 10000 4.92 40 18:25 11.12.2021
4309 Clear 18 1021 63 10000 5.81 40 17:21 11.12.2021
4310 Clear 19 1021 59 10000 5.81 40 15:55 11.12.2021
4311 Clear 19 1021 59 10000 5.81 40 15:28 11.12.2021
4312 Clear 18 1024 63 10000 4.02 60 12:59 11.12.2021
4313 Clear 17 1025 63 10000 2.68 100 11:26 11.12.2021
4314 Clouds 13 1023 87 10000 2.68 140 09:47 11.12.2021
4315 Clouds 13 1024 88 10000 2.06 180 08:28 11.12.2021
4316 Clouds 13 1025 76 10000 2.83 60 02:29 11.12.2021
4317 Clouds 13 1026 77 10000 3.38 57 00:40 11.12.2021
4318 Clouds 14 1027 72 10000 4.01 49 23:23 10.12.2021
4319 Clouds 13 1027 71 10000 4.67 43 21:57 10.12.2021
4320 Clouds 13 1027 71 10000 4.67 43 21:31 10.12.2021
4321 Clouds 16 1027 67 10000 4.92 80 19:22 10.12.2021
4322 Clouds 16 1026 67 10000 4.92 60 18:21 10.12.2021
4323 Clouds 17 1026 67 10000 4.02 40 16:57 10.12.2021
4324 Clouds 17 1026 67 10000 4.02 40 16:29 10.12.2021
4325 Clouds 17 1027 67 10000 4.02 60 15:41 10.12.2021
4326 Clouds 17 1027 67 10000 4.02 60 15:21 10.12.2021
4327 Clouds 17 1028 51 10000 2.24 40 13:52 10.12.2021
4328 Clouds 17 1028 51 10000 2.24 40 13:26 10.12.2021
4329 Clouds 16 1029 58 10000 0.89 40 12:45 10.12.2021
4330 Clouds 14 1029 76 10000 0.89 140 11:29 10.12.2021
4331 Clouds 12 1028 76 10000 2.24 160 10:38 10.12.2021
4332 Clouds 9 1027 93 10000 1.54 160 08:58 10.12.2021
4333 Clouds 9 1027 82 10000 3.13 69 06:56 10.12.2021
4334 Clouds 14 1028 76 10000 2.68 40 02:50 10.12.2021
4335 Clear 13 1028 76 10000 2.68 40 00:55 10.12.2021
4336 Clear 13 1028 76 10000 2.68 40 23:23 09.12.2021
4337 Clear 13 1028 76 10000 2.68 40 22:28 09.12.2021
4338 Clear 13 1028 76 10000 2.68 40 21:59 09.12.2021
4339 Clear 13 1028 76 10000 2.68 40 21:19 09.12.2021
4340 Clouds 14 1028 76 10000 2.68 40 20:28 09.12.2021
4341 Clouds 15 1027 72 10000 2.68 40 19:22 09.12.2021
4342 Clear 15 1027 72 10000 7.15 40 18:49 09.12.2021
4343 Clouds 16 1027 72 10000 5.81 40 17:57 09.12.2021
4344 Clouds 16 1027 72 10000 5.81 40 17:27 09.12.2021
4345 Clouds 17 1027 67 10000 8.05 40 16:56 09.12.2021
4346 Clouds 17 1027 67 10000 5.81 40 15:57 09.12.2021
4347 Clouds 17 1028 67 10000 6.71 40 14:51 09.12.2021
4348 Clouds 17 1029 67 10000 5.81 40 13:39 09.12.2021
4349 Clouds 17 1029 67 10000 4.02 40 12:47 09.12.2021
4350 Clouds 15 1029 77 10000 1.34 60 11:24 09.12.2021
4351 Clouds 11 1028 93 5000 1.54 180 09:44 09.12.2021
4352 Clouds 11 1027 68 10000 5.49 34 06:51 09.12.2021
4353 Clouds 15 1026 93 10000 1.79 60 03:43 09.12.2021
4354 Clouds 15 1012 93 10000 1.79 60 23:46 08.12.2021
4355 Clouds 15 1012 93 10000 1.79 60 23:26 08.12.2021
4356 Clouds 15 1026 93 10000 1.79 60 22:50 08.12.2021
4357 Clouds 15 1026 93 10000 1.79 60 21:46 08.12.2021
4358 Clouds 15 1026 93 10000 1.79 60 21:28 08.12.2021
4359 Clouds 15 1026 93 6000 1.79 60 20:18 08.12.2021
4360 Clouds 15 1025 93 6000 7.15 20 19:37 08.12.2021
4361 Clouds 15 1025 93 6000 7.15 20 18:53 08.12.2021
4362 Drizzle 16 1024 93 4000 4.02 300 17:47 08.12.2021
4363 Clouds 20 1024 64 10000 5.81 260 15:58 08.12.2021
4364 Clouds 20 1024 64 10000 5.81 260 15:29 08.12.2021
4365 Clouds 20 1025 68 10000 4.92 260 14:50 08.12.2021
4366 Clouds 18 1026 63 8000 4.02 180 12:32 08.12.2021
4367 Clouds 13 1026 87 6000 2.06 160 10:32 08.12.2021
4368 Clouds 11 1026 87 6000 1.79 180 09:30 08.12.2021
4369 Mist 11 1025 93 3000 1.79 180 07:29 08.12.2021
4370 Clear 8 1025 81 10000 3.05 216 04:57 08.12.2021
4371 Clouds 14 1023 87 10000 2.68 320 23:34 07.12.2021
4372 Clouds 14 1023 87 10000 2.68 320 22:27 07.12.2021
4373 Clouds 14 1023 87 10000 2.68 320 21:23 07.12.2021
4374 Clouds 14 1023 87 10000 2.68 320 21:23 07.12.2021
4375 Clouds 14 1023 87 10000 2.68 320 20:24 07.12.2021
4376 Clouds 15 1024 82 10000 2.68 20 18:55 07.12.2021
4377 Clouds 16 1024 72 10000 4.02 20 17:53 07.12.2021
4378 Clouds 16 1024 72 10000 4.02 20 17:20 07.12.2021
4379 Clear 17 1024 67 10000 4.02 20 16:34 07.12.2021
4380 Clear 17 1023 63 10000 4.02 340 15:34 07.12.2021
4381 Clear 18 1024 55 10000 4.02 20 14:30 07.12.2021
4382 Clear 16 1025 67 10000 1.79 80 12:56 07.12.2021
4383 Clear 16 1025 67 10000 1.79 80 12:56 07.12.2021
4384 Clear 14 1025 76 10000 1.79 100 11:52 07.12.2021
4385 Clear 12 1024 81 10000 1.79 160 10:43 07.12.2021
4386 Clear 7 1024 93 10000 1.03 160 08:42 07.12.2021
4387 Clear 6 1024 77 10000 2.22 84 06:21 07.12.2021
4388 Clear 5 1024 77 10000 2.22 84 05:39 07.12.2021
4389 Clear 15 1026 72 10000 5.81 60 23:49 06.12.2021
4390 Clear 15 1026 72 10000 5.81 60 22:58 06.12.2021
4391 Clear 15 1026 72 10000 5.81 60 22:37 06.12.2021
4392 Clear 15 1026 72 10000 5.81 60 21:52 06.12.2021
4393 Clear 15 1026 72 10000 5.81 60 20:40 06.12.2021
4394 Clear 15 1026 72 10000 5.81 60 20:22 06.12.2021
4395 Clear 16 1025 67 10000 5.81 60 19:22 06.12.2021
4396 Clear 16 1025 67 10000 5.81 60 18:29 06.12.2021
4397 Clear 17 1025 100 10000 4.02 20 17:41 06.12.2021
4398 Clear 17 1025 55 10000 7.15 40 16:49 06.12.2021
4399 Clear 18 1025 48 10000 4.92 60 15:41 06.12.2021
4400 Clear 18 1027 52 10000 4.92 60 13:46 06.12.2021
4401 Clear 17 1029 55 10000 7.15 100 12:40 06.12.2021
4402 Clear 16 1029 63 10000 5.81 100 11:48 06.12.2021
4403 Clouds 12 1023 76 10000 2.68 120 09:20 06.12.2021
4404 Clear 8 1028 77 10000 3.63 71 06:43 06.12.2021
4405 Clear 15 1027 72 10000 3.58 40 23:52 05.12.2021
4406 Clear 16 1027 72 10000 3.58 40 21:52 05.12.2021
4407 Clear 16 1027 72 10000 3.58 40 21:24 05.12.2021
4408 Clouds 16 1027 72 10000 3.58 40 20:19 05.12.2021
4409 Clouds 16 1027 72 10000 4.92 40 19:36 05.12.2021
4410 Clouds 16 1027 72 10000 4.92 40 19:18 05.12.2021
4411 Clouds 16 1026 82 10000 7.15 40 18:20 05.12.2021
4412 Clouds 17 1026 77 10000 5.81 20 17:48 05.12.2021
4413 Clouds 19 1026 63 10000 4.92 340 16:50 05.12.2021
4414 Clouds 19 1026 63 10000 4.92 340 16:27 05.12.2021
4415 Clouds 19 1025 59 10000 4.92 20 15:49 05.12.2021
4416 Clouds 19 1027 59 10000 4.92 40 14:43 05.12.2021
4417 Clouds 19 1027 59 10000 4.92 40 14:25 05.12.2021
4418 Clear 19 1028 59 10000 2.68 60 13:27 05.12.2021
4419 Clear 18 1028 59 10000 2.68 180 12:40 05.12.2021
4420 Clear 18 1028 59 10000 2.68 180 12:18 05.12.2021
4421 Clear 16 1028 72 10000 4.02 140 11:34 05.12.2021
4422 Clear 14 1028 76 10000 4.02 160 10:18 05.12.2021
4423 Clouds 10 1027 93 6000 2.06 180 08:45 05.12.2021
4424 Clouds 8 1027 79 10000 3.18 43 04:56 05.12.2021
4425 Clouds 14 1028 82 10000 1.79 40 00:48 05.12.2021
4426 Clear 14 1028 82 10000 1.79 40 22:24 04.12.2021
4427 Clear 14 1028 82 10000 1.79 40 21:20 04.12.2021
4428 Clouds 14 1028 82 10000 1.79 40 20:27 04.12.2021
4429 Clouds 15 1027 77 10000 2.68 20 19:32 04.12.2021
4430 Clear 15 1027 72 10000 5.81 40 18:22 04.12.2021
4431 Clear 17 1027 63 10000 5.81 20 17:42 04.12.2021
4432 Clear 17 1027 63 10000 5.81 20 17:19 04.12.2021
4433 Clear 17 1028 63 10000 4.02 40 16:42 04.12.2021
4434 Clear 17 1028 63 10000 4.02 40 16:23 04.12.2021
4435 Clear 14 1029 67 8000 1.79 100 11:56 04.12.2021
4436 Clear 14 1029 67 8000 1.79 100 11:33 04.12.2021
4437 Clouds 11 1029 71 6000 2.68 180 10:56 04.12.2021
4438 Clouds 7 1027 93 6000 2.06 160 08:52 04.12.2021
4439 Clear 7 1027 93 6000 2.06 160 07:22 04.12.2021
4440 Clear 13 1025 67 10000 2.68 40 04:42 04.12.2021
4441 Clear 13 1025 67 10000 2.68 40 00:47 04.12.2021
4442 Clear 14 1025 67 10000 2.68 40 23:27 03.12.2021
4443 Clear 14 1025 67 10000 2.68 40 22:48 03.12.2021
4444 Clear 13 1025 67 10000 2.68 40 21:42 03.12.2021
4445 Clear 14 1025 67 10000 2.68 40 20:56 03.12.2021
4446 Clear 14 1025 67 10000 2.68 40 20:26 03.12.2021
4447 Clear 15 1025 62 10000 3.58 40 18:49 03.12.2021
4448 Clear 15 1025 62 10000 3.58 40 18:20 03.12.2021
4449 Clouds 17 1025 55 10000 2.68 40 16:43 03.12.2021
4450 Clear 17 1027 48 10000 4.02 80 13:27 03.12.2021
4451 Clear 16 1028 72 10000 1.79 160 12:20 03.12.2021
4452 Clouds 12 1027 87 6000 1.34 180 10:58 03.12.2021
4453 Clear 8 1025 93 6000 1.03 140 08:31 03.12.2021
4454 Clear 6 1024 69 10000 2.6 169 07:43 03.12.2021
4455 Clear 6 1024 69 10000 2.6 169 07:43 03.12.2021
4456 Clear 5 1024 70 10000 3.03 168 06:40 03.12.2021
4457 Clouds 15 1023 72 10000 4.02 340 00:49 03.12.2021
4458 Clouds 14 1023 72 10000 4.02 340 23:48 02.12.2021
4459 Clouds 13 1023 72 10000 4.02 340 22:48 02.12.2021
4460 Clouds 12 1022 55 10000 6.33 21 21:41 02.12.2021
4461 Clouds 14 1022 72 10000 4.02 340 20:45 02.12.2021
4462 Clouds 15 1022 72 10000 4.02 340 20:22 02.12.2021
4463 Clouds 16 1020 67 10000 8.05 340 18:47 02.12.2021
4464 Clouds 15 1020 93 10000 0.89 300 16:43 02.12.2021
4465 Clouds 14 1018 94 6000 8.23 340 15:41 02.12.2021
4466 Clouds 14 1018 94 6000 8.23 340 15:41 02.12.2021
4467 Clouds 16 1018 94 6000 3.09 300 14:52 02.12.2021
4468 Clouds 14 1020 100 6000 4.12 340 13:39 02.12.2021
4469 Clouds 14 1020 94 6000 3.09 240 12:25 02.12.2021
4470 Clouds 12 1021 94 4000 6.17 220 10:42 02.12.2021
4471 Clouds 12 1022 81 10000 5.81 200 09:26 02.12.2021
4472 Clouds 9 1021 76 10000 5.1 244 07:19 02.12.2021
4473 Clouds 13 1025 71 10000 0.89 180 01:26 02.12.2021
4474 Clouds 13 1025 71 10000 0.89 180 00:26 02.12.2021
4475 Clouds 10 1025 60 10000 0.81 328 22:31 01.12.2021
4476 Clouds 12 1025 71 10000 0.89 180 21:44 01.12.2021
4477 Clouds 13 1025 71 10000 0.89 180 20:24 01.12.2021
4478 Clouds 14 1025 62 10000 1.34 20 19:43 01.12.2021
4479 Clouds 16 1024 55 10000 1.79 60 18:47 01.12.2021
4480 Clouds 18 1024 45 10000 4.02 40 17:24 01.12.2021
4481 Clouds 18 1024 45 10000 4.02 20 16:21 01.12.2021
4482 Clouds 17 1020 48 10000 4.02 20 14:30 01.12.2021
4483 Clouds 18 1026 48 10000 4.02 80 13:37 01.12.2021
4484 Clouds 14 1026 71 10000 1.79 120 10:44 01.12.2021
4485 Clouds 13 1026 71 10000 1.79 120 10:22 01.12.2021
4486 Clouds 10 1026 82 10000 1.03 160 08:52 01.12.2021
4487 Clouds 10 1025 87 10000 1.34 160 07:59 01.12.2021
4488 Clouds 10 1025 87 10000 1.54 160 07:31 01.12.2021
4489 Clouds 13 1025 77 10000 1.79 20 03:57 01.12.2021
4490 Clouds 14 1025 77 10000 1.79 20 03:27 01.12.2021
4491 Clear 14 1015 77 10000 1.79 20 00:34 01.12.2021
4492 Clear 14 1025 77 10000 1.79 20 23:29 30.11.2021
4493 Clear 15 1025 77 10000 1.79 20 22:32 30.11.2021
4494 Clouds 15 1025 77 10000 1.79 20 20:47 30.11.2021
4495 Clouds 15 1025 77 10000 1.79 20 20:25 30.11.2021
4496 Clouds 16 1024 72 10000 4.02 20 19:39 30.11.2021
4497 Clouds 17 1024 67 10000 4.02 20 18:54 30.11.2021
4498 Clouds 18 1024 59 10000 4.92 20 17:46 30.11.2021
4499 Clouds 19 1024 59 8000 8.05 40 16:19 30.11.2021
4500 Clouds 20 1025 58 8000 4.02 100 14:35 30.11.2021
4501 Clouds 19 1026 63 8000 4.02 100 13:41 30.11.2021
4502 Clouds 18 1026 72 8000 4.02 100 12:54 30.11.2021
4503 Clouds 18 1026 72 8000 4.02 100 12:21 30.11.2021
4504 Clouds 15 1027 87 6000 1.79 160 11:26 30.11.2021
4505 Clouds 13 1026 94 6000 2.06 160 10:36 30.11.2021
4506 Mist 10 1025 100 3000 2.06 180 08:58 30.11.2021
4507 Mist 10 1025 100 3000 2.06 180 08:32 30.11.2021
4508 Mist 10 1025 93 3000 2.06 160 07:59 30.11.2021
4509 Clouds 10 1025 82 10000 1.91 69 06:38 30.11.2021
4510 Clouds 14 1026 82 10000 1.79 320 01:50 30.11.2021
4511 Clouds 14 1026 82 10000 1.79 320 01:28 30.11.2021
4512 Clouds 14 1026 82 10000 1.79 320 23:40 29.11.2021
4513 Clouds 14 1026 82 10000 1.79 320 23:19 29.11.2021
4514 Clouds 14 1026 82 10000 1.79 320 22:38 29.11.2021
4515 Clouds 14 1026 82 10000 1.79 320 21:56 29.11.2021
4516 Clouds 14 1026 82 10000 1.79 320 21:20 29.11.2021
4517 Clouds 15 1026 82 10000 1.79 320 20:48 29.11.2021
4518 Clouds 15 1026 82 10000 1.79 340 19:59 29.11.2021
4519 Clouds 15 1026 82 10000 1.79 340 19:41 29.11.2021
4520 Clouds 15 1026 82 10000 1.79 340 19:21 29.11.2021
4521 Clouds 16 1026 75 10000 2.56 287 18:42 29.11.2021
4522 Clouds 17 1026 68 10000 2.92 294 17:22 29.11.2021
4523 Clouds 17 1026 68 10000 2.92 294 16:50 29.11.2021
4524 Clouds 17 1026 65 10000 3.01 297 16:24 29.11.2021
4525 Clouds 17 1026 62 10000 2.78 296 14:47 29.11.2021
4526 Clouds 17 1027 59 10000 2.33 287 14:23 29.11.2021
4527 Clouds 17 1028 57 10000 1.53 273 12:59 29.11.2021
4528 Clouds 17 1028 56 10000 1.16 221 12:19 29.11.2021
4529 Clouds 16 1029 57 10000 2.09 185 11:28 29.11.2021
4530 Clear 12 1028 71 10000 2.06 180 09:59 29.11.2021
4531 Clouds 12 1022 66 10000 2.06 200 07:47 29.11.2021
4532 Clouds 8 1027 59 10000 0.72 162 05:51 29.11.2021
4533 Clouds 8 1028 56 10000 1.49 57 01:24 29.11.2021
4534 Clouds 9 1028 57 10000 1.64 62 23:54 28.11.2021
4535 Clouds 9 1028 57 10000 1.64 62 23:36 28.11.2021
4536 Clouds 9 1028 56 10000 2.3 43 22:20 28.11.2021
4537 Clouds 12 1028 56 10000 2.3 43 21:39 28.11.2021
4538 Clouds 12 1026 71 10000 1.03 180 20:44 28.11.2021
4539 Clouds 13 1026 58 10000 1.03 360 19:51 28.11.2021
4540 Clouds 15 1025 51 10000 2.06 360 18:40 28.11.2021
4541 Clouds 15 1025 51 10000 2.06 360 18:18 28.11.2021
4542 Clouds 16 1025 44 10000 3.09 20 17:34 28.11.2021
4543 Clouds 17 1025 42 10000 6.17 20 16:48 28.11.2021
4544 Clouds 17 1025 42 10000 6.17 20 16:28 28.11.2021
4545 Clouds 17 1025 39 10000 5.14 340 15:50 28.11.2021
4546 Clouds 18 1024 36 10000 5.14 360 14:55 28.11.2021
4547 Clouds 18 1024 36 10000 5.14 360 14:28 28.11.2021
4548 Clouds 18 1024 36 10000 5.14 360 14:28 28.11.2021
4549 Clouds 17 1025 45 10000 5.14 20 12:54 28.11.2021
4550 Clouds 16 1025 48 10000 6.17 20 11:39 28.11.2021
4551 Clouds 15 1024 51 10000 4.12 20 10:34 28.11.2021
4552 Clouds 14 1023 54 10000 5.14 20 09:56 28.11.2021
4553 Clouds 14 1023 54 10000 5.14 20 09:36 28.11.2021
4554 Clouds 12 1018 66 10000 4.99 338 00:53 28.11.2021
4555 Clouds 11 1019 72 10000 3.12 290 22:58 27.11.2021
4556 Clouds 16 1016 59 10000 2.06 280 19:51 27.11.2021
4557 Clouds 16 1016 59 10000 4.12 320 18:26 27.11.2021
4558 Clouds 18 1015 48 10000 5.14 360 16:19 27.11.2021
4559 Clouds 17 1015 55 10000 4.12 360 15:32 27.11.2021
4560 Clouds 18 1016 45 10000 6.17 360 13:40 27.11.2021
4561 Clouds 16 1017 72 10000 2.06 240 12:19 27.11.2021
4562 Clouds 12 1016 94 8000 2.57 160 10:27 27.11.2021
4563 Clouds 10 1015 100 8000 2.57 180 09:18 27.11.2021
4564 Clouds 9 1014 100 8000 1.54 160 07:43 27.11.2021
4565 Clouds 8 1015 55 10000 1.57 332 04:53 27.11.2021
4566 Clouds 10 1016 56 10000 2.4 1 00:26 27.11.2021
4567 Clouds 11 1016 56 10000 3.09 358 22:51 26.11.2021
4568 Clouds 10 1016 56 10000 3.57 355 22:24 26.11.2021
4569 Clouds 11 1016 56 10000 3.57 355 21:33 26.11.2021
4570 Clouds 14 1014 72 10000 4.12 340 20:42 26.11.2021
4571 Clouds 15 1013 72 10000 2.06 260 19:56 26.11.2021
4572 Clouds 15 1013 72 10000 2.06 260 19:27 26.11.2021
4573 Clouds 16 1012 72 10000 5.14 280 17:54 26.11.2021
4574 Clouds 16 1012 72 10000 5.14 280 17:21 26.11.2021
4575 Clouds 16 1012 77 10000 4.12 280 15:29 26.11.2021
4576 Clouds 17 1013 72 10000 3.09 220 13:35 26.11.2021
4577 Clouds 15 1013 82 8000 4.12 200 11:30 26.11.2021
4578 Clouds 14 1013 94 8000 4.12 200 10:35 26.11.2021
4579 Clouds 13 1012 93 8000 0.89 180 08:56 26.11.2021
4580 Clouds 13 1012 93 8000 0.89 180 08:21 26.11.2021
4581 Clouds 12 1011 100 6000 2.06 180 07:24 26.11.2021
4582 Clouds 12 1012 74 10000 2.07 311 06:25 26.11.2021
4583 Clouds 13 1012 79 10000 2.97 298 03:54 26.11.2021
4584 Clouds 12 1013 75 10000 4.58 253 01:53 26.11.2021
4585 Clouds 13 1014 67 10000 4.78 230 22:46 25.11.2021
4586 Clouds 14 1014 64 10000 4.35 249 21:24 25.11.2021
4587 Clouds 15 1013 82 8000 3.09 260 19:55 25.11.2021
4588 Clouds 15 1013 77 8000 3.09 200 18:46 25.11.2021
4589 Clouds 15 1013 82 8000 2.06 220 17:47 25.11.2021
4590 Clouds 15 1013 82 8000 2.06 220 17:25 25.11.2021
4591 Clouds 15 1014 94 8000 4.12 260 16:30 25.11.2021
4592 Clouds 16 1014 88 8000 4.12 260 14:59 25.11.2021
4593 Clouds 18 1015 59 10000 5.14 220 13:26 25.11.2021
4594 Clouds 18 1016 59 10000 6.17 220 12:23 25.11.2021
4595 Clouds 16 1016 77 10000 4.12 200 11:48 25.11.2021
4596 Clouds 13 1016 88 10000 3.09 180 09:26 25.11.2021
4597 Clouds 12 1017 62 10000 3.22 259 05:48 25.11.2021
4598 Clouds 13 1018 68 10000 4.79 292 02:48 25.11.2021
4599 Clouds 14 1019 67 10000 4.14 300 22:55 24.11.2021
4600 Clouds 14 1019 69 10000 4.63 300 22:23 24.11.2021
4601 Clouds 15 1019 68 10000 5.16 292 21:28 24.11.2021
4602 Clouds 15 1018 88 10000 4.12 260 20:46 24.11.2021
4603 Clouds 15 1018 88 10000 4.12 260 20:19 24.11.2021
4604 Clouds 16 1017 77 10000 5.14 260 18:30 24.11.2021
4605 Clouds 17 1017 67 10000 5.14 260 17:53 24.11.2021
4606 Clouds 18 1018 72 10000 7.6 280 15:23 24.11.2021
4607 Clouds 18 1016 67 10000 4.02 260 14:47 24.11.2021
4608 Clouds 17 1017 75 10000 1.79 180 14:19 24.11.2021
4609 Clouds 15 1020 94 6000 2.06 220 12:28 24.11.2021
4610 Clouds 15 1018 85 6000 4.02 180 11:20 24.11.2021
4611 Clouds 14 1018 87 8000 4.02 180 10:47 24.11.2021
4612 Clouds 13 1020 91 8000 2.68 180 10:21 24.11.2021
4613 Clouds 12 1019 100 6000 2.06 180 07:54 24.11.2021
4614 Clouds 11 1019 59 10000 4.44 248 06:54 24.11.2021
4615 Clouds 12 1018 52 10000 4.41 283 03:51 24.11.2021
4616 Clouds 12 1019 58 10000 3.09 298 00:43 24.11.2021
4617 Clouds 14 1019 87 10000 1.79 200 22:40 23.11.2021
4618 Clouds 14 1019 87 10000 1.79 200 22:18 23.11.2021
4619 Clouds 14 1019 87 10000 1.79 200 21:44 23.11.2021
4620 Clouds 15 1017 87 8000 1.79 200 19:37 23.11.2021
4621 Clouds 15 1017 93 6000 1.79 180 18:42 23.11.2021
4622 Clouds 15 1017 93 6000 1.79 180 18:20 23.11.2021
4623 Clouds 14 1015 94 5000 4.12 360 16:58 23.11.2021
4624 Clouds 15 1015 94 6000 2.06 300 15:59 23.11.2021
4625 Clouds 15 1015 94 6000 2.06 300 15:22 23.11.2021
4626 Clouds 15 1016 100 5000 2.06 260 13:50 23.11.2021
4627 Clouds 15 1016 100 5000 5.14 260 11:42 23.11.2021
4628 Clouds 16 1016 87 8000 0.89 240 09:59 23.11.2021
4629 Clouds 16 1016 87 8000 0.89 240 09:18 23.11.2021
4630 Clouds 15 1015 78 10000 3.03 233 06:41 23.11.2021
4631 Clouds 16 1014 88 10000 1.79 300 03:51 23.11.2021
4632 Clouds 16 1014 88 10000 1.79 300 00:58 23.11.2021
4633 Clouds 15 1014 88 10000 1.79 300 23:21 22.11.2021
4634 Clouds 15 1014 88 10000 1.79 300 22:34 22.11.2021
4635 Clear 16 1014 88 10000 1.79 300 21:49 22.11.2021
4636 Clear 16 1014 88 10000 1.79 300 21:31 22.11.2021
4637 Clear 17 1014 88 10000 1.79 300 20:50 22.11.2021
4638 Clear 18 1014 77 10000 2.68 300 19:55 22.11.2021
4639 Clear 18 1014 77 10000 2.68 300 19:19 22.11.2021
4640 Clear 19 1013 72 10000 4.92 320 18:39 22.11.2021
4641 Clouds 21 1013 60 10000 4.02 300 17:20 22.11.2021
4642 Clouds 21 1014 56 10000 5.81 340 15:47 22.11.2021
4643 Clouds 21 1015 60 10000 4.02 320 13:58 22.11.2021
4644 Clouds 19 1016 68 8000 2.68 200 11:59 22.11.2021
4645 Clouds 17 1015 82 6000 2.68 180 10:41 22.11.2021
4646 Clouds 12 1015 94 8000 1.03 140 09:26 22.11.2021
4647 Clouds 11 1014 100 8000 2.06 160 08:40 22.11.2021
4648 Clouds 15 1014 93 10000 1.79 360 04:36 22.11.2021
4649 Clouds 16 1015 93 10000 1.79 360 23:26 21.11.2021
4650 Clouds 16 1015 93 10000 1.79 360 22:48 21.11.2021
4651 Clouds 17 1015 93 10000 1.79 360 21:51 21.11.2021
4652 Clouds 17 1014 93 8000 1.79 360 20:42 21.11.2021
4653 Clouds 17 1014 93 8000 1.79 360 19:46 21.11.2021
4654 Clouds 19 1014 79 8000 1.34 360 18:18 21.11.2021
4655 Clouds 19 1014 77 8000 1.34 360 17:38 21.11.2021
4656 Clouds 19 1014 72 10000 3.58 360 15:49 21.11.2021
4657 Clouds 19 1015 82 10000 3.58 360 14:45 21.11.2021
4658 Clouds 19 1016 68 10000 1.79 300 13:46 21.11.2021
4659 Clouds 19 1017 72 10000 2.24 180 12:35 21.11.2021
4660 Clouds 17 1017 77 10000 3.6 200 11:42 21.11.2021
4661 Clouds 17 1017 77 10000 3.58 200 11:23 21.11.2021
4662 Clouds 15 1017 82 8000 0.89 160 10:18 21.11.2021
4663 Clouds 13 1017 87 8000 2.24 180 08:42 21.11.2021
4664 Clouds 13 1017 87 8000 2.24 180 08:22 21.11.2021
4665 Clouds 13 1017 93 8000 2.24 180 07:43 21.11.2021
4666 Clouds 11 1017 83 10000 2.92 206 05:49 21.11.2021
4667 Clouds 12 1017 83 10000 2.88 200 05:19 21.11.2021
4668 Clouds 16 1018 82 10000 4.92 260 03:18 21.11.2021
4669 Clouds 16 1018 82 10000 4.92 260 02:50 21.11.2021
4670 Clouds 16 1018 82 10000 4.92 260 00:56 21.11.2021
4671 Clouds 16 1018 82 10000 4.92 260 23:43 20.11.2021
4672 Clouds 17 1018 82 10000 4.92 260 21:40 20.11.2021
4673 Clear 18 1018 82 10000 4.92 260 20:54 20.11.2021
4674 Clouds 18 1017 88 10000 4.92 280 18:46 20.11.2021
4675 Clouds 18 1017 88 10000 4.92 280 18:46 20.11.2021
4676 Clouds 19 1017 88 10000 4.92 280 18:26 20.11.2021
4677 Clouds 21 1017 68 10000 5.81 280 17:26 20.11.2021
4678 Clouds 20 1017 64 10000 4.02 300 16:46 20.11.2021
4679 Clouds 22 1015 53 10000 5.81 300 14:46 20.11.2021
4680 Clouds 22 1015 53 10000 5.81 300 14:23 20.11.2021
4681 Clouds 21 1019 56 10000 4.92 200 12:22 20.11.2021
4682 Clear 18 1019 72 10000 4.92 180 10:35 20.11.2021
4683 Clear 15 1018 82 10000 1.79 140 09:39 20.11.2021
4684 Clear 15 1018 82 10000 7.15 180 07:28 20.11.2021
4685 Clear 13 1017 75 10000 4.58 206 05:27 20.11.2021
4686 Clear 16 1018 88 10000 8.05 240 04:50 20.11.2021
4687 Clear 17 1018 88 10000 8.05 240 01:55 20.11.2021
4688 Clouds 17 1019 88 10000 8.05 240 00:40 20.11.2021
4689 Clouds 17 1018 88 10000 8.05 240 22:58 19.11.2021
4690 Clouds 17 1017 88 10000 8.05 240 21:58 19.11.2021
4691 Clouds 18 1016 88 8000 8.05 240 20:58 19.11.2021
4692 Clouds 18 1016 88 8000 8.05 240 20:36 19.11.2021
4693 Clouds 18 1015 93 8000 2.68 280 19:50 19.11.2021
4694 Clouds 19 1015 82 8000 7.15 270 18:54 19.11.2021
4695 Clouds 19 1016 82 8000 7.15 270 18:23 19.11.2021
4696 Clouds 20 1016 72 8000 4.92 290 17:31 19.11.2021
4697 Clouds 22 1015 64 8000 4.92 280 15:51 19.11.2021
4698 Clouds 21 1016 60 8000 4.02 300 13:28 19.11.2021
4699 Clouds 17 1014 72 6000 4.02 180 10:27 19.11.2021
4700 Clouds 14 1013 82 6000 3.09 180 09:37 19.11.2021
4701 Mist 13 1013 88 3000 2.06 200 08:20 19.11.2021
4702 Clouds 16 1013 82 10000 2.24 20 04:51 19.11.2021
4703 Clouds 16 1013 82 10000 2.24 20 02:35 19.11.2021
4704 Clouds 16 1013 82 10000 2.24 20 23:51 18.11.2021
4705 Clear 16 1013 82 10000 2.24 20 21:56 18.11.2021
4706 Clear 16 1013 82 5000 2.57 20 20:49 18.11.2021
4707 Clear 16 1013 82 5000 2.57 20 20:31 18.11.2021
4708 Clear 17 1013 82 6000 2.57 20 19:52 18.11.2021
4709 Clear 17 1013 82 6000 2.57 20 19:33 18.11.2021
4710 Clear 19 1012 72 6000 4.02 20 18:33 18.11.2021
4711 Clear 21 1012 52 10000 2.24 40 17:51 18.11.2021
4712 Clear 20 1012 52 6000 2.24 40 16:44 18.11.2021
4713 Clear 21 1012 49 6000 4.47 20 15:46 18.11.2021
4714 Clear 20 1013 56 6000 2.68 320 13:40 18.11.2021
4715 Clear 19 1014 55 6000 1.34 60 12:34 18.11.2021
4716 Clear 18 1014 63 5000 2.06 200 11:43 18.11.2021
4717 Clear 17 1014 63 5000 1.79 200 11:24 18.11.2021
4718 Mist 9 1014 93 3000 1.54 160 09:44 18.11.2021
4719 Mist 8 1013 100 3000 1.03 160 07:35 18.11.2021
4720 Clear 7 1013 71 10000 1.38 124 05:57 18.11.2021
4721 Clear 7 1013 71 10000 1.38 124 05:38 18.11.2021
4722 Clear 15 1013 82 10000 1.79 40 01:24 18.11.2021
4723 Clear 15 1013 82 10000 1.79 40 01:24 18.11.2021
4724 Clear 15 1013 82 10000 1.79 40 23:19 17.11.2021
4725 Clear 16 1013 82 10000 1.79 40 22:21 17.11.2021
4726 Clear 16 1013 82 10000 1.79 40 21:53 17.11.2021
4727 Clear 16 1013 82 10000 1.79 40 21:34 17.11.2021
4728 Clear 18 1012 72 10000 4.02 360 18:47 17.11.2021
4729 Clear 19 1012 63 10000 4.92 360 17:28 17.11.2021
4730 Clear 21 1014 64 10000 4.92 320 14:52 17.11.2021
4731 Clouds 19 1015 63 8000 2.68 320 12:42 17.11.2021
4732 Clear 18 1015 67 6000 1.79 180 11:52 17.11.2021
4733 Clear 15 1015 77 6000 3.09 180 10:50 17.11.2021
4734 Mist 10 1014 93 4000 2.06 160 09:27 17.11.2021
4735 Clear 9 1014 100 6000 2.06 180 07:45 17.11.2021
4736 Clear 7 1013 76 10000 1.21 153 06:20 17.11.2021
4737 Clear 15 1014 82 10000 0.89 360 02:43 17.11.2021
4738 Clouds 16 1014 82 10000 0.89 360 23:27 16.11.2021
4739 Clouds 15 1014 82 10000 0.89 360 21:51 16.11.2021
4740 Clouds 16 1014 82 10000 0.89 360 20:19 16.11.2021
4741 Clouds 17 1013 77 10000 2.68 320 19:23 16.11.2021
4742 Clouds 18 1013 63 10000 2.68 300 18:38 16.11.2021
4743 Clouds 19 1013 55 10000 4.92 360 17:44 16.11.2021
4744 Clouds 20 1014 55 10000 7.15 340 16:59 16.11.2021
4745 Clouds 20 1014 55 10000 7.15 340 16:19 16.11.2021
4746 Clouds 21 1014 52 10000 4.92 40 15:41 16.11.2021
4747 Clouds 19 1016 59 10000 0.89 160 12:43 16.11.2021
4748 Clear 14 1016 82 6000 4.02 180 10:21 16.11.2021
4749 Mist 10 1016 100 4000 5.14 180 09:38 16.11.2021
4750 Mist 9 1015 100 4000 3.09 180 07:41 16.11.2021
4751 Clear 9 1015 74 10000 0.8 218 06:43 16.11.2021
4752 Clear 17 1018 100 10000 1.79 280 23:26 15.11.2021
4753 Clear 16 1018 100 10000 1.79 280 22:40 15.11.2021
4754 Clear 16 1018 100 10000 1.79 280 21:56 15.11.2021
4755 Clear 16 1018 100 10000 1.79 280 21:30 15.11.2021
4756 Clouds 17 1018 100 6000 1.79 280 20:32 15.11.2021
4757 Clear 20 1017 77 10000 4.02 340 18:54 15.11.2021
4758 Clear 21 1017 73 10000 2.68 340 17:31 15.11.2021
4759 Clouds 22 1019 68 10000 2.68 310 15:50 15.11.2021
4760 Clouds 23 1019 68 10000 2.68 310 15:32 15.11.2021
4761 Clouds 22 1019 64 8000 4.02 340 14:18 15.11.2021
4762 Clouds 21 1020 77 6000 1.79 280 12:21 15.11.2021
4763 Mist 12 1019 100 2000 4.12 180 09:31 15.11.2021
4764 Fog 10 1019 100 400 2.06 100 08:57 15.11.2021
4765 Clear 9 1018 72 10000 1.22 177 06:54 15.11.2021
4766 Clear 16 1016 93 10000 1.79 340 00:37 15.11.2021
4767 Clear 16 1016 93 10000 1.79 340 22:44 14.11.2021
4768 Clouds 16 1016 93 10000 1.79 340 21:18 14.11.2021
4769 Mist 16 1016 100 3000 3.09 320 19:18 14.11.2021
4770 Mist 17 1015 93 3000 2.68 320 18:54 14.11.2021
4771 Mist 17 1015 93 3000 2.68 320 18:36 14.11.2021
4772 Mist 18 1015 93 3000 2.68 320 18:18 14.11.2021
4773 Fog 18 1015 100 300 4.02 320 17:58 14.11.2021
4774 Fog 18 1015 100 300 4.02 320 17:39 14.11.2021
4775 Fog 19 1015 100 300 4.12 320 17:21 14.11.2021
4776 Clouds 20 1015 82 10000 2.68 320 16:57 14.11.2021
4777 Clouds 20 1016 82 10000 2.68 320 16:39 14.11.2021
4778 Clouds 19 1015 82 10000 2.68 320 16:18 14.11.2021
4779 Clouds 22 1015 73 10000 5.81 320 15:19 14.11.2021
4780 Clear 22 1015 73 10000 4.02 20 14:43 14.11.2021
4781 Clear 22 1015 73 10000 4.02 20 14:20 14.11.2021
4782 Clear 22 1015 68 10000 2.68 300 13:51 14.11.2021
4783 Clear 22 1015 68 10000 2.68 300 13:26 14.11.2021
4784 Clear 21 1016 73 10000 4.02 240 12:22 14.11.2021
4785 Clouds 16 1015 88 6000 2.06 180 10:54 14.11.2021
4786 Clouds 15 1015 87 6000 1.79 180 10:31 14.11.2021
4787 Clouds 11 1015 93 6000 2.06 120 09:26 14.11.2021
4788 Clouds 9 1014 93 6000 1.03 140 08:51 14.11.2021
4789 Clear 15 1014 82 10000 0.89 340 04:46 14.11.2021
4790 Clear 15 1014 82 10000 0.89 340 22:31 13.11.2021
4791 Clear 16 1014 82 10000 0.89 340 21:59 13.11.2021
4792 Clear 16 1014 82 10000 0.89 340 21:30 13.11.2021
4793 Clear 16 1014 82 10000 0.89 340 20:43 13.11.2021
4794 Clear 18 1013 72 10000 5.36 20 18:54 13.11.2021
4795 Clear 18 1013 72 10000 5.36 20 18:32 13.11.2021
4796 Clear 19 1013 72 10000 6.71 20 17:34 13.11.2021
4797 Clear 21 1013 72 10000 7.15 20 15:45 13.11.2021
4798 Clear 20 1013 68 10000 5.81 20 14:41 13.11.2021
4799 Clouds 20 1014 68 8000 4.02 20 13:47 13.11.2021
4800 Clouds 19 1015 77 7000 4.02 60 12:43 13.11.2021
4801 Clouds 17 1015 88 6000 1.79 80 11:46 13.11.2021
4802 Clouds 17 1015 88 6000 1.79 80 11:18 13.11.2021
4803 Mist 15 1015 93 2000 1.79 120 10:32 13.11.2021
4804 Fog 12 1014 100 200 2.06 160 09:43 13.11.2021
4805 Fog 12 1014 100 200 2.06 160 09:22 13.11.2021
4806 Fog 13 1014 100 200 2.06 200 08:42 13.11.2021
4807 Mist 13 1014 100 3000 1.03 0 07:26 13.11.2021
4808 Clouds 15 1015 87 10000 2.24 20 04:40 13.11.2021
4809 Clouds 16 1015 87 10000 2.24 20 02:42 13.11.2021
4810 Clouds 15 1015 87 10000 2.24 20 23:35 12.11.2021
4811 Clouds 16 1015 87 10000 2.24 20 21:54 12.11.2021
4812 Clouds 16 1015 87 10000 2.24 20 20:46 12.11.2021
4813 Clouds 17 1014 88 10000 2.68 20 19:32 12.11.2021
4814 Clouds 18 1014 77 10000 3.58 20 18:57 12.11.2021
4815 Clouds 18 1014 77 10000 3.58 20 18:18 12.11.2021
4816 Clouds 18 1014 77 10000 3.58 20 18:18 12.11.2021
4817 Clouds 21 1014 60 10000 7.15 360 15:54 12.11.2021
4818 Clouds 21 1016 56 10000 1.79 40 13:27 12.11.2021
4819 Clear 19 1017 63 8000 2.68 80 11:24 12.11.2021
4820 Clear 19 1017 63 8000 2.68 80 11:24 12.11.2021
4821 Clouds 13 1017 82 8000 2.06 200 09:55 12.11.2021
4822 Clouds 10 1017 87 10000 1.54 180 08:55 12.11.2021
4823 Clear 9 1016 80 10000 1.2 109 06:37 12.11.2021
4824 Clear 16 1018 93 10000 1.79 40 00:21 12.11.2021
4825 Clouds 17 1018 93 10000 1.79 40 23:27 11.11.2021
4826 Clouds 17 1018 93 10000 1.79 40 21:57 11.11.2021
4827 Clouds 17 1018 93 10000 1.79 40 21:26 11.11.2021
4828 Clouds 17 1018 93 10000 1.79 60 19:56 11.11.2021
4829 Clear 19 1017 88 10000 2.68 40 18:27 11.11.2021
4830 Clear 19 1017 88 10000 2.68 40 18:27 11.11.2021
4831 Clear 19 1017 82 10000 5.81 20 17:41 11.11.2021
4832 Clear 20 1017 64 10000 5.81 20 15:29 11.11.2021
4833 Clear 21 1018 56 10000 4.92 20 14:39 11.11.2021
4834 Clear 21 1018 56 10000 4.92 20 14:21 11.11.2021
4835 Clear 22 1018 46 10000 4.02 20 13:35 11.11.2021
4836 Clear 21 1019 56 8000 4.02 20 12:27 11.11.2021
4837 Mist 11 1019 100 4000 2.06 180 09:58 11.11.2021
4838 Mist 11 1019 100 4000 2.06 180 09:22 11.11.2021
4839 Clear 7 1018 71 10000 1.8 76 06:55 11.11.2021
4840 Clear 15 1017 93 10000 1.79 20 00:38 11.11.2021
4841 Clear 15 1017 93 10000 1.79 20 22:42 10.11.2021
4842 Clear 16 1017 93 10000 1.79 20 21:53 10.11.2021
4843 Clouds 16 1017 93 10000 1.79 20 20:55 10.11.2021
4844 Clouds 16 1017 93 10000 1.79 20 20:18 10.11.2021
4845 Clouds 17 1017 88 10000 1.79 20 19:39 10.11.2021
4846 Clouds 21 1016 68 10000 4.92 20 17:22 10.11.2021
4847 Clouds 23 1016 56 10000 4.92 40 15:46 10.11.2021
4848 Clouds 22 1016 53 10000 2.68 20 14:24 10.11.2021
4849 Clouds 22 1017 53 8000 4.92 40 13:36 10.11.2021
4850 Clear 21 1018 60 8000 1.79 100 12:23 10.11.2021
4851 Clouds 11 1018 82 6000 3.09 180 09:21 10.11.2021
4852 Mist 10 1017 93 4000 2.06 160 08:41 10.11.2021
4853 Clear 7 1016 71 10000 2.14 160 06:45 10.11.2021
4854 Clear 7 1016 72 10000 1.83 164 05:58 10.11.2021
4855 Clear 15 1016 72 10000 0.89 360 01:57 10.11.2021
4856 Clouds 15 1016 72 10000 0.89 360 22:29 09.11.2021
4857 Clear 16 1016 72 10000 0.89 360 20:43 09.11.2021
4858 Clear 17 1016 67 10000 1.34 340 19:33 09.11.2021
4859 Clear 19 1016 59 10000 3.58 360 18:49 09.11.2021
4860 Clear 21 1016 49 10000 5.36 360 16:54 09.11.2021
4861 Clear 21 1016 43 10000 5.36 340 15:36 09.11.2021
4862 Clear 21 1017 43 10000 1.03 0 13:50 09.11.2021
4863 Clear 20 1018 49 10000 1.03 0 12:47 09.11.2021
4864 Clear 16 1018 54 8000 1.79 160 10:58 09.11.2021
4865 Clear 11 1018 62 8000 2.06 140 09:59 09.11.2021
4866 Clear 11 1018 62 8000 2.06 140 09:21 09.11.2021
4867 Clear 4 1018 59 10000 0.73 107 07:52 09.11.2021
4868 Clear 14 1019 71 10000 1.44 124 02:37 09.11.2021
4869 Clear 14 1019 71 10000 1.73 123 01:51 09.11.2021
4870 Clear 14 1019 71 10000 1.9 103 00:39 09.11.2021
4871 Clear 14 1019 71 10000 2.23 85 23:31 08.11.2021
4872 Clear 14 1019 71 10000 2.24 66 22:45 08.11.2021
4873 Clear 14 1019 71 10000 2.18 51 21:45 08.11.2021
4874 Clear 15 1019 72 10000 0 0 20:34 08.11.2021
4875 Clear 16 1019 63 10000 0.89 40 19:27 08.11.2021
4876 Clear 19 1018 52 10000 4.02 360 17:44 08.11.2021
4877 Clear 20 1018 45 10000 4.92 320 15:56 08.11.2021
4878 Clear 20 1019 45 10000 4.02 300 14:56 08.11.2021
4879 Clear 20 1019 45 10000 4.02 300 14:25 08.11.2021
4880 Clear 19 1020 48 10000 2.24 40 12:59 08.11.2021
4881 Clouds 17 1020 45 10000 3.58 180 11:55 08.11.2021
4882 Clear 14 1020 58 8000 3.09 180 10:49 08.11.2021
4883 Clear 7 1020 81 10000 1.03 160 08:58 08.11.2021
4884 Clear 7 1020 81 10000 1.03 160 08:19 08.11.2021
4885 Clear 4 1019 59 10000 0.74 50 06:56 08.11.2021
4886 Clear 14 1020 62 10000 2.24 20 03:35 08.11.2021
4887 Clear 14 1020 62 10000 2.24 20 01:24 08.11.2021
4888 Clear 13 1020 62 10000 2.24 20 22:58 07.11.2021
4889 Clear 15 1020 62 10000 2.24 20 21:25 07.11.2021
4890 Clear 15 1020 62 10000 2.24 20 20:25 07.11.2021
4891 Clear 17 1019 51 10000 5.36 20 18:47 07.11.2021
4892 Clear 19 1019 34 10000 7.15 40 17:43 07.11.2021
4893 Clear 20 1019 32 10000 5.36 20 16:26 07.11.2021
4894 Clear 19 1019 32 10000 5.36 20 15:25 07.11.2021
4895 Clear 20 1020 29 10000 7.6 20 14:27 07.11.2021
4896 Clear 19 1021 34 10000 4.92 20 12:50 07.11.2021
4897 Clear 17 1021 39 10000 2.68 40 11:41 07.11.2021
4898 Clear 8 1021 71 10000 2.06 180 08:59 07.11.2021
4899 Clear 15 1020 48 10000 4.92 20 02:58 07.11.2021
4900 Clear 15 1020 48 10000 4.92 20 02:25 07.11.2021
4901 Clear 16 1020 48 10000 4.92 20 22:56 06.11.2021
4902 Clear 15 1020 48 10000 4.92 20 21:59 06.11.2021
4903 Clear 15 1019 48 10000 4.92 20 21:22 06.11.2021
4904 Clouds 16 1019 48 10000 4.92 20 20:29 06.11.2021
4905 Clouds 19 1019 42 10000 8.05 20 17:32 06.11.2021
4906 Clouds 19 1018 45 10000 8.05 40 16:35 06.11.2021
4907 Clouds 19 1021 39 10000 5.81 20 13:45 06.11.2021
4908 Clouds 19 1022 45 10000 4.92 20 12:58 06.11.2021
4909 Clouds 18 1021 42 10000 4.02 100 11:24 06.11.2021
4910 Clouds 11 1021 66 10000 2.06 160 09:20 06.11.2021
4911 Clear 16 1020 45 10000 5.81 40 04:52 06.11.2021
4912 Clear 16 1020 45 10000 5.81 40 00:43 06.11.2021
4913 Clear 17 1020 45 10000 5.81 40 23:31 05.11.2021
4914 Clear 16 1020 45 10000 5.81 40 22:33 05.11.2021
4915 Clear 16 1020 45 10000 5.81 40 20:41 05.11.2021
4916 Clear 17 1020 45 10000 5.81 40 20:18 05.11.2021
4917 Clouds 18 1019 45 10000 2.68 20 18:56 05.11.2021
4918 Clouds 18 1019 45 10000 2.68 20 18:37 05.11.2021
4919 Clouds 19 1019 52 10000 4.92 60 16:49 05.11.2021
4920 Clouds 20 1020 49 10000 7.15 20 14:41 05.11.2021
4921 Clouds 19 1021 52 10000 2.68 40 12:50 05.11.2021
4922 Clouds 13 1020 76 10000 3.09 180 09:51 05.11.2021
4923 Clouds 11 1019 82 10000 1.03 160 08:38 05.11.2021
4924 Clear 8 1019 63 10000 2.98 87 06:40 05.11.2021
4925 Clear 15 1018 63 10000 3.58 40 04:42 05.11.2021
4926 Clear 15 1018 63 10000 3.58 40 02:22 05.11.2021
4927 Clear 15 1017 63 10000 3.58 40 00:30 05.11.2021
4928 Clear 15 1018 63 10000 3.58 40 22:37 04.11.2021
4929 Clear 15 1018 63 10000 3.58 40 22:18 04.11.2021
4930 Clear 16 1018 63 10000 3.58 40 21:28 04.11.2021
4931 Clouds 16 1018 63 10000 3.58 40 20:29 04.11.2021
4932 Clouds 17 1017 59 10000 4.02 20 19:49 04.11.2021
4933 Clouds 17 1017 59 10000 4.02 20 19:28 04.11.2021
4934 Clouds 18 1017 59 10000 5.16 21 18:30 04.11.2021
4935 Clouds 19 1016 61 10000 3.58 40 17:27 04.11.2021
4936 Clouds 19 1016 55 10000 3.58 40 16:23 04.11.2021
4937 Clouds 19 1017 68 10000 5.14 60 13:50 04.11.2021
4938 Clouds 18 1017 82 8000 0.89 80 10:52 04.11.2021
4939 Clouds 15 1016 93 8000 0.89 200 08:48 04.11.2021
4940 Clouds 15 1016 93 8000 0.89 200 08:25 04.11.2021
4941 Clouds 16 1015 88 8000 2.57 220 07:33 04.11.2021
4942 Clouds 18 1018 68 10000 4.02 20 23:23 03.11.2021
4943 Clouds 18 1015 68 10000 4.02 20 22:29 03.11.2021
4944 Clouds 18 1015 68 10000 4.02 20 21:37 03.11.2021
4945 Clouds 19 1015 68 10000 4.02 20 20:44 03.11.2021
4946 Clouds 19 1015 68 10000 4.02 20 20:26 03.11.2021
4947 Clouds 20 1015 64 10000 4.92 20 19:37 03.11.2021
4948 Clouds 21 1014 56 10000 4.92 360 18:27 03.11.2021
4949 Clouds 21 1014 56 10000 4.92 360 18:27 03.11.2021
4950 Clouds 21 1014 60 10000 5.14 20 17:48 03.11.2021
4951 Clouds 22 1014 56 10000 7.2 340 16:49 03.11.2021
4952 Clouds 22 1015 64 10000 4.12 340 15:49 03.11.2021
4953 Clouds 22 1015 64 10000 4.12 340 15:30 03.11.2021
4954 Clouds 22 1015 64 10000 4.12 340 15:30 03.11.2021
4955 Clouds 22 1016 68 10000 5.14 360 13:42 03.11.2021
4956 Clouds 21 1017 83 8000 4.12 320 11:37 03.11.2021
4957 Clouds 20 1017 88 8000 2.06 340 10:50 03.11.2021
4958 Clouds 20 1016 94 6000 6.17 340 09:47 03.11.2021
4959 Clouds 19 1016 100 5000 4.92 260 08:53 03.11.2021
4960 Mist 19 1015 100 4000 2.06 220 07:55 03.11.2021
4961 Mist 19 1015 100 4000 2.06 220 07:32 03.11.2021
4962 Clouds 20 1015 89 10000 3.81 252 04:23 03.11.2021
4963 Clouds 20 1016 89 10000 3.14 271 00:58 03.11.2021
4964 Clouds 21 1017 91 10000 2.8 269 23:24 02.11.2021
4965 Clouds 20 1017 91 10000 3.27 272 21:59 02.11.2021
4966 Clouds 21 1017 88 10000 3.09 280 20:43 02.11.2021
4967 Clouds 21 1017 94 10000 3.09 300 19:58 02.11.2021
4968 Clouds 21 1017 94 10000 3.09 300 19:27 02.11.2021
4969 Clouds 23 1017 83 10000 5.14 300 18:35 02.11.2021
4970 Clouds 24 1016 69 10000 5.14 300 17:46 02.11.2021
4971 Clouds 24 1016 69 10000 5.14 300 17:21 02.11.2021
4972 Clouds 25 1017 69 10000 8.23 320 15:58 02.11.2021
4973 Clouds 25 1017 73 10000 4.02 320 14:57 02.11.2021
4974 Clouds 25 1018 73 8000 4.02 280 13:30 02.11.2021
4975 Clouds 24 1019 83 8000 7.15 320 12:52 02.11.2021
4976 Clouds 23 1019 88 6000 4.12 180 11:40 02.11.2021
4977 Clouds 22 1019 94 6000 1.03 0 10:59 02.11.2021
4978 Clouds 22 1019 94 6000 1.03 0 10:32 02.11.2021
4979 Mist 20 1020 93 4000 1.03 0 09:45 02.11.2021
4980 Clouds 20 1018 94 6000 1.03 0 07:46 02.11.2021
4981 Clouds 20 1018 95 10000 0.8 305 05:55 02.11.2021
4982 Clouds 21 1018 94 10000 0.9 338 03:24 02.11.2021
4983 Clear 22 1020 91 10000 1.69 349 23:58 01.11.2021
4984 Clear 22 1020 89 10000 1.33 334 21:57 01.11.2021
4985 Clouds 22 1020 94 10000 2.06 340 20:45 01.11.2021
4986 Clouds 22 1020 94 10000 2.06 340 20:19 01.11.2021
4987 Clouds 22 1020 88 10000 1.79 320 19:41 01.11.2021
4988 Clouds 23 1020 83 10000 1.79 320 18:34 01.11.2021
4989 Clouds 24 1020 83 10000 4.02 320 17:49 01.11.2021
4990 Clouds 25 1020 73 10000 7.15 320 16:57 01.11.2021
4991 Clouds 25 1020 73 10000 7.15 320 16:23 01.11.2021
4992 Clouds 26 1020 65 10000 4.02 340 15:37 01.11.2021
4993 Clouds 26 1020 65 10000 4.02 340 15:18 01.11.2021
4994 Clouds 26 1020 69 10000 4.92 320 14:37 01.11.2021
4995 Clouds 26 1020 69 10000 4.92 320 14:18 01.11.2021
4996 Clouds 25 1022 65 8000 0.89 320 12:38 01.11.2021
4997 Clouds 23 1022 73 6000 2.06 280 11:34 01.11.2021
4998 Clouds 21 1022 80 6000 2.68 180 10:20 01.11.2021
4999 Mist 19 1021 88 3000 4.02 180 08:18 01.11.2021
5000 Mist 18 1021 93 3000 1.79 160 07:46 01.11.2021
5001 Clouds 19 1021 93 10000 1.79 320 03:51 01.11.2021
5002 Clouds 18 1021 93 10000 1.79 320 01:44 01.11.2021
5003 Clouds 19 1021 93 10000 1.79 320 23:18 31.10.2021
5004 Clear 20 1021 93 10000 1.79 320 20:51 31.10.2021
5005 Clear 20 1021 88 10000 2.68 183 19:22 31.10.2021
5006 Clear 22 1021 78 10000 4.02 340 18:42 31.10.2021
5007 Clear 24 1021 69 10000 4.02 360 17:54 31.10.2021
5008 Clear 25 1021 64 10000 4.92 340 16:25 31.10.2021
5009 Clear 25 1022 64 10000 5.81 320 14:39 31.10.2021
5010 Clear 25 1023 60 10000 1.79 240 12:54 31.10.2021
5011 Clear 22 1023 73 10000 1.79 220 11:42 31.10.2021
5012 Clouds 19 1023 82 6000 3.09 180 10:47 31.10.2021
5013 Mist 16 1023 82 3000 3.09 180 09:23 31.10.2021
5014 Mist 16 1022 94 3000 3.09 180 08:41 31.10.2021
5015 Clouds 18 1020 88 10000 4.02 280 02:19 31.10.2021
5016 Clouds 19 1020 88 10000 4.02 280 23:41 30.10.2021
5017 Clouds 20 1020 88 6000 4.02 280 21:36 30.10.2021
5018 Clouds 21 1019 88 10000 2.68 260 20:52 30.10.2021
5019 Clear 22 1019 83 10000 4.92 300 19:19 30.10.2021
5020 Clear 24 1019 69 10000 5.81 260 17:42 30.10.2021
5021 Clear 25 1019 64 10000 8.05 300 15:26 30.10.2021
5022 Clear 26 1019 36 10000 4.02 260 13:40 30.10.2021
5023 Clear 26 1019 36 10000 4.02 260 13:21 30.10.2021
5024 Clouds 23 1020 60 8000 4.02 180 12:57 30.10.2021
5025 Clouds 20 1020 82 6000 4.02 200 11:46 30.10.2021
5026 Mist 15 1019 100 2000 6.17 180 10:32 30.10.2021
5027 Fog 15 1018 100 300 4.92 180 08:54 30.10.2021
5028 Clouds 15 1018 70 10000 3.72 218 07:42 30.10.2021
5029 Clouds 17 1017 82 10000 2.68 260 05:44 30.10.2021
5030 Clouds 18 1017 82 10000 2.68 260 01:37 30.10.2021
5031 Clouds 18 1017 82 10000 2.68 260 22:54 29.10.2021
5032 Clouds 18 1017 82 10000 2.68 260 22:32 29.10.2021
5033 Clear 20 1017 77 10000 2.68 300 20:47 29.10.2021
5034 Clear 20 1017 77 10000 2.68 300 20:26 29.10.2021
5035 Clear 23 1016 60 10000 4.92 300 18:38 29.10.2021
5036 Clear 24 1017 56 10000 8.05 320 17:24 29.10.2021
5037 Clear 24 1017 57 10000 4.92 300 15:21 29.10.2021
5038 Clouds 21 1019 77 6000 0.89 180 12:26 29.10.2021
5039 Clouds 16 1018 100 3000 2.06 160 10:46 29.10.2021
5040 Mist 16 1017 93 3000 1.79 160 08:47 29.10.2021
5041 Clouds 16 1016 84 10000 2.8 245 00:46 29.10.2021
5042 Clouds 15 1017 82 10000 2.56 251 23:41 28.10.2021
5043 Clear 18 1016 77 10000 1.97 283 22:20 28.10.2021
5044 Clouds 20 1013 82 8000 1.03 0 20:57 28.10.2021
5045 Clouds 22 1015 78 10000 2.68 320 19:52 28.10.2021
5046 Clouds 23 1015 73 10000 4.92 340 18:30 28.10.2021
5047 Clouds 24 1015 73 8000 4.92 340 17:19 28.10.2021
5048 Clear 24 1016 69 10000 4.02 300 16:20 28.10.2021
5049 Clear 25 1016 64 8000 4.47 300 14:39 28.10.2021
5050 Clear 24 1016 69 5000 4.92 340 13:29 28.10.2021
5051 Clear 22 1017 77 5000 1.34 320 12:44 28.10.2021
5052 Mist 19 1016 88 3000 1.79 180 11:19 28.10.2021
5053 Mist 13 1015 94 3000 1.03 160 09:40 28.10.2021
5054 Mist 13 1015 94 3000 1.03 160 09:22 28.10.2021
5055 Mist 13 1015 100 3000 1.54 140 08:35 28.10.2021
5056 Clear 12 1015 75 10000 1.22 149 07:40 28.10.2021
5057 Clear 18 1016 100 10000 1.34 20 00:40 28.10.2021
5058 Clear 19 1016 100 10000 1.34 20 22:45 27.10.2021
5059 Clouds 19 1016 100 10000 1.34 20 21:35 27.10.2021
5060 Clouds 20 1015 88 10000 2.68 20 20:58 27.10.2021
5061 Clouds 20 1015 88 10000 2.68 20 20:39 27.10.2021
5062 Clouds 21 1015 88 10000 4.92 340 19:44 27.10.2021
5063 Clouds 22 1015 83 10000 4.92 360 18:55 27.10.2021
5064 Clear 23 1015 73 10000 7.15 360 16:49 27.10.2021
5065 Clear 23 1015 73 10000 7.15 360 16:24 27.10.2021
5066 Clear 24 1015 73 10000 4.92 340 15:24 27.10.2021
5067 Clear 24 1016 57 8000 2.68 320 14:19 27.10.2021
5068 Mist 17 1014 93 2000 4.02 180 11:18 27.10.2021
5069 Fog 15 1017 100 800 3.09 180 10:36 27.10.2021
5070 Fog 15 1014 100 600 1.79 160 08:58 27.10.2021
5071 Clear 15 1015 83 10000 2.02 177 07:39 27.10.2021
5072 Clear 15 1015 84 10000 1.73 171 05:37 27.10.2021
5073 Clear 16 1016 82 10000 0.97 152 01:21 27.10.2021
5074 Clear 16 1016 82 10000 0.97 152 00:39 27.10.2021
5075 Clear 17 1016 81 10000 0.22 245 23:52 26.10.2021
5076 Clear 17 1016 80 10000 1.06 288 22:44 26.10.2021
5077 Clear 18 1016 80 10000 1.52 285 22:21 26.10.2021
5078 Clouds 20 1016 82 8000 4.92 340 21:32 26.10.2021
5079 Clouds 21 1015 77 10000 5.81 320 19:34 26.10.2021
5080 Clouds 22 1015 73 10000 4.02 300 18:54 26.10.2021
5081 Clouds 22 1015 73 10000 4.02 300 18:54 26.10.2021
5082 Clouds 23 1015 69 10000 8.05 320 17:45 26.10.2021
5083 Clouds 23 1016 69 10000 7.15 320 15:46 26.10.2021
5084 Clouds 22 1018 73 6000 4.92 340 12:33 26.10.2021
5085 Clouds 20 1018 88 8000 2.68 300 10:48 26.10.2021
5086 Clouds 17 1016 81 10000 3.82 354 08:24 26.10.2021
5087 Clouds 17 1016 81 10000 4.17 3 07:22 26.10.2021
5088 Clouds 18 1018 93 10000 1.34 340 00:19 26.10.2021
5089 Clouds 19 1017 93 10000 1.34 340 23:28 25.10.2021
5090 Clouds 19 1017 93 10000 1.34 340 22:28 25.10.2021
5091 Clouds 19 1017 93 6000 1.34 340 21:42 25.10.2021
5092 Clouds 20 1016 88 6000 2.24 20 20:28 25.10.2021
5093 Clouds 22 1016 73 8000 2.57 20 19:43 25.10.2021
5094 Clouds 22 1016 73 8000 2.57 20 19:22 25.10.2021
5095 Clouds 23 1016 73 10000 3.6 20 18:38 25.10.2021
5096 Clouds 24 1016 73 10000 4.02 320 17:26 25.10.2021
5097 Clouds 23 1017 69 8000 4.02 360 14:48 25.10.2021
5098 Mist 20 1018 88 3000 0.89 220 12:31 25.10.2021
5099 Mist 17 1018 94 3000 0 0 10:46 25.10.2021
5100 Mist 16 1017 94 3000 1.03 120 08:58 25.10.2021
5101 Clouds 13 1017 74 10000 1.14 3 06:28 25.10.2021
5102 Clouds 13 1017 74 10000 1.14 3 06:28 25.10.2021
5103 Clouds 13 1017 74 10000 1.14 3 06:28 25.10.2021
5104 Clouds 19 1019 82 10000 1.34 360 04:35 25.10.2021
5105 Clouds 19 1019 82 10000 1.34 360 00:51 25.10.2021
5106 Clouds 19 1019 82 10000 1.34 360 00:33 25.10.2021
5107 Clouds 18 1019 82 10000 1.34 360 23:33 24.10.2021
5108 Clouds 19 1019 82 10000 1.34 360 22:38 24.10.2021
5109 Clouds 19 1019 82 10000 1.34 360 22:19 24.10.2021
5110 Clear 20 1018 77 10000 1.79 360 20:57 24.10.2021
5111 Clear 20 1018 77 10000 1.79 360 20:32 24.10.2021
5112 Clear 22 1018 56 10000 4.02 20 19:39 24.10.2021
5113 Clear 23 1018 56 10000 2.68 20 18:29 24.10.2021
5114 Clouds 24 1018 56 10000 5.81 20 17:44 24.10.2021
5115 Clear 24 1019 64 10000 5.81 360 15:56 24.10.2021
5116 Clear 22 1019 68 10000 4.92 20 14:41 24.10.2021
5117 Clouds 21 1023 64 6000 0.89 260 12:58 24.10.2021
5118 Clouds 19 1019 77 6000 2.06 180 11:45 24.10.2021
5119 Clouds 18 1019 77 6000 1.79 180 11:25 24.10.2021
5120 Mist 15 1019 82 4000 2.57 180 10:27 24.10.2021
5121 Clouds 10 1017 78 10000 1.58 85 07:51 24.10.2021
5122 Clear 19 1018 82 10000 4.92 40 01:22 24.10.2021
5123 Clear 18 1018 82 10000 4.92 40 23:48 23.10.2021
5124 Clear 19 1018 82 10000 4.92 40 22:18 23.10.2021
5125 Clear 19 1018 72 10000 4.92 40 20:37 23.10.2021
5126 Clear 21 1017 68 10000 7.15 20 18:59 23.10.2021
5127 Clear 21 1017 68 10000 7.15 20 18:29 23.10.2021
5128 Clear 21 1017 60 10000 4.92 40 17:43 23.10.2021
5129 Clear 22 1018 56 10000 4.92 20 16:24 23.10.2021
5130 Clear 21 1018 56 10000 5.36 40 14:32 23.10.2021
5131 Clear 17 1019 59 10000 4.02 360 03:34 23.10.2021
5132 Clear 18 1019 59 10000 4.02 360 00:19 23.10.2021
5133 Clear 18 1019 59 10000 4.02 360 22:53 22.10.2021
5134 Clouds 19 1018 63 10000 5.81 360 20:37 22.10.2021
5135 Clouds 21 1018 56 10000 7.15 360 18:45 22.10.2021
5136 Clouds 21 1018 56 10000 7.15 340 17:43 22.10.2021
5137 Clouds 22 1019 56 10000 4.92 20 15:26 22.10.2021
5138 Clouds 22 1020 60 10000 5.81 360 13:52 22.10.2021
5139 Clouds 21 1020 64 10000 4.92 340 11:26 22.10.2021
5140 Clouds 19 1013 77 10000 2.68 20 10:41 22.10.2021
5141 Clouds 19 1013 77 10000 2.68 20 09:56 22.10.2021
5142 Clouds 18 1019 82 10000 5.81 360 08:36 22.10.2021
5143 Clouds 17 1018 70 10000 3.06 3 07:23 22.10.2021
5144 Clouds 20 1020 77 10000 4.02 20 03:31 22.10.2021
5145 Clouds 21 1021 77 10000 4.02 20 23:57 21.10.2021
5146 Clouds 21 1020 77 10000 4.02 20 23:38 21.10.2021
5147 Clouds 21 1020 77 10000 4.02 20 22:21 21.10.2021
5148 Clouds 21 1019 83 10000 5.81 360 20:42 21.10.2021
5149 Clouds 21 1019 83 10000 5.81 360 20:19 21.10.2021
5150 Clouds 22 1019 83 10000 5.81 360 19:29 21.10.2021
5151 Clouds 24 1019 73 10000 4.92 360 18:46 21.10.2021
5152 Clouds 24 1019 73 10000 5.81 340 18:19 21.10.2021
5153 Clouds 25 1019 73 10000 5.81 340 17:39 21.10.2021
5154 Clouds 26 1021 69 10000 4.02 340 15:54 21.10.2021
5155 Clouds 26 1021 69 10000 4.02 340 15:20 21.10.2021
5156 Clouds 26 1021 65 8000 1.79 80 14:38 21.10.2021
5157 Clouds 25 1021 65 8000 1.79 80 13:20 21.10.2021
5158 Mist 21 1021 94 4000 1.79 20 11:27 21.10.2021
5159 Fog 19 1020 100 200 1.03 0 08:55 21.10.2021
5160 Clouds 19 1020 87 10000 1.56 355 07:29 21.10.2021
5161 Clouds 21 1019 94 10000 1.79 240 03:49 21.10.2021
5162 Clouds 22 1019 94 10000 1.79 240 23:31 20.10.2021
5163 Clouds 22 1019 94 10000 1.79 240 22:18 20.10.2021
5164 Clouds 22 1019 94 10000 1.79 240 21:38 20.10.2021
5165 Clouds 22 1019 88 10000 4.02 300 20:54 20.10.2021
5166 Clouds 22 1019 88 10000 4.02 300 20:33 20.10.2021
5167 Clouds 23 1019 83 10000 4.92 300 19:57 20.10.2021
5168 Clouds 24 1019 78 10000 5.81 320 18:54 20.10.2021
5169 Clouds 25 1019 73 10000 8.05 300 17:50 20.10.2021
5170 Clouds 26 1019 69 8000 7.15 320 15:44 20.10.2021
5171 Fog 20 1020 100 800 3.09 200 11:42 20.10.2021
5172 Fog 18 1018 100 300 1.79 260 08:54 20.10.2021
5173 Clear 20 1018 77 10000 0.89 340 04:50 20.10.2021
5174 Clear 21 1018 77 10000 0.89 340 00:48 20.10.2021
5175 Clear 20 1018 77 10000 0.89 340 00:18 20.10.2021
5176 Clear 21 1018 77 10000 0.89 340 21:44 19.10.2021
5177 Clear 23 1017 64 10000 1.34 360 20:54 19.10.2021
5178 Clear 24 1017 64 10000 1.34 360 20:25 19.10.2021
5179 Clear 26 1016 53 10000 2.24 360 19:41 19.10.2021
5180 Clear 26 1016 53 10000 2.24 360 19:20 19.10.2021
5181 Clear 25 1017 69 10000 4.47 320 17:59 19.10.2021
5182 Clouds 24 1018 78 10000 6.17 320 15:48 19.10.2021
5183 Clouds 24 1018 78 10000 6.17 320 15:20 19.10.2021
5184 Clouds 24 1018 78 10000 6.17 360 14:27 19.10.2021
5185 Clear 25 1018 73 10000 4.47 360 13:35 19.10.2021
5186 Clear 22 1018 73 5000 0 0 11:37 19.10.2021
5187 Mist 18 1018 94 3000 3.09 180 10:36 19.10.2021
5188 Fog 18 1017 100 200 4.63 180 08:58 19.10.2021
5189 Clear 14 1016 74 10000 0.29 345 07:20 19.10.2021
5190 Clouds 21 1017 73 10000 2.68 60 00:27 19.10.2021
5191 Clouds 21 1017 73 10000 2.68 60 23:56 18.10.2021
5192 Clouds 21 1017 73 10000 2.68 60 23:20 18.10.2021
5193 Clouds 21 1017 73 10000 2.68 60 22:54 18.10.2021
5194 Clouds 21 1017 73 10000 2.68 60 21:54 18.10.2021
5195 Clouds 23 1017 68 10000 1.79 40 20:42 18.10.2021
5196 Clouds 23 1017 68 10000 4.92 60 20:19 18.10.2021
5197 Clouds 25 1016 64 10000 4.92 20 19:30 18.10.2021
5198 Clear 26 1017 57 10000 4.92 20 18:58 18.10.2021
5199 Clouds 26 1018 65 8000 4.92 40 15:56 18.10.2021
5200 Clouds 26 1018 57 8000 5.81 60 14:28 18.10.2021
5201 Clouds 22 1019 68 6000 4.92 60 11:20 18.10.2021
5202 Clouds 16 1018 77 6000 1.03 0 09:37 18.10.2021
5203 Clouds 20 1018 93 10000 4.92 60 05:32 18.10.2021
5204 Clouds 20 1018 93 10000 4.92 60 23:45 17.10.2021
5205 Clear 20 1018 93 10000 4.92 60 21:58 17.10.2021
5206 Clear 20 1018 93 10000 4.92 60 21:40 17.10.2021
5207 Clear 21 1017 88 10000 2.68 40 20:42 17.10.2021
5208 Clear 22 1017 78 10000 5.81 20 19:44 17.10.2021
5209 Clear 22 1017 78 10000 5.81 20 19:25 17.10.2021
5210 Clouds 23 1017 73 10000 5.81 20 18:28 17.10.2021
5211 Clear 25 1018 57 10000 4.92 40 15:56 17.10.2021
5212 Clouds 25 1018 64 8000 4.02 40 14:35 17.10.2021
5213 Clouds 24 1019 60 6000 4.92 80 13:56 17.10.2021
5214 Clouds 25 1019 60 6000 4.92 80 13:30 17.10.2021
5215 Mist 19 1019 93 3000 1.79 100 10:59 17.10.2021
5216 Clouds 17 1017 100 6000 1.03 140 09:56 17.10.2021
5217 Clouds 14 1018 78 10000 2.52 55 07:42 17.10.2021
5218 Clouds 20 1017 88 10000 1.79 40 01:44 17.10.2021
5219 Clouds 20 1017 88 10000 1.79 40 00:29 17.10.2021
5220 Clouds 21 1016 88 10000 1.79 40 22:40 16.10.2021
5221 Clouds 22 1017 88 10000 5.81 20 20:36 16.10.2021
5222 Clouds 23 1016 78 10000 4.02 40 19:58 16.10.2021
5223 Clouds 24 1016 78 10000 4.02 40 19:39 16.10.2021
5224 Clouds 24 1016 78 10000 4.02 40 19:18 16.10.2021
5225 Clouds 25 1016 73 10000 7.15 20 18:43 16.10.2021
5226 Clouds 25 1016 73 10000 7.15 20 18:20 16.10.2021
5227 Clouds 25 1017 73 10000 4.92 20 17:29 16.10.2021
5228 Clouds 26 1018 65 10000 7.15 360 15:40 16.10.2021
5229 Clouds 24 1019 69 8000 4.02 80 12:45 16.10.2021
5230 Fog 17 1019 100 400 1.03 0 10:57 16.10.2021
5231 Fog 16 1011 100 200 2.06 200 08:56 16.10.2021
5232 Clouds 20 1018 93 10000 4.02 360 01:37 16.10.2021
5233 Clouds 20 1018 93 10000 4.02 360 00:29 16.10.2021
5234 Clouds 20 1018 93 10000 4.02 360 23:25 15.10.2021
5235 Clouds 20 1018 93 10000 4.02 360 22:20 15.10.2021
5236 Clouds 20 1018 93 8000 4.02 360 21:40 15.10.2021
5237 Clouds 21 1017 88 8000 4.02 360 20:52 15.10.2021
5238 Clouds 21 1017 88 8000 4.02 360 20:22 15.10.2021
5239 Clouds 24 1017 78 10000 4.02 320 19:19 15.10.2021
5240 Clear 24 1017 69 10000 4.92 360 18:21 15.10.2021
5241 Clear 26 1017 69 10000 4.92 280 15:46 15.10.2021
5242 Clear 25 1018 69 10000 4.02 300 13:49 15.10.2021
5243 Clouds 21 1018 88 5000 2.06 200 11:54 15.10.2021
5244 Clouds 19 1017 88 5000 2.06 240 10:58 15.10.2021
5245 Clouds 19 1017 94 5000 1.34 200 10:22 15.10.2021
5246 Clouds 18 1016 79 10000 1.2 305 07:33 15.10.2021
5247 Clouds 21 1016 88 10000 1.79 20 04:26 15.10.2021
5248 Clouds 21 1016 88 10000 1.79 20 00:22 15.10.2021
5249 Clouds 21 1016 88 10000 1.79 20 22:54 14.10.2021
5250 Clouds 22 1016 88 10000 1.79 20 22:18 14.10.2021
5251 Clear 22 1016 88 10000 1.79 20 21:37 14.10.2021
5252 Clear 23 1015 83 10000 2.68 360 20:20 14.10.2021
5253 Clear 24 1015 78 10000 4.92 360 19:46 14.10.2021
5254 Clear 24 1015 69 10000 4.02 20 18:26 14.10.2021
5255 Clear 25 1015 64 10000 4.92 360 16:58 14.10.2021
5256 Clear 24 1015 64 10000 4.92 360 16:31 14.10.2021
5257 Clear 24 1016 69 10000 4.02 20 14:44 14.10.2021
5258 Clear 24 1016 69 10000 4.02 20 14:26 14.10.2021
5259 Clouds 23 1018 73 10000 2.68 100 12:35 14.10.2021
5260 Clouds 22 1014 78 8000 2.68 80 11:26 14.10.2021
5261 Clouds 20 1012 88 10000 0.89 80 08:26 14.10.2021
5262 Clouds 17 1015 86 10000 2.11 4 05:52 14.10.2021
5263 Clouds 21 1016 77 10000 2.68 360 00:36 14.10.2021
5264 Clouds 21 1016 77 10000 2.68 360 22:39 13.10.2021
5265 Clouds 21 1016 77 6000 2.68 360 21:36 13.10.2021
5266 Clouds 21 1016 73 6000 2.68 360 20:43 13.10.2021
5267 Clear 22 1015 68 6000 4.92 360 19:20 13.10.2021
5268 Clouds 23 1015 69 8000 5.81 20 18:37 13.10.2021
5269 Clouds 25 1015 60 8000 6.71 20 16:35 13.10.2021
5270 Clouds 25 1016 60 6000 5.81 340 14:46 13.10.2021
5271 Clouds 24 1016 60 6000 5.81 340 14:23 13.10.2021
5272 Clouds 22 1017 68 6000 2.24 160 12:24 13.10.2021
5273 Mist 20 1017 77 3000 2.24 180 11:36 13.10.2021
5274 Mist 16 1016 72 3000 1.54 120 09:37 13.10.2021
5275 Clear 15 1015 86 10000 1.12 232 07:50 13.10.2021
5276 Clear 19 1015 83 10000 1.79 300 02:58 13.10.2021
5277 Clear 19 1015 83 10000 1.79 300 02:19 13.10.2021
5278 Clear 20 1015 83 10000 1.79 300 23:33 12.10.2021
5279 Clear 21 1015 83 10000 1.79 300 22:50 12.10.2021
5280 Clear 21 1015 83 10000 1.79 300 22:50 12.10.2021
5281 Clear 21 1015 83 10000 1.79 300 22:23 12.10.2021
5282 Clouds 22 1015 73 10000 1.34 300 20:54 12.10.2021
5283 Clouds 22 1015 73 10000 1.34 300 20:30 12.10.2021
5284 Clear 23 1014 73 10000 2.68 320 19:31 12.10.2021
5285 Clear 24 1014 69 10000 7.6 230 18:24 12.10.2021
5286 Clear 25 1014 64 10000 4.92 300 17:19 12.10.2021
5287 Clear 26 1014 57 10000 5.81 320 16:20 12.10.2021
5288 Clear 26 1014 57 10000 7.15 300 15:29 12.10.2021
5289 Clear 25 1015 57 10000 5.81 300 13:45 12.10.2021
5290 Clear 24 1016 60 8000 4.02 260 12:58 12.10.2021
5291 Clouds 22 1016 73 5000 3.9 226 11:22 12.10.2021
5292 Clouds 20 1015 82 5000 2.68 200 09:22 12.10.2021
5293 Clouds 19 1014 88 10000 4.06 219 08:19 12.10.2021
5294 Clouds 20 1014 86 10000 3.64 217 06:43 12.10.2021
5295 Clouds 21 1012 100 10000 7.15 200 04:35 12.10.2021
5296 Clouds 21 1012 100 10000 7.15 200 02:46 12.10.2021
5297 Clouds 21 1012 100 10000 7.15 200 23:46 11.10.2021
5298 Clouds 21 1012 100 10000 7.15 200 23:28 11.10.2021
5299 Clouds 21 1012 100 10000 7.15 200 22:31 11.10.2021
5300 Clouds 21 1012 100 7000 7.15 200 21:20 11.10.2021
5301 Clouds 22 1012 88 8000 4.02 280 19:46 11.10.2021
5302 Clouds 22 1012 88 8000 4.02 280 19:22 11.10.2021
5303 Clouds 23 1013 78 10000 5.81 300 18:20 11.10.2021
5304 Clouds 25 1011 73 8000 1.79 300 16:40 11.10.2021
5305 Clouds 25 1011 73 8000 1.79 300 16:19 11.10.2021
5306 Clouds 26 1012 65 8000 5.14 320 15:40 11.10.2021
5307 Clouds 26 1012 61 8000 4.12 300 14:53 11.10.2021
5308 Clouds 23 1013 78 6000 3.09 300 13:51 11.10.2021
5309 Clouds 23 1013 78 6000 3.09 300 13:32 11.10.2021
5310 Fog 19 1012 100 400 2.06 300 10:49 11.10.2021
5311 Fog 17 1012 100 200 2.06 100 09:45 11.10.2021
5312 Clouds 15 1010 67 10000 2.39 52 07:56 11.10.2021
5313 Clouds 21 1012 88 10000 2.24 20 01:43 11.10.2021
5314 Clouds 21 1012 88 10000 2.24 20 00:55 11.10.2021
5315 Clouds 21 1012 88 10000 2.24 20 00:33 11.10.2021
5316 Clouds 21 1012 88 10000 2.24 20 22:25 10.10.2021
5317 Clear 21 1012 88 10000 2.24 20 21:36 10.10.2021
5318 Clear 22 1012 83 10000 2.24 20 20:56 10.10.2021
5319 Clear 22 1012 83 10000 2.24 20 20:36 10.10.2021
5320 Clear 22 1012 83 10000 2.24 20 20:18 10.10.2021
5321 Clear 24 1011 78 10000 4.02 20 19:40 10.10.2021
5322 Clear 24 1012 78 10000 2.68 340 18:55 10.10.2021
5323 Clear 26 1012 69 10000 4.92 340 17:58 10.10.2021
5324 Clear 25 1013 69 10000 5.36 320 15:48 10.10.2021
5325 Clear 24 1013 69 10000 4.02 300 14:45 10.10.2021
5326 Clear 24 1014 64 10000 2.68 300 13:39 10.10.2021
5327 Clouds 24 1014 73 7000 5.14 280 12:43 10.10.2021
5328 Clouds 21 1014 83 6000 1.03 0 11:30 10.10.2021
5329 Mist 21 1015 83 4000 1.79 40 10:25 10.10.2021
5330 Mist 20 1013 88 4000 2.68 20 08:54 10.10.2021
5331 Clouds 19 1013 89 10000 2.1 356 07:57 10.10.2021
5332 Clouds 19 1015 88 10000 4.92 40 03:47 10.10.2021
5333 Clouds 20 1015 88 10000 4.92 40 01:43 10.10.2021
5334 Clouds 20 1015 88 10000 4.92 40 00:41 10.10.2021
5335 Clouds 20 1015 88 10000 4.92 40 00:41 10.10.2021
5336 Clouds 21 1015 88 10000 4.92 40 23:23 09.10.2021
5337 Clouds 21 1015 88 7000 4.92 40 21:53 09.10.2021
5338 Clouds 21 1015 88 7000 4.92 40 21:29 09.10.2021
5339 Clouds 23 1015 88 10000 4.92 360 19:52 09.10.2021
5340 Clouds 24 1015 78 10000 4.92 360 19:34 09.10.2021
5341 Clouds 24 1014 83 10000 4.92 360 18:40 09.10.2021
5342 Clouds 25 1015 78 10000 5.81 360 17:51 09.10.2021
5343 Clouds 26 1015 69 10000 4.92 340 16:19 09.10.2021
5344 Clouds 25 1017 65 8000 2.68 60 13:48 09.10.2021
5345 Clouds 25 1017 65 8000 2.68 60 13:25 09.10.2021
5346 Clouds 24 1017 71 6000 1.79 20 12:23 09.10.2021
5347 Mist 20 1016 83 4000 1.79 160 10:44 09.10.2021
5348 Mist 20 1016 83 4000 1.79 160 10:18 09.10.2021
5349 Mist 19 1017 93 3000 1.79 100 08:33 09.10.2021
5350 Clouds 18 1015 88 10000 1.81 20 07:54 09.10.2021
5351 Clouds 17 1015 86 10000 2.73 43 06:22 09.10.2021
5352 Clouds 20 1016 77 10000 4.02 360 04:31 09.10.2021
5353 Clouds 20 1016 77 10000 4.02 360 02:44 09.10.2021
5354 Clear 21 1016 77 10000 4.02 360 00:23 09.10.2021
5355 Clear 21 1016 77 10000 4.02 360 23:31 08.10.2021
5356 Clear 21 1016 77 10000 4.02 360 22:42 08.10.2021
5357 Clouds 21 1016 77 10000 4.02 360 21:44 08.10.2021
5358 Clouds 23 1016 73 10000 4.02 320 19:49 08.10.2021
5359 Clouds 24 1015 69 10000 4.92 320 18:23 08.10.2021
5360 Clear 24 1016 64 10000 5.81 320 16:55 08.10.2021
5361 Clear 24 1016 64 10000 5.81 320 16:24 08.10.2021
5362 Clear 26 1017 61 6000 4.02 340 14:56 08.10.2021
5363 Clear 24 1017 57 5000 2.68 300 13:45 08.10.2021
5364 Mist 20 1017 73 3000 2.06 240 11:41 08.10.2021
5365 Mist 19 1017 77 3000 2.68 180 10:42 08.10.2021
5366 Clear 18 1017 82 6000 1.79 160 09:46 08.10.2021
5367 Clear 20 1015 88 10000 4.92 280 03:37 08.10.2021
5368 Clear 21 1015 88 10000 4.92 280 23:24 07.10.2021
5369 Clouds 21 1015 88 5000 4.92 280 21:48 07.10.2021
5370 Clouds 21 1015 88 5000 4.92 280 21:28 07.10.2021
5371 Clouds 21 1015 88 5000 4.92 280 21:28 07.10.2021
5372 Clouds 21 1015 88 5000 0.89 320 20:29 07.10.2021
5373 Mist 21 1017 88 4000 2.24 300 19:32 07.10.2021
5374 Mist 21 1017 88 2000 3.58 300 18:40 07.10.2021
5375 Clear 24 1025 73 10000 4.47 320 17:27 07.10.2021
5376 Clear 25 1016 73 6000 5.36 300 15:58 07.10.2021
5377 Clear 25 1017 73 8000 5.81 280 14:48 07.10.2021
5378 Clear 25 1017 69 6000 5.36 320 13:43 07.10.2021
5379 Clear 24 1017 69 5000 4.02 320 12:49 07.10.2021
5380 Fog 18 1016 100 300 5.14 180 10:57 07.10.2021
5381 Fog 17 1016 100 300 5.14 180 10:22 07.10.2021
5382 Clouds 17 1013 86 10000 1.34 140 09:42 07.10.2021
5383 Fog 18 1016 100 200 1.34 140 08:53 07.10.2021
5384 Clouds 15 1016 73 10000 2.09 224 07:57 07.10.2021
5385 Clouds 15 1016 73 10000 2.09 224 07:37 07.10.2021
5386 Clouds 16 1015 73 10000 1.74 237 06:36 07.10.2021
5387 Clouds 22 1018 73 10000 2.68 40 00:29 07.10.2021
5388 Clouds 22 1018 73 10000 2.68 40 22:59 06.10.2021
5389 Clouds 22 1018 73 10000 2.68 40 22:24 06.10.2021
5390 Clear 22 1018 73 10000 2.68 40 21:24 06.10.2021
5391 Clear 23 1018 73 10000 1.79 360 20:28 06.10.2021
5392 Clear 26 1017 50 10000 2.68 360 18:43 06.10.2021
5393 Clear 27 1018 54 10000 2.68 340 17:19 06.10.2021
5394 Clouds 26 1019 65 8000 1.79 360 15:34 06.10.2021
5395 Clouds 26 1018 65 8000 0.89 360 14:34 06.10.2021
5396 Clouds 25 1019 65 8000 0.89 60 13:24 06.10.2021
5397 Clouds 27 1017 54 10000 1.19 36 12:45 06.10.2021
5398 Clouds 21 1018 77 10000 0.89 340 12:23 06.10.2021
5399 Clouds 17 1018 82 8000 1.03 160 10:37 06.10.2021
5400 Clear 14 1017 94 10000 1.54 160 09:39 06.10.2021
5401 Clear 15 1017 94 10000 0.51 280 08:57 06.10.2021
5402 Clouds 13 1017 80 10000 1.6 41 07:54 06.10.2021
5403 Clouds 20 1019 68 10000 5.81 60 05:37 06.10.2021
5404 Clouds 21 1019 68 10000 5.81 60 01:37 06.10.2021
5405 Clouds 21 1019 68 10000 5.81 60 00:20 06.10.2021
5406 Clouds 21 1019 68 10000 5.81 60 23:50 05.10.2021
5407 Clouds 21 1019 68 10000 5.81 60 23:29 05.10.2021
5408 Clouds 21 1019 68 10000 5.81 60 22:30 05.10.2021
5409 Clear 21 1019 68 10000 5.81 60 21:51 05.10.2021
5410 Clear 21 1018 73 10000 4.92 20 20:51 05.10.2021
5411 Clear 21 1018 73 10000 4.92 20 20:25 05.10.2021
5412 Clear 22 1018 73 10000 5.81 40 19:50 05.10.2021
5413 Clear 23 1018 73 10000 5.81 40 19:22 05.10.2021
5414 Clear 24 1018 56 10000 7.15 40 17:40 05.10.2021
5415 Clear 24 1019 60 10000 4.92 20 15:27 05.10.2021
5416 Clear 24 1020 57 10000 5.81 60 13:49 05.10.2021
5417 Clear 25 1020 57 10000 5.81 60 13:18 05.10.2021
5418 Clear 23 1020 64 10000 4.92 60 12:33 05.10.2021
5419 Clear 21 1020 64 10000 2.68 100 11:22 05.10.2021
5420 Clear 18 1020 72 10000 3.09 140 10:34 05.10.2021
5421 Clouds 13 1019 71 10000 4.46 49 06:59 05.10.2021
5422 Clear 19 1020 64 10000 7.15 340 00:58 05.10.2021
5423 Clear 20 1019 64 10000 7.15 340 22:51 04.10.2021
5424 Clear 20 1019 60 10000 7.15 360 20:51 04.10.2021
5425 Clear 22 1018 60 10000 7.15 40 18:48 04.10.2021
5426 Clear 24 1020 53 10000 7.15 40 16:55 04.10.2021
5427 Clouds 24 1020 53 10000 8.05 60 15:32 04.10.2021
5428 Clear 24 1021 49 10000 7.15 20 14:44 04.10.2021
5429 Clear 23 1021 49 10000 7.15 20 13:58 04.10.2021
5430 Clear 23 1021 49 10000 7.15 20 13:31 04.10.2021
5431 Clear 23 1021 49 10000 4.02 40 12:31 04.10.2021
5432 Clear 22 1021 53 10000 8.05 60 11:32 04.10.2021
5433 Clear 20 1020 68 10000 7.15 60 10:41 04.10.2021
5434 Clear 19 1020 77 10000 2.68 40 09:33 04.10.2021
5435 Clouds 19 1019 70 10000 4.06 36 07:52 04.10.2021
5436 Clouds 20 1019 77 10000 4.02 320 03:44 04.10.2021
5437 Clouds 21 1019 77 10000 4.02 320 22:48 03.10.2021
5438 Clear 21 1019 77 10000 4.02 320 21:52 03.10.2021
5439 Clear 21 1019 77 10000 4.02 320 21:52 03.10.2021
5440 Clear 21 1019 77 10000 4.02 320 21:29 03.10.2021
5441 Clear 22 1019 73 10000 4.02 320 20:43 03.10.2021
5442 Clear 24 1018 69 10000 4.92 340 19:33 03.10.2021
5443 Clear 24 1018 60 10000 1.79 300 18:29 03.10.2021
5444 Clear 24 1018 60 10000 1.79 300 18:29 03.10.2021
5445 Clear 24 1018 60 10000 4.92 340 17:31 03.10.2021
5446 Clouds 26 1019 50 10000 2.68 360 14:50 03.10.2021
5447 Clouds 26 1019 50 10000 2.68 360 14:28 03.10.2021
5448 Clouds 25 1020 57 10000 2.68 280 13:35 03.10.2021
5449 Clouds 24 1019 60 10000 1.79 320 12:43 03.10.2021
5450 Clear 21 1018 68 10000 2.68 180 10:58 03.10.2021
5451 Clouds 20 1017 72 10000 2.68 180 09:42 03.10.2021
5452 Clouds 19 1016 77 10000 4.02 360 05:25 03.10.2021
5453 Clouds 20 1016 77 10000 4.02 360 22:49 02.10.2021
5454 Clear 21 1016 77 10000 4.02 360 21:35 02.10.2021
5455 Clear 22 1017 83 10000 4.02 20 20:18 02.10.2021
5456 Clear 25 1016 69 10000 4.92 360 18:56 02.10.2021
5457 Clear 25 1016 69 10000 4.92 360 18:18 02.10.2021
5458 Clear 26 1017 65 10000 5.81 20 17:36 02.10.2021
5459 Clear 25 1017 69 10000 5.81 360 16:22 02.10.2021
5460 Clear 19 1017 87 10000 2.09 7 06:39 02.10.2021
5461 Clear 26 1019 69 10000 5.81 340 15:37 30.09.2021
5462 Clouds 26 1020 69 8000 2.68 300 13:54 30.09.2021
5463 Clouds 23 1020 88 6000 0.89 20 11:42 30.09.2021
5464 Mist 20 1020 94 3000 1.03 0 10:46 30.09.2021
5465 Mist 18 1019 94 3000 1.03 100 09:44 30.09.2021
5466 Clouds 18 1019 86 10000 1.12 352 08:30 30.09.2021
5467 Clouds 18 1019 87 10000 1.83 5 07:34 30.09.2021
5468 Clouds 21 1019 88 10000 4.92 40 05:18 30.09.2021
5469 Clouds 21 1019 88 10000 4.92 40 01:36 30.09.2021
5470 Clouds 22 1019 88 10000 4.92 40 00:23 30.09.2021
5471 Clouds 22 1019 88 10000 4.92 40 22:37 29.09.2021
5472 Clouds 22 1019 88 10000 4.92 40 21:24 29.09.2021
5473 Clouds 23 1019 83 10000 4.02 40 20:27 29.09.2021
5474 Clouds 24 1019 73 10000 4.02 40 19:51 29.09.2021
5475 Clouds 25 1019 78 10000 7.15 20 18:45 29.09.2021
5476 Clouds 25 1019 73 10000 7.15 40 17:38 29.09.2021
5477 Clouds 25 1019 73 10000 8.94 40 16:47 29.09.2021
5478 Clouds 25 1020 73 10000 7.15 20 15:58 29.09.2021
5479 Clouds 25 1021 73 10000 5.81 40 14:39 29.09.2021
5480 Clear 25 1021 69 10000 8.05 20 13:42 29.09.2021
5481 Clouds 25 1021 69 10000 4.02 60 12:58 29.09.2021
5482 Clouds 24 1021 69 10000 4.02 60 12:19 29.09.2021
5483 Clouds 21 1020 83 10000 1.79 60 10:47 29.09.2021
5484 Clouds 20 1020 88 10000 1.79 80 09:50 29.09.2021
5485 Clouds 20 1020 88 10000 1.79 80 09:18 29.09.2021
5486 Clouds 19 1020 87 10000 3.58 49 07:32 29.09.2021
5487 Clouds 21 1021 83 10000 5.81 60 03:58 29.09.2021
5488 Clouds 22 1021 83 10000 5.81 60 23:26 28.09.2021
5489 Clouds 22 1021 83 10000 5.81 60 22:23 28.09.2021
5490 Clouds 22 1021 83 10000 5.81 60 21:37 28.09.2021
5491 Clouds 23 1021 78 10000 5.81 60 20:36 28.09.2021
5492 Clouds 24 1021 73 10000 8.23 360 19:43 28.09.2021
5493 Clouds 26 1021 65 10000 7.2 60 18:46 28.09.2021
5494 Clouds 26 1021 61 10000 7.2 360 17:59 28.09.2021
5495 Clouds 26 1021 61 10000 8.23 360 16:23 28.09.2021
5496 Clouds 26 1022 53 10000 4.02 360 13:49 28.09.2021
5497 Clouds 25 1023 53 10000 4.02 300 12:48 28.09.2021
5498 Clouds 25 1023 53 10000 4.02 300 12:19 28.09.2021
5499 Clouds 24 1022 57 10000 1.79 60 11:45 28.09.2021
5500 Clouds 24 1022 57 10000 1.79 60 11:19 28.09.2021
5501 Clouds 22 1022 60 8000 1.79 360 10:19 28.09.2021
5502 Clouds 21 1021 68 10000 2.68 340 08:59 28.09.2021
5503 Clouds 21 1021 68 10000 2.68 340 08:38 28.09.2021
5504 Clouds 20 1021 79 10000 1.64 17 07:47 28.09.2021
5505 Clouds 20 1021 77 10000 2.24 360 05:28 28.09.2021
5506 Clouds 20 1021 77 10000 2.24 360 01:23 28.09.2021
5507 Clouds 20 1021 77 10000 2.24 360 00:25 28.09.2021
5508 Clouds 20 1021 77 10000 2.24 360 23:41 27.09.2021
5509 Clouds 21 1021 77 10000 2.24 360 22:56 27.09.2021
5510 Clear 21 1021 77 10000 2.24 360 21:54 27.09.2021
5511 Clear 22 1020 73 10000 4.02 20 20:45 27.09.2021
5512 Clear 23 1020 64 10000 4.47 340 19:56 27.09.2021
5513 Clear 24 1020 64 10000 4.47 340 19:28 27.09.2021
5514 Clouds 25 1021 60 10000 8.94 360 18:50 27.09.2021
5515 Clouds 25 1021 60 10000 8.94 360 17:29 27.09.2021
5516 Clouds 25 1021 64 10000 7.15 360 16:50 27.09.2021
5517 Clouds 25 1021 64 10000 8.94 360 15:45 27.09.2021
5518 Clouds 25 1021 64 10000 8.94 360 15:18 27.09.2021
5519 Clouds 24 1022 69 10000 4.92 20 13:32 27.09.2021
5520 Clouds 22 1022 73 10000 4.92 20 11:49 27.09.2021
5521 Clouds 22 1022 78 8000 2.24 120 10:37 27.09.2021
5522 Clouds 20 1021 82 8000 0.89 100 08:59 27.09.2021
5523 Clouds 21 1020 73 10000 4.02 40 05:22 27.09.2021
5524 Clouds 21 1020 73 10000 4.02 40 03:21 27.09.2021
5525 Clouds 22 1020 73 10000 4.02 40 22:39 26.09.2021
5526 Clear 22 1020 73 10000 4.02 40 21:53 26.09.2021
5527 Clear 22 1020 73 10000 4.02 40 21:25 26.09.2021
5528 Clear 22 1020 73 10000 7.15 20 20:23 26.09.2021
5529 Clouds 23 1018 73 10000 5.81 20 19:52 26.09.2021
5530 Clouds 25 1018 73 10000 7.6 20 18:47 26.09.2021
5531 Clouds 25 1018 69 10000 7.15 40 17:57 26.09.2021
5532 Clouds 25 1016 69 10000 7.15 40 17:24 26.09.2021
5533 Clear 26 1020 61 10000 8.49 20 16:58 26.09.2021
5534 Clear 26 1020 61 10000 8.49 20 16:21 26.09.2021
5535 Clear 26 1020 61 10000 4.92 40 15:22 26.09.2021
5536 Clear 25 1021 64 10000 4.92 80 13:57 26.09.2021
5537 Clear 25 1021 64 10000 4.92 80 13:29 26.09.2021
5538 Clear 25 1021 64 10000 4.92 40 12:25 26.09.2021
5539 Clear 23 1021 69 10000 2.68 40 11:51 26.09.2021
5540 Clear 21 1021 77 10000 4.92 100 10:38 26.09.2021
5541 Clouds 20 1020 82 10000 4.02 80 09:21 26.09.2021
5542 Clear 19 1020 88 10000 1.79 60 08:20 26.09.2021
5543 Clear 21 1019 68 10000 4.92 20 00:28 26.09.2021
5544 Clear 21 1019 68 10000 4.92 20 23:40 25.09.2021
5545 Clear 22 1019 68 10000 4.92 20 22:38 25.09.2021
5546 Clear 22 1019 68 10000 4.92 20 22:18 25.09.2021
5547 Clear 22 1019 68 10000 4.92 20 21:33 25.09.2021
5548 Clear 23 1019 64 10000 5.81 360 20:51 25.09.2021
5549 Clear 24 1018 60 10000 7.15 360 19:32 25.09.2021
5550 Clear 25 1018 64 10000 8.05 360 18:26 25.09.2021
5551 Clear 26 1018 61 10000 5.81 360 17:18 25.09.2021
5552 Clouds 26 1019 57 10000 7.15 360 14:25 25.09.2021
5553 Clouds 26 1019 57 10000 4.02 40 13:54 25.09.2021
5554 Clear 25 1020 57 10000 1.79 20 12:36 25.09.2021
5555 Clear 20 1019 77 10000 1.79 160 10:36 25.09.2021
5556 Clear 17 1018 94 10000 2.06 160 09:56 25.09.2021
5557 Clear 16 1018 88 10000 2.06 160 08:45 25.09.2021
5558 Clear 16 1018 76 10000 1 223 07:46 25.09.2021
5559 Clear 21 1017 64 10000 2.68 320 00:50 25.09.2021
5560 Clear 21 1017 64 10000 2.68 320 00:50 25.09.2021
5561 Clear 22 1017 64 10000 2.68 320 21:57 24.09.2021
5562 Clear 22 1017 64 10000 2.68 320 21:25 24.09.2021
5563 Clear 22 1016 64 10000 4.02 340 20:31 24.09.2021
5564 Clouds 25 1016 53 10000 2.68 360 18:36 24.09.2021
5565 Clouds 25 1017 57 10000 5.81 300 17:56 24.09.2021
5566 Clouds 25 1016 57 10000 5.81 300 17:38 24.09.2021
5567 Clouds 25 1016 57 10000 5.81 300 17:19 24.09.2021
5568 Clouds 24 1016 68 10000 6.17 340 15:38 24.09.2021
5569 Clouds 25 1017 57 10000 4.92 320 13:20 24.09.2021
5570 Clouds 24 1018 57 10000 4.02 320 12:42 24.09.2021
5571 Clouds 24 1017 61 10000 1.79 340 12:24 24.09.2021
5572 Clear 22 1014 64 10000 2.06 200 10:38 24.09.2021
5573 Clouds 20 1014 77 10000 1.03 200 08:59 24.09.2021
5574 Clouds 19 1014 67 10000 0.7 204 07:55 24.09.2021
5575 Clouds 19 1014 66 10000 0.16 281 06:51 24.09.2021
5576 Clouds 19 1014 67 10000 1.74 331 05:22 24.09.2021
5577 Clouds 21 1014 72 10000 1.71 308 00:48 24.09.2021
5578 Clouds 22 1014 74 10000 2.18 301 22:36 23.09.2021
5579 Clouds 22 1013 78 10000 4.12 320 21:57 23.09.2021
5580 Clouds 23 1013 73 10000 4.12 320 20:37 23.09.2021
5581 Clouds 23 1013 73 10000 4.12 320 20:19 23.09.2021
5582 Clouds 25 1013 69 10000 5.14 320 18:27 23.09.2021
5583 Clouds 26 1013 69 10000 6.17 320 15:37 23.09.2021
5584 Clouds 26 1013 69 10000 6.17 320 15:18 23.09.2021
5585 Clouds 26 1013 73 10000 5.14 300 13:57 23.09.2021
5586 Clouds 26 1013 73 10000 5.14 300 13:57 23.09.2021
5587 Clouds 26 1013 73 10000 5.14 300 13:23 23.09.2021
5588 Clouds 25 1013 73 10000 4.12 300 12:54 23.09.2021
5589 Clouds 25 1013 73 10000 4.12 300 12:23 23.09.2021
5590 Clouds 23 1013 83 8000 4.12 220 11:56 23.09.2021
5591 Clouds 22 1012 83 8000 3.09 220 10:28 23.09.2021
5592 Clouds 21 1012 94 8000 2.06 220 09:53 23.09.2021
5593 Clouds 21 1011 94 10000 3.09 200 08:38 23.09.2021
5594 Clouds 21 1011 89 10000 2.16 250 05:28 23.09.2021
5595 Clouds 20 1012 89 10000 3.11 234 23:48 22.09.2021
5596 Clouds 22 1013 87 10000 3.29 232 22:44 22.09.2021
5597 Clouds 23 1012 78 10000 5.14 260 21:57 22.09.2021
5598 Clouds 23 1012 78 10000 5.14 260 21:34 22.09.2021
5599 Clouds 24 1012 73 10000 4.12 300 20:57 22.09.2021
5600 Clouds 26 1012 73 10000 7.2 320 19:34 22.09.2021
5601 Clouds 26 1012 73 10000 8.23 300 18:46 22.09.2021
5602 Clouds 26 1012 73 10000 8.23 300 18:22 22.09.2021
5603 Clouds 23 1011 69 10000 4.88 292 16:41 22.09.2021
5604 Clouds 23 1011 67 10000 4.77 290 15:38 22.09.2021
5605 Clouds 27 1013 65 10000 8.23 300 14:25 22.09.2021
5606 Clouds 26 1014 65 10000 3.09 280 12:22 22.09.2021
5607 Clouds 22 1013 78 10000 3.09 200 10:57 22.09.2021
5608 Clouds 21 1013 83 10000 3.09 200 09:29 22.09.2021
5609 Clouds 21 1012 83 10000 1.03 200 08:31 22.09.2021
5610 Clear 20 1012 81 10000 4.62 225 07:30 22.09.2021
5611 Clear 19 1011 79 10000 4.11 222 06:19 22.09.2021
5612 Clear 18 1011 79 10000 4.11 222 05:38 22.09.2021
5613 Clear 17 1012 79 10000 3.2 228 03:53 22.09.2021
5614 Clear 19 1012 79 10000 2.75 222 02:43 22.09.2021
5615 Clear 21 1014 79 10000 1.92 294 23:31 21.09.2021
5616 Clouds 22 1013 83 10000 4.12 40 21:47 21.09.2021
5617 Clear 23 1013 73 10000 4.05 323 20:27 21.09.2021
5618 Clear 27 1012 65 10000 4.2 323 19:24 21.09.2021
5619 Clear 24 1012 59 10000 4.09 325 17:59 21.09.2021
5620 Clouds 27 1013 73 10000 5.14 320 16:41 21.09.2021
5621 Clear 27 1014 65 10000 5.14 360 15:56 21.09.2021
5622 Clouds 27 1015 65 10000 6.17 340 14:58 21.09.2021
5623 Clouds 27 1015 69 10000 4.12 300 13:58 21.09.2021
5624 Clouds 26 1015 69 10000 4.12 300 13:39 21.09.2021
5625 Clouds 26 1015 69 10000 3.09 280 12:44 21.09.2021
5626 Clouds 22 1014 83 10000 2.06 240 10:39 21.09.2021
5627 Clear 19 1015 88 10000 1.03 200 08:45 21.09.2021
5628 Clouds 18 1014 86 10000 0.24 54 07:37 21.09.2021
5629 Clouds 18 1014 86 10000 0.24 54 07:37 21.09.2021
5630 Clouds 22 1016 83 10000 2.37 344 01:54 21.09.2021
5631 Clouds 22 1017 78 10000 2.88 341 22:54 20.09.2021
5632 Clouds 23 1017 78 10000 4.12 360 21:43 20.09.2021
5633 Clouds 23 1017 78 10000 4.12 360 21:25 20.09.2021
5634 Clouds 25 1016 73 10000 5.14 340 19:47 20.09.2021
5635 Clear 26 1016 69 10000 7.2 340 17:55 20.09.2021
5636 Clear 26 1016 69 10000 7.2 340 17:55 20.09.2021
5637 Clear 26 1016 69 10000 7.2 340 17:19 20.09.2021
5638 Clear 27 1017 61 10000 6.17 300 16:23 20.09.2021
5639 Clear 26 1017 69 10000 7.2 320 15:36 20.09.2021
5640 Clear 26 1018 61 10000 6.17 320 14:38 20.09.2021
5641 Clouds 25 1019 69 10000 4.12 300 12:44 20.09.2021
5642 Clouds 25 1019 69 10000 4.12 300 12:24 20.09.2021
5643 Clear 21 1018 83 8000 3.09 180 10:52 20.09.2021
5644 Clear 18 1018 94 8000 1.03 100 09:51 20.09.2021
5645 Clear 17 1018 94 8000 1.03 100 09:32 20.09.2021
5646 Clouds 17 1018 94 8000 1.03 140 08:48 20.09.2021
5647 Clear 18 1017 74 10000 1.48 277 06:22 20.09.2021
5648 Clear 18 1017 74 10000 1.48 277 06:22 20.09.2021
5649 Clear 18 1017 74 10000 1.48 277 06:22 20.09.2021
5650 Clouds 22 1019 72 10000 2.42 348 22:58 19.09.2021
5651 Clear 23 1017 78 10000 3.09 360 21:50 19.09.2021
5652 Clear 23 1017 78 10000 3.09 360 21:19 19.09.2021
5653 Clear 25 1016 64 10000 4.12 360 19:59 19.09.2021
5654 Clouds 25 1016 60 10000 4.14 0 18:53 19.09.2021
5655 Clouds 26 1016 53 10000 7.2 20 17:49 19.09.2021
5656 Clouds 26 1017 57 10000 6.17 20 16:51 19.09.2021
5657 Clouds 26 1017 57 10000 6.17 360 15:32 19.09.2021
5658 Clouds 26 1018 57 10000 7.2 360 14:49 19.09.2021
5659 Clouds 25 1018 64 10000 5.14 320 13:57 19.09.2021
5660 Clouds 25 1018 64 10000 5.14 320 12:56 19.09.2021
5661 Clouds 24 1018 68 10000 3.09 340 11:49 19.09.2021
5662 Clouds 23 1018 68 10000 3.09 340 11:22 19.09.2021
5663 Clear 19 1017 88 10000 2.06 300 09:51 19.09.2021
5664 Clear 19 1017 88 10000 2.06 300 09:23 19.09.2021
5665 Clear 21 1017 70 10000 1.91 17 06:49 19.09.2021
5666 Clouds 22 1017 76 10000 3.45 15 01:36 19.09.2021
5667 Clouds 23 1017 74 10000 4.28 16 23:19 18.09.2021
5668 Clouds 23 1016 83 10000 6.17 20 21:56 18.09.2021
5669 Clouds 23 1016 78 10000 8.23 20 20:46 18.09.2021
5670 Clouds 24 1015 83 10000 9.77 20 19:42 18.09.2021
5671 Clouds 24 1015 83 10000 9.77 20 19:22 18.09.2021
5672 Clouds 26 1016 69 10000 8.23 360 18:58 18.09.2021
5673 Clouds 26 1016 69 10000 8.23 360 18:29 18.09.2021
5674 Clouds 27 1016 69 10000 6.17 340 16:35 18.09.2021
5675 Clouds 27 1017 65 10000 5.14 360 13:53 18.09.2021
5676 Clouds 27 1017 65 10000 5.14 360 13:31 18.09.2021
5677 Clouds 26 1017 69 10000 4.12 300 12:52 18.09.2021
5678 Clouds 25 1017 73 8000 4.12 300 11:59 18.09.2021
5679 Clouds 25 1017 73 8000 4.12 300 11:29 18.09.2021
5680 Clouds 22 1017 94 8000 2.06 340 10:30 18.09.2021
5681 Clouds 21 1016 94 8000 1.03 340 09:24 18.09.2021
5682 Clouds 20 1016 84 10000 2.14 28 08:25 18.09.2021
5683 Clear 22 1016 85 10000 3.39 15 00:53 18.09.2021
5684 Clear 22 1016 84 10000 3.48 19 23:56 17.09.2021
5685 Clear 22 1017 82 10000 3.7 13 22:48 17.09.2021
5686 Clear 23 1016 80 10000 3.36 8 22:23 17.09.2021
5687 Clouds 23 1016 83 10000 5.66 360 21:33 17.09.2021
5688 Clouds 25 1015 73 10000 7.72 360 19:34 17.09.2021
5689 Clouds 26 1015 69 10000 6.17 320 18:42 17.09.2021
5690 Clouds 26 1016 65 10000 7.72 360 16:42 17.09.2021
5691 Clouds 27 1016 61 10000 5.14 340 15:21 17.09.2021
5692 Clouds 24 1017 83 10000 3.09 360 11:51 17.09.2021
5693 Clouds 22 1017 94 8000 2.57 20 10:21 17.09.2021
5694 Clouds 19 1016 83 10000 2.39 30 07:46 17.09.2021
5695 Clouds 20 1016 83 10000 2.97 30 05:45 17.09.2021
5696 Clear 22 1018 80 10000 3.45 15 00:32 17.09.2021
5697 Clear 22 1018 78 10000 3.36 13 22:42 16.09.2021
5698 Clear 22 1018 76 10000 3.59 9 22:23 16.09.2021
5699 Clouds 23 1017 78 10000 5.14 360 21:35 16.09.2021
5700 Clouds 24 1017 73 10000 6.17 360 20:29 16.09.2021
5701 Clouds 25 1017 69 10000 6.17 340 18:46 16.09.2021
5702 Clouds 25 1017 69 10000 6.17 340 18:18 16.09.2021
5703 Clouds 27 1017 65 10000 8.23 20 16:37 16.09.2021
5704 Clouds 27 1017 61 10000 6.17 40 14:49 16.09.2021
5705 Clear 27 1017 64 10000 4.4 354 13:33 16.09.2021
5706 Clear 26 1018 65 10000 3.91 1 12:42 16.09.2021
5707 Clouds 24 1018 78 10000 3.09 20 11:49 16.09.2021
5708 Clouds 22 1018 88 10000 2.06 340 10:54 16.09.2021
5709 Clouds 21 1018 88 10000 2.06 340 10:21 16.09.2021
5710 Clouds 19 1017 100 10000 1.03 360 09:18 16.09.2021
5711 Clear 17 1017 81 10000 0.99 79 07:47 16.09.2021
5712 Clear 19 1017 80 10000 1.34 70 06:56 16.09.2021
5713 Clear 19 1017 80 10000 1.34 70 06:37 16.09.2021
5714 Clear 20 1017 78 10000 2.21 19 03:22 16.09.2021
5715 Clear 22 1018 77 10000 2.24 10 00:46 16.09.2021
5716 Clear 22 1018 76 10000 2.15 346 22:59 15.09.2021
5717 Clear 22 1017 75 10000 2.6 336 22:20 15.09.2021
5718 Clouds 23 1016 78 10000 5.14 360 21:30 15.09.2021
5719 Clouds 24 1016 73 10000 4.12 340 20:26 15.09.2021
5720 Clouds 26 1016 69 10000 6.17 300 19:31 15.09.2021
5721 Clouds 26 1016 73 10000 6.17 300 18:37 15.09.2021
5722 Clouds 27 1016 61 10000 6.17 300 17:33 15.09.2021
5723 Clouds 27 1016 61 10000 6.17 300 16:28 15.09.2021
5724 Clouds 27 1017 61 10000 6.17 300 14:53 15.09.2021
5725 Clouds 27 1017 61 10000 6.17 300 14:33 15.09.2021
5726 Clouds 26 1017 69 10000 5.14 260 13:42 15.09.2021
5727 Clouds 26 1017 69 10000 5.14 260 13:23 15.09.2021
5728 Clouds 26 1017 57 10000 5.14 240 12:23 15.09.2021
5729 Clouds 25 1016 73 10000 5.14 220 11:49 15.09.2021
5730 Clear 23 1016 78 10000 6.17 180 10:57 15.09.2021
5731 Clear 23 1016 78 10000 6.17 180 10:57 15.09.2021
5732 Clouds 21 1015 83 10000 3.09 200 09:44 15.09.2021
5733 Clouds 20 1015 88 10000 5.14 180 08:41 15.09.2021
5734 Clear 20 1014 84 10000 5.36 223 06:28 15.09.2021
5735 Clouds 22 1015 79 10000 5.03 219 00:37 15.09.2021
5736 Clouds 24 1014 78 10000 6.17 260 21:59 14.09.2021
5737 Clear 25 1013 69 10000 5.14 280 20:56 14.09.2021
5738 Clouds 26 1013 69 10000 6.17 260 19:58 14.09.2021
5739 Clouds 27 1012 61 10000 7.2 280 18:40 14.09.2021
5740 Clouds 28 1012 61 10000 8.75 280 17:29 14.09.2021
5741 Clouds 27 1012 65 10000 8.23 280 15:58 14.09.2021
5742 Clouds 28 1012 61 10000 5.14 280 14:32 14.09.2021
5743 Clouds 28 1012 57 10000 4.12 260 13:26 14.09.2021
5744 Clouds 23 1011 83 8000 3.09 240 10:57 14.09.2021
5745 Clouds 22 1011 88 8000 3.09 240 09:51 14.09.2021
5746 Clouds 22 1011 88 8000 3.09 240 09:18 14.09.2021
5747 Clouds 22 1012 71 10000 2.22 211 07:28 14.09.2021
5748 Clouds 23 1014 72 10000 3.87 214 00:57 14.09.2021
5749 Clouds 23 1014 72 10000 3.84 245 23:18 13.09.2021
5750 Clouds 23 1013 73 10000 4.43 234 22:27 13.09.2021
5751 Clouds 23 1013 83 10000 3.09 260 21:54 13.09.2021
5752 Clouds 24 1013 83 10000 3.09 260 21:19 13.09.2021
5753 Clouds 24 1013 83 10000 3.09 260 21:19 13.09.2021
5754 Clouds 25 1011 78 10000 5.14 280 19:34 13.09.2021
5755 Clouds 25 1011 78 10000 5.14 280 18:43 13.09.2021
5756 Clouds 24 1011 88 10000 3.09 260 17:18 13.09.2021
5757 Clouds 25 1011 73 10000 6.17 280 15:55 13.09.2021
5758 Clouds 27 1011 65 10000 7.72 320 14:19 13.09.2021
5759 Clouds 26 1012 69 10000 4.12 280 11:21 13.09.2021
5760 Clouds 29 1009 34 10000 7.2 260 09:54 13.09.2021
5761 Clouds 29 1009 46 10000 7.49 117 07:46 13.09.2021
5762 Clouds 24 1014 69 10000 1.54 91 23:50 12.09.2021
5763 Clouds 25 1014 69 10000 2.84 288 22:26 12.09.2021
5764 Clouds 25 1014 78 8000 2.06 300 21:51 12.09.2021
5765 Clouds 25 1014 78 10000 4.12 280 20:41 12.09.2021
5766 Clouds 25 1013 78 10000 6.17 300 19:54 12.09.2021
5767 Clouds 25 1013 78 10000 6.17 300 19:28 12.09.2021
5768 Clouds 28 1012 73 10000 5.14 300 18:32 12.09.2021
5769 Clear 29 1011 54 10000 6.17 320 16:42 12.09.2021
5770 Clear 30 1012 45 10000 4.12 320 15:29 12.09.2021
5771 Clear 28 1012 57 8000 3.09 340 13:55 12.09.2021
5772 Clear 27 1013 53 6000 1.03 340 11:47 12.09.2021
5773 Clear 22 1013 83 6000 1.03 180 10:18 12.09.2021
5774 Mist 19 1013 94 4000 2.06 180 08:38 12.09.2021
5775 Clouds 21 1015 72 10000 1.5 94 02:56 12.09.2021
5776 Clear 22 1016 77 10000 1.87 58 00:44 12.09.2021
5777 Clear 23 1016 77 10000 2.86 43 22:25 11.09.2021
5778 Clear 24 1015 83 10000 4.12 20 21:37 11.09.2021
5779 Clear 27 1015 73 10000 6.17 20 19:32 11.09.2021
5780 Clear 29 1015 65 10000 6.17 40 17:53 11.09.2021
5781 Clear 30 1016 61 10000 6.17 20 16:21 11.09.2021
5782 Clear 28 1017 57 10000 5.14 360 14:22 11.09.2021
5783 Clear 27 1017 61 10000 5.14 360 13:19 11.09.2021
5784 Clear 24 1017 73 8000 3.09 60 11:34 11.09.2021
5785 Clear 20 1017 94 8000 2.06 20 09:41 11.09.2021
5786 Clouds 19 1017 83 10000 3.17 48 07:50 11.09.2021
5787 Clouds 20 1017 82 10000 3.13 31 07:28 11.09.2021
5788 Clouds 22 1019 83 10000 3.22 52 00:49 11.09.2021
5789 Clouds 23 1019 80 10000 4.31 35 22:25 10.09.2021
5790 Clouds 23 1018 83 10000 5.14 20 21:54 10.09.2021
5791 Clouds 25 1018 78 10000 6.17 20 20:25 10.09.2021
5792 Clear 27 1017 69 10000 8.23 20 18:28 10.09.2021
5793 Clear 27 1018 61 10000 8.23 20 16:57 10.09.2021
5794 Clear 28 1019 57 10000 7.2 40 14:52 10.09.2021
5795 Clouds 26 1019 65 10000 5.14 20 12:43 10.09.2021
5796 Clouds 21 1019 83 10000 4.12 120 09:27 10.09.2021
5797 Clouds 19 1018 86 10000 3.23 57 07:50 10.09.2021
5798 Clouds 21 1019 85 10000 3.34 38 02:31 10.09.2021
5799 Clear 23 1020 81 10000 3.32 26 22:32 09.09.2021
5800 Clouds 23 1019 73 10000 6.17 20 21:45 09.09.2021
5801 Clear 25 1018 69 10000 6.17 20 20:47 09.09.2021
5802 Clear 26 1018 69 10000 7.2 20 19:58 09.09.2021
5803 Clear 28 1018 69 10000 4.7 3 18:32 09.09.2021
5804 Clear 28 1019 57 10000 5.14 40 16:40 09.09.2021
5805 Clouds 28 1019 54 10000 5.14 20 15:43 09.09.2021
5806 Clouds 27 1020 57 10000 3.09 20 12:53 09.09.2021
5807 Clouds 25 1019 65 10000 4.12 60 11:45 09.09.2021
5808 Clouds 22 1019 83 10000 3.09 20 09:50 09.09.2021
5809 Clouds 21 1019 88 10000 2.06 40 08:49 09.09.2021
5810 Clear 20 1018 84 10000 3.03 31 06:26 09.09.2021
5811 Clear 21 1019 84 10000 2.57 18 02:36 09.09.2021
5812 Clear 21 1019 84 10000 2.57 18 02:36 09.09.2021
5813 Clear 23 1020 82 10000 2.4 30 22:42 08.09.2021
5814 Clouds 24 1018 78 10000 5.14 20 21:35 08.09.2021
5815 Clouds 25 1018 73 10000 6.17 20 19:56 08.09.2021
5816 Clouds 26 1018 73 10000 6.17 20 19:22 08.09.2021
5817 Clouds 26 1018 73 10000 7.2 360 18:29 08.09.2021
5818 Clouds 27 1018 73 10000 6.17 20 17:56 08.09.2021
5819 Clouds 27 1018 65 10000 7.2 20 16:32 08.09.2021
5820 Clouds 28 1019 61 10000 4.63 40 14:26 08.09.2021
5821 Clouds 26 1019 73 10000 5.14 20 12:47 08.09.2021
5822 Clouds 26 1019 73 10000 5.14 20 12:27 08.09.2021
5823 Clouds 25 1019 78 10000 5.14 20 11:30 08.09.2021
5824 Clouds 24 1018 88 10000 2.58 28 10:33 08.09.2021
5825 Clouds 23 1018 94 8000 5.14 20 09:59 08.09.2021
5826 Clouds 23 1018 94 8000 3.09 20 08:36 08.09.2021
5827 Clouds 23 1017 89 10000 2.53 33 07:35 08.09.2021
5828 Clouds 23 1017 89 10000 2.66 18 05:28 08.09.2021
5829 Clear 24 1019 83 10000 1.57 39 22:43 07.09.2021
5830 Clear 24 1017 78 10000 3.09 40 21:52 07.09.2021
5831 Clouds 28 1017 70 10000 2.89 358 19:52 07.09.2021
5832 Clear 28 1016 57 10000 6.17 20 18:45 07.09.2021
5833 Clear 28 1016 65 10000 6.17 40 17:49 07.09.2021
5834 Clouds 29 1017 65 10000 5.14 20 16:38 07.09.2021
5835 Clouds 28 1017 65 10000 5.14 20 15:36 07.09.2021
5836 Clouds 28 1017 65 10000 6.17 340 14:42 07.09.2021
5837 Clouds 26 1018 78 10000 2.95 354 12:41 07.09.2021
5838 Clouds 25 1017 78 10000 4.12 360 11:37 07.09.2021
5839 Clouds 24 1017 78 8000 2.06 360 10:41 07.09.2021
5840 Clouds 21 1016 94 8000 1.03 260 08:34 07.09.2021
5841 Clear 22 1015 72 10000 1.42 5 07:23 07.09.2021
5842 Clear 22 1015 71 10000 1.29 329 05:40 07.09.2021
5843 Clouds 22 1016 67 10000 1.57 290 02:34 07.09.2021
5844 Clouds 24 1017 68 10000 1.13 50 00:43 07.09.2021
5845 Clear 25 1017 68 10000 1.12 37 23:34 06.09.2021
5846 Clear 26 1017 67 10000 1.68 327 22:53 06.09.2021
5847 Clear 27 1017 67 10000 1.68 327 22:32 06.09.2021
5848 Clear 27 1015 73 10000 2.06 20 20:55 06.09.2021
5849 Clear 29 1014 65 10000 3.09 340 19:23 06.09.2021
5850 Clear 29 1014 69 10000 6.17 360 18:48 06.09.2021
5851 Clear 29 1014 69 10000 6.17 360 18:23 06.09.2021
5852 Clear 30 1014 65 10000 4.12 340 17:36 06.09.2021
5853 Clear 31 1014 54 10000 4.12 40 15:49 06.09.2021
5854 Clouds 27 1015 69 6000 6.17 20 13:48 06.09.2021
5855 Clouds 26 1015 73 6000 3.09 60 12:47 06.09.2021
5856 Mist 23 1014 88 4000 3.09 40 10:45 06.09.2021
5857 Clouds 21 1014 76 10000 0.74 274 07:59 06.09.2021
5858 Clouds 24 1014 72 10000 3.14 261 04:45 06.09.2021
5859 Clouds 27 1015 62 10000 4.02 251 23:35 05.09.2021
5860 Clouds 26 1015 59 10000 4.03 248 22:48 05.09.2021
5861 Clouds 26 1012 78 8000 2.06 300 21:58 05.09.2021
5862 Clouds 26 1012 78 8000 2.06 300 21:30 05.09.2021
5863 Clouds 26 1012 78 8000 5.14 300 20:33 05.09.2021
5864 Clear 30 1010 61 10000 3.6 20 18:46 05.09.2021
5865 Clear 34 1009 45 10000 5.14 40 17:31 05.09.2021
5866 Clear 33 1012 48 10000 3.09 20 15:28 05.09.2021
5867 Clear 32 1012 48 10000 3.09 20 14:19 05.09.2021
5868 Clear 29 1013 57 10000 3.09 80 12:29 05.09.2021
5869 Clear 24 1014 83 10000 3.09 100 10:53 05.09.2021
5870 Clear 23 1014 83 10000 3.09 100 10:23 05.09.2021
5871 Clear 21 1013 94 10000 3.09 80 09:21 05.09.2021
5872 Clouds 19 1013 67 10000 2.7 62 07:51 05.09.2021
5873 Clouds 21 1014 70 10000 2.47 75 01:22 05.09.2021
5874 Clouds 22 1014 71 10000 2.45 68 00:27 05.09.2021
5875 Clouds 22 1014 71 10000 2.45 68 23:39 04.09.2021
5876 Clouds 23 1015 72 10000 2.32 55 22:36 04.09.2021
5877 Clouds 24 1013 83 10000 3.09 20 21:56 04.09.2021
5878 Clear 27 1013 65 10000 5.14 20 19:41 04.09.2021
5879 Clear 27 1013 65 10000 6.17 360 18:43 04.09.2021
5880 Clear 28 1013 65 10000 8.23 360 16:22 04.09.2021
5881 Clear 27 1014 53 10000 6.17 20 13:18 04.09.2021
5882 Clear 25 1014 61 10000 4.12 80 11:19 04.09.2021
5883 Clear 20 1014 88 10000 3.09 80 08:58 04.09.2021
5884 Clear 19 1014 86 10000 3.01 47 05:50 04.09.2021
5885 Clear 21 1016 80 10000 2.62 23 00:25 04.09.2021
5886 Clear 21 1016 80 10000 2.62 23 23:31 03.09.2021
5887 Clouds 23 1016 73 10000 5.14 20 21:59 03.09.2021
5888 Clouds 23 1016 73 10000 5.14 20 21:34 03.09.2021
5889 Clouds 24 1016 73 10000 6.17 20 20:42 03.09.2021
5890 Clouds 25 1015 69 10000 8.23 20 19:49 03.09.2021
5891 Clouds 25 1016 69 10000 8.23 360 18:59 03.09.2021
5892 Clouds 26 1016 65 10000 8.23 360 17:42 03.09.2021
5893 Clouds 27 1017 61 10000 8.75 20 16:25 03.09.2021
5894 Clouds 27 1017 57 10000 6.17 20 14:53 03.09.2021
5895 Clouds 24 1018 68 8000 4.12 20 11:57 03.09.2021
5896 Clouds 23 1017 73 8000 3.09 40 10:26 03.09.2021
5897 Clouds 22 1017 78 8000 4.12 20 08:44 03.09.2021
5898 Clouds 22 1017 73 10000 3.45 33 07:39 03.09.2021
5899 Clouds 23 1018 83 10000 3.85 31 01:39 03.09.2021
5900 Clear 24 1019 86 10000 3.58 25 22:55 02.09.2021
5901 Clouds 25 1017 73 10000 6.69 360 21:25 02.09.2021
5902 Clouds 26 1017 73 10000 7.72 340 19:27 02.09.2021
5903 Clouds 27 1017 65 10000 5.14 360 17:31 02.09.2021
5904 Clouds 27 1017 65 10000 5.14 360 17:31 02.09.2021
5905 Clouds 28 1017 65 10000 3.09 360 15:49 02.09.2021
5906 Clouds 28 1018 54 10000 5.14 20 13:57 02.09.2021
5907 Clear 27 1018 65 10000 2.89 358 12:42 02.09.2021
5908 Clouds 25 1018 65 10000 2.06 40 11:34 02.09.2021
5909 Clear 20 1017 94 10000 1.03 320 09:40 02.09.2021
5910 Clear 18 1016 83 10000 0.78 96 07:47 02.09.2021
5911 Clear 18 1016 83 10000 1.19 90 06:58 02.09.2021
5912 Clear 21 1017 83 10000 2.1 54 02:51 02.09.2021
5913 Clear 22 1018 83 10000 2.15 49 01:55 02.09.2021
5914 Clear 22 1018 82 10000 1.96 29 01:23 02.09.2021
5915 Clear 22 1018 81 10000 1.9 20 23:37 01.09.2021
5916 Clear 23 1018 79 10000 1.9 13 22:34 01.09.2021
5917 Clouds 24 1016 78 10000 3.09 360 21:35 01.09.2021
5918 Clouds 25 1016 73 10000 4.12 360 20:28 01.09.2021
5919 Clouds 26 1015 69 10000 6.17 360 18:29 01.09.2021
5920 Clear 27 1015 61 10000 5.14 20 17:37 01.09.2021
5921 Clear 27 1015 61 10000 5.14 360 16:46 01.09.2021
5922 Clouds 28 1016 61 10000 8.23 360 15:25 01.09.2021
5923 Clouds 25 1016 73 10000 2.06 360 11:50 01.09.2021
5924 Clouds 24 1016 78 10000 3.09 340 10:55 01.09.2021
5925 Clouds 21 1015 83 10000 1.03 360 08:46 01.09.2021
5926 Clouds 21 1015 86 10000 1.2 357 07:50 01.09.2021
5927 Clouds 20 1016 85 10000 2.22 354 00:50 01.09.2021
5928 Clouds 23 1016 83 10000 2.17 349 22:30 31.08.2021
5929 Clouds 23 1015 78 10000 5.14 360 21:22 31.08.2021
5930 Clouds 24 1014 69 10000 8.23 360 19:45 31.08.2021
5931 Clouds 26 1014 69 10000 9.26 340 18:27 31.08.2021
5932 Clouds 26 1014 69 10000 9.26 340 17:36 31.08.2021
5933 Clouds 27 1014 61 10000 7.2 340 16:52 31.08.2021
5934 Clouds 27 1014 61 10000 7.2 340 16:23 31.08.2021
5935 Clouds 26 1015 61 10000 4.12 340 12:56 31.08.2021
5936 Clouds 25 1015 69 10000 3.09 340 11:26 31.08.2021
5937 Clouds 23 1015 73 10000 2.06 360 10:52 31.08.2021
5938 Clouds 22 1014 83 10000 2.06 360 09:43 31.08.2021
5939 Clouds 21 1014 83 10000 1.03 360 08:37 31.08.2021
5940 Clouds 22 1014 85 10000 2.9 30 05:58 31.08.2021
5941 Clear 23 1015 85 10000 3.61 11 00:23 31.08.2021
5942 Clear 23 1015 84 10000 3.54 14 23:29 30.08.2021
5943 Clouds 23 1014 73 10000 5.14 20 21:43 30.08.2021
5944 Clouds 24 1013 69 10000 6.17 20 20:42 30.08.2021
5945 Clouds 25 1013 69 10000 9.77 20 19:58 30.08.2021
5946 Clouds 25 1013 69 10000 9.77 20 19:29 30.08.2021
5947 Clouds 26 1013 69 10000 8.75 360 18:23 30.08.2021
5948 Clouds 27 1013 61 10000 8.23 40 17:44 30.08.2021
5949 Clouds 26 1014 65 10000 8.75 40 15:56 30.08.2021
5950 Clear 26 1014 65 10000 5.14 40 14:39 30.08.2021
5951 Clear 26 1015 61 10000 7.2 40 13:27 30.08.2021
5952 Clouds 24 1015 64 10000 3.09 60 11:57 30.08.2021
5953 Clear 19 1015 82 10000 3.19 58 08:27 30.08.2021
5954 Clear 22 1016 73 10000 3.59 21 22:20 29.08.2021
5955 Clear 23 1016 73 10000 3.59 21 21:31 29.08.2021
5956 Clouds 25 1016 64 10000 7.2 40 19:33 29.08.2021
5957 Clouds 26 1016 61 10000 8.23 360 18:30 29.08.2021
5958 Clouds 26 1016 61 10000 9.26 20 16:33 29.08.2021
5959 Clouds 26 1017 61 10000 8.75 20 15:25 29.08.2021
5960 Clouds 26 1018 65 10000 4.12 20 13:57 29.08.2021
5961 Clouds 25 1018 65 10000 3.6 40 12:58 29.08.2021
5962 Clouds 25 1018 65 10000 3.6 40 12:21 29.08.2021
5963 Clouds 24 1018 69 10000 3.09 20 11:41 29.08.2021
5964 Clouds 23 1018 73 10000 3.6 20 10:49 29.08.2021
5965 Clouds 23 1018 73 10000 3.6 20 10:30 29.08.2021
5966 Clouds 23 1017 83 10000 2.57 20 09:44 29.08.2021
5967 Clouds 22 1017 83 10000 2.6 26 04:39 29.08.2021
5968 Clear 23 1019 85 10000 2.92 26 22:58 28.08.2021
5969 Clear 25 1017 69 10000 6.17 20 20:46 28.08.2021
5970 Clear 26 1017 65 10000 6.17 360 19:36 28.08.2021
5971 Clear 26 1017 65 10000 9.77 360 18:27 28.08.2021
5972 Clear 27 1018 65 10000 8.23 20 17:47 28.08.2021
5973 Clear 28 1018 57 10000 8.23 20 16:56 28.08.2021
5974 Clear 28 1018 57 10000 7.2 20 15:20 28.08.2021
5975 Clear 27 1019 57 10000 5.14 20 13:59 28.08.2021
5976 Clear 27 1019 57 10000 5.14 20 13:40 28.08.2021
5977 Clear 26 1019 57 10000 3.09 40 12:35 28.08.2021
5978 Clouds 25 1019 61 10000 3.09 80 11:34 28.08.2021
5979 Clouds 22 1018 73 8000 2.06 40 09:48 28.08.2021
5980 Clear 19 1018 84 10000 2.89 48 07:57 28.08.2021
5981 Clouds 21 1019 81 10000 3.02 16 00:59 28.08.2021
5982 Clouds 23 1018 68 10000 6.17 20 21:29 27.08.2021
5983 Clouds 24 1017 68 10000 6.17 20 20:52 27.08.2021
5984 Clouds 25 1017 69 10000 5.14 360 19:34 27.08.2021
5985 Clouds 26 1016 65 10000 6.17 20 18:39 27.08.2021
5986 Clouds 26 1016 65 10000 7.2 360 17:54 27.08.2021
5987 Clouds 27 1016 61 10000 7.2 360 16:41 27.08.2021
5988 Clouds 26 1017 65 10000 6.17 360 14:46 27.08.2021
5989 Clouds 26 1017 61 10000 7.2 340 13:30 27.08.2021
5990 Clouds 24 1017 73 10000 4.12 360 11:58 27.08.2021
5991 Clouds 24 1016 73 8000 4.12 300 10:50 27.08.2021
5992 Clouds 23 1016 73 8000 4.12 300 10:23 27.08.2021
5993 Clouds 22 1015 78 8000 5.14 20 08:57 27.08.2021
5994 Clouds 22 1015 78 8000 5.14 20 08:35 27.08.2021
5995 Clear 22 1014 87 10000 3.32 15 05:36 27.08.2021
5996 Clear 23 1015 84 10000 2.8 30 00:41 27.08.2021
5997 Clear 23 1016 83 10000 2.52 35 00:18 27.08.2021
5998 Clear 23 1015 81 10000 2.84 7 22:26 26.08.2021
5999 Clouds 24 1015 78 10000 5.14 360 21:36 26.08.2021
6000 Clear 26 1013 69 10000 5.14 20 19:33 26.08.2021
6001 Clear 27 1013 61 10000 6.17 360 17:52 26.08.2021
6002 Clear 27 1013 61 10000 6.17 360 17:25 26.08.2021
6003 Clear 27 1014 61 10000 6.17 20 16:26 26.08.2021
6004 Clouds 27 1014 61 10000 5.14 320 14:21 26.08.2021
6005 Clouds 27 1015 61 10000 5.14 340 13:20 26.08.2021
6006 Clouds 26 1014 65 10000 5.14 20 12:33 26.08.2021
6007 Clouds 24 1014 73 10000 3.09 340 11:37 26.08.2021
6008 Clouds 21 1013 78 8000 4.12 60 08:36 26.08.2021
6009 Clear 21 1012 85 10000 2.96 46 07:54 26.08.2021
6010 Clear 22 1014 80 10000 3.33 40 23:39 25.08.2021
6011 Clear 22 1014 79 10000 2.84 35 22:38 25.08.2021
6012 Clear 22 1014 77 10000 2.45 15 22:19 25.08.2021
6013 Clouds 24 1012 73 10000 6.17 20 20:57 25.08.2021
6014 Clouds 24 1012 73 10000 6.17 20 20:29 25.08.2021
6015 Clear 26 1012 61 10000 6.17 360 18:46 25.08.2021
6016 Clear 26 1013 61 10000 8.23 360 17:53 25.08.2021
6017 Clear 26 1014 61 10000 7.2 20 15:51 25.08.2021
6018 Clear 27 1014 61 10000 7.2 20 15:26 25.08.2021
6019 Clouds 26 1014 61 10000 7.2 360 14:45 25.08.2021
6020 Clouds 26 1014 57 10000 4.12 360 13:44 25.08.2021
6021 Clouds 24 1014 64 10000 3.09 360 11:36 25.08.2021
6022 Clouds 23 1014 68 10000 3.09 320 10:56 25.08.2021
6023 Clouds 21 1013 73 10000 2.06 160 09:59 25.08.2021
6024 Clouds 21 1013 73 10000 2.06 160 09:30 25.08.2021
6025 Clouds 21 1013 73 10000 2.06 220 08:33 25.08.2021
6026 Clouds 21 1012 86 10000 0.44 331 06:19 25.08.2021
6027 Clear 22 1014 84 10000 1.86 348 00:55 25.08.2021
6028 Clear 22 1015 82 10000 2.51 320 22:51 24.08.2021
6029 Clouds 23 1014 73 10000 1.03 280 20:54 24.08.2021
6030 Clouds 24 1014 68 10000 4.12 300 19:54 24.08.2021
6031 Clouds 25 1013 64 10000 8.23 340 18:54 24.08.2021
6032 Clouds 25 1013 64 10000 5.14 320 17:52 24.08.2021
6033 Clouds 25 1013 64 10000 5.14 320 17:21 24.08.2021
6034 Clouds 26 1014 61 10000 7.2 320 14:45 24.08.2021
6035 Clouds 26 1015 61 10000 5.14 280 13:29 24.08.2021
6036 Clouds 24 1015 64 8000 4.12 300 12:41 24.08.2021
6037 Clouds 22 1014 73 6000 3.09 300 11:19 24.08.2021
6038 Clouds 22 1014 73 6000 3.09 300 10:45 24.08.2021
6039 Clouds 21 1014 83 6000 2.06 300 09:24 24.08.2021
6040 Clouds 22 1013 83 10000 2.76 286 07:35 24.08.2021
6041 Clouds 22 1013 86 10000 2.29 284 05:37 24.08.2021
6042 Clouds 22 1013 87 10000 2.93 290 02:40 24.08.2021
6043 Clouds 23 1014 88 10000 3.28 288 23:28 23.08.2021
6044 Clouds 23 1014 88 10000 3.28 288 22:42 23.08.2021
6045 Clouds 23 1013 83 6000 4.12 320 20:58 23.08.2021
6046 Clouds 24 1013 78 10000 4.12 320 19:30 23.08.2021
6047 Clouds 24 1013 78 10000 4.12 320 19:30 23.08.2021
6048 Clouds 26 1013 69 10000 6.17 320 16:45 23.08.2021
6049 Clouds 27 1013 69 10000 6.17 340 15:32 23.08.2021
6050 Clouds 26 1014 69 10000 4.63 280 13:47 23.08.2021
6051 Clouds 25 1015 69 10000 4.63 280 12:30 23.08.2021
6052 Clouds 22 1015 78 8000 3.6 300 10:46 23.08.2021
6053 Clouds 21 1015 83 6000 3.6 280 09:52 23.08.2021
6054 Clouds 21 1014 83 6000 1.54 300 08:34 23.08.2021
6055 Clear 21 1014 86 10000 1.48 265 06:56 23.08.2021
6056 Clear 21 1014 86 10000 1.48 265 06:37 23.08.2021
6057 Clear 22 1016 85 10000 2.68 309 00:57 23.08.2021
6058 Clear 22 1016 85 10000 3.4 305 23:38 22.08.2021
6059 Clear 23 1016 83 10000 3.57 303 22:40 22.08.2021
6060 Clouds 24 1015 83 10000 5.14 340 20:23 22.08.2021
6061 Clouds 25 1015 73 10000 5.14 300 19:57 22.08.2021
6062 Clouds 27 1016 65 10000 7.2 320 17:37 22.08.2021
6063 Clouds 27 1016 65 10000 6.17 340 15:47 22.08.2021
6064 Clouds 27 1017 65 10000 8.23 340 14:53 22.08.2021
6065 Clouds 28 1017 65 10000 6.17 320 13:37 22.08.2021
6066 Clouds 28 1017 65 10000 6.17 320 13:19 22.08.2021
6067 Clouds 26 1017 69 10000 5.14 320 12:29 22.08.2021
6068 Clouds 25 1017 73 10000 3.09 320 11:43 22.08.2021
6069 Clouds 23 1017 83 8000 3.09 260 10:43 22.08.2021
6070 Clouds 21 1017 88 8000 1.03 300 08:36 22.08.2021
6071 Clear 22 1017 81 10000 1.37 352 04:58 22.08.2021
6072 Clear 23 1019 83 10000 2.82 330 00:32 22.08.2021
6073 Clear 24 1019 83 10000 2.92 333 22:35 21.08.2021
6074 Clouds 25 1018 78 10000 3.6 360 20:56 21.08.2021
6075 Clouds 26 1018 65 10000 4.63 340 18:46 21.08.2021
6076 Clouds 26 1018 78 10000 8.23 340 17:59 21.08.2021
6077 Clouds 27 1018 65 10000 4.63 340 16:56 21.08.2021
6078 Clouds 27 1018 65 10000 4.63 340 16:29 21.08.2021
6079 Clouds 27 1018 65 10000 6.17 320 15:37 21.08.2021
6080 Clouds 27 1018 61 10000 6.17 320 14:54 21.08.2021
6081 Clouds 26 1018 65 10000 5.14 340 13:34 21.08.2021
6082 Clouds 25 1018 64 10000 4.12 340 12:38 21.08.2021
6083 Clouds 21 1017 83 6000 1.54 280 09:31 21.08.2021
6084 Clouds 22 1016 83 10000 3.06 5 06:20 21.08.2021
6085 Clear 22 1017 84 10000 2.08 320 23:50 20.08.2021
6086 Clouds 24 1015 78 10000 2.06 20 21:54 20.08.2021
6087 Clear 26 1014 69 10000 6.17 360 18:31 20.08.2021
6088 Clear 27 1014 69 10000 7.2 320 16:26 20.08.2021
6089 Clear 26 1015 65 10000 3.09 320 13:54 20.08.2021
6090 Clear 25 1014 69 10000 3.09 280 11:51 20.08.2021
6091 Clear 24 1014 69 10000 3.09 280 11:25 20.08.2021
6092 Clouds 21 1014 78 8000 1.03 340 09:43 20.08.2021
6093 Clouds 20 1014 83 8000 2.06 360 08:51 20.08.2021
6094 Clear 20 1013 80 10000 1.87 14 07:56 20.08.2021
6095 Clear 21 1014 79 10000 2.33 8 04:23 20.08.2021
6096 Clear 21 1014 80 10000 2.6 344 00:36 20.08.2021
6097 Clear 22 1014 78 10000 2.67 338 23:26 19.08.2021
6098 Clear 22 1014 78 10000 2.67 338 22:35 19.08.2021
6099 Clouds 24 1013 78 10000 6.17 20 20:55 19.08.2021
6100 Clouds 25 1013 73 10000 6.17 360 19:53 19.08.2021
6101 Clear 27 1013 69 10000 8.23 340 17:28 19.08.2021
6102 Clear 27 1013 69 10000 6.17 340 16:32 19.08.2021
6103 Clear 28 1014 61 10000 6.17 300 13:58 19.08.2021
6104 Clear 26 1014 65 10000 4.12 340 12:38 19.08.2021
6105 Clouds 25 1014 69 10000 1.03 340 11:37 19.08.2021
6106 Clouds 22 1014 78 8000 2.06 40 10:24 19.08.2021
6107 Clouds 22 1014 83 8000 4.12 20 09:48 19.08.2021
6108 Clouds 21 1014 83 8000 4.12 20 09:22 19.08.2021
6109 Clouds 21 1014 88 10000 2.85 6 07:41 19.08.2021
6110 Clear 21 1015 88 10000 2.48 353 02:53 19.08.2021
6111 Clear 21 1015 86 10000 1.95 342 01:55 19.08.2021
6112 Clear 23 1016 80 10000 2.37 347 22:56 18.08.2021
6113 Clear 25 1015 78 10000 2.02 353 21:42 18.08.2021
6114 Clear 26 1015 78 10000 5.14 360 20:35 18.08.2021
6115 Clear 27 1015 69 10000 6.17 340 19:51 18.08.2021
6116 Clear 27 1015 69 10000 7.2 340 18:57 18.08.2021
6117 Clear 27 1015 69 10000 7.2 340 18:32 18.08.2021
6118 Clear 28 1016 65 10000 5.14 320 16:33 18.08.2021
6119 Clear 28 1016 61 10000 5.14 300 15:39 18.08.2021
6120 Clear 28 1016 61 10000 5.14 300 15:20 18.08.2021
6121 Clear 27 1017 61 10000 4.12 300 12:44 18.08.2021
6122 Clear 26 1017 61 10000 4.12 300 12:25 18.08.2021
6123 Clouds 23 1017 73 10000 2.06 180 10:50 18.08.2021
6124 Clear 21 1016 86 10000 0.93 258 07:48 18.08.2021
6125 Clear 22 1018 83 10000 1.82 322 00:45 18.08.2021
6126 Clear 23 1018 82 10000 2.19 333 22:31 17.08.2021
6127 Clouds 24 1018 78 10000 6.69 340 21:29 17.08.2021
6128 Clouds 25 1017 78 10000 6.69 340 20:45 17.08.2021
6129 Clouds 27 1017 73 10000 4.63 300 19:19 17.08.2021
6130 Clear 29 1018 69 10000 5.14 340 17:33 17.08.2021
6131 Clear 30 1018 65 10000 6.69 320 16:40 17.08.2021
6132 Clear 29 1018 65 10000 4.63 300 15:38 17.08.2021
6133 Clear 29 1019 69 10000 5.66 320 14:29 17.08.2021
6134 Clear 27 1019 69 10000 4.63 320 12:23 17.08.2021
6135 Clear 20 1018 94 5000 3.09 200 09:22 17.08.2021
6136 Clear 20 1017 83 10000 1.79 274 07:48 17.08.2021
6137 Clear 20 1017 79 10000 1.93 289 04:33 17.08.2021
6138 Clear 25 1018 66 10000 2.11 5 22:58 16.08.2021
6139 Clear 25 1018 66 10000 2.11 5 22:40 16.08.2021
6140 Clear 25 1018 65 10000 2.16 15 22:21 16.08.2021
6141 Clear 27 1017 78 10000 4.12 360 21:35 16.08.2021
6142 Clear 28 1016 65 10000 5.14 360 20:49 16.08.2021
6143 Clear 30 1016 57 10000 6.17 360 19:24 16.08.2021
6144 Clear 31 1016 54 10000 6.17 20 18:24 16.08.2021
6145 Clear 31 1016 58 10000 6.17 20 17:51 16.08.2021
6146 Clear 32 1017 58 10000 6.17 20 15:49 16.08.2021
6147 Clear 33 1017 58 10000 5.14 360 14:56 16.08.2021
6148 Clear 30 1017 61 10000 5.14 360 13:38 16.08.2021
6149 Clear 29 1017 65 10000 4.12 340 12:55 16.08.2021
6150 Clear 24 1016 88 6000 3.09 20 10:38 16.08.2021
6151 Mist 22 1015 100 3000 1.03 160 08:49 16.08.2021
6152 Clear 21 1015 74 10000 2.1 32 07:35 16.08.2021
6153 Clear 22 1014 76 10000 1.87 30 06:44 16.08.2021
6154 Clear 24 1016 86 10000 2.89 25 02:23 16.08.2021
6155 Clouds 26 1016 81 10000 2.69 2 23:00 15.08.2021
6156 Clear 28 1014 78 6000 5.14 360 20:51 15.08.2021
6157 Clear 32 1014 65 8000 5.14 340 18:47 15.08.2021
6158 Clear 38 1013 59 10000 4.94 340 17:56 15.08.2021
6159 Clear 38 1013 59 10000 4.94 340 17:34 15.08.2021
6160 Clear 33 1014 43 8000 4.12 320 16:26 15.08.2021
6161 Clear 32 1015 48 8000 5.14 60 14:48 15.08.2021
6162 Clear 32 1015 48 8000 5.14 60 14:26 15.08.2021
6163 Fog 24 1015 100 900 1.03 60 11:30 15.08.2021
6164 Fog 22 1015 100 200 2.57 320 09:31 15.08.2021
6165 Clouds 25 1015 77 10000 1.7 301 03:59 15.08.2021
6166 Clouds 26 1016 70 10000 1.98 309 00:42 15.08.2021
6167 Clear 30 1015 73 10000 1.74 73 22:29 14.08.2021
6168 Clear 30 1014 69 10000 4.12 20 20:58 14.08.2021
6169 Clear 31 1014 69 10000 5.14 360 19:44 14.08.2021
6170 Clear 32 1014 69 10000 5.14 360 19:23 14.08.2021
6171 Clear 32 1015 66 10000 5.14 40 17:21 14.08.2021
6172 Clear 31 1015 65 10000 6.17 360 15:52 14.08.2021
6173 Clear 30 1015 69 10000 4.12 340 14:25 14.08.2021
6174 Clear 31 1016 62 10000 3.09 340 12:22 14.08.2021
6175 Clouds 26 1016 78 8000 5.14 320 10:53 14.08.2021
6176 Clouds 24 1015 71 10000 1.53 54 07:48 14.08.2021
6177 Clouds 26 1017 76 10000 2.32 21 23:54 13.08.2021
6178 Clouds 26 1017 74 10000 2.8 29 22:30 13.08.2021
6179 Clouds 26 1015 83 8000 4.12 40 21:40 13.08.2021
6180 Clouds 28 1015 78 10000 7.2 20 18:49 13.08.2021
6181 Clear 31 1016 69 10000 5.14 40 17:56 13.08.2021
6182 Clear 31 1016 74 10000 6.17 20 16:32 13.08.2021
6183 Clear 30 1017 65 10000 6.17 20 14:30 13.08.2021
6184 Clear 26 1017 69 8000 3.09 40 11:20 13.08.2021
6185 Clear 23 1017 88 8000 2.06 80 09:49 13.08.2021
6186 Clouds 22 1017 88 8000 1.03 60 08:36 13.08.2021
6187 Clear 22 1016 88 10000 1.76 26 07:22 13.08.2021
6188 Clouds 22 1016 85 10000 2.19 23 04:59 13.08.2021
6189 Clouds 23 1017 86 10000 2.19 28 23:49 12.08.2021
6190 Clouds 24 1016 83 10000 3.09 20 21:33 12.08.2021
6191 Clouds 24 1016 78 10000 4.12 360 20:24 12.08.2021
6192 Clouds 25 1016 73 10000 6.69 340 19:48 12.08.2021
6193 Clouds 26 1016 69 10000 9.26 360 17:54 12.08.2021
6194 Clouds 27 1016 69 10000 6.17 360 16:34 12.08.2021
6195 Clouds 27 1017 69 10000 6.69 360 15:20 12.08.2021
6196 Clouds 27 1017 69 10000 5.66 360 13:20 12.08.2021
6197 Clouds 25 1017 73 10000 4.12 360 11:30 12.08.2021
6198 Clouds 20 1016 88 10000 1.52 21 07:59 12.08.2021
6199 Clear 20 1016 84 10000 1.39 350 05:19 12.08.2021
6200 Clear 22 1017 84 10000 3.16 293 22:55 11.08.2021
6201 Clouds 23 1016 83 10000 4.63 280 21:29 11.08.2021
6202 Clouds 26 1015 69 10000 6.17 320 18:33 11.08.2021
6203 Clouds 27 1015 69 10000 6.69 340 17:40 11.08.2021
6204 Clouds 28 1016 65 10000 5.66 320 15:21 11.08.2021
6205 Clouds 28 1016 69 10000 6.69 300 14:23 11.08.2021
6206 Clouds 27 1016 69 10000 5.14 320 12:35 11.08.2021
6207 Clouds 26 1016 69 10000 4.12 280 11:47 11.08.2021
6208 Clouds 26 1016 69 10000 4.12 280 11:22 11.08.2021
6209 Clouds 25 1016 78 10000 4.12 300 10:25 11.08.2021
6210 Clouds 22 1015 88 10000 6.17 180 08:32 11.08.2021
6211 Clear 23 1016 90 10000 2.85 230 00:39 11.08.2021
6212 Clear 23 1015 89 10000 3.97 252 22:32 10.08.2021
6213 Clouds 23 1014 78 10000 5.14 280 21:33 10.08.2021
6214 Clouds 24 1013 78 10000 5.14 260 20:38 10.08.2021
6215 Clouds 25 1013 73 10000 5.14 300 18:59 10.08.2021
6216 Clouds 27 1013 65 10000 6.17 340 16:49 10.08.2021
6217 Clouds 26 1013 65 10000 5.14 320 15:22 10.08.2021
6218 Clouds 25 1014 64 10000 6.17 320 13:29 10.08.2021
6219 Clouds 22 1014 78 10000 3.09 280 10:47 10.08.2021
6220 Clear 19 1014 80 10000 1.65 313 07:23 10.08.2021
6221 Clear 20 1014 79 10000 1.87 351 04:59 10.08.2021
6222 Clear 21 1016 78 10000 2.94 317 23:59 09.08.2021
6223 Clear 22 1016 78 10000 3.52 316 22:33 09.08.2021
6224 Clouds 23 1014 78 10000 5.14 320 21:37 09.08.2021
6225 Clouds 24 1014 68 10000 6.17 300 19:55 09.08.2021
6226 Clouds 25 1014 64 10000 6.17 340 17:57 09.08.2021
6227 Clouds 25 1015 60 10000 7.2 320 15:35 09.08.2021
6228 Clouds 24 1015 64 10000 5.14 340 14:26 09.08.2021
6229 Clouds 24 1015 64 10000 5.14 340 13:28 09.08.2021
6230 Clouds 22 1015 73 10000 5.14 360 11:47 09.08.2021
6231 Clouds 20 1015 77 8000 3.09 300 08:48 09.08.2021
6232 Clear 20 1015 76 10000 2.9 355 07:52 09.08.2021
6233 Clouds 23 1015 73 10000 6.17 340 21:30 08.08.2021
6234 Clouds 24 1015 68 10000 4.12 360 20:24 08.08.2021
6235 Clouds 26 1015 61 10000 6.17 340 16:59 08.08.2021
6236 Clouds 25 1015 60 10000 6.17 360 15:43 08.08.2021
6237 Clouds 25 1016 60 10000 5.14 20 13:54 08.08.2021
6238 Clouds 24 1016 60 10000 5.14 360 12:19 08.08.2021
6239 Clouds 22 1016 68 10000 4.12 340 10:34 08.08.2021
6240 Clouds 21 1015 76 10000 3.65 16 06:41 08.08.2021
6241 Clouds 22 1017 79 10000 3.85 0 00:44 08.08.2021
6242 Clouds 23 1017 78 10000 3.81 358 00:24 08.08.2021
6243 Clouds 22 1015 78 10000 6.17 360 21:43 07.08.2021
6244 Clouds 23 1015 78 10000 8.23 20 20:59 07.08.2021
6245 Clouds 25 1014 73 10000 7.2 360 18:18 07.08.2021
6246 Clouds 27 1015 65 10000 8.23 340 16:50 07.08.2021
6247 Clouds 27 1015 61 10000 8.23 360 15:36 07.08.2021
6248 Clouds 24 1015 73 10000 6.17 20 13:34 07.08.2021
6249 Clouds 22 1014 78 8000 4.12 320 10:28 07.08.2021
6250 Clear 21 1014 85 10000 2.1 359 06:31 07.08.2021
6251 Clouds 22 1013 83 10000 4.92 340 02:18 07.08.2021
6252 Clear 22 1013 83 10000 4.92 340 22:19 06.08.2021
6253 Clouds 24 1012 78 10000 7.15 340 20:34 06.08.2021
6254 Clouds 24 1013 78 10000 4.47 340 19:57 06.08.2021
6255 Clouds 25 1013 73 10000 6.71 360 18:45 06.08.2021
6256 Clouds 26 1013 69 10000 7.15 320 17:23 06.08.2021
6257 Clouds 23 1015 76 10000 3.58 320 11:22 06.08.2021
6258 Clouds 21 1014 83 10000 3.58 300 09:56 06.08.2021
6259 Clear 20 1014 82 10000 1.5 304 07:54 06.08.2021
6260 Clear 22 1016 79 10000 2.38 352 23:34 05.08.2021
6261 Clear 23 1015 77 10000 2.7 358 22:28 05.08.2021
6262 Clouds 24 1015 83 10000 6.17 20 20:47 05.08.2021
6263 Clouds 26 1015 78 10000 7.2 340 19:29 05.08.2021
6264 Clouds 26 1016 69 10000 5.81 20 16:53 05.08.2021
6265 Clouds 26 1017 69 10000 7.6 340 14:49 05.08.2021
6266 Clouds 25 1018 69 10000 2.57 320 11:34 05.08.2021
6267 Clouds 21 1017 83 8000 2.06 40 08:38 05.08.2021
6268 Clear 21 1016 90 10000 2.57 12 04:51 05.08.2021
6269 Clear 23 1019 87 10000 2.69 358 23:36 04.08.2021
6270 Clouds 24 1017 83 10000 5.14 360 21:44 04.08.2021
6271 Clouds 24 1017 83 10000 5.14 360 21:21 04.08.2021
6272 Clouds 26 1017 71 10000 7.6 360 18:22 04.08.2021
6273 Clear 27 1017 63 10000 7.6 360 16:40 04.08.2021
6274 Clouds 28 1017 69 10000 6.17 360 14:42 04.08.2021
6275 Clouds 25 1017 78 10000 3.09 280 11:20 04.08.2021
6276 Clear 22 1015 83 10000 4.02 340 04:54 04.08.2021
6277 Clouds 24 1014 73 10000 4.12 320 20:35 03.08.2021
6278 Clouds 25 1014 69 10000 7.2 360 19:58 03.08.2021
6279 Clouds 26 1015 69 10000 7.2 340 17:50 03.08.2021
6280 Clouds 26 1015 61 10000 5.81 340 16:23 03.08.2021
6281 Clouds 24 1015 64 10000 7.2 320 11:44 03.08.2021
6282 Clouds 23 1015 64 10000 4.12 60 10:39 03.08.2021
6283 Clouds 22 1015 87 10000 3.39 27 02:38 03.08.2021
6284 Clouds 26 1015 69 10000 9.26 360 17:34 02.08.2021
6285 Clouds 26 1015 65 10000 7.15 20 16:38 02.08.2021
6286 Clouds 26 1015 69 10000 7.2 360 14:51 02.08.2021
6287 Clouds 25 1016 69 10000 3.6 300 11:59 02.08.2021
6288 Clouds 24 1016 69 10000 3.6 300 11:34 02.08.2021
6289 Clouds 20 1016 72 10000 2.24 180 09:49 02.08.2021
6290 Clear 21 1018 68 10000 8.05 20 22:33 01.08.2021
6291 Clouds 25 1017 62 10000 10.73 360 18:19 01.08.2021
6292 Clear 26 1018 53 10000 7.15 60 13:38 01.08.2021
6293 Clouds 23 1018 56 10000 4.02 40 11:38 01.08.2021
6294 Clouds 19 1018 73 10000 3.68 36 08:36 01.08.2021
6295 Clear 21 1019 68 10000 7.15 360 03:47 01.08.2021
6296 Clear 21 1019 68 10000 7.15 360 22:48 31.07.2021
6297 Clouds 23 1018 68 10000 8.94 360 20:28 31.07.2021
6298 Clouds 26 1019 65 10000 7.15 20 16:59 31.07.2021
6299 Clouds 26 1019 65 10000 8.05 20 15:57 31.07.2021
6300 Clouds 25 1019 64 10000 6.71 20 12:27 31.07.2021
6301 Clouds 22 1017 84 10000 4.61 11 06:56 31.07.2021
6302 Clear 23 1016 78 10000 4.92 20 23:58 30.07.2021
6303 Clouds 25 1016 73 10000 4.12 360 20:28 30.07.2021
6304 Clouds 25 1015 75 10000 8.05 360 19:18 30.07.2021
6305 Clouds 24 1014 79 10000 3.57 350 22:30 29.07.2021
6306 Clouds 26 1014 69 10000 4.02 320 12:34 29.07.2021
6307 Clouds 23 1011 83 10000 7.15 360 05:23 29.07.2021
6308 Clouds 23 1011 83 10000 7.15 360 04:28 29.07.2021
6309 Clouds 24 1011 83 8000 5.36 340 20:54 28.07.2021
6310 Clouds 27 1011 69 10000 7.15 320 17:19 28.07.2021
6311 Clouds 23 1011 83 6000 2.68 320 10:54 28.07.2021
6312 Clouds 23 1010 83 10000 4.92 20 03:46 28.07.2021
6313 Clouds 24 1010 83 10000 4.92 20 21:37 27.07.2021
6314 Clear 25 1011 69 10000 7.15 20 18:30 27.07.2021
6315 Clear 25 1012 61 10000 7.15 20 14:51 27.07.2021
6316 Clouds 22 1012 73 10000 2.68 60 10:45 27.07.2021
6317 Clouds 21 1012 87 10000 3.8 42 07:31 27.07.2021
6318 Clouds 25 1016 69 10000 8.49 20 15:48 26.07.2021
6319 Clouds 25 1016 69 10000 8.49 20 15:48 26.07.2021
6320 Clouds 26 1016 65 10000 5.81 20 13:58 26.07.2021
6321 Clouds 22 1015 83 10000 5.36 20 21:44 25.07.2021
6322 Clouds 24 1015 78 10000 6.71 360 20:55 25.07.2021
6323 Clouds 26 1015 69 10000 7.15 360 17:45 25.07.2021
6324 Clouds 26 1016 69 10000 6.71 360 15:27 25.07.2021
6325 Clouds 22 1015 73 8000 2.24 40 10:30 25.07.2021
6326 Clouds 21 1015 77 8000 1.34 60 08:18 25.07.2021
6327 Clouds 25 1014 71 10000 4.92 20 20:23 24.07.2021
6328 Clouds 25 1014 73 10000 4.92 20 19:37 24.07.2021
6329 Clouds 25 1014 78 10000 4.92 20 11:59 24.07.2021
6330 Clear 24 1012 73 10000 7.15 20 21:47 23.07.2021
6331 Clouds 27 1014 69 10000 7.15 40 14:35 23.07.2021
6332 Clouds 26 1025 73 10000 5.81 20 12:40 23.07.2021
6333 Clear 23 1014 88 10000 4.92 20 22:53 22.07.2021
6334 Clear 29 1015 63 10000 7.15 20 15:27 22.07.2021
6335 Clear 25 1015 73 10000 2.68 360 11:19 22.07.2021
6336 Clouds 20 1015 78 10000 3.72 29 08:34 22.07.2021
6337 Clear 22 1015 88 10000 5.36 20 01:43 22.07.2021
6338 Clouds 23 1015 88 10000 5.36 20 21:42 21.07.2021
6339 Clouds 24 1015 88 10000 5.36 20 21:22 21.07.2021
6340 Clouds 23 1016 73 10000 4.02 20 11:52 21.07.2021
6341 Clouds 22 1016 64 10000 4.92 360 09:20 21.07.2021
6342 Clear 21 1016 68 10000 5.81 360 05:45 21.07.2021
6343 Clouds 22 1016 68 10000 5.81 360 21:54 20.07.2021
6344 Clouds 25 1016 60 10000 4.92 40 16:36 20.07.2021
6345 Clouds 25 1016 60 10000 7.15 20 15:28 20.07.2021
6346 Clouds 24 1017 64 10000 7.15 360 12:36 20.07.2021
6347 Clear 20 1016 85 10000 3.05 24 07:57 20.07.2021
6348 Clear 21 1015 77 10000 4.92 20 03:19 20.07.2021
6349 Clear 25 1015 66 10000 7.15 360 18:38 19.07.2021
6350 Clouds 25 1017 64 10000 4.02 340 12:52 19.07.2021
6351 Clear 18 1016 82 10000 2.15 19 07:29 19.07.2021
6352 Clear 29 1018 69 10000 5.81 20 17:21 18.07.2021
6353 Clouds 24 1019 88 6000 2.68 360 10:53 18.07.2021
6354 Clear 25 1017 65 10000 4.02 360 22:58 17.07.2021
6355 Clear 26 1017 65 10000 4.02 360 21:59 17.07.2021
6356 Clear 26 1017 65 10000 4.02 360 21:41 17.07.2021
6357 Clear 29 1017 61 10000 7.15 360 16:52 17.07.2021
6358 Clear 24 1016 68 8000 1.03 280 11:31 17.07.2021
6359 Clear 22 1014 78 10000 4.02 320 04:48 17.07.2021
6360 Clear 26 1013 69 8000 4.92 360 17:41 16.07.2021
6361 Clear 25 1020 69 5000 4.92 300 12:21 16.07.2021
6362 Clear 20 1012 81 10000 1.8 231 07:25 16.07.2021
6363 Clear 26 1011 73 10000 4.92 300 20:39 15.07.2021
6364 Clear 28 1013 61 10000 4.02 300 13:51 15.07.2021
6365 Clouds 21 1012 88 10000 0.89 220 09:51 15.07.2021
6366 Clear 22 1012 69 10000 5.81 360 00:31 15.07.2021
6367 Clear 26 1015 60 10000 4.12 340 16:55 14.07.2021
6368 Clear 25 1016 57 10000 4.12 40 12:48 14.07.2021
6369 Clear 20 1017 73 10000 8.05 360 04:44 14.07.2021
6370 Clouds 23 1018 64 10000 8.49 20 20:47 13.07.2021
6371 Clouds 24 1018 64 10000 10.73 20 19:52 13.07.2021
6372 Clouds 24 1018 64 10000 10.73 20 19:24 13.07.2021
6373 Clear 25 1018 60 10000 7.15 40 18:44 13.07.2021
6374 Clear 25 1018 60 10000 7.15 40 18:24 13.07.2021
6375 Clouds 26 1020 61 10000 5.81 40 15:31 13.07.2021
6376 Clouds 21 1020 73 10000 5.81 20 09:49 13.07.2021
6377 Clouds 21 1020 73 10000 5.81 20 00:19 13.07.2021
6378 Clouds 26 1020 73 6000 8.05 340 17:34 12.07.2021
6379 Clouds 26 1020 69 6000 5.81 20 15:21 12.07.2021
6380 Clouds 25 1017 83 10000 2.74 6 07:58 12.07.2021
6381 Clouds 34 1016 29 5000 2.06 180 21:58 11.07.2021
6382 Clouds 35 1015 38 5000 4.12 320 15:50 11.07.2021
6383 Clouds 29 1011 60 10000 2.74 243 04:42 11.07.2021
6384 Clear 33 1009 48 5000 4.92 360 17:38 10.07.2021
6385 Clouds 23 1009 82 10000 2.56 234 07:58 10.07.2021
6386 Clouds 24 1009 84 10000 2.6 236 07:22 10.07.2021
6387 Clear 28 1008 61 10000 4.02 360 20:42 09.07.2021
6388 Clear 28 1010 61 10000 4.92 20 14:52 09.07.2021
6389 Clear 27 1011 61 8000 2.68 60 12:55 09.07.2021
6390 Clear 22 1015 78 10000 7.15 20 01:35 09.07.2021
6391 Clear 22 1015 78 10000 7.15 20 22:52 08.07.2021
6392 Clouds 24 1016 73 10000 5.81 360 20:52 08.07.2021
6393 Clouds 26 1016 65 10000 7.15 20 18:41 08.07.2021
6394 Clouds 25 1018 69 10000 5.81 20 13:52 08.07.2021
6395 Clouds 25 1018 69 10000 5.81 20 13:30 08.07.2021
6396 Clouds 25 1018 69 10000 5.81 20 12:35 08.07.2021
6397 Clouds 25 1018 69 10000 5.81 20 12:35 08.07.2021
6398 Clouds 23 1018 69 10000 4.02 60 11:21 08.07.2021
6399 Clear 17 1018 81 10000 4.36 22 06:52 08.07.2021
6400 Clear 21 1011 68 10000 8.05 20 03:52 08.07.2021
6401 Clear 21 1019 68 10000 8.05 20 22:59 07.07.2021
6402 Clear 21 1019 68 10000 8.05 20 22:20 07.07.2021
6403 Clouds 22 1019 68 10000 8.05 20 21:45 07.07.2021
6404 Clouds 22 1019 68 10000 8.05 20 21:24 07.07.2021
6405 Clouds 24 1019 64 10000 8.05 20 19:59 07.07.2021
6406 Clouds 24 1019 64 10000 8.05 20 19:30 07.07.2021
6407 Clouds 24 1019 64 10000 8.05 20 19:30 07.07.2021
6408 Clouds 24 1019 64 10000 8.05 20 19:30 07.07.2021
6409 Clouds 24 1019 69 10000 9.39 20 18:55 07.07.2021
6410 Clouds 24 1020 64 10000 8.05 20 15:55 07.07.2021
6411 Clouds 25 1020 60 10000 7.15 20 14:58 07.07.2021
6412 Clouds 23 1019 66 10000 5.81 20 11:24 07.07.2021
6413 Clouds 21 1018 81 10000 4.28 19 07:23 07.07.2021
6414 Clouds 22 1017 73 10000 7.15 20 05:51 07.07.2021
6415 Clouds 21 1017 73 10000 7.15 20 02:55 07.07.2021
6416 Clouds 23 1017 73 10000 7.6 40 20:18 06.07.2021
6417 Clouds 24 1017 69 10000 8.94 340 18:57 06.07.2021
6418 Clouds 24 1017 69 10000 8.94 340 18:37 06.07.2021
6419 Clouds 25 1017 64 10000 8.05 20 17:43 06.07.2021
6420 Clouds 24 1018 69 10000 7.6 20 13:33 06.07.2021
6421 Clouds 21 1018 77 10000 3.58 20 09:44 06.07.2021
6422 Clouds 21 1017 77 10000 2.24 40 08:36 06.07.2021
6423 Clouds 21 1017 89 10000 3.6 33 07:39 06.07.2021
6424 Clouds 22 1018 87 10000 3.46 25 01:57 06.07.2021
6425 Clear 22 1018 87 10000 4.03 18 23:57 05.07.2021
6426 Clouds 23 1017 83 10000 5.14 360 21:58 05.07.2021
6427 Clouds 25 1016 69 10000 9.39 20 17:21 05.07.2021
6428 Clear 25 1017 69 10000 4.02 340 12:41 05.07.2021
6429 Clear 20 1017 83 10000 3.94 31 05:58 05.07.2021
6430 Clear 20 1017 83 10000 3.94 31 05:40 05.07.2021
6431 Clear 21 1019 82 10000 4.01 11 00:22 05.07.2021
6432 Clouds 23 1017 78 10000 6.17 20 20:53 04.07.2021
6433 Clouds 25 1018 69 10000 7.15 20 17:35 04.07.2021
6434 Clouds 25 1019 69 10000 9.39 20 14:36 04.07.2021
6435 Clouds 22 1019 73 10000 4.92 60 10:47 04.07.2021
6436 Clear 21 1019 91 10000 3.94 26 06:47 04.07.2021
6437 Clear 21 1018 78 10000 4.92 40 23:26 03.07.2021
6438 Clouds 24 1018 73 10000 7.6 20 19:46 03.07.2021
6439 Clouds 25 1020 69 10000 4.92 40 12:43 03.07.2021
6440 Clouds 23 1019 78 10000 4.47 20 11:29 03.07.2021
6441 Clouds 20 1019 91 6000 1.34 20 09:27 03.07.2021
6442 Clouds 19 1019 93 5000 1.34 20 08:45 03.07.2021
6443 Clear 23 1017 64 10000 4.92 360 22:21 02.07.2021
6444 Clouds 19 1018 88 10000 1.79 60 08:58 02.07.2021
6445 Clear 18 1017 76 10000 2.17 40 07:28 02.07.2021
6446 Clear 20 1018 77 10000 4.92 360 02:19 02.07.2021
6447 Clear 21 1018 77 10000 4.92 360 22:30 01.07.2021
6448 Clear 22 1018 77 10000 4.92 360 21:35 01.07.2021
6449 Clear 22 1018 77 10000 4.92 360 21:35 01.07.2021
6450 Clear 24 1017 64 10000 7.15 340 19:40 01.07.2021
6451 Clear 24 1017 64 10000 7.15 340 19:20 01.07.2021
6452 Clear 24 1017 64 10000 7.15 340 19:20 01.07.2021
6453 Clear 24 1017 69 10000 5.81 340 18:47 01.07.2021
6454 Clear 25 1017 64 10000 5.81 360 17:33 01.07.2021
6455 Clear 25 1018 64 10000 5.81 360 16:24 01.07.2021
6456 Clear 25 1018 60 10000 5.81 360 15:22 01.07.2021
6457 Clear 24 1018 64 10000 4.92 340 12:31 01.07.2021
6458 Clouds 21 1017 72 10000 2.68 340 09:42 01.07.2021
6459 Clear 21 1016 73 10000 4.02 20 03:18 01.07.2021
6460 Clear 21 1016 73 10000 4.02 20 23:18 30.06.2021
6461 Clouds 22 1016 73 10000 4.02 20 21:58 30.06.2021
6462 Clouds 22 1016 73 10000 4.02 20 21:19 30.06.2021
6463 Clouds 24 1015 69 10000 7.15 360 20:21 30.06.2021
6464 Clouds 25 1016 64 10000 4.92 320 16:45 30.06.2021
6465 Clouds 24 1016 64 10000 4.02 340 13:27 30.06.2021
6466 Clouds 21 1016 73 10000 2.68 340 10:43 30.06.2021
6467 Clear 20 1017 77 10000 3.54 5 00:53 30.06.2021
6468 Clouds 22 1017 77 10000 6.71 20 20:23 29.06.2021
6469 Clouds 25 1017 60 10000 8.94 360 17:47 29.06.2021
6470 Clouds 25 1017 60 10000 9.26 360 17:28 29.06.2021
6471 Clouds 24 1018 60 10000 9.39 20 15:51 29.06.2021
6472 Clouds 24 1018 60 10000 7.15 360 14:55 29.06.2021
6473 Clouds 24 1018 60 10000 7.15 360 14:55 29.06.2021
6474 Clouds 24 1018 60 10000 5.36 360 13:26 29.06.2021
6475 Clear 19 1019 64 10000 8.05 360 05:25 29.06.2021
6476 Clear 20 1019 64 10000 8.05 360 23:33 28.06.2021
6477 Clear 21 1019 64 10000 8.05 360 21:31 28.06.2021
6478 Clear 24 1019 56 10000 8.05 360 18:44 28.06.2021
6479 Clouds 24 1020 60 10000 8.94 360 17:20 28.06.2021
6480 Clouds 25 1020 58 10000 4.92 20 14:32 28.06.2021
6481 Clouds 24 1020 60 10000 4.02 40 12:24 28.06.2021
6482 Clear 21 1018 68 10000 4.92 360 23:55 27.06.2021
6483 Clear 21 1018 68 10000 4.92 360 22:32 27.06.2021
6484 Clouds 22 1018 68 10000 8.49 360 19:45 27.06.2021
6485 Clouds 24 1018 64 10000 8.49 20 18:56 27.06.2021
6486 Clouds 25 1018 60 10000 8.05 360 15:39 27.06.2021
6487 Clouds 24 1018 64 10000 5.36 340 11:23 27.06.2021
6488 Clouds 22 1016 78 10000 4.02 340 01:38 27.06.2021
6489 Clouds 22 1016 78 10000 4.02 340 22:30 26.06.2021
6490 Clouds 22 1016 78 10000 4.92 320 20:54 26.06.2021
6491 Clouds 23 1016 78 10000 4.92 320 20:35 26.06.2021
6492 Clouds 26 1017 65 10000 7.15 320 16:22 26.06.2021
6493 Clear 26 1017 61 10000 8.23 300 14:47 26.06.2021
6494 Clear 25 1017 60 10000 7.15 320 12:24 26.06.2021
6495 Clouds 21 1016 84 10000 4.83 226 07:33 26.06.2021
6496 Clear 22 1015 78 10000 4.47 280 23:24 25.06.2021
6497 Clouds 23 1015 78 10000 5.81 300 20:38 25.06.2021
6498 Clouds 25 1015 69 10000 7.15 280 18:59 25.06.2021
6499 Clear 26 1015 61 10000 8.05 280 17:31 25.06.2021
6500 Clear 26 1015 61 10000 8.49 280 16:42 25.06.2021
6501 Clear 26 1016 61 10000 7.15 300 13:58 25.06.2021
6502 Clouds 23 1015 73 6000 5.81 200 10:31 25.06.2021
6503 Clear 20 1014 87 10000 2.96 234 07:27 25.06.2021
6504 Clear 20 1014 87 10000 2.96 234 06:32 25.06.2021
6505 Clear 21 1014 78 10000 1.79 300 01:40 25.06.2021
6506 Clear 21 1014 78 10000 1.79 300 01:40 25.06.2021
6507 Clouds 23 1014 78 10000 1.79 300 21:49 24.06.2021
6508 Clouds 24 1014 78 10000 4.02 340 20:44 24.06.2021
6509 Clouds 24 1014 73 10000 5.81 340 20:21 24.06.2021
6510 Clouds 25 1014 73 10000 4.92 320 18:35 24.06.2021
6511 Clouds 26 1015 69 10000 8.05 320 15:24 24.06.2021
6512 Clouds 25 1015 73 10000 4.92 340 14:55 24.06.2021
6513 Clouds 25 1015 73 10000 4.02 300 13:39 24.06.2021
6514 Clouds 22 1015 73 8000 2.68 320 10:37 24.06.2021
6515 Clear 18 1014 100 6000 1.79 340 08:53 24.06.2021
6516 Clear 17 1015 84 10000 2.03 24 07:38 24.06.2021
6517 Clear 20 1015 77 10000 7.15 360 01:24 24.06.2021
6518 Clear 21 1015 77 10000 7.15 360 22:30 23.06.2021
6519 Clouds 21 1015 77 10000 7.15 360 21:35 23.06.2021
6520 Clouds 23 1015 73 10000 8.49 360 20:21 23.06.2021
6521 Clouds 24 1015 69 10000 8.49 340 18:32 23.06.2021
6522 Clear 24 1015 60 10000 7.15 360 17:21 23.06.2021
6523 Clear 24 1017 60 10000 7.15 360 14:32 23.06.2021
6524 Clear 24 1017 56 10000 4.92 20 12:50 23.06.2021
6525 Clear 23 1017 56 10000 4.02 40 11:44 23.06.2021
6526 Clouds 20 1017 60 10000 4.02 20 09:54 23.06.2021
6527 Clouds 19 1017 63 10000 2.68 40 08:42 23.06.2021
6528 Clouds 19 1017 79 10000 2.4 37 07:50 23.06.2021
6529 Clouds 19 1017 80 10000 2.63 25 05:55 23.06.2021
6530 Clouds 20 1019 64 10000 5.81 360 02:26 23.06.2021
6531 Clear 20 1019 64 10000 5.81 360 00:21 23.06.2021
6532 Clear 20 1019 64 10000 5.81 360 23:47 22.06.2021
6533 Clear 20 1019 64 10000 5.81 360 22:43 22.06.2021
6534 Clouds 21 1019 64 10000 5.81 360 21:47 22.06.2021
6535 Clouds 22 1018 60 10000 7.15 20 20:55 22.06.2021
6536 Clouds 22 1018 60 10000 7.15 360 19:23 22.06.2021
6537 Clouds 23 1018 60 10000 5.81 320 18:40 22.06.2021
6538 Clouds 23 1018 58 10000 7.15 340 18:18 22.06.2021
6539 Clouds 24 1018 56 10000 7.15 340 17:20 22.06.2021
6540 Clouds 24 1018 60 10000 5.81 360 15:48 22.06.2021
6541 Clouds 23 1019 56 10000 4.02 340 14:32 22.06.2021
6542 Clouds 24 1019 53 10000 4.92 320 13:43 22.06.2021
6543 Clouds 23 1021 49 10000 7.15 360 12:31 22.06.2021
6544 Clouds 21 1018 60 10000 0.89 360 10:57 22.06.2021
6545 Clouds 17 1018 77 10000 1.79 360 08:56 22.06.2021
6546 Clear 19 1018 68 10000 3.56 12 03:29 22.06.2021
6547 Clouds 20 1018 67 10000 3.88 3 00:37 22.06.2021
6548 Clouds 20 1018 68 10000 3.83 359 22:59 21.06.2021
6549 Clouds 21 1017 64 10000 5.81 360 21:38 21.06.2021
6550 Clouds 21 1017 64 10000 5.81 360 20:52 21.06.2021
6551 Clouds 23 1017 56 10000 5.81 20 19:56 21.06.2021
6552 Clouds 23 1017 56 10000 5.81 20 19:29 21.06.2021
6553 Clouds 23 1017 56 10000 7.15 20 18:20 21.06.2021
6554 Clouds 23 1017 68 8000 6.17 60 16:53 21.06.2021
6555 Clouds 23 1017 68 8000 6.17 60 16:29 21.06.2021
6556 Clouds 22 1018 73 8000 4.12 360 15:56 21.06.2021
6557 Clouds 21 1015 81 8000 5.81 20 15:19 21.06.2021
6558 Drizzle 20 1015 93 4000 8.49 20 13:40 21.06.2021
6559 Drizzle 21 1016 88 4000 2.68 300 12:55 21.06.2021
6560 Drizzle 21 1016 88 4000 2.68 300 12:31 21.06.2021
6561 Clouds 21 1016 77 10000 4.02 340 10:43 21.06.2021
6562 Clouds 21 1016 77 10000 4.02 340 10:22 21.06.2021
6563 Clouds 19 1016 72 10000 2.68 160 08:32 21.06.2021
6564 Clouds 19 1016 81 10000 1.25 162 07:56 21.06.2021
6565 Clear 19 1016 64 10000 4.92 340 01:20 21.06.2021
6566 Clear 19 1016 64 10000 4.92 340 23:52 20.06.2021
6567 Clear 20 1016 64 10000 4.92 340 23:32 20.06.2021
6568 Clear 20 1016 64 10000 4.92 340 22:47 20.06.2021
6569 Clouds 20 1016 64 10000 4.92 340 21:44 20.06.2021
6570 Clouds 22 1017 60 10000 4.92 340 20:26 20.06.2021
6571 Clouds 22 1017 60 10000 7.15 340 19:36 20.06.2021
6572 Clouds 23 1017 56 10000 4.92 320 18:44 20.06.2021
6573 Clouds 23 1018 56 10000 5.81 360 17:37 20.06.2021
6574 Clouds 24 1017 53 10000 4.02 360 16:39 20.06.2021
6575 Clouds 23 1019 56 10000 5.81 320 15:38 20.06.2021
6576 Clouds 23 1020 56 10000 8.05 360 14:55 20.06.2021
6577 Clouds 23 1020 56 10000 8.05 360 14:36 20.06.2021
6578 Clouds 23 1018 56 10000 4.92 320 13:19 20.06.2021
6579 Clouds 23 1018 56 10000 4.92 320 13:19 20.06.2021
6580 Clouds 22 1018 56 10000 2.68 40 11:48 20.06.2021
6581 Clouds 22 1018 56 10000 2.68 40 11:23 20.06.2021
6582 Clouds 19 1018 68 10000 1.79 80 09:49 20.06.2021
6583 Clouds 18 1018 72 10000 3.09 20 08:59 20.06.2021
6584 Clouds 19 1019 64 10000 6.71 20 02:25 20.06.2021
6585 Clouds 20 1019 64 10000 6.71 20 23:33 19.06.2021
6586 Clouds 20 1019 64 10000 6.71 20 22:43 19.06.2021
6587 Clouds 20 1019 64 10000 6.71 20 21:48 19.06.2021
6588 Clouds 21 1018 60 10000 7.15 360 20:37 19.06.2021
6589 Clouds 23 1018 60 10000 6.71 360 18:47 19.06.2021
6590 Clouds 24 1018 53 10000 5.81 20 17:53 19.06.2021
6591 Clouds 24 1019 51 10000 5.81 20 17:20 19.06.2021
6592 Clouds 23 1019 49 10000 7.15 20 15:50 19.06.2021
6593 Clouds 22 1021 60 10000 6.71 20 14:20 19.06.2021
6594 Clouds 21 1021 64 10000 4.47 360 12:45 19.06.2021
6595 Clouds 20 1019 64 10000 6.71 360 11:45 19.06.2021
6596 Clouds 20 1021 64 10000 6.71 360 10:42 19.06.2021
6597 Clouds 19 1018 66 10000 7.15 20 10:21 19.06.2021
6598 Clouds 15 1018 82 10000 1.03 0 08:48 19.06.2021
6599 Clouds 15 1018 73 10000 4.63 359 07:43 19.06.2021
6600 Clouds 16 1017 75 10000 4.41 6 05:54 19.06.2021
6601 Clouds 17 1019 67 10000 3.22 350 00:35 19.06.2021
6602 Clouds 18 1019 65 10000 3.06 350 23:59 18.06.2021
6603 Clouds 18 1019 65 10000 3.06 343 23:25 18.06.2021
6604 Clouds 18 1019 65 10000 3.06 343 22:47 18.06.2021
6605 Clouds 19 1018 63 10000 5.14 340 21:57 18.06.2021
6606 Clouds 20 1018 63 10000 5.14 340 21:28 18.06.2021
6607 Clouds 22 1018 56 10000 5.14 320 20:38 18.06.2021
6608 Clouds 22 1018 53 10000 5.14 340 19:18 18.06.2021
6609 Clouds 22 1018 53 10000 7.2 340 18:21 18.06.2021
6610 Clouds 22 1018 60 10000 5.14 340 17:18 18.06.2021
6611 Clouds 22 1017 56 10000 7.2 340 15:55 18.06.2021
6612 Clouds 22 1017 60 10000 8.23 320 14:56 18.06.2021
6613 Clouds 22 1017 60 10000 8.23 320 14:29 18.06.2021
6614 Clouds 21 1017 64 8000 6.17 360 13:30 18.06.2021
6615 Clouds 20 1017 73 8000 5.14 320 12:44 18.06.2021
6616 Clouds 20 1016 77 6000 6.17 340 11:56 18.06.2021
6617 Clouds 19 1018 85 6000 0.89 300 11:20 18.06.2021
6618 Clouds 19 1018 93 6000 0.89 300 10:51 18.06.2021
6619 Clouds 19 1018 93 6000 0.89 300 10:20 18.06.2021
6620 Clouds 19 1018 100 5000 1.79 260 09:29 18.06.2021
6621 Clouds 18 1017 93 5000 1.79 240 08:43 18.06.2021
6622 Clouds 19 1015 82 10000 4.86 217 07:48 18.06.2021
6623 Clouds 19 1014 83 10000 4.43 210 06:32 18.06.2021
6624 Clouds 20 1015 73 10000 4.02 300 00:41 18.06.2021
6625 Clouds 21 1015 73 10000 4.02 300 23:41 17.06.2021
6626 Clouds 21 1015 73 10000 4.02 300 22:44 17.06.2021
6627 Clouds 21 1015 73 10000 4.02 300 22:23 17.06.2021
6628 Clouds 21 1015 73 10000 4.02 300 21:38 17.06.2021
6629 Clouds 21 1015 73 10000 4.02 280 20:49 17.06.2021
6630 Clouds 21 1015 73 10000 4.02 280 20:23 17.06.2021
6631 Clouds 23 1015 69 10000 7.15 300 19:46 17.06.2021
6632 Clouds 24 1015 64 10000 8.94 300 18:33 17.06.2021
6633 Clouds 24 1015 60 10000 8.94 300 17:42 17.06.2021
6634 Clouds 24 1015 60 10000 8.94 300 17:19 17.06.2021
6635 Clouds 25 1015 64 10000 8.23 320 16:25 17.06.2021
6636 Clouds 24 1016 64 10000 8.23 280 14:58 17.06.2021
6637 Clouds 24 1016 64 10000 4.12 240 13:59 17.06.2021
6638 Clouds 23 1016 68 10000 6.17 300 12:50 17.06.2021
6639 Clouds 23 1016 68 10000 6.17 300 12:23 17.06.2021
6640 Clouds 22 1016 73 10000 4.12 220 10:54 17.06.2021
6641 Clouds 22 1016 73 10000 4.12 220 10:30 17.06.2021
6642